<
# Wetter Temperatur Luftdruck Luftfeuchtigkeit Sichtweite Windgeschwindigkeit Windrichtung Zeit
1 Snow -1 1012 95 58 7.95 278 17:29 01.02.2023
2 Snow 1 1013 86 6996 7.8 259 14:22 01.02.2023
3 Clouds 1 1014 85 6568 8.33 267 13:20 01.02.2023
4 Snow 1 1015 85 6089 8.02 273 12:27 01.02.2023
5 Snow 2 1015 88 6089 8.02 273 11:56 01.02.2023
6 Snow 0 1014 93 64 8.54 269 08:43 01.02.2023
7 Clouds 1 1017 85 10000 6.61 272 00:34 01.02.2023
8 Snow 1 1016 89 10000 7.95 280 21:28 31.01.2023
9 Snow 1 1016 95 10000 7.63 270 19:32 31.01.2023
10 Snow 2 1016 94 1966 7.56 265 18:29 31.01.2023
11 Clouds 0 1016 95 123 6.82 259 15:36 31.01.2023
12 Snow 0 1016 95 1704 7.02 256 15:18 31.01.2023
13 Snow 0 1016 94 5076 7.35 247 14:18 31.01.2023
14 Snow 0 1018 93 115 6.57 247 12:19 31.01.2023
15 Clouds 0 1020 90 6032 6.18 249 10:27 31.01.2023
16 Clouds 0 1020 90 6032 6.18 249 09:51 31.01.2023
17 Clouds -1 1020 93 5464 5.75 252 08:59 31.01.2023
18 Clouds -1 1020 93 5464 5.75 252 08:34 31.01.2023
19 Clouds -1 1021 93 5578 6.21 273 05:32 31.01.2023
20 Snow 0 1019 89 4481 6.83 295 23:54 30.01.2023
21 Snow 0 1019 88 1935 6.65 293 22:50 30.01.2023
22 Snow 0 1018 86 3997 6.96 293 22:22 30.01.2023
23 Clouds 0 1018 89 9454 6.98 293 20:47 30.01.2023
24 Snow 0 1017 90 10000 6.9 298 19:49 30.01.2023
25 Snow 0 1013 87 8965 8.76 293 17:28 30.01.2023
26 Clouds 1 1012 92 10000 9.13 287 15:35 30.01.2023
27 Snow 0 1011 91 552 8.75 280 14:26 30.01.2023
28 Snow 0 1011 92 2408 8.29 283 12:26 30.01.2023
29 Snow 1 1011 91 4727 8.95 286 10:43 30.01.2023
30 Snow -1 1010 94 6897 8.61 281 09:54 30.01.2023
31 Snow -1 1010 95 4689 8.32 278 08:48 30.01.2023
32 Snow -2 1011 94 460 6.89 255 06:40 30.01.2023
33 Clouds -3 1016 92 7211 6.26 238 01:38 30.01.2023
34 Clouds -4 1018 91 10000 5.27 239 23:34 29.01.2023
35 Clouds -4 1019 91 8840 4.73 234 22:37 29.01.2023
36 Clouds -4 1020 91 6793 4.45 232 21:35 29.01.2023
37 Clouds -4 1021 92 6481 4.29 229 20:36 29.01.2023
38 Clouds -4 1022 91 6675 3.85 227 19:33 29.01.2023
39 Clouds -4 1022 91 10000 3.63 226 18:42 29.01.2023
40 Clouds -3 1023 89 10000 3.4 226 17:31 29.01.2023
41 Clouds -3 1023 89 10000 3.41 236 16:20 29.01.2023
42 Clouds -3 1024 88 10000 3.4 240 14:43 29.01.2023
43 Clouds -4 1025 91 10000 3.36 241 13:25 29.01.2023
44 Clouds -4 1025 93 10000 3.36 241 12:39 29.01.2023
45 Clouds -4 1025 93 10000 3.36 241 12:39 29.01.2023
46 Clouds -4 1027 93 10000 2.95 248 12:21 29.01.2023
47 Clouds -5 1027 93 10000 2.95 248 11:45 29.01.2023
48 Clouds -5 1027 94 10000 2.7 242 11:25 29.01.2023
49 Clouds -6 1028 95 8430 2.47 237 08:56 29.01.2023
50 Clouds -6 1028 94 10000 1.9 238 07:18 29.01.2023
51 Clouds -6 1030 88 10000 1.01 243 00:36 29.01.2023
52 Clouds -6 1030 88 10000 0.98 263 21:57 28.01.2023
53 Clouds -7 1031 89 10000 1.09 267 20:34 28.01.2023
54 Clouds -7 1031 90 10000 0.75 252 19:47 28.01.2023
55 Clouds -6 1030 91 10000 0.5 335 18:23 28.01.2023
56 Clouds -5 1030 85 10000 1.04 326 16:59 28.01.2023
57 Clouds -5 1030 84 10000 1.04 326 16:59 28.01.2023
58 Clouds -4 1028 83 10000 0.67 308 16:20 28.01.2023
59 Clouds -4 1028 79 10000 0.67 308 15:38 28.01.2023
60 Clouds -4 1028 79 10000 0.67 308 15:38 28.01.2023
61 Clouds -3 1028 79 10000 0.54 327 14:21 28.01.2023
62 Clouds -3 1029 79 10000 1.29 346 12:49 28.01.2023
63 Clouds -4 1029 77 10000 1.37 352 11:54 28.01.2023
64 Clouds -4 1029 83 10000 1.36 356 10:34 28.01.2023
65 Clouds -5 1029 91 10000 1.59 9 06:52 28.01.2023
66 Clouds -4 1028 93 10000 1.32 21 01:40 28.01.2023
67 Clouds -4 1028 98 8603 1.56 48 00:25 28.01.2023
68 Clouds -3 1027 92 3711 2.62 35 20:59 27.01.2023
69 Snow -2 1026 94 1998 2.71 27 18:25 27.01.2023
70 Snow -2 1026 94 1998 2.71 27 17:57 27.01.2023
71 Snow -2 1025 94 1981 2.92 32 17:18 27.01.2023
72 Snow -2 1025 96 1981 2.92 32 16:34 27.01.2023
73 Snow -2 1025 96 106 2.95 29 14:57 27.01.2023
74 Snow -2 1025 96 48 2.92 27 14:25 27.01.2023
75 Snow -1 1025 96 28 2.59 29 12:57 27.01.2023
76 Snow -3 1024 95 40 2.12 36 08:42 27.01.2023
77 Snow -3 1023 95 918 1.52 29 06:20 27.01.2023
78 Snow -4 1022 97 3918 1.09 11 22:59 26.01.2023
79 Snow -4 1022 96 753 1.21 4 21:42 26.01.2023
80 Snow -4 1022 96 1527 1.11 355 20:39 26.01.2023
81 Snow -4 1022 97 616 1.02 348 19:54 26.01.2023
82 Snow -4 1022 94 479 0.77 334 17:55 26.01.2023
83 Clouds -4 1022 94 2273 1.21 335 16:29 26.01.2023
84 Clouds -4 1022 96 2273 1.21 335 15:58 26.01.2023
85 Clouds -3 1022 93 2273 1.21 335 15:32 26.01.2023
86 Clouds -4 1021 93 4193 1.42 332 14:59 26.01.2023
87 Clouds -3 1021 92 8822 1.33 330 13:32 26.01.2023
88 Clouds -4 1023 96 10000 1.64 338 12:24 26.01.2023
89 Clouds -6 1023 96 10000 1.19 343 10:33 26.01.2023
90 Clouds -6 1024 93 10000 0.76 335 09:44 26.01.2023
91 Clouds -7 1024 94 10000 0.53 313 08:40 26.01.2023
92 Clouds -7 1023 96 10000 0.64 316 06:27 26.01.2023
93 Clouds -6 1026 96 4864 0.8 269 23:40 25.01.2023
94 Clouds -6 1026 96 6733 0.84 267 22:43 25.01.2023
95 Clouds -6 1027 96 10000 0.7 230 21:25 25.01.2023
96 Clouds -6 1027 96 10000 0.7 230 20:59 25.01.2023
97 Clouds -6 1028 96 10000 0.64 218 18:24 25.01.2023
98 Clouds -4 1028 94 10000 0.63 196 15:58 25.01.2023
99 Clouds -3 1029 92 10000 0.54 198 14:30 25.01.2023
100 Clouds -4 1032 92 10000 1.23 213 11:53 25.01.2023
101 Clouds -5 1034 93 10000 1.28 180 09:52 25.01.2023
102 Clouds -5 1035 91 10000 1.28 174 09:18 25.01.2023
103 Clouds -5 1035 95 10000 1.48 168 06:26 25.01.2023
104 Clouds -4 1038 91 10000 1.34 149 00:30 25.01.2023
105 Clouds -6 1039 92 10000 1.32 132 21:55 24.01.2023
106 Clouds -6 1040 92 10000 1.25 120 21:27 24.01.2023
107 Clouds -5 1040 92 10000 1.19 114 19:37 24.01.2023
108 Clouds -5 1039 91 10000 1.18 116 18:30 24.01.2023
109 Clouds -4 1039 95 10000 1.5 94 17:18 24.01.2023
110 Clouds -4 1039 95 10000 1.5 94 16:52 24.01.2023
111 Clouds -3 1039 90 10000 1.64 92 14:27 24.01.2023
112 Clouds -3 1040 91 10000 2.02 93 12:24 24.01.2023
113 Clouds -3 1040 93 10000 2.29 82 10:30 24.01.2023
114 Clouds -3 1039 95 10000 2.24 97 08:20 24.01.2023
115 Clouds -3 1039 97 10000 2.24 97 07:50 24.01.2023
116 Clouds -4 1039 94 8564 2.38 81 05:21 24.01.2023
117 Clouds -4 1039 97 5660 2.12 82 00:44 24.01.2023
118 Clouds -3 1039 94 7944 2.3 78 23:35 23.01.2023
119 Clouds -3 1038 94 6177 2.02 65 21:50 23.01.2023
120 Clouds -2 1038 98 9008 2.36 72 19:45 23.01.2023
121 Clouds -3 1038 96 7814 2.51 58 17:44 23.01.2023
122 Clouds -2 1036 96 2215 2.06 59 15:33 23.01.2023
123 Clouds -2 1036 95 6147 2.34 68 13:58 23.01.2023
124 Clouds -2 1037 95 930 2.1 67 13:22 23.01.2023
125 Clouds -2 1037 95 930 2.1 67 12:45 23.01.2023
126 Clouds -2 1037 95 1889 1.98 72 11:43 23.01.2023
127 Clouds -3 1036 96 6060 2.27 65 08:27 23.01.2023
128 Clouds -3 1035 96 193 1.82 63 05:40 23.01.2023
129 Clouds -3 1033 96 257 1.95 45 23:22 22.01.2023
130 Clouds -3 1033 95 351 1.94 38 21:46 22.01.2023
131 Snow -3 1033 97 292 1.91 37 20:53 22.01.2023
132 Clouds -3 1032 96 60 1.88 44 19:53 22.01.2023
133 Clouds -3 1032 96 62 1.86 42 19:20 22.01.2023
134 Clouds -4 1031 98 63 1.9 46 17:58 22.01.2023
135 Clouds -4 1031 98 82 1.91 39 17:27 22.01.2023
136 Clouds -3 1031 97 82 1.91 39 16:55 22.01.2023
137 Clouds -3 1030 96 178 2.04 38 14:55 22.01.2023
138 Clouds -3 1030 96 138 2.01 43 13:49 22.01.2023
139 Clouds -3 1030 96 1000 2.15 45 12:53 22.01.2023
140 Snow -3 1030 96 548 2.15 49 11:56 22.01.2023
141 Snow -3 1029 96 41 2.18 46 09:55 22.01.2023
142 Snow -3 1029 97 41 2.7 41 08:44 22.01.2023
143 Snow -3 1027 96 30 3.99 38 02:54 22.01.2023
144 Snow -4 1027 96 106 5.74 12 23:42 21.01.2023
145 Snow -4 1027 97 113 6.18 13 22:47 21.01.2023
146 Snow -3 1028 95 3164 6.02 8 20:48 21.01.2023
147 Clouds -3 1029 92 8151 4.5 2 18:49 21.01.2023
148 Clouds -3 1029 88 10000 4.92 10 15:27 21.01.2023
149 Clouds -4 1029 91 10000 4.7 12 13:31 21.01.2023
150 Clouds -4 1029 89 10000 4.17 16 12:43 21.01.2023
151 Clouds -4 1029 91 10000 3.52 20 11:28 21.01.2023
152 Clouds -5 1029 92 10000 3.52 20 10:47 21.01.2023
153 Clouds -6 1028 95 2915 2.52 19 08:28 21.01.2023
154 Clouds -7 1026 92 6568 1.57 63 01:19 21.01.2023
155 Clouds -6 1024 91 10000 1.24 64 22:27 20.01.2023
156 Clouds -5 1024 90 10000 1.24 64 21:36 20.01.2023
157 Clouds -6 1023 95 10000 1.12 76 20:42 20.01.2023
158 Clouds -5 1021 92 10000 0.95 92 18:29 20.01.2023
159 Clouds -3 1019 82 10000 0.33 101 15:45 20.01.2023
160 Clouds -2 1018 77 10000 0.33 184 14:33 20.01.2023
161 Clouds -2 1017 78 10000 1.5 236 12:42 20.01.2023
162 Clouds -5 1016 90 10000 1.58 229 09:24 20.01.2023
163 Clouds -5 1014 88 10000 1.71 234 07:43 20.01.2023
164 Clouds -4 1012 91 10000 1.53 235 02:34 20.01.2023
165 Clouds -3 1009 90 10000 2.91 258 22:38 19.01.2023
166 Clouds -3 1009 90 10000 2.91 258 22:38 19.01.2023
167 Clouds -4 1009 92 10000 3.12 260 22:18 19.01.2023
168 Clouds -3 1008 91 10000 3.15 260 20:22 19.01.2023
169 Clouds -3 1007 92 10000 3.03 256 18:57 19.01.2023
170 Snow -3 1005 93 364 2.38 262 15:35 19.01.2023
171 Snow -3 1005 84 4299 4.97 226 10:52 19.01.2023
172 Clouds -4 1005 87 7785 4.67 220 08:59 19.01.2023
173 Clouds -4 1005 87 7785 4.67 220 08:59 19.01.2023
174 Clouds -5 1003 82 10000 2.42 210 23:30 18.01.2023
175 Clouds -6 1002 86 10000 2.01 203 20:55 18.01.2023
176 Clouds -5 1002 84 10000 1.68 216 20:19 18.01.2023
177 Clouds -5 1002 89 10000 1.68 216 19:36 18.01.2023
178 Clouds -5 1000 88 10000 1.21 228 17:33 18.01.2023
179 Clouds -2 997 77 10000 2 285 15:18 18.01.2023
180 Clouds -2 996 74 10000 1.97 296 13:27 18.01.2023
181 Clouds -4 995 86 10000 1.29 322 10:41 18.01.2023
182 Clouds -6 993 90 10000 0.91 14 08:18 18.01.2023
183 Clouds -5 991 90 10000 0.72 14 01:26 18.01.2023
184 Clouds -5 992 90 10000 0.46 24 23:32 17.01.2023
185 Clouds -5 991 89 10000 0.24 180 20:32 17.01.2023
186 Clouds -4 991 90 10000 0.49 164 19:33 17.01.2023
187 Clouds -4 990 90 10000 1.05 190 18:18 17.01.2023
188 Clouds -2 989 81 10000 1.88 240 16:24 17.01.2023
189 Clouds -1 988 80 10000 3.14 242 14:55 17.01.2023
190 Clear -1 987 80 10000 3.66 254 13:47 17.01.2023
191 Snow -2 987 87 10000 4.73 255 12:27 17.01.2023
192 Snow -2 987 91 10000 4.72 255 11:38 17.01.2023
193 Snow -3 987 96 5377 5.04 254 09:34 17.01.2023
194 Snow -2 985 96 1999 5.39 257 07:53 17.01.2023
195 Snow -1 981 93 28 6.23 246 03:55 17.01.2023
196 Snow 0 979 93 3694 6.01 214 00:57 17.01.2023
197 Snow 0 979 91 3922 5.95 211 23:32 16.01.2023
198 Snow 0 979 81 2336 7.28 193 21:52 16.01.2023
199 Clouds 1 980 80 10000 8.52 164 20:27 16.01.2023
200 Clouds 0 980 80 10000 8.52 164 19:35 16.01.2023
201 Clouds 0 981 80 10000 8.29 159 18:53 16.01.2023
202 Clouds 0 983 80 10000 8 169 18:21 16.01.2023
203 Clouds 1 983 79 10000 8 169 17:34 16.01.2023
204 Snow 1 986 80 10000 7.42 176 14:38 16.01.2023
205 Snow 1 988 74 10000 6.86 173 13:38 16.01.2023
206 Clouds 1 992 80 10000 5.46 168 10:53 16.01.2023
207 Clouds 0 993 84 10000 4.34 170 10:18 16.01.2023
208 Clouds 1 1001 84 10000 6.99 228 23:38 15.01.2023
209 Snow 1 1002 83 5188 6.88 233 22:26 15.01.2023
210 Snow 1 1003 78 5459 6.85 233 20:40 15.01.2023
211 Clouds 2 1003 76 10000 7.33 236 19:49 15.01.2023
212 Snow 2 1002 77 8148 7.51 234 17:46 15.01.2023
213 Clouds 2 1001 71 10000 8.66 236 16:18 15.01.2023
214 Clouds 1 1002 83 10000 7.25 229 12:34 15.01.2023
215 Clouds 1 1001 84 7024 7.12 229 11:36 15.01.2023
216 Clouds 1 1000 85 10000 6.73 231 10:28 15.01.2023
217 Clouds 1 1000 84 10000 6.73 231 09:35 15.01.2023
218 Rain 5 997 95 6645 7.08 228 01:48 15.01.2023
219 Clouds 5 999 95 10000 8.19 216 22:57 14.01.2023
220 Clouds 5 999 95 10000 8.87 217 21:59 14.01.2023
221 Clouds 5 999 96 10000 8.87 217 21:36 14.01.2023
222 Clouds 5 1000 96 10000 8.84 217 21:18 14.01.2023
223 Clouds 4 1000 96 10000 8.84 217 20:39 14.01.2023
224 Rain 4 1001 96 10000 8 214 18:40 14.01.2023
225 Rain 3 1003 95 7570 7.86 209 16:59 14.01.2023
226 Rain 2 1005 94 2158 8.33 197 15:28 14.01.2023
227 Rain 2 1007 94 2757 7.36 195 14:25 14.01.2023
228 Rain 2 1007 93 2757 7.36 195 13:42 14.01.2023
229 Rain 2 1011 90 10000 5.98 202 11:46 14.01.2023
230 Clouds 2 1013 86 10000 5.5 197 10:46 14.01.2023
231 Clouds 1 1014 90 10000 5.15 227 08:19 14.01.2023
232 Rain 2 1013 93 10000 6.63 253 23:36 13.01.2023
233 Rain 2 1013 93 10000 6.88 252 22:47 13.01.2023
234 Clouds 2 1012 93 8973 6.99 252 22:29 13.01.2023
235 Rain 2 1012 91 8973 6.99 252 21:45 13.01.2023
236 Clouds 3 1011 88 10000 6.93 248 19:43 13.01.2023
237 Clouds 2 1009 91 8107 7.05 247 18:21 13.01.2023
238 Clouds 2 1008 92 4786 7.1 246 16:45 13.01.2023
239 Rain 3 1007 84 10000 7.73 247 13:37 13.01.2023
240 Clouds 4 1006 78 10000 7.82 248 12:20 13.01.2023
241 Clouds 3 1006 83 10000 6.72 239 10:27 13.01.2023
242 Clouds 3 1006 85 10000 6.72 239 09:46 13.01.2023
243 Clouds 3 1005 86 10000 6.02 232 08:56 13.01.2023
244 Clouds 3 1005 84 10000 5.69 231 08:27 13.01.2023
245 Clouds 3 1005 90 10000 6.48 242 06:53 13.01.2023
246 Rain 5 1004 89 10000 7.16 232 05:23 13.01.2023
247 Clouds 5 1005 95 8621 7.94 232 00:37 13.01.2023
248 Rain 5 1006 95 5869 8.15 231 22:44 12.01.2023
249 Rain 5 1006 95 3709 8.25 226 20:55 12.01.2023
250 Rain 5 1007 95 3245 7.41 224 19:54 12.01.2023
251 Rain 5 1007 95 6457 7.54 230 17:53 12.01.2023
252 Clouds 5 1007 96 6826 7.34 228 16:47 12.01.2023
253 Clouds 5 1007 96 7506 7.74 234 14:45 12.01.2023
254 Clouds 5 1007 96 7506 7.74 234 14:45 12.01.2023
255 Clouds 5 1007 96 7506 7.74 234 14:45 12.01.2023
256 Rain 5 1007 95 8540 8.1 236 14:23 12.01.2023
257 Rain 4 1007 94 6471 8 238 12:56 12.01.2023
258 Clouds 4 1008 93 4211 9.33 222 10:54 12.01.2023
259 Rain 4 1008 93 3894 9.23 219 09:29 12.01.2023
260 Clouds 3 1011 93 5146 7.65 227 05:48 12.01.2023
261 Clouds 3 1013 88 10000 7.15 230 00:21 12.01.2023
262 Clouds 2 1013 92 10000 7.15 230 23:41 11.01.2023
263 Clouds 2 1014 91 10000 6.07 229 23:22 11.01.2023
264 Clouds 2 1014 89 10000 6.07 229 22:42 11.01.2023
265 Clouds 3 1014 89 10000 5.01 234 20:53 11.01.2023
266 Clouds 4 1013 91 10000 4.06 248 18:46 11.01.2023
267 Clouds 4 1012 92 10000 4.68 258 17:27 11.01.2023
268 Clouds 5 1011 97 10000 4.63 259 15:30 11.01.2023
269 Rain 5 1010 97 4419 4.49 231 13:53 11.01.2023
270 Rain 5 1010 96 5257 4.7 225 12:21 11.01.2023
271 Rain 4 1010 96 3851 4.24 215 10:47 11.01.2023
272 Rain 4 1010 96 4428 4.52 207 08:21 11.01.2023
273 Clouds 3 1011 95 5190 4.66 207 07:26 11.01.2023
274 Clouds 2 1012 93 5175 4.82 205 03:56 11.01.2023
275 Snow 1 1015 91 3246 6.47 198 22:46 10.01.2023
276 Snow 1 1016 88 9639 6.37 203 21:44 10.01.2023
277 Snow 1 1017 83 10000 5.83 200 20:43 10.01.2023
278 Snow 1 1017 83 10000 4.97 200 19:51 10.01.2023
279 Clouds 1 1018 83 10000 4.11 199 18:48 10.01.2023
280 Clouds 1 1018 83 10000 4.11 199 18:48 10.01.2023
281 Clouds 1 1019 84 10000 4.08 207 17:59 10.01.2023
282 Clouds 2 1019 86 10000 4.48 216 16:47 10.01.2023
283 Clouds 2 1019 87 10000 4.79 227 15:31 10.01.2023
284 Clouds 2 1019 88 10000 4.46 227 14:35 10.01.2023
285 Clouds 2 1019 90 10000 4.47 238 12:31 10.01.2023
286 Clouds 1 1018 91 5794 3.71 236 09:42 10.01.2023
287 Clouds 1 1018 93 10000 3.57 250 08:37 10.01.2023
288 Clouds 1 1016 92 10000 3.92 256 07:55 10.01.2023
289 Clouds 1 1014 94 10000 5.39 278 04:59 10.01.2023
290 Clouds 2 1008 93 10000 4.17 259 23:57 09.01.2023
291 Clouds 2 1006 91 5692 4.22 259 21:57 09.01.2023
292 Clouds 2 1005 90 5152 4.49 258 20:46 09.01.2023
293 Clouds 2 1004 89 5114 4.35 246 19:50 09.01.2023
294 Clouds 3 1002 87 8050 4.92 229 18:21 09.01.2023
295 Clouds 3 1002 83 8050 4.92 229 17:49 09.01.2023
296 Clouds 3 1001 84 10000 4.8 229 16:34 09.01.2023
297 Clouds 3 1001 85 10000 5.5 228 15:31 09.01.2023
298 Clouds 4 1000 82 10000 5.69 223 14:53 09.01.2023
299 Clouds 4 1000 82 10000 5.69 223 14:33 09.01.2023
300 Clouds 3 1000 83 10000 6.12 232 12:54 09.01.2023
301 Clouds 3 999 86 10000 5.51 236 11:51 09.01.2023
302 Clouds 3 1000 87 10000 5.75 230 11:19 09.01.2023
303 Clouds 3 996 94 5181 3.51 230 06:56 09.01.2023
304 Rain 4 997 88 4713 2.62 152 02:55 09.01.2023
305 Clouds 3 998 90 10000 2.01 145 00:58 09.01.2023
306 Clouds 4 1001 88 10000 2.89 184 21:50 08.01.2023
307 Clouds 4 1001 88 10000 3.82 195 21:21 08.01.2023
308 Clouds 4 1002 88 10000 3.95 194 20:33 08.01.2023
309 Clouds 4 1003 89 10000 3.41 198 18:45 08.01.2023
310 Clouds 4 1003 89 10000 3.6 205 17:21 08.01.2023
311 Clouds 5 1003 90 10000 3.6 205 16:37 08.01.2023
312 Clouds 5 1004 90 5389 2.98 197 15:34 08.01.2023
313 Clouds 5 1005 91 10000 2.89 205 13:58 08.01.2023
314 Clouds 5 1005 93 10000 2.89 205 13:30 08.01.2023
315 Clouds 5 1005 93 10000 3.69 221 12:43 08.01.2023
316 Rain 4 1006 95 5921 3.25 203 10:28 08.01.2023
317 Rain 4 1006 94 5921 3.25 203 09:36 08.01.2023
318 Rain 5 1006 92 8217 3.32 203 07:47 08.01.2023
319 Clouds 5 1009 80 10000 4.52 202 23:59 07.01.2023
320 Clouds 5 1010 80 10000 4.39 204 22:47 07.01.2023
321 Clouds 5 1010 80 10000 3.75 193 22:24 07.01.2023
322 Clouds 4 1010 80 10000 3.75 193 21:47 07.01.2023
323 Clouds 4 1011 78 10000 3.76 192 20:43 07.01.2023
324 Clouds 5 1011 79 10000 4.18 197 20:22 07.01.2023
325 Clouds 5 1011 79 10000 4.14 193 18:33 07.01.2023
326 Clouds 5 1012 79 10000 4.24 183 17:50 07.01.2023
327 Clouds 5 1012 79 10000 4.1 176 17:28 07.01.2023
328 Clouds 5 1012 81 10000 4.1 176 16:37 07.01.2023
329 Clouds 5 1013 84 10000 3.85 179 15:46 07.01.2023
330 Clouds 5 1013 83 10000 3.7 179 15:26 07.01.2023
331 Clouds 6 1014 83 10000 3.83 185 14:27 07.01.2023
332 Clouds 6 1014 83 10000 3.83 185 13:47 07.01.2023
333 Clouds 6 1015 83 10000 2.77 187 13:24 07.01.2023
334 Clouds 6 1016 88 10000 2.64 187 12:22 07.01.2023
335 Clouds 6 1016 92 10000 2.64 187 11:36 07.01.2023
336 Clouds 5 1017 95 10000 2.11 189 10:25 07.01.2023
337 Clouds 5 1017 95 10000 2.22 195 08:25 07.01.2023
338 Clouds 5 1017 95 9859 2.01 185 07:44 07.01.2023
339 Clouds 5 1017 95 8971 2.34 194 06:50 07.01.2023
340 Clouds 5 1020 96 6470 2.57 211 00:43 07.01.2023
341 Clouds 5 1020 96 10000 2.68 223 22:23 06.01.2023
342 Clouds 5 1020 93 10000 2.68 223 21:58 06.01.2023
343 Clouds 5 1020 93 10000 3.27 229 21:18 06.01.2023
344 Clouds 5 1020 91 10000 3.29 232 19:57 06.01.2023
345 Clouds 5 1019 91 10000 3.28 238 19:39 06.01.2023
346 Clouds 5 1019 91 10000 3.48 246 19:21 06.01.2023
347 Clouds 5 1019 92 10000 3.48 246 18:34 06.01.2023
348 Clouds 5 1018 91 10000 4.39 256 16:56 06.01.2023
349 Clouds 6 1018 91 6324 4.3 248 16:24 06.01.2023
350 Clouds 6 1018 91 6324 4.3 248 15:55 06.01.2023
351 Clouds 6 1018 91 6324 4.3 248 15:37 06.01.2023
352 Clouds 6 1017 93 10000 5.02 251 14:40 06.01.2023
353 Clouds 6 1017 91 10000 5.71 239 12:25 06.01.2023
354 Clouds 6 1017 91 10000 5.38 230 10:58 06.01.2023
355 Clouds 5 1017 90 10000 4.62 227 08:55 06.01.2023
356 Clouds 5 1017 94 6560 3.51 225 06:42 06.01.2023
357 Clouds 4 1021 94 10000 2.1 210 00:18 06.01.2023
358 Clouds 4 1021 93 10000 2.29 228 22:55 05.01.2023
359 Clouds 4 1021 95 10000 2.85 238 21:47 05.01.2023
360 Rain 4 1021 95 5521 3.59 260 19:29 05.01.2023
361 Clouds 5 1020 93 10000 3.73 279 17:28 05.01.2023
362 Clouds 5 1019 92 9708 4.79 281 16:20 05.01.2023
363 Clouds 5 1019 92 9708 4.79 281 15:46 05.01.2023
364 Clouds 5 1019 93 10000 5.6 285 14:36 05.01.2023
365 Rain 5 1017 94 9846 6.87 283 12:43 05.01.2023
366 Rain 5 1017 94 10000 7.04 281 11:50 05.01.2023
367 Clouds 5 1016 94 10000 7.53 276 09:54 05.01.2023
368 Clouds 5 1014 94 10000 8.17 276 08:29 05.01.2023
369 Clouds 5 1014 93 10000 8.09 273 07:19 05.01.2023
370 Clouds 5 1013 92 10000 8.16 271 04:57 05.01.2023
371 Rain 7 1012 93 10000 8.86 257 22:55 04.01.2023
372 Clouds 7 1012 96 10000 9.07 257 21:33 04.01.2023
373 Rain 7 1012 94 10000 8.68 254 20:36 04.01.2023
374 Clouds 7 1011 93 10000 8.14 247 19:56 04.01.2023
375 Clouds 6 1011 94 10000 8.14 247 19:32 04.01.2023
376 Clouds 6 1012 94 4052 7.58 240 18:30 04.01.2023
377 Clouds 5 1013 95 3226 7.97 239 16:32 04.01.2023
378 Clouds 5 1013 95 5940 8.35 239 15:40 04.01.2023
379 Clouds 5 1015 95 3669 8.44 235 13:53 04.01.2023
380 Clouds 4 1016 92 5258 8.79 231 11:41 04.01.2023
381 Clouds 4 1016 93 5531 8.37 227 11:20 04.01.2023
382 Rain 4 1016 93 5531 8.37 227 10:42 04.01.2023
383 Clouds 4 1017 93 4035 8.32 229 10:21 04.01.2023
384 Rain 3 1018 94 10000 8.1 220 07:40 04.01.2023
385 Clouds 2 1025 87 10000 4.12 204 01:48 04.01.2023
386 Clouds 2 1026 89 10000 3.45 199 00:31 04.01.2023
387 Clouds 2 1027 91 10000 3.15 202 23:34 03.01.2023
388 Clouds 2 1028 89 10000 3.16 208 22:41 03.01.2023
389 Clouds 2 1028 88 10000 3.08 209 20:53 03.01.2023
390 Clouds 2 1028 88 10000 3.71 223 19:23 03.01.2023
391 Clouds 3 1028 87 10000 3.66 227 17:36 03.01.2023
392 Rain 4 1028 84 10000 2.76 224 15:54 03.01.2023
393 Clouds 4 1028 76 10000 3.45 239 13:55 03.01.2023
394 Clouds 4 1028 82 10000 3.22 237 13:30 03.01.2023
395 Clouds 4 1028 82 10000 3.22 237 13:30 03.01.2023
396 Clouds 4 1028 82 10000 3.37 241 12:57 03.01.2023
397 Clouds 3 1028 84 10000 3.37 241 12:30 03.01.2023
398 Clouds 1 1029 87 10000 3.23 251 10:32 03.01.2023
399 Clouds 2 1027 88 10000 3.98 270 07:29 03.01.2023
400 Clouds 3 1026 91 10000 4.2 263 04:22 03.01.2023
401 Clouds 3 1026 92 10000 4.2 263 03:43 03.01.2023
402 Clouds 4 1025 92 10000 4.61 252 01:39 03.01.2023
403 Rain 4 1023 92 10000 3.89 260 22:42 02.01.2023
404 Clouds 4 1022 92 10000 4.71 256 22:18 02.01.2023
405 Rain 5 1022 94 10000 4.17 252 20:40 02.01.2023
406 Rain 5 1021 91 10000 4.42 252 19:44 02.01.2023
407 Clouds 6 1019 89 10000 4.48 244 17:29 02.01.2023
408 Rain 7 1017 90 9209 5.65 257 15:19 02.01.2023
409 Rain 9 1015 75 10000 7.89 227 13:23 02.01.2023
410 Clouds 10 1016 65 10000 7.57 228 11:41 02.01.2023
411 Clouds 10 1015 65 10000 6.47 223 10:34 02.01.2023
412 Clouds 10 1014 63 10000 4.51 208 07:33 02.01.2023
413 Clouds 9 1015 72 10000 5.38 207 00:58 02.01.2023
414 Rain 8 1017 89 10000 3.3 198 22:20 01.01.2023
415 Rain 8 1018 85 10000 3.81 210 21:28 01.01.2023
416 Rain 8 1018 80 10000 3.81 210 20:47 01.01.2023
417 Rain 9 1018 76 10000 3.7 211 19:42 01.01.2023
418 Clouds 9 1018 75 10000 4.08 223 17:59 01.01.2023
419 Clouds 9 1018 74 10000 4.21 230 17:21 01.01.2023
420 Clouds 9 1018 73 10000 4.21 230 16:32 01.01.2023
421 Clouds 10 1017 70 10000 5.54 229 14:59 01.01.2023
422 Clouds 10 1017 69 10000 6.08 235 13:40 01.01.2023
423 Clouds 10 1017 68 10000 6.7 236 12:40 01.01.2023
424 Clouds 10 1016 69 10000 6.9 233 11:37 01.01.2023
425 Clouds 10 1016 69 10000 7.52 230 10:36 01.01.2023
426 Clouds 9 1015 68 10000 7.41 228 08:54 01.01.2023
427 Clouds 9 1014 68 10000 8.02 227 08:21 01.01.2023
428 Clouds 9 1014 65 10000 7.29 229 07:21 01.01.2023
429 Clouds 11 1012 61 10000 7.72 228 01:45 01.01.2023
430 Clouds 11 1012 65 10000 8.42 230 23:43 31.12.2022
431 Clouds 11 1012 68 10000 8.71 227 22:33 31.12.2022
432 Clouds 11 1011 72 10000 7.7 221 21:37 31.12.2022
433 Clouds 11 1011 72 10000 7.83 225 21:18 31.12.2022
434 Clouds 11 1011 81 10000 7.78 226 19:41 31.12.2022
435 Clouds 11 1011 81 10000 7.03 225 18:44 31.12.2022
436 Clouds 12 1010 80 10000 7.66 232 18:19 31.12.2022
437 Clouds 12 1010 79 10000 7.66 232 17:47 31.12.2022
438 Clouds 12 1010 78 10000 8.65 235 16:59 31.12.2022
439 Clouds 12 1009 77 10000 9.17 237 16:24 31.12.2022
440 Clouds 12 1009 80 10000 9.6 237 14:40 31.12.2022
441 Clouds 12 1009 83 10000 9.18 236 13:43 31.12.2022
442 Clouds 12 1009 87 10000 8.94 237 12:40 31.12.2022
443 Clouds 11 1009 89 10000 9.01 238 12:19 31.12.2022
444 Clouds 12 1009 85 10000 9.01 238 11:50 31.12.2022
445 Clouds 11 1009 90 10000 9.23 233 10:37 31.12.2022
446 Clouds 11 1008 91 10000 9.2 228 09:55 31.12.2022
447 Clouds 11 1008 91 10000 9.2 228 09:35 31.12.2022
448 Clouds 10 1007 91 10000 9.25 233 07:49 31.12.2022
449 Clouds 7 1007 95 10000 7.3 228 00:43 31.12.2022
450 Clouds 7 1007 94 10000 7.48 225 23:47 30.12.2022
451 Clouds 6 1006 94 7659 7.42 222 22:50 30.12.2022
452 Clouds 5 1006 93 10000 8.59 224 21:50 30.12.2022
453 Clouds 5 1006 93 10000 8.59 224 21:30 30.12.2022
454 Rain 4 1006 92 10000 7.78 188 19:24 30.12.2022
455 Rain 4 1007 77 10000 7.42 193 17:52 30.12.2022
456 Rain 4 1007 76 10000 7.42 193 17:33 30.12.2022
457 Clouds 4 1008 76 10000 6.42 178 15:58 30.12.2022
458 Clouds 4 1009 74 10000 5.89 183 14:54 30.12.2022
459 Clouds 4 1012 76 10000 4.41 197 12:50 30.12.2022
460 Clouds 2 1014 84 10000 3.2 214 08:22 30.12.2022
461 Clouds 3 1013 80 10000 5.08 246 03:40 30.12.2022
462 Clouds 4 1011 77 10000 5.48 238 02:24 30.12.2022
463 Clouds 4 1010 83 10000 5.61 243 22:58 29.12.2022
464 Clouds 4 1009 79 10000 5.64 237 21:32 29.12.2022
465 Clouds 5 1008 79 10000 5.43 233 20:54 29.12.2022
466 Clouds 5 1008 78 10000 5.56 231 20:26 29.12.2022
467 Clouds 5 1007 85 10000 5.46 232 18:32 29.12.2022
468 Clouds 5 1007 85 10000 6.04 242 17:37 29.12.2022
469 Rain 5 1006 86 10000 6.29 240 16:56 29.12.2022
470 Clouds 6 1006 82 10000 6.29 240 16:33 29.12.2022
471 Clouds 6 1006 78 10000 7.15 239 15:44 29.12.2022
472 Clouds 7 1005 80 10000 8.37 234 13:34 29.12.2022
473 Clouds 7 1005 80 10000 8.37 234 13:34 29.12.2022
474 Clouds 6 1005 87 10000 8.25 233 11:48 29.12.2022
475 Clouds 7 1004 87 10000 8.83 219 09:20 29.12.2022
476 Clouds 4 1007 93 10000 7.47 223 00:37 29.12.2022
477 Rain 4 1007 91 10000 7.69 219 23:28 28.12.2022
478 Clouds 4 1008 90 10000 7.11 217 21:44 28.12.2022
479 Rain 4 1009 89 10000 7.27 217 21:18 28.12.2022
480 Clouds 4 1010 88 10000 6.61 213 19:38 28.12.2022
481 Clouds 4 1012 88 10000 5.78 217 16:58 28.12.2022
482 Clouds 4 1012 88 10000 5.36 217 15:38 28.12.2022
483 Clouds 4 1014 90 10000 5.73 228 12:59 28.12.2022
484 Clouds 3 1014 92 10000 5.87 231 12:24 28.12.2022
485 Clouds 3 1014 92 9767 6.18 228 11:29 28.12.2022
486 Clouds 2 1015 93 10000 6.55 224 09:19 28.12.2022
487 Snow 2 1015 92 5337 6.83 214 07:28 28.12.2022
488 Snow 1 1016 94 5217 6.36 213 06:43 28.12.2022
489 Clouds 0 1022 88 10000 3.73 212 00:24 28.12.2022
490 Clouds 1 1024 91 10000 3.7 217 20:31 27.12.2022
491 Clouds 1 1024 92 10000 3.74 221 19:41 27.12.2022
492 Clouds 1 1024 86 10000 3.8 235 17:58 27.12.2022
493 Clouds 1 1025 86 10000 3.7 240 16:43 27.12.2022
494 Clouds 1 1025 86 10000 3.92 248 15:31 27.12.2022
495 Clouds 1 1025 89 10000 4.97 254 13:57 27.12.2022
496 Snow 1 1025 90 6376 5.04 255 11:30 27.12.2022
497 Snow 1 1025 90 6376 5.04 255 11:30 27.12.2022
498 Snow 0 1024 92 6099 5.76 259 09:47 27.12.2022
499 Snow 0 1024 91 8193 6.31 261 09:23 27.12.2022
500 Clouds 0 1023 91 10000 6.64 255 08:21 27.12.2022
501 Clouds -1 1022 92 10000 5.19 240 04:32 27.12.2022
502 Clouds -1 1019 95 10000 4.84 268 22:48 26.12.2022
503 Clouds 0 1018 92 10000 4.74 277 21:32 26.12.2022
504 Clouds 1 1017 90 10000 4.51 286 20:42 26.12.2022
505 Clouds 2 1016 92 10000 5.26 281 18:50 26.12.2022
506 Clouds 3 1015 94 10000 6 278 17:52 26.12.2022
507 Clouds 5 1013 90 10000 6.57 259 16:22 26.12.2022
508 Clouds 6 1012 89 10000 6.46 244 14:34 26.12.2022
509 Clouds 6 1012 92 10000 5.78 240 12:51 26.12.2022
510 Clouds 6 1012 96 10000 4.58 244 08:52 26.12.2022
511 Clouds 7 1012 95 10000 5.96 241 00:25 26.12.2022
512 Clouds 7 1012 96 10000 5.96 241 23:38 25.12.2022
513 Clouds 7 1011 95 10000 6.55 230 22:38 25.12.2022
514 Clouds 6 1010 95 10000 6.17 226 21:49 25.12.2022
515 Rain 6 1011 96 10000 4.77 209 18:51 25.12.2022
516 Clouds 6 1011 95 10000 4.54 204 17:52 25.12.2022
517 Clouds 6 1011 95 10000 4.54 204 17:34 25.12.2022
518 Rain 5 1012 95 10000 3.18 165 15:41 25.12.2022
519 Rain 6 1015 91 10000 2.55 171 12:45 25.12.2022
520 Clouds 5 1017 95 5609 2.1 171 09:31 25.12.2022
521 Clouds 3 1018 93 10000 2.13 211 00:28 25.12.2022
522 Clouds 3 1017 92 10000 2.47 244 21:54 24.12.2022
523 Clouds 3 1016 92 10000 2.84 240 19:51 24.12.2022
524 Clouds 5 1015 92 10000 3.33 245 16:47 24.12.2022
525 Clouds 5 1013 92 10000 4.48 255 14:55 24.12.2022
526 Clouds 5 1013 95 10000 5.29 260 13:30 24.12.2022
527 Clouds 5 1011 95 10000 5.53 258 11:26 24.12.2022
528 Clouds 4 1010 95 10000 5.89 258 10:22 24.12.2022
529 Clouds 4 1010 93 10000 5.89 258 09:37 24.12.2022
530 Clouds 5 1008 95 10000 7.15 256 07:24 24.12.2022
531 Clouds 6 1005 97 10000 7.41 262 02:50 24.12.2022
532 Clouds 6 1003 96 10000 7.48 259 23:47 23.12.2022
533 Clouds 5 1002 97 4250 3.85 242 22:29 23.12.2022
534 Clouds 4 1002 98 4535 1.98 174 20:42 23.12.2022
535 Rain 4 1002 98 10000 1.48 120 19:39 23.12.2022
536 Rain 4 1002 98 8800 1.08 147 19:21 23.12.2022
537 Rain 4 1003 98 8384 1.28 189 18:46 23.12.2022
538 Rain 4 1003 98 2432 1.81 175 18:20 23.12.2022
539 Rain 5 1004 98 4974 1.4 162 16:35 23.12.2022
540 Rain 5 1004 98 5158 1.32 181 15:42 23.12.2022
541 Clouds 5 1006 97 3937 2 254 12:18 23.12.2022
542 Clouds 5 1005 98 2084 2.47 269 09:42 23.12.2022
543 Clouds 5 1005 98 3154 2.27 254 09:23 23.12.2022
544 Clouds 5 1005 98 3715 3.58 259 07:19 23.12.2022
545 Clouds 5 1004 98 3531 3.85 252 06:48 23.12.2022
546 Clouds 4 1005 96 8410 2.59 194 23:23 22.12.2022
547 Clouds 4 1005 95 8410 2.59 194 22:57 22.12.2022
548 Rain 3 1006 95 10000 2.45 204 21:26 22.12.2022
549 Clouds 3 1006 97 10000 2.99 223 19:43 22.12.2022
550 Clouds 3 1007 94 10000 4.2 236 19:18 22.12.2022
551 Clouds 4 1007 94 10000 3.79 245 17:31 22.12.2022
552 Clouds 4 1007 95 10000 4.97 264 16:39 22.12.2022
553 Clouds 5 1007 97 10000 5.43 270 15:35 22.12.2022
554 Clouds 5 1005 98 2332 4.03 276 14:53 22.12.2022
555 Clouds 5 1004 97 5354 3.48 271 13:51 22.12.2022
556 Clouds 5 1004 97 5138 2.72 273 13:18 22.12.2022
557 Rain 5 1002 93 2752 2.39 222 10:55 22.12.2022
558 Rain 5 1002 93 2752 2.39 222 10:30 22.12.2022
559 Rain 5 1003 93 5146 2.74 204 09:21 22.12.2022
560 Rain 5 1003 94 5146 2.74 204 08:32 22.12.2022
561 Rain 5 1003 93 4349 1.92 176 07:22 22.12.2022
562 Clouds 4 1006 92 5128 2.91 191 04:18 22.12.2022
563 Rain 4 1009 92 10000 3.23 202 00:24 22.12.2022
564 Rain 4 1010 92 10000 3.21 218 22:24 21.12.2022
565 Clouds 4 1010 90 10000 3.29 216 21:24 21.12.2022
566 Clouds 4 1010 87 10000 3.29 216 20:54 21.12.2022
567 Clouds 4 1010 87 10000 3.61 225 20:29 21.12.2022
568 Clouds 4 1010 89 10000 3.61 225 19:44 21.12.2022
569 Clouds 4 1011 90 10000 3.32 235 19:25 21.12.2022
570 Clouds 4 1011 90 10000 3.38 229 18:47 21.12.2022
571 Clouds 4 1011 91 10000 3.6 239 18:21 21.12.2022
572 Clouds 5 1011 92 7769 3.2 241 15:25 21.12.2022
573 Clouds 5 1011 92 10000 4.66 246 13:41 21.12.2022
574 Rain 4 1012 88 3657 2.79 221 11:48 21.12.2022
575 Clouds 4 1012 88 4819 2.43 212 11:20 21.12.2022
576 Clouds 4 1012 88 4566 2.12 198 09:50 21.12.2022
577 Clouds 3 1012 96 5064 1.77 200 08:48 21.12.2022
578 Clouds 3 1011 95 5087 2.08 221 06:24 21.12.2022
579 Clouds 4 1013 95 6331 2.52 195 23:21 20.12.2022
580 Rain 3 1013 90 9973 2.44 190 21:47 20.12.2022
581 Clouds 5 1014 84 9604 3.06 206 20:26 20.12.2022
582 Clouds 5 1014 84 9559 2.64 204 19:42 20.12.2022
583 Clouds 3 1014 93 9838 2.94 206 18:38 20.12.2022
584 Rain 3 1014 93 10000 2.7 200 18:19 20.12.2022
585 Clouds 3 1014 93 10000 2.7 200 17:46 20.12.2022
586 Clouds 5 1014 78 10000 3.07 197 16:37 20.12.2022
587 Clouds 4 1014 81 10000 2.92 192 15:47 20.12.2022
588 Clouds 5 1015 81 10000 2.79 194 14:50 20.12.2022
589 Clouds 5 1015 80 10000 3.51 201 14:29 20.12.2022
590 Clouds 5 1015 81 10000 3.83 200 12:59 20.12.2022
591 Clouds 5 1015 86 10000 3.84 200 12:31 20.12.2022
592 Clouds 4 1016 88 10000 3.91 201 11:37 20.12.2022
593 Clouds 3 1017 95 9826 2.96 187 08:49 20.12.2022
594 Clouds 2 1018 95 10000 2.6 193 04:38 20.12.2022
595 Clouds 2 1020 87 10000 3.58 210 22:46 19.12.2022
596 Clouds 1 1020 88 10000 3.61 210 21:56 19.12.2022
597 Clouds 1 1020 87 10000 3.76 203 20:28 19.12.2022
598 Clouds 0 1020 95 10000 3.76 203 19:39 19.12.2022
599 Clouds 1 1020 88 10000 3.42 200 18:42 19.12.2022
600 Clouds 1 1020 87 10000 3.41 200 16:52 19.12.2022
601 Clouds 0 1021 92 10000 3.62 205 13:55 19.12.2022
602 Snow 0 1022 95 10000 4.2 202 12:21 19.12.2022
603 Snow -1 1022 95 9505 4.02 200 10:56 19.12.2022
604 Snow -1 1022 85 10000 4.4 196 07:45 19.12.2022
605 Snow -5 1025 67 10000 2.39 186 03:48 19.12.2022
606 Clouds -7 1027 70 10000 2.7 177 22:40 18.12.2022
607 Clouds -7 1028 72 10000 2.65 177 21:46 18.12.2022
608 Clouds -5 1028 58 10000 2.46 166 21:23 18.12.2022
609 Clouds -6 1028 69 10000 2.46 166 20:32 18.12.2022
610 Clouds -6 1028 73 10000 2.47 165 19:41 18.12.2022
611 Clouds -6 1030 79 10000 2.26 151 18:29 18.12.2022
612 Clouds -7 1030 82 10000 2.4 149 17:22 18.12.2022
613 Clouds -7 1030 73 10000 2.14 150 15:41 18.12.2022
614 Clouds -7 1030 73 10000 2.14 154 15:20 18.12.2022
615 Clouds -6 1030 71 10000 1.82 140 14:21 18.12.2022
616 Clouds -5 1031 66 10000 1.91 147 12:57 18.12.2022
617 Clouds -5 1031 69 10000 1.91 147 12:30 18.12.2022
618 Clear -6 1032 68 10000 1.8 163 11:20 18.12.2022
619 Clear -9 1033 79 10000 1.43 161 09:20 18.12.2022
620 Clear -10 1033 83 10000 1.43 161 08:45 18.12.2022
621 Clouds -10 1032 83 10000 1.4 151 06:24 18.12.2022
622 Clouds -9 1032 79 10000 1.13 160 03:41 18.12.2022
623 Clouds -9 1032 79 10000 1.15 168 01:48 18.12.2022
624 Clear -9 1031 81 10000 1.05 166 22:24 17.12.2022
625 Clear -9 1030 81 10000 1.05 164 20:18 17.12.2022
626 Clouds -8 1029 85 10000 0.89 165 17:20 17.12.2022
627 Clouds -5 1027 70 10000 0.92 201 14:44 17.12.2022
628 Clouds -4 1026 70 10000 1.03 229 12:29 17.12.2022
629 Clouds -6 1026 81 10000 0.88 227 11:18 17.12.2022
630 Clouds -5 1026 68 10000 0.88 227 10:38 17.12.2022
631 Clouds -9 1026 87 10000 0.4 218 08:36 17.12.2022
632 Clouds -8 1025 87 9989 0.25 290 06:46 17.12.2022
633 Clouds -9 1022 93 10000 0.35 9 00:18 17.12.2022
634 Clouds -10 1021 93 10000 0.51 26 21:39 16.12.2022
635 Clouds -8 1020 93 10000 0.71 45 20:25 16.12.2022
636 Clouds -7 1018 90 10000 0.79 47 17:47 16.12.2022
637 Clouds -4 1015 86 10000 1.51 42 14:52 16.12.2022
638 Clouds -4 1015 86 10000 1.45 35 14:27 16.12.2022
639 Clouds -5 1014 90 10000 1.36 41 12:22 16.12.2022
640 Clouds -5 1014 90 10000 1.36 41 11:35 16.12.2022
641 Clouds -9 1014 91 10000 1.22 54 09:39 16.12.2022
642 Clouds -10 1013 92 10000 1.16 66 08:27 16.12.2022
643 Clouds -11 1013 91 10000 1.01 73 07:54 16.12.2022
644 Clouds -9 1011 92 10000 0.82 74 00:22 16.12.2022
645 Clouds -8 1011 90 10000 0.6 75 22:33 15.12.2022
646 Clouds -8 1011 89 10000 0.61 109 21:25 15.12.2022
647 Clear -8 1011 90 10000 0.85 130 19:42 15.12.2022
648 Clear -8 1011 90 10000 0.75 125 18:51 15.12.2022
649 Clear -7 1009 91 10000 0.31 45 17:27 15.12.2022
650 Clear -7 1010 73 10000 0.66 192 15:45 15.12.2022
651 Clear -4 1009 73 10000 1.02 225 14:38 15.12.2022
652 Clear -5 1010 78 10000 1.67 227 12:51 15.12.2022
653 Clear -4 1009 78 10000 1.72 227 12:22 15.12.2022
654 Clear -9 1009 90 10000 1.16 236 08:55 15.12.2022
655 Clear -10 1009 93 10000 1.14 238 08:18 15.12.2022
656 Clear -10 1008 82 10000 1.26 243 05:43 15.12.2022
657 Clear -10 1006 83 10000 1.14 258 22:59 14.12.2022
658 Clear -10 1005 83 10000 1.08 265 21:24 14.12.2022
659 Clear -10 1005 81 10000 1.08 265 20:44 14.12.2022
660 Clear -10 1005 82 10000 0.61 269 19:51 14.12.2022
661 Clouds -9 1003 85 10000 0.4 148 17:19 14.12.2022
662 Clouds -10 1003 86 10000 0.4 148 16:53 14.12.2022
663 Clouds -6 1002 79 10000 0.71 78 14:58 14.12.2022
664 Clouds -6 1003 76 10000 0.83 144 13:19 14.12.2022
665 Clouds -6 1004 64 10000 1.57 133 10:55 14.12.2022
666 Clouds -6 1005 65 10000 2.03 137 10:23 14.12.2022
667 Clouds -9 1005 77 10000 1.68 122 07:44 14.12.2022
668 Clouds -9 1011 86 10000 1.18 135 22:42 13.12.2022
669 Clouds -9 1011 85 10000 1.16 139 21:45 13.12.2022
670 Clouds -10 1012 85 10000 1.25 145 20:48 13.12.2022
671 Clouds -10 1012 86 10000 1 141 19:25 13.12.2022
672 Clear -8 1013 86 10000 0.79 150 16:42 13.12.2022
673 Clear -5 1012 76 10000 0.68 164 14:59 13.12.2022
674 Clear -5 1012 76 10000 0.66 187 13:42 13.12.2022
675 Clouds -7 1013 80 10000 0.57 185 10:54 13.12.2022
676 Clouds -8 1013 82 10000 0.4 175 10:27 13.12.2022
677 Clouds -8 1013 82 10000 0.4 175 10:27 13.12.2022
678 Clouds -10 1014 86 10000 0.32 181 08:31 13.12.2022
679 Clouds -10 1014 86 10000 0.32 181 08:31 13.12.2022
680 Clear -9 1015 88 10000 1.13 217 22:42 12.12.2022
681 Clear -9 1015 88 10000 0.84 220 21:59 12.12.2022
682 Clear -9 1015 88 10000 0.94 228 20:41 12.12.2022
683 Clouds -9 1014 87 10000 0.97 240 18:31 12.12.2022
684 Clouds -6 1014 87 10000 0.92 272 15:41 12.12.2022
685 Clouds -5 1014 87 10000 1.1 288 14:26 12.12.2022
686 Clouds -5 1014 87 10000 1.1 288 14:26 12.12.2022
687 Clouds -8 1014 93 10000 0.97 303 09:56 12.12.2022
688 Clouds -8 1013 88 10000 1.06 303 09:18 12.12.2022
689 Clouds -9 1012 89 10000 1.26 306 04:52 12.12.2022
690 Clouds -9 1012 89 9435 1.3 318 01:51 12.12.2022
691 Clouds -9 1012 92 10000 0.71 314 22:19 11.12.2022
692 Clouds -8 1012 94 10000 0.67 314 20:41 11.12.2022
693 Clouds -9 1011 93 10000 0.96 310 19:40 11.12.2022
694 Clear -8 1011 88 10000 0.76 332 18:55 11.12.2022
695 Clear -8 1011 87 10000 0.62 349 17:55 11.12.2022
696 Clear -8 1011 87 10000 0.8 1 17:28 11.12.2022
697 Clear -7 1011 87 10000 0.8 1 16:49 11.12.2022
698 Clear -6 1011 85 10000 0.96 5 15:45 11.12.2022
699 Clear -5 1010 81 10000 1.25 7 13:43 11.12.2022
700 Clouds -5 1010 85 10000 1.5 26 12:43 11.12.2022
701 Clouds -6 1011 90 10000 1.06 351 10:44 11.12.2022
702 Clouds -7 1013 95 5456 0.82 24 03:39 11.12.2022
703 Clouds -6 1014 96 6748 0.74 24 00:28 11.12.2022
704 Clouds -6 1013 96 8199 0.78 15 22:50 10.12.2022
705 Clouds -7 1013 96 8199 0.78 15 22:32 10.12.2022
706 Clouds -6 1013 93 9485 1.04 358 21:18 10.12.2022
707 Clouds -6 1012 94 5911 1.18 356 20:24 10.12.2022
708 Clouds -5 1012 94 2929 0.95 360 18:22 10.12.2022
709 Snow -5 1011 94 3455 0.92 7 16:47 10.12.2022
710 Clouds -5 1011 94 5691 0.95 7 15:53 10.12.2022
711 Clouds -5 1011 94 5691 0.95 7 15:34 10.12.2022
712 Clouds -4 1010 93 10000 1.02 15 13:56 10.12.2022
713 Clouds -4 1010 92 10000 0.95 16 12:45 10.12.2022
714 Clouds -4 1010 93 10000 0.84 50 11:26 10.12.2022
715 Clouds -5 1010 94 9934 0.74 68 10:26 10.12.2022
716 Snow -5 1010 95 10000 0.94 79 07:42 10.12.2022
717 Clouds -5 1009 95 10000 0.99 77 07:18 10.12.2022
718 Snow -4 1009 96 9257 1.14 77 23:53 09.12.2022
719 Snow -4 1009 96 8849 1.04 77 22:43 09.12.2022
720 Snow -4 1008 96 10000 1.05 73 21:47 09.12.2022
721 Snow -4 1008 96 7685 1.03 78 21:21 09.12.2022
722 Snow -4 1008 95 7625 1.15 88 19:49 09.12.2022
723 Snow -4 1007 94 8164 1.21 86 18:36 09.12.2022
724 Snow -4 1007 95 9424 1.2 79 17:44 09.12.2022
725 Clouds -4 1007 93 7487 1.13 78 16:30 09.12.2022
726 Clouds -3 1007 93 7463 1.11 72 15:32 09.12.2022
727 Clouds -3 1006 94 10000 1.06 49 14:23 09.12.2022
728 Clouds -3 1008 92 10000 0.68 154 10:52 09.12.2022
729 Clouds -3 1008 91 10000 0.81 147 10:29 09.12.2022
730 Clouds -5 1009 93 10000 0.43 140 08:23 09.12.2022
731 Clouds -5 1009 95 7281 0.67 188 03:18 09.12.2022
732 Clouds -3 1009 96 5578 1.01 206 23:36 08.12.2022
733 Snow -3 1008 97 9756 1.32 237 20:56 08.12.2022
734 Clouds -2 1008 95 10000 1.83 243 20:21 08.12.2022
735 Snow -2 1007 97 2141 1.71 248 16:51 08.12.2022
736 Snow -2 1007 95 1934 1.57 263 14:43 08.12.2022
737 Snow -2 1007 96 1950 2.41 265 14:20 08.12.2022
738 Snow -2 1007 98 3213 4.58 232 10:56 08.12.2022
739 Snow -2 1007 96 1635 4.8 233 09:35 08.12.2022
740 Snow -2 1007 95 3993 4.17 229 08:58 08.12.2022
741 Snow -2 1011 96 2830 3.46 247 22:44 07.12.2022
742 Snow -2 1011 96 3915 3.65 250 22:19 07.12.2022
743 Snow -2 1011 96 3915 3.65 250 22:19 07.12.2022
744 Snow -2 1011 95 3915 3.65 250 21:47 07.12.2022
745 Snow -2 1012 95 5131 3.87 254 20:36 07.12.2022
746 Snow -1 1011 95 2702 4.02 265 18:41 07.12.2022
747 Snow -1 1012 95 273 5.09 275 16:21 07.12.2022
748 Clouds -1 1012 94 4105 5.34 268 14:40 07.12.2022
749 Snow -1 1013 96 3285 5.02 279 11:37 07.12.2022
750 Snow -1 1013 97 893 4.51 274 10:36 07.12.2022
751 Snow -1 1013 97 31 3.96 274 09:36 07.12.2022
752 Snow -1 1013 97 32 4 274 08:44 07.12.2022
753 Snow -2 1013 97 5455 4.9 279 05:28 07.12.2022
754 Snow -2 1013 97 1949 4.07 274 03:55 07.12.2022
755 Clouds -2 1016 96 10000 2.93 262 22:35 06.12.2022
756 Snow -2 1016 97 2798 2.45 276 20:20 06.12.2022
757 Snow -2 1016 97 41 2.11 277 17:39 06.12.2022
758 Snow -2 1016 98 35 2.23 276 16:40 06.12.2022
759 Snow -2 1016 98 25 1.96 267 15:40 06.12.2022
760 Snow -2 1016 97 31 2.08 268 14:55 06.12.2022
761 Clouds -2 1016 97 26 2 276 14:24 06.12.2022
762 Clouds -2 1016 96 30 1.88 279 12:51 06.12.2022
763 Snow -2 1017 97 26 1.99 280 12:28 06.12.2022
764 Snow -3 1017 97 32 1.65 267 07:59 06.12.2022
765 Snow -3 1017 96 63 2.18 262 05:55 06.12.2022
766 Clouds -2 1019 97 1918 1.74 251 01:25 06.12.2022
767 Clouds -2 1019 97 964 1.67 241 22:26 05.12.2022
768 Clouds -2 1019 97 2496 1.6 233 20:55 05.12.2022
769 Clouds -2 1019 96 3343 1.48 244 20:26 05.12.2022
770 Clouds -2 1019 97 3343 1.48 244 19:44 05.12.2022
771 Clouds -2 1019 97 55 1.66 231 17:49 05.12.2022
772 Clouds -2 1018 97 53 1.58 236 16:42 05.12.2022
773 Clouds -2 1018 97 33 1.49 245 15:22 05.12.2022
774 Snow -2 1018 95 26 1.5 227 12:59 05.12.2022
775 Snow -2 1018 96 26 1.5 227 12:40 05.12.2022
776 Snow -2 1018 95 25 1.12 232 12:19 05.12.2022
777 Snow -2 1018 95 25 0.84 227 10:58 05.12.2022
778 Clouds -3 1017 98 1979 2.26 39 00:21 05.12.2022
779 Clouds -3 1018 98 1985 2.12 41 22:45 04.12.2022
780 Clouds -3 1018 96 1988 2.04 44 22:20 04.12.2022
781 Clouds -3 1018 96 1988 2.04 44 21:59 04.12.2022
782 Clouds -3 1018 96 1975 2.17 42 20:49 04.12.2022
783 Clouds -3 1017 96 1978 2.16 51 19:39 04.12.2022
784 Clouds -3 1017 96 1980 2.33 49 19:18 04.12.2022
785 Clouds -3 1018 97 1981 2.32 52 17:24 04.12.2022
786 Clouds -3 1018 97 1981 2.32 52 16:56 04.12.2022
787 Clouds -3 1018 97 1981 2.32 52 16:36 04.12.2022
788 Clouds -3 1017 97 1975 2.55 57 16:18 04.12.2022
789 Clouds -3 1018 97 1972 2.41 52 14:44 04.12.2022
790 Clouds -3 1018 95 1980 2.73 50 13:37 04.12.2022
791 Clouds -3 1018 95 1989 2.57 50 12:44 04.12.2022
792 Clouds -3 1018 96 1997 2.31 57 11:59 04.12.2022
793 Clouds -4 1019 96 2024 2.32 72 09:33 04.12.2022
794 Clouds -4 1019 97 2252 2.09 61 07:32 04.12.2022
795 Clouds -5 1020 97 8002 2.21 74 00:59 04.12.2022
796 Clouds -5 1020 97 9400 2.05 76 23:43 03.12.2022
797 Clouds -5 1021 97 4137 1.93 86 22:22 03.12.2022
798 Clouds -5 1021 97 8512 1.92 87 21:28 03.12.2022
799 Clouds -5 1021 97 8512 1.92 87 20:34 03.12.2022
800 Clouds -6 1020 96 2875 2.06 89 18:40 03.12.2022
801 Clouds -5 1021 95 2450 2.13 86 16:57 03.12.2022
802 Clouds -5 1021 92 10000 2.48 90 14:28 03.12.2022
803 Clouds -5 1021 93 10000 2.16 78 12:55 03.12.2022
804 Clouds -5 1022 94 10000 2.05 86 12:24 03.12.2022
805 Clouds -6 1023 96 2278 2.15 80 10:26 03.12.2022
806 Clouds -6 1023 97 7925 2.17 64 07:58 03.12.2022
807 Clouds -5 1024 96 5851 2.56 66 01:31 03.12.2022
808 Clouds -4 1025 96 3710 3.1 64 23:25 02.12.2022
809 Clouds -4 1025 96 6753 3.31 66 20:59 02.12.2022
810 Clouds -4 1025 96 3323 4.01 69 19:28 02.12.2022
811 Snow -4 1024 97 405 3.72 64 15:59 02.12.2022
812 Snow -4 1024 97 405 3.72 64 15:59 02.12.2022
813 Clouds -4 1024 97 254 3.57 66 14:45 02.12.2022
814 Snow -3 1024 96 432 3.49 66 14:26 02.12.2022
815 Snow -3 1024 96 432 3.49 66 13:36 02.12.2022
816 Snow -3 1025 96 607 3.32 68 11:44 02.12.2022
817 Snow -3 1025 95 548 2.63 64 09:46 02.12.2022
818 Snow -3 1025 95 548 2.63 64 09:46 02.12.2022
819 Snow -3 1025 95 548 2.63 64 09:46 02.12.2022
820 Snow -3 1025 95 548 2.63 64 09:46 02.12.2022
821 Snow -4 1025 95 574 1.97 59 07:25 02.12.2022
822 Snow -3 1025 95 445 1.73 64 05:21 02.12.2022
823 Snow -2 1027 94 3348 1.13 67 22:30 01.12.2022
824 Clouds -3 1027 95 4196 1.22 77 21:39 01.12.2022
825 Clouds -2 1027 94 6110 1.38 77 20:30 01.12.2022
826 Clouds -3 1027 97 5904 1.65 64 18:56 01.12.2022
827 Clouds -2 1027 93 10000 1.73 69 16:22 01.12.2022
828 Clouds -1 1027 93 10000 1.63 68 13:22 01.12.2022
829 Clouds -2 1027 95 10000 1.68 74 10:42 01.12.2022
830 Clouds -2 1027 95 10000 1.68 74 10:42 01.12.2022
831 Clouds -2 1027 95 7898 1.65 71 09:54 01.12.2022
832 Clouds -2 1027 95 7898 1.65 71 09:36 01.12.2022
833 Clouds -2 1027 96 10000 1.56 72 05:34 01.12.2022
834 Clouds 1 1026 95 10000 1.29 68 22:40 30.11.2022
835 Clouds 1 1025 96 10000 1.39 83 21:20 30.11.2022
836 Clouds 1 1025 96 10000 1.39 83 20:48 30.11.2022
837 Clouds 1 1025 96 10000 1.49 85 20:23 30.11.2022
838 Clouds 2 1024 97 10000 1.27 75 18:35 30.11.2022
839 Clouds 2 1024 97 10000 1.25 71 17:39 30.11.2022
840 Clouds 2 1023 97 10000 0.84 39 16:20 30.11.2022
841 Clouds 3 1023 98 10000 0.52 44 14:41 30.11.2022
842 Clouds 3 1023 98 10000 0.45 83 14:23 30.11.2022
843 Clouds 3 1023 96 10000 0.67 99 11:57 30.11.2022
844 Clouds 2 1022 96 10000 0.74 118 09:21 30.11.2022
845 Clouds 2 1022 97 10000 0.79 111 07:59 30.11.2022
846 Clouds 2 1021 96 10000 0.36 132 04:57 30.11.2022
847 Clouds 2 1021 96 10000 0.65 127 23:26 29.11.2022
848 Clouds 2 1021 96 10000 0.73 115 21:48 29.11.2022
849 Clouds 2 1020 95 10000 0.67 89 20:50 29.11.2022
850 Clouds 2 1020 94 10000 0.65 71 19:46 29.11.2022
851 Clouds 3 1019 94 10000 0.46 60 17:52 29.11.2022
852 Clouds 3 1019 94 10000 0.52 11 16:29 29.11.2022
853 Clouds 3 1018 93 10000 0.42 349 15:21 29.11.2022
854 Clouds 3 1018 92 10000 0.36 333 13:49 29.11.2022
855 Clouds 3 1017 89 10000 0.3 354 12:36 29.11.2022
856 Clouds 3 1017 90 10000 0.31 341 11:31 29.11.2022
857 Clouds 2 1017 92 10000 0.3 342 10:23 29.11.2022
858 Clouds 2 1016 92 10000 0.27 350 08:44 29.11.2022
859 Clouds 2 1016 91 10000 0.2 291 06:45 29.11.2022
860 Clouds 3 1014 87 10000 0.8 178 00:22 29.11.2022
861 Clouds 3 1014 88 10000 0.81 179 23:22 28.11.2022
862 Clouds 3 1014 87 10000 0.93 188 21:56 28.11.2022
863 Clouds 3 1014 87 10000 0.93 188 21:36 28.11.2022
864 Clouds 3 1014 85 10000 1.15 186 20:24 28.11.2022
865 Clouds 3 1014 83 10000 1.39 167 19:24 28.11.2022
866 Clouds 3 1014 82 10000 1.44 164 18:28 28.11.2022
867 Clouds 2 1014 85 10000 1.48 159 17:22 28.11.2022
868 Clouds 3 1013 81 10000 1.41 163 14:57 28.11.2022
869 Rain 3 1013 79 10000 1.51 162 13:54 28.11.2022
870 Rain 3 1014 78 10000 1.5 169 12:59 28.11.2022
871 Rain 3 1014 76 10000 1.78 174 11:31 28.11.2022
872 Rain 2 1014 73 10000 2.23 150 07:55 28.11.2022
873 Clouds 2 1015 76 10000 1.79 149 04:55 28.11.2022
874 Clouds 2 1015 70 10000 1.79 149 04:37 28.11.2022
875 Rain 2 1016 75 10000 2.23 146 03:21 28.11.2022
876 Rain 2 1018 85 10000 1.76 170 23:44 27.11.2022
877 Rain 2 1019 84 10000 1.79 176 21:55 27.11.2022
878 Clouds 3 1020 83 10000 2.03 169 20:43 27.11.2022
879 Rain 3 1020 85 10000 2.11 164 18:31 27.11.2022
880 Clouds 3 1022 72 10000 2.1 164 15:40 27.11.2022
881 Clouds 4 1023 66 10000 2.1 172 13:44 27.11.2022
882 Clouds 4 1025 70 10000 2.43 174 12:20 27.11.2022
883 Clouds 1 1027 83 10000 1.94 172 09:21 27.11.2022
884 Clouds 0 1027 87 10000 1.86 160 06:30 27.11.2022
885 Clouds 2 1030 93 10000 1.71 185 23:22 26.11.2022
886 Clouds 2 1030 91 10000 1.49 188 21:27 26.11.2022
887 Clouds 3 1030 93 10000 1.39 196 19:57 26.11.2022
888 Clouds 3 1030 92 10000 1.29 211 18:41 26.11.2022
889 Clouds 3 1030 91 10000 1.23 225 16:38 26.11.2022
890 Clouds 4 1030 92 10000 1.88 250 14:48 26.11.2022
891 Clouds 4 1029 93 10000 2.69 255 12:51 26.11.2022
892 Clouds 3 1030 95 10000 3.4 256 10:53 26.11.2022
893 Clouds 3 1029 93 10000 2.69 252 09:43 26.11.2022
894 Clouds 2 1028 95 10000 2.2 245 07:48 26.11.2022
895 Rain 4 1023 94 10000 2.09 250 22:43 25.11.2022
896 Rain 4 1022 94 10000 2.29 255 21:34 25.11.2022
897 Clouds 4 1021 94 8871 1.91 241 20:21 25.11.2022
898 Clouds 3 1019 94 10000 1.81 232 16:51 25.11.2022
899 Clouds 4 1018 94 8240 2.16 235 15:31 25.11.2022
900 Clouds 3 1016 91 10000 2.01 204 09:51 25.11.2022
901 Clouds 3 1016 92 10000 1.92 184 08:43 25.11.2022
902 Clouds 2 1015 91 10000 1.95 172 07:27 25.11.2022
903 Clouds 2 1016 93 10000 1.95 171 06:42 25.11.2022
904 Clouds 1 1016 93 10000 1.46 181 01:25 25.11.2022
905 Clouds 2 1016 92 10000 1.8 200 23:22 24.11.2022
906 Clouds 3 1016 94 10000 1.68 193 22:29 24.11.2022
907 Clouds 3 1016 94 10000 1.68 193 21:35 24.11.2022
908 Clouds 4 1015 93 10000 1.66 226 19:40 24.11.2022
909 Clouds 3 1014 93 10000 2 246 17:47 24.11.2022
910 Clouds 3 1014 94 10000 1.8 230 17:23 24.11.2022
911 Clouds 4 1013 93 10000 1.87 234 16:27 24.11.2022
912 Clouds 5 1012 86 10000 2.56 239 14:23 24.11.2022
913 Clouds 5 1012 89 10000 2.3 231 12:40 24.11.2022
914 Clouds 4 1011 88 10000 2.99 232 10:52 24.11.2022
915 Clouds 3 1010 94 10000 2.81 221 08:47 24.11.2022
916 Clouds 2 1008 94 5142 2.1 212 04:46 24.11.2022
917 Snow 2 1006 89 2619 2.2 201 00:40 24.11.2022
918 Snow 2 1006 86 10000 2.76 207 23:32 23.11.2022
919 Clear 2 1005 81 10000 2.74 171 21:47 23.11.2022
920 Clear 2 1005 81 10000 2.63 169 20:51 23.11.2022
921 Clear 2 1004 76 10000 2.67 164 19:34 23.11.2022
922 Clouds 2 1004 80 10000 2.6 160 18:55 23.11.2022
923 Clouds 2 1003 84 10000 2.17 158 17:29 23.11.2022
924 Clouds 4 1002 84 10000 3.63 204 13:42 23.11.2022
925 Clouds 4 1003 86 10000 3.64 202 13:23 23.11.2022
926 Clouds 4 1003 87 7097 2.92 191 12:23 23.11.2022
927 Clouds 4 1003 88 7097 2.92 191 11:45 23.11.2022
928 Clouds 3 1003 89 5506 2.63 190 10:48 23.11.2022
929 Clouds 3 1003 91 6836 2.36 188 09:57 23.11.2022
930 Clouds 3 1003 92 10000 2.17 181 09:27 23.11.2022
931 Clouds 2 1003 92 10000 2.17 181 08:58 23.11.2022
932 Clouds 2 1003 92 10000 2.17 181 08:36 23.11.2022
933 Clouds 2 1002 91 10000 2.02 179 05:19 23.11.2022
934 Clouds 2 1001 90 10000 2.92 193 01:42 23.11.2022
935 Clouds 2 1001 86 10000 3.22 188 22:37 22.11.2022
936 Clouds 2 1001 86 10000 2.74 183 21:51 22.11.2022
937 Clouds 2 1001 86 10000 2.74 183 21:31 22.11.2022
938 Clouds 2 1001 86 10000 3.21 189 20:44 22.11.2022
939 Clouds 1 1001 87 10000 3.24 185 19:47 22.11.2022
940 Clouds 1 1000 84 10000 3.22 172 17:54 22.11.2022
941 Clouds 1 1000 88 10000 3.03 178 16:39 22.11.2022
942 Clouds 2 999 84 10000 2.59 185 14:31 22.11.2022
943 Clouds 2 999 86 10000 1.99 183 12:56 22.11.2022
944 Clouds 0 999 93 10000 1.9 170 09:41 22.11.2022
945 Clouds 0 998 94 7458 1.77 153 08:57 22.11.2022
946 Clouds -1 998 94 7765 2.07 154 06:45 22.11.2022
947 Clouds -3 998 95 7394 2.5 134 00:59 22.11.2022
948 Clouds -3 1000 93 5768 2.59 147 23:23 21.11.2022
949 Clouds -3 1000 93 5115 2.37 136 22:26 21.11.2022
950 Clouds -3 1000 93 5115 2.37 136 21:33 21.11.2022
951 Clouds -4 1001 91 5140 2.06 141 20:34 21.11.2022
952 Clouds -4 1001 95 5564 1.74 151 19:39 21.11.2022
953 Clouds -3 1001 93 9846 1.58 130 18:52 21.11.2022
954 Clouds -4 1003 94 8409 1.34 161 17:32 21.11.2022
955 Clouds -5 1003 98 8468 1.52 153 16:43 21.11.2022
956 Clouds -3 1004 93 10000 1.34 146 16:23 21.11.2022
957 Clouds -3 1004 90 10000 0.84 182 15:24 21.11.2022
958 Clear -3 1005 86 10000 1.06 216 13:54 21.11.2022
959 Clouds -3 1005 86 10000 1.35 230 13:27 21.11.2022
960 Clouds -5 1006 94 10000 1.05 245 10:19 21.11.2022
961 Clouds -6 1006 91 10000 0.4 279 08:19 21.11.2022
962 Clouds -6 1006 91 10000 0.4 279 08:19 21.11.2022
963 Snow -4 1004 94 120 1.8 63 02:18 21.11.2022
964 Snow -5 1007 84 3246 1.25 126 21:59 20.11.2022
965 Snow -4 1008 77 10000 1.16 149 20:55 20.11.2022
966 Clouds -4 1008 78 10000 1.17 158 20:22 20.11.2022
967 Clouds -6 1010 84 10000 1.06 197 17:49 20.11.2022
968 Clouds -4 1010 75 10000 1.39 223 15:52 20.11.2022
969 Clouds -3 1010 72 10000 1.89 245 15:24 20.11.2022
970 Clouds -3 1010 72 10000 2.32 258 14:25 20.11.2022
971 Clouds -3 1010 74 10000 2.27 255 13:32 20.11.2022
972 Clouds -3 1011 75 10000 2.52 260 12:25 20.11.2022
973 Clouds -4 1011 80 10000 2.13 251 10:59 20.11.2022
974 Clouds -6 1011 86 10000 1.66 247 09:55 20.11.2022
975 Clouds -8 1012 86 10000 1.39 234 08:59 20.11.2022
976 Clouds -9 1012 87 10000 1.39 234 08:33 20.11.2022
977 Clear -9 1012 86 10000 1 225 07:28 20.11.2022
978 Clear -8 1014 90 10000 0.8 220 01:50 20.11.2022
979 Clouds -8 1014 91 10000 0.83 224 01:18 20.11.2022
980 Clouds -9 1014 92 10000 0.83 224 00:40 20.11.2022
981 Clouds -8 1015 90 10000 0.85 217 00:21 20.11.2022
982 Clouds -8 1015 91 10000 0.85 217 23:47 19.11.2022
983 Clouds -8 1015 90 10000 0.88 223 23:21 19.11.2022
984 Clouds -8 1015 91 10000 0.84 225 22:28 19.11.2022
985 Clouds -8 1015 90 10000 0.84 225 21:31 19.11.2022
986 Clouds -7 1014 91 10000 0.94 231 20:42 19.11.2022
987 Clouds -7 1014 91 10000 0.94 231 20:42 19.11.2022
988 Clouds -7 1014 90 10000 0.63 234 20:23 19.11.2022
989 Clouds -7 1014 88 10000 0.43 241 18:54 19.11.2022
990 Clouds -6 1014 82 10000 0.08 249 17:39 19.11.2022
991 Clouds -6 1014 81 10000 0.34 347 17:19 19.11.2022
992 Clouds -4 1014 84 10000 0.69 317 15:34 19.11.2022
993 Clear -4 1014 82 10000 0.67 16 13:36 19.11.2022
994 Clouds -4 1015 79 10000 1.44 74 11:57 19.11.2022
995 Clear -5 1015 80 10000 1.52 87 10:19 19.11.2022
996 Clear -9 1015 90 10000 1.42 92 08:36 19.11.2022
997 Clouds -8 1014 89 10000 1.96 90 04:46 19.11.2022
998 Clouds -6 1014 90 10000 2.13 92 01:52 19.11.2022
999 Clouds -5 1013 92 10000 2.52 85 23:40 18.11.2022
1000 Clouds -5 1012 93 10000 2.42 87 22:34 18.11.2022
1001 Snow -5 1011 93 10000 2.94 85 21:37 18.11.2022
1002 Snow -5 1011 94 10000 3.27 90 20:59 18.11.2022
1003 Snow -5 1011 94 3268 3.11 84 20:26 18.11.2022
1004 Snow -5 1011 95 3268 3.11 84 19:46 18.11.2022
1005 Snow -5 1009 96 207 3.37 79 18:23 18.11.2022
1006 Snow -4 1008 96 192 3.2 79 16:41 18.11.2022
1007 Snow -2 1006 96 4453 3.02 80 13:40 18.11.2022
1008 Clouds 0 1004 96 2300 2.32 80 11:24 18.11.2022
1009 Clouds 0 1004 96 2300 2.32 80 11:24 18.11.2022
1010 Clouds 1 1002 97 7056 2.03 77 08:24 18.11.2022
1011 Snow 1 1001 97 3600 1.93 88 06:23 18.11.2022
1012 Snow 2 1000 97 2586 1.92 89 05:18 18.11.2022
1013 Clouds 3 999 96 3492 1.72 105 00:42 18.11.2022
1014 Clouds 3 998 96 4250 1.81 117 21:26 17.11.2022
1015 Clouds 3 997 95 5520 1.81 115 20:29 17.11.2022
1016 Clouds 2 997 95 5520 1.81 115 19:50 17.11.2022
1017 Clouds 3 998 94 5957 1.41 137 18:35 17.11.2022
1018 Clouds 3 997 94 5511 1.37 137 17:32 17.11.2022
1019 Clouds 3 997 94 5328 1.57 123 16:48 17.11.2022
1020 Snow 2 996 95 3853 3.96 118 12:53 17.11.2022
1021 Snow 2 997 95 4704 5.03 116 11:21 17.11.2022
1022 Snow 1 998 96 107 5.53 114 08:20 17.11.2022
1023 Clouds 2 1000 95 1942 5.11 99 02:54 17.11.2022
1024 Clouds 2 1003 96 3306 3.25 110 00:20 17.11.2022
1025 Clouds 2 1003 96 8509 2.77 111 22:28 16.11.2022
1026 Clouds 3 1003 97 10000 2.46 108 20:36 16.11.2022
1027 Clouds 4 1003 97 9625 2.18 108 19:33 16.11.2022
1028 Clouds 4 1003 96 9209 1.9 116 18:40 16.11.2022
1029 Clouds 4 1003 96 9004 1.52 122 17:19 16.11.2022
1030 Rain 4 1003 95 9702 1.2 146 13:39 16.11.2022
1031 Rain 4 1004 92 4512 1.75 144 09:34 16.11.2022
1032 Clouds 7 1004 73 10000 2.54 122 01:57 16.11.2022
1033 Clouds 7 1005 74 10000 2.41 123 01:25 16.11.2022
1034 Rain 7 1007 83 10000 2.03 132 21:55 15.11.2022
1035 Rain 7 1007 81 10000 2.15 131 20:32 15.11.2022
1036 Clouds 8 1008 78 10000 2.18 132 19:33 15.11.2022
1037 Clouds 8 1008 71 10000 2.14 135 17:39 15.11.2022
1038 Clouds 9 1009 69 10000 1.87 144 16:53 15.11.2022
1039 Clouds 10 1009 67 10000 1.69 138 16:18 15.11.2022
1040 Clouds 10 1009 67 10000 1.78 170 14:42 15.11.2022
1041 Clouds 10 1010 70 10000 3.34 201 12:59 15.11.2022
1042 Clouds 10 1011 69 10000 2.98 205 11:42 15.11.2022
1043 Clouds 8 1011 76 10000 3.2 208 10:35 15.11.2022
1044 Clouds 6 1012 91 10000 1.95 173 06:57 15.11.2022
1045 Clear 5 1013 83 10000 2.62 182 00:34 15.11.2022
1046 Clear 4 1014 80 10000 3.15 172 22:54 14.11.2022
1047 Clear 3 1014 100 10000 2.78 152 21:18 14.11.2022
1048 Clear 2 1014 100 10000 2.78 152 20:37 14.11.2022
1049 Clear 3 1015 88 10000 3.25 148 18:29 14.11.2022
1050 Clear 4 1015 94 10000 2.4 146 15:45 14.11.2022
1051 Clear 9 1016 61 10000 2.87 163 11:50 14.11.2022
1052 Clear 8 1016 61 10000 3.2 150 11:28 14.11.2022
1053 Clear 8 1016 61 10000 3.2 150 11:28 14.11.2022
1054 Clear 1 1017 87 10000 1.98 138 08:48 14.11.2022
1055 Clear 1 1017 87 10000 1.98 138 08:48 14.11.2022
1056 Clear 1 1017 87 10000 1.98 138 08:48 14.11.2022
1057 Clear -1 1017 98 10000 1.96 136 07:53 14.11.2022
1058 Clear -1 1017 99 10000 2.02 124 06:19 14.11.2022
1059 Clouds 1 1020 92 10000 1.98 116 00:18 14.11.2022
1060 Clear 1 1021 73 10000 2.01 110 21:53 13.11.2022
1061 Clear 2 1021 73 10000 2.11 102 20:58 13.11.2022
1062 Clouds 2 1022 88 10000 2.26 105 19:25 13.11.2022
1063 Clouds 2 1022 88 10000 2.34 99 17:56 13.11.2022
1064 Clouds 2 1023 88 10000 2.38 95 17:21 13.11.2022
1065 Clouds 11 1023 57 10000 2.47 92 14:58 13.11.2022
1066 Clouds 13 1023 49 10000 2.22 84 13:35 13.11.2022
1067 Clouds 13 1024 46 10000 2.31 99 12:35 13.11.2022
1068 Clouds 7 1025 52 10000 2.2 101 10:52 13.11.2022
1069 Clouds 2 1027 58 10000 1.73 113 07:39 13.11.2022
1070 Clouds 5 1028 47 10000 1.45 128 01:34 13.11.2022
1071 Clouds 5 1030 45 10000 1.32 138 22:19 12.11.2022
1072 Clouds 4 1031 49 10000 1.36 137 21:24 12.11.2022
1073 Clouds 5 1030 41 10000 1.07 128 19:55 12.11.2022
1074 Clouds 5 1031 47 10000 1.03 122 17:57 12.11.2022
1075 Clouds 7 1031 66 10000 0.88 95 16:23 12.11.2022
1076 Clouds 9 1031 59 10000 0.74 104 15:22 12.11.2022
1077 Clouds 11 1032 48 10000 0.6 190 12:27 12.11.2022
1078 Clouds 6 1033 61 10000 1.3 159 09:20 12.11.2022
1079 Clouds 4 1032 62 10000 0.51 179 05:31 12.11.2022
1080 Clouds 5 1032 57 10000 1.67 215 22:31 11.11.2022
1081 Clouds 6 1032 52 10000 1.64 216 20:46 11.11.2022
1082 Clouds 6 1032 52 10000 1.64 216 20:46 11.11.2022
1083 Clouds 6 1032 52 10000 1.86 219 19:44 11.11.2022
1084 Clouds 6 1032 65 10000 1.82 221 19:20 11.11.2022
1085 Clouds 7 1031 67 10000 1.64 218 17:56 11.11.2022
1086 Clouds 7 1031 67 10000 1.64 218 17:56 11.11.2022
1087 Clouds 7 1031 67 10000 1.64 218 17:56 11.11.2022
1088 Clouds 9 1031 70 10000 1.96 227 16:27 11.11.2022
1089 Clouds 9 1031 70 10000 2.6 229 14:21 11.11.2022
1090 Clouds 9 1031 70 10000 2.83 230 13:29 11.11.2022
1091 Clouds 6 1031 68 10000 2.86 231 09:49 11.11.2022
1092 Clouds 4 1030 85 10000 2.83 224 08:27 11.11.2022
1093 Clouds 4 1030 86 10000 2.35 228 06:26 11.11.2022
1094 Clouds 6 1029 79 10000 3.32 230 23:38 10.11.2022
1095 Clouds 6 1029 83 10000 3.16 229 22:38 10.11.2022
1096 Clouds 6 1029 84 10000 3.17 225 21:34 10.11.2022
1097 Clouds 6 1028 85 10000 3.54 228 20:59 10.11.2022
1098 Clouds 7 1028 78 10000 3.3 229 20:22 10.11.2022
1099 Clouds 7 1028 81 10000 3.3 229 19:44 10.11.2022
1100 Clouds 7 1027 80 10000 3.52 227 18:33 10.11.2022
1101 Clouds 9 1026 78 10000 3.82 244 16:26 10.11.2022
1102 Clouds 10 1025 68 10000 5.13 255 13:59 10.11.2022
1103 Clouds 9 1024 73 10000 4.97 246 12:50 10.11.2022
1104 Clouds 6 1022 89 10000 3.3 231 08:53 10.11.2022
1105 Clouds 6 1019 83 10000 3.87 241 04:39 10.11.2022
1106 Clouds 7 1016 79 10000 3.97 241 00:31 10.11.2022
1107 Clouds 8 1015 76 10000 4.01 241 22:46 09.11.2022
1108 Clouds 8 1014 79 10000 4.43 242 20:50 09.11.2022
1109 Clouds 8 1014 78 10000 4.43 242 20:31 09.11.2022
1110 Clouds 8 1013 79 10000 4.64 236 19:48 09.11.2022
1111 Clouds 8 1013 80 10000 4.65 231 19:24 09.11.2022
1112 Clouds 9 1012 76 10000 4.95 231 17:39 09.11.2022
1113 Clouds 9 1012 76 10000 4.95 231 17:39 09.11.2022
1114 Clouds 11 1010 70 10000 5.96 226 14:56 09.11.2022
1115 Clouds 11 1010 70 10000 6.07 224 14:26 09.11.2022
1116 Clouds 11 1010 72 10000 6.07 224 13:34 09.11.2022
1117 Clouds 11 1010 73 10000 5.71 229 12:51 09.11.2022
1118 Clouds 9 1011 82 10000 5.08 211 09:28 09.11.2022
1119 Clouds 9 1010 84 10000 4.61 208 07:47 09.11.2022
1120 Rain 9 1010 84 8294 2.85 195 04:35 09.11.2022
1121 Rain 10 1010 63 10000 2.92 181 22:35 08.11.2022
1122 Rain 10 1011 62 10000 3.01 179 21:37 08.11.2022
1123 Rain 10 1011 64 10000 2.73 181 20:47 08.11.2022
1124 Rain 10 1010 61 10000 2.74 178 20:18 08.11.2022
1125 Clouds 10 1010 61 10000 2.95 186 19:24 08.11.2022
1126 Clouds 10 1010 58 10000 3.29 194 17:35 08.11.2022
1127 Clouds 11 1010 58 10000 5.01 203 15:32 08.11.2022
1128 Clouds 12 1010 58 10000 5.7 203 14:31 08.11.2022
1129 Clouds 12 1010 58 10000 5.7 203 14:31 08.11.2022
1130 Clouds 12 1010 58 10000 5.7 203 14:31 08.11.2022
1131 Clouds 12 1010 57 10000 4.93 203 13:28 08.11.2022
1132 Clouds 10 1012 63 10000 4.48 195 10:58 08.11.2022
1133 Clouds 6 1013 92 9771 2.3 171 07:43 08.11.2022
1134 Clouds 7 1013 89 9854 2.42 200 05:27 08.11.2022
1135 Clouds 8 1014 84 10000 3.36 222 22:58 07.11.2022
1136 Clouds 8 1014 85 10000 3.73 222 21:43 07.11.2022
1137 Clouds 9 1014 84 10000 4.17 220 20:54 07.11.2022
1138 Clouds 8 1013 85 10000 4.49 218 19:42 07.11.2022
1139 Clouds 8 1014 84 10000 4.52 219 17:43 07.11.2022
1140 Clouds 9 1013 86 10000 4.62 224 15:40 07.11.2022
1141 Clouds 9 1013 82 10000 5.67 230 14:57 07.11.2022
1142 Clouds 9 1013 77 10000 5.22 225 13:45 07.11.2022
1143 Clouds 10 1013 75 10000 5.53 227 12:30 07.11.2022
1144 Clouds 8 1013 76 10000 5.94 225 10:45 07.11.2022
1145 Clouds 6 1013 80 10000 5.31 224 08:32 07.11.2022
1146 Clouds 6 1012 80 10000 5.17 223 06:54 07.11.2022
1147 Clouds 5 1011 82 10000 5.42 222 01:49 07.11.2022
1148 Clouds 4 1011 80 10000 5.02 212 23:47 06.11.2022
1149 Rain 4 1010 85 10000 4.39 194 21:43 06.11.2022
1150 Rain 5 1011 74 10000 5.42 207 21:18 06.11.2022
1151 Clouds 6 1011 64 10000 4.98 196 19:57 06.11.2022
1152 Clouds 6 1011 64 10000 4.11 187 19:28 06.11.2022
1153 Clouds 5 1012 62 10000 3.19 179 18:20 06.11.2022
1154 Clouds 6 1012 62 10000 3.19 179 17:42 06.11.2022
1155 Clouds 6 1012 62 10000 2.8 176 17:18 06.11.2022
1156 Clear 7 1012 65 10000 3.12 179 16:19 06.11.2022
1157 Clear 7 1012 63 10000 3.67 184 15:20 06.11.2022
1158 Clouds 8 1013 66 10000 4.51 192 12:47 06.11.2022
1159 Clouds 6 1015 75 10000 4.11 201 10:58 06.11.2022
1160 Clouds 5 1016 80 10000 3.82 206 09:52 06.11.2022
1161 Clouds 3 1017 88 10000 2.57 200 07:44 06.11.2022
1162 Clouds 3 1019 80 10000 2.62 207 23:25 05.11.2022
1163 Clouds 3 1019 80 10000 2.62 207 23:25 05.11.2022
1164 Clouds 3 1019 83 10000 2.46 202 22:29 05.11.2022
1165 Clouds 4 1019 76 10000 2.11 215 18:42 05.11.2022
1166 Clouds 5 1018 75 10000 2.21 249 16:40 05.11.2022
1167 Clouds 7 1017 72 10000 3.55 252 14:50 05.11.2022
1168 Clouds 7 1017 74 10000 3.94 253 13:40 05.11.2022
1169 Clouds 5 1018 82 10000 3.59 251 11:51 05.11.2022
1170 Clouds 4 1017 92 10000 2 250 08:59 05.11.2022
1171 Clouds 2 1016 93 10000 1.6 255 07:23 05.11.2022
1172 Clouds 2 1016 93 10000 1.6 255 06:54 05.11.2022
1173 Clouds 4 1013 91 10000 1.47 281 00:45 05.11.2022
1174 Clouds 4 1012 91 10000 1.66 277 23:28 04.11.2022
1175 Clouds 4 1010 88 10000 1.86 283 20:58 04.11.2022
1176 Clouds 6 1010 84 10000 1.74 290 19:33 04.11.2022
1177 Clouds 6 1009 81 10000 1.73 289 17:44 04.11.2022
1178 Clouds 8 1007 69 10000 3.9 276 14:28 04.11.2022
1179 Clouds 8 1007 76 10000 3.87 273 13:18 04.11.2022
1180 Clouds 7 1007 79 10000 3.59 272 11:57 04.11.2022
1181 Clouds 6 1006 81 10000 3.03 247 09:25 04.11.2022
1182 Clouds 6 1006 88 10000 3.2 254 08:20 04.11.2022
1183 Clouds 6 1005 88 10000 3.39 256 06:34 04.11.2022
1184 Rain 9 1003 72 10000 4.92 203 00:42 04.11.2022
1185 Rain 7 1005 81 10000 2.28 159 21:18 03.11.2022
1186 Clouds 6 1005 81 10000 2.28 159 20:45 03.11.2022
1187 Clouds 8 1005 69 10000 2.19 156 19:41 03.11.2022
1188 Clouds 8 1007 66 10000 2.65 158 18:18 03.11.2022
1189 Clouds 8 1007 67 10000 2.65 158 17:36 03.11.2022
1190 Clouds 9 1009 66 10000 3.26 168 15:20 03.11.2022
1191 Clouds 10 1010 69 10000 3.09 174 13:33 03.11.2022
1192 Clouds 10 1011 64 10000 3.74 177 12:34 03.11.2022
1193 Clouds 9 1013 69 10000 3.87 184 11:31 03.11.2022
1194 Clouds 9 1013 69 10000 3.87 184 11:31 03.11.2022
1195 Clouds 6 1016 76 10000 3.02 170 07:48 03.11.2022
1196 Clouds 5 1022 77 10000 2.3 202 22:20 02.11.2022
1197 Clouds 4 1022 83 10000 2.13 194 20:55 02.11.2022
1198 Clouds 5 1022 71 10000 2.17 199 20:24 02.11.2022
1199 Clear 6 1021 67 10000 2.09 230 18:28 02.11.2022
1200 Clear 9 1021 57 10000 4.64 257 16:28 02.11.2022
1201 Clear 10 1021 53 10000 4.64 257 15:30 02.11.2022
1202 Clouds 10 1021 60 10000 6.35 256 12:52 02.11.2022
1203 Clouds 10 1020 62 10000 6.57 257 12:23 02.11.2022
1204 Clouds 8 1019 79 10000 6.84 235 09:51 02.11.2022
1205 Clouds 7 1020 86 10000 6.08 232 08:33 02.11.2022
1206 Clouds 6 1019 81 10000 2.79 200 02:28 02.11.2022
1207 Clear 7 1020 72 10000 2.76 214 22:21 01.11.2022
1208 Clear 6 1020 85 10000 2.76 214 21:54 01.11.2022
1209 Clear 7 1019 82 10000 2.63 211 20:28 01.11.2022
1210 Clear 7 1019 84 10000 2.63 211 19:59 01.11.2022
1211 Clear 8 1019 71 10000 2.63 211 19:41 01.11.2022
1212 Clouds 9 1019 74 10000 2.58 214 18:26 01.11.2022
1213 Clouds 12 1017 60 10000 3.17 238 16:28 01.11.2022
1214 Clouds 14 1017 64 10000 4 249 14:39 01.11.2022
1215 Clouds 14 1017 71 10000 5.44 256 12:57 01.11.2022
1216 Clouds 13 1016 72 10000 6.2 256 12:25 01.11.2022
1217 Clouds 13 1015 77 10000 5.81 244 11:20 01.11.2022
1218 Clouds 12 1015 81 10000 5.26 224 09:22 01.11.2022
1219 Clouds 12 1014 79 10000 4.09 214 07:51 01.11.2022
1220 Clouds 12 1013 78 10000 2.89 205 07:28 01.11.2022
1221 Rain 12 1013 76 10000 2.89 205 06:45 01.11.2022
1222 Rain 10 1013 88 10000 2.03 191 05:23 01.11.2022
1223 Clouds 9 1015 97 10000 2.75 130 22:44 31.10.2022
1224 Clouds 9 1017 96 10000 2.27 135 21:33 31.10.2022
1225 Clouds 10 1017 97 10000 2.31 130 19:57 31.10.2022
1226 Clouds 11 1018 94 10000 1.78 126 18:42 31.10.2022
1227 Clouds 13 1019 83 10000 1.74 141 16:44 31.10.2022
1228 Clouds 14 1019 77 10000 1.88 129 15:35 31.10.2022
1229 Clouds 14 1020 73 10000 1.69 130 12:30 31.10.2022
1230 Clouds 11 1021 85 10000 0.74 116 09:44 31.10.2022
1231 Clouds 8 1021 94 10000 0.43 341 07:41 31.10.2022
1232 Clouds 10 1021 83 10000 1.4 261 02:47 31.10.2022
1233 Clouds 10 1021 79 10000 1.6 260 01:48 31.10.2022
1234 Clouds 12 1020 84 10000 2.34 242 22:22 30.10.2022
1235 Clouds 12 1019 82 10000 2.97 239 20:43 30.10.2022
1236 Clouds 13 1019 81 10000 1.97 231 19:52 30.10.2022
1237 Clouds 15 1018 66 10000 1.49 188 16:42 30.10.2022
1238 Clouds 20 1018 52 10000 1.55 199 14:43 30.10.2022
1239 Clouds 20 1018 52 10000 1.58 212 13:51 30.10.2022
1240 Clouds 19 1019 51 10000 1.6 207 12:27 30.10.2022
1241 Clouds 15 1019 61 10000 1.22 207 10:25 30.10.2022
1242 Clouds 15 1019 66 10000 1.22 207 09:35 30.10.2022
1243 Clouds 12 1019 75 10000 1.35 220 07:57 30.10.2022
1244 Clouds 11 1020 84 10000 1.74 187 00:29 30.10.2022
1245 Clouds 11 1020 86 10000 1.74 187 23:47 29.10.2022
1246 Clouds 12 1020 86 10000 1.71 192 22:31 29.10.2022
1247 Clouds 13 1020 73 10000 1.34 187 19:41 29.10.2022
1248 Clouds 15 1020 71 10000 1.64 202 17:24 29.10.2022
1249 Clouds 16 1020 75 10000 1.65 230 15:40 29.10.2022
1250 Clouds 17 1020 58 10000 2.21 224 14:56 29.10.2022
1251 Clouds 17 1020 58 10000 2.21 224 14:36 29.10.2022
1252 Clouds 16 1021 71 10000 1.87 208 12:33 29.10.2022
1253 Clouds 11 1022 96 10000 1.33 193 09:43 29.10.2022
1254 Clouds 12 1022 89 10000 1.28 215 07:23 29.10.2022
1255 Clouds 11 1022 91 10000 1.49 224 05:55 29.10.2022
1256 Clouds 12 1022 86 10000 2.98 251 00:27 29.10.2022
1257 Clouds 13 1021 82 10000 3.18 233 22:23 28.10.2022
1258 Clouds 14 1021 79 10000 2.99 228 20:45 28.10.2022
1259 Clouds 15 1020 77 10000 2.56 206 18:50 28.10.2022
1260 Clouds 16 1019 74 10000 2.68 201 18:29 28.10.2022
1261 Clouds 20 1019 50 10000 3.61 209 15:29 28.10.2022
1262 Clouds 20 1019 50 10000 3.61 209 14:36 28.10.2022
1263 Clouds 19 1021 50 10000 4.06 214 12:26 28.10.2022
1264 Clouds 19 1021 51 10000 4.06 214 11:34 28.10.2022
1265 Clouds 18 1021 55 10000 3.29 204 10:47 28.10.2022
1266 Clouds 13 1021 80 10000 2.34 195 09:47 28.10.2022
1267 Clouds 11 1021 88 10000 2.3 178 08:21 28.10.2022
1268 Clouds 10 1022 90 10000 1.9 200 03:43 28.10.2022
1269 Clouds 12 1023 88 10000 2.23 183 23:49 27.10.2022
1270 Clouds 13 1023 77 10000 2.17 189 22:40 27.10.2022
1271 Clouds 12 1023 88 10000 2.15 186 21:35 27.10.2022
1272 Clouds 11 1023 89 10000 1.97 172 20:27 27.10.2022
1273 Clouds 13 1023 72 10000 2.12 170 18:22 27.10.2022
1274 Clouds 15 1024 64 10000 3.05 188 13:58 27.10.2022
1275 Clouds 9 1026 99 10000 1.66 161 09:24 27.10.2022
1276 Clouds 9 1025 96 10000 1.14 188 06:24 27.10.2022
1277 Clouds 10 1024 95 10000 1.88 233 23:55 26.10.2022
1278 Clouds 10 1023 94 10000 1.92 229 22:51 26.10.2022
1279 Clouds 10 1022 94 10000 1.97 226 22:22 26.10.2022
1280 Clouds 10 1022 94 10000 1.97 226 22:22 26.10.2022
1281 Clouds 10 1021 92 10000 1.84 215 19:53 26.10.2022
1282 Clouds 14 1019 71 10000 2.18 220 16:35 26.10.2022
1283 Clouds 13 1018 69 10000 3.22 202 14:52 26.10.2022
1284 Clouds 14 1018 61 10000 1.64 189 12:37 26.10.2022
1285 Clouds 11 1017 79 10000 1.96 193 11:26 26.10.2022
1286 Clouds 7 1017 95 10000 1.53 169 08:54 26.10.2022
1287 Clouds 6 1017 96 10000 1.53 169 08:36 26.10.2022
1288 Clouds 7 1018 98 10000 1.53 182 00:46 26.10.2022
1289 Clouds 7 1018 94 10000 1.37 187 00:23 26.10.2022
1290 Clouds 8 1018 94 10000 1.17 197 21:54 25.10.2022
1291 Clear 8 1018 94 10000 1.4 223 21:24 25.10.2022
1292 Clouds 9 1018 95 10000 1.55 235 19:57 25.10.2022
1293 Clouds 10 1018 86 10000 2.24 249 18:28 25.10.2022
1294 Clouds 12 1017 82 10000 3.67 256 14:58 25.10.2022
1295 Clouds 10 1016 90 10000 4.65 251 11:40 25.10.2022
1296 Rain 10 1016 98 10000 4.64 241 10:46 25.10.2022
1297 Rain 10 1016 94 10000 4.36 236 10:28 25.10.2022
1298 Clouds 9 1014 92 7244 3.89 233 08:19 25.10.2022
1299 Clouds 9 1014 93 7244 3.89 233 07:54 25.10.2022
1300 Clouds 9 1014 93 5988 4.02 232 07:26 25.10.2022
1301 Clouds 9 1013 98 10000 4.06 229 04:27 25.10.2022
1302 Clouds 9 1013 98 10000 3.93 227 03:20 25.10.2022
1303 Rain 10 1013 84 10000 3.56 224 00:31 25.10.2022
1304 Clouds 11 1012 74 10000 3.8 224 22:25 24.10.2022
1305 Clouds 11 1012 70 10000 3.8 224 21:34 24.10.2022
1306 Clouds 11 1012 70 10000 3.8 224 21:34 24.10.2022
1307 Clouds 11 1011 76 10000 3.89 227 20:44 24.10.2022
1308 Clouds 11 1011 82 10000 3.76 228 19:36 24.10.2022
1309 Clouds 14 1010 64 10000 5.32 234 17:53 24.10.2022
1310 Clouds 14 1010 61 10000 6.45 230 16:54 24.10.2022
1311 Clouds 15 1009 63 10000 6.84 222 14:50 24.10.2022
1312 Clouds 15 1010 66 10000 7.55 214 13:53 24.10.2022
1313 Clouds 14 1010 74 10000 6.55 213 12:18 24.10.2022
1314 Clouds 12 1009 81 10000 4.46 202 08:51 24.10.2022
1315 Clouds 11 1011 93 10000 2.9 195 00:58 24.10.2022
1316 Rain 11 1012 91 9501 3.23 224 21:43 23.10.2022
1317 Rain 11 1011 78 10000 2.29 179 20:21 23.10.2022
1318 Clouds 12 1011 76 10000 2.43 149 18:26 23.10.2022
1319 Clouds 12 1011 76 10000 2.43 149 18:26 23.10.2022
1320 Clouds 14 1012 59 10000 2.33 159 17:27 23.10.2022
1321 Clouds 14 1012 59 10000 2.33 159 17:27 23.10.2022
1322 Clouds 14 1013 62 10000 2.64 172 15:24 23.10.2022
1323 Clouds 15 1014 63 10000 2.66 176 13:24 23.10.2022
1324 Clouds 14 1015 68 10000 2.06 160 11:25 23.10.2022
1325 Clouds 8 1016 98 10000 1.61 159 09:18 23.10.2022
1326 Clouds 8 1017 97 10000 1.36 188 03:52 23.10.2022
1327 Clouds 9 1018 94 10000 1.41 223 22:32 22.10.2022
1328 Clouds 9 1017 98 10000 1.56 228 21:42 22.10.2022
1329 Clouds 10 1017 95 10000 1.79 238 20:56 22.10.2022
1330 Clouds 10 1017 89 10000 2.11 252 19:52 22.10.2022
1331 Clouds 11 1016 89 10000 2.57 258 19:29 22.10.2022
1332 Clouds 12 1015 91 10000 3.13 257 17:39 22.10.2022
1333 Clouds 14 1014 74 10000 3.84 243 15:58 22.10.2022
1334 Clouds 14 1014 74 10000 3.84 243 15:58 22.10.2022
1335 Clouds 14 1014 79 10000 4.48 248 14:47 22.10.2022
1336 Clouds 13 1014 77 10000 4.36 242 13:54 22.10.2022
1337 Clouds 11 1013 92 10000 3.4 229 10:30 22.10.2022
1338 Clouds 11 1013 95 10000 1.97 216 09:39 22.10.2022
1339 Clouds 10 1013 96 10000 1.49 214 08:37 22.10.2022
1340 Clouds 11 1011 95 10000 1.71 225 04:21 22.10.2022
1341 Clouds 11 1011 97 10000 1.97 215 00:19 22.10.2022
1342 Clouds 11 1011 97 10000 2.7 223 22:19 21.10.2022
1343 Clouds 10 1011 97 10000 2.7 223 21:32 21.10.2022
1344 Clouds 10 1011 96 9080 2.89 216 20:20 21.10.2022
1345 Clouds 11 1010 95 5112 2.39 222 17:50 21.10.2022
1346 Rain 12 1010 85 9200 2.44 222 14:32 21.10.2022
1347 Clouds 12 1010 85 9439 3.18 214 13:30 21.10.2022
1348 Clouds 13 1010 82 10000 3.79 207 11:45 21.10.2022
1349 Clouds 11 1010 89 10000 1.88 195 10:22 21.10.2022
1350 Clouds 10 1010 94 10000 1.91 180 08:42 21.10.2022
1351 Clouds 7 1010 94 10000 2.04 173 08:19 21.10.2022
1352 Clouds 7 1010 94 10000 2.04 173 08:19 21.10.2022
1353 Clouds 9 1013 95 10000 1.99 173 03:19 21.10.2022
1354 Clouds 8 1015 98 10000 1.83 175 22:36 20.10.2022
1355 Rain 8 1015 94 10000 1.73 177 20:53 20.10.2022
1356 Rain 8 1016 85 10000 1.93 171 19:42 20.10.2022
1357 Clouds 8 1017 83 10000 2.11 177 18:19 20.10.2022
1358 Clouds 9 1017 78 10000 2.11 177 17:38 20.10.2022
1359 Clouds 9 1017 70 10000 3.15 160 13:32 20.10.2022
1360 Clouds 9 1017 71 10000 3.25 136 12:31 20.10.2022
1361 Clouds 5 1019 76 10000 2.99 137 11:29 20.10.2022
1362 Clouds 4 1019 88 10000 2.99 137 10:51 20.10.2022
1363 Clouds 2 1021 88 10000 2.55 127 08:55 20.10.2022
1364 Clouds 1 1023 94 10000 2.31 129 05:54 20.10.2022
1365 Clouds 3 1025 89 10000 2.33 121 01:57 20.10.2022
1366 Clouds 3 1027 91 10000 2.13 117 22:53 19.10.2022
1367 Clouds 3 1027 90 10000 2.15 112 22:23 19.10.2022
1368 Clouds 3 1027 89 10000 1.96 113 21:20 19.10.2022
1369 Clouds 4 1027 87 10000 1.94 109 19:53 19.10.2022
1370 Clouds 7 1027 77 10000 2.22 92 17:44 19.10.2022
1371 Clouds 9 1026 72 10000 1.98 87 16:22 19.10.2022
1372 Clouds 9 1027 73 10000 1.36 88 13:59 19.10.2022
1373 Clouds 6 1029 88 10000 1.6 2 10:23 19.10.2022
1374 Clouds 5 1028 96 10000 1.27 350 08:47 19.10.2022
1375 Clouds 4 1028 98 10000 1.02 324 07:22 19.10.2022
1376 Clear 5 1028 99 10000 1.54 299 01:32 19.10.2022
1377 Clear 6 1028 94 10000 1.6 290 23:22 18.10.2022
1378 Clear 6 1028 98 10000 1.24 282 21:49 18.10.2022
1379 Clear 6 1028 98 10000 1.24 282 21:49 18.10.2022
1380 Clear 7 1028 98 10000 1.37 299 21:19 18.10.2022
1381 Clouds 8 1027 95 10000 1.54 301 20:26 18.10.2022
1382 Clouds 10 1027 97 10000 1.7 305 18:55 18.10.2022
1383 Clouds 13 1026 97 10000 3.18 303 16:56 18.10.2022
1384 Clouds 12 1025 98 10000 3.5 303 14:59 18.10.2022
1385 Clouds 12 1025 98 10000 2.29 292 13:38 18.10.2022
1386 Clouds 12 1025 99 10000 1.54 327 11:47 18.10.2022
1387 Rain 11 1025 99 1994 1.2 316 10:27 18.10.2022
1388 Rain 11 1024 99 1080 0.96 257 09:25 18.10.2022
1389 Rain 11 1025 99 5856 0.79 265 05:54 18.10.2022
1390 Clouds 14 1025 91 10000 1.93 270 23:35 17.10.2022
1391 Clouds 15 1025 79 10000 2.19 244 21:31 17.10.2022
1392 Clouds 14 1024 86 10000 2.11 225 20:47 17.10.2022
1393 Clouds 15 1024 82 10000 2.5 214 20:27 17.10.2022
1394 Clouds 15 1024 82 10000 2.5 214 19:41 17.10.2022
1395 Clouds 17 1023 73 10000 3.09 217 17:47 17.10.2022
1396 Clouds 20 1022 53 10000 5.72 230 15:55 17.10.2022
1397 Clouds 20 1022 54 10000 6.1 225 15:20 17.10.2022
1398 Clouds 18 1022 61 10000 4.27 207 12:48 17.10.2022
1399 Clouds 13 1021 81 10000 2.46 191 08:52 17.10.2022
1400 Clouds 10 1021 91 10000 1.56 144 01:25 17.10.2022
1401 Clouds 11 1021 86 10000 1.29 139 22:54 16.10.2022
1402 Clouds 10 1020 85 10000 0.95 154 21:21 16.10.2022
1403 Clouds 10 1020 85 10000 1.09 156 19:51 16.10.2022
1404 Clouds 10 1019 84 10000 1.07 191 19:27 16.10.2022
1405 Clouds 14 1018 63 10000 1.54 247 17:45 16.10.2022
1406 Clouds 15 1017 61 10000 3.96 254 16:26 16.10.2022
1407 Clouds 15 1017 62 10000 3.96 254 15:53 16.10.2022
1408 Clouds 13 1016 76 10000 5.15 235 12:29 16.10.2022
1409 Clouds 13 1015 79 10000 4.76 233 11:27 16.10.2022
1410 Clouds 11 1015 91 10000 3.51 225 10:26 16.10.2022
1411 Clouds 10 1012 96 10000 2.85 222 04:52 16.10.2022
1412 Clouds 11 1011 97 10000 3.27 221 23:43 15.10.2022
1413 Clouds 12 1010 93 10000 4.14 222 21:53 15.10.2022
1414 Clouds 12 1009 94 10000 4.1 217 21:18 15.10.2022
1415 Clouds 12 1009 95 10000 4.44 219 19:30 15.10.2022
1416 Clouds 13 1008 84 10000 4.63 218 17:23 15.10.2022
1417 Clouds 13 1008 78 10000 4.5 221 15:45 15.10.2022
1418 Clouds 13 1009 81 10000 3.47 217 13:26 15.10.2022
1419 Clouds 11 1009 87 10000 2.75 216 11:43 15.10.2022
1420 Clouds 10 1009 93 10000 1.75 223 09:37 15.10.2022
1421 Clouds 10 1008 96 5215 1.51 216 07:37 15.10.2022
1422 Rain 10 1009 95 5083 2.47 212 00:40 15.10.2022
1423 Clouds 10 1009 95 5124 2.4 202 22:42 14.10.2022
1424 Rain 10 1009 95 5164 2.33 194 22:22 14.10.2022
1425 Clouds 11 1010 87 9669 2.66 190 20:46 14.10.2022
1426 Clouds 11 1011 83 10000 3.45 190 18:51 14.10.2022
1427 Clouds 12 1012 78 10000 3.65 201 15:32 14.10.2022
1428 Clouds 12 1012 78 10000 3.65 201 15:32 14.10.2022
1429 Clouds 11 1014 77 10000 3.2 218 12:49 14.10.2022
1430 Clouds 10 1015 83 10000 2.5 220 11:26 14.10.2022
1431 Clouds 8 1015 96 10000 1.46 208 08:29 14.10.2022
1432 Clouds 9 1016 94 10000 1.58 209 06:47 14.10.2022
1433 Clouds 9 1016 94 10000 1.67 214 06:18 14.10.2022
1434 Clouds 9 1016 94 10000 1.67 214 05:42 14.10.2022
1435 Clouds 9 1016 92 10000 1.74 206 03:19 14.10.2022
1436 Clouds 8 1017 89 10000 1.65 222 23:42 13.10.2022
1437 Clouds 9 1017 87 10000 1.65 210 21:43 13.10.2022
1438 Clouds 9 1017 86 10000 1.77 213 20:49 13.10.2022
1439 Clouds 10 1017 83 10000 1.31 206 19:43 13.10.2022
1440 Clouds 10 1017 80 10000 1.52 205 18:52 13.10.2022
1441 Clouds 10 1017 78 10000 1.64 218 18:21 13.10.2022
1442 Clouds 12 1017 69 10000 3.64 243 15:51 13.10.2022
1443 Clouds 12 1017 69 10000 3.64 243 15:33 13.10.2022
1444 Clouds 12 1018 69 10000 3.46 228 13:54 13.10.2022
1445 Clouds 11 1018 74 10000 3.03 223 12:42 13.10.2022
1446 Clouds 9 1019 82 10000 2.53 221 10:59 13.10.2022
1447 Clouds 6 1020 94 10000 1.53 202 08:34 13.10.2022
1448 Clouds 6 1020 98 10000 1.45 205 07:38 13.10.2022
1449 Clouds 6 1021 93 10000 1.49 212 04:25 13.10.2022
1450 Clouds 6 1022 93 10000 1.45 204 01:40 13.10.2022
1451 Clouds 6 1022 92 10000 1.53 192 00:41 13.10.2022
1452 Clouds 5 1022 89 10000 1.51 168 22:45 12.10.2022
1453 Clouds 5 1023 88 10000 1.48 167 21:46 12.10.2022
1454 Clouds 5 1023 87 10000 1.41 162 21:19 12.10.2022
1455 Clouds 6 1023 84 10000 1.41 162 20:35 12.10.2022
1456 Clouds 7 1023 79 10000 0.94 157 19:22 12.10.2022
1457 Clouds 10 1022 67 10000 1.11 173 17:57 12.10.2022
1458 Clouds 11 1022 60 10000 1.43 199 16:59 12.10.2022
1459 Clouds 11 1023 52 10000 1.71 187 14:45 12.10.2022
1460 Clouds 12 1024 55 10000 1.91 172 13:53 12.10.2022
1461 Clouds 9 1025 63 10000 2.01 155 11:54 12.10.2022
1462 Clouds 5 1025 85 10000 1.63 145 09:36 12.10.2022
1463 Clouds 2 1026 91 10000 1.22 138 07:42 12.10.2022
1464 Clouds 2 1026 90 10000 1.03 136 06:44 12.10.2022
1465 Clouds 3 1026 90 10000 0.92 135 05:32 12.10.2022
1466 Clouds 3 1027 89 10000 0.75 132 00:32 12.10.2022
1467 Clouds 4 1027 84 10000 0.56 73 21:25 11.10.2022
1468 Clouds 5 1027 82 10000 0.56 73 20:30 11.10.2022
1469 Clouds 8 1026 72 10000 1.57 339 18:27 11.10.2022
1470 Clouds 10 1025 61 10000 2.37 314 16:24 11.10.2022
1471 Clouds 10 1026 65 10000 2.34 302 13:44 11.10.2022
1472 Clouds 8 1026 78 10000 2.18 303 11:32 11.10.2022
1473 Clear 6 1026 87 10000 1.76 281 10:27 11.10.2022
1474 Clear 4 1026 94 10000 1.17 253 08:46 11.10.2022
1475 Clouds 3 1024 100 10000 1.47 272 05:25 11.10.2022
1476 Clouds 6 1023 93 10000 1.42 289 01:52 11.10.2022
1477 Clouds 8 1021 92 10000 3.05 310 00:23 11.10.2022
1478 Rain 11 1018 78 10000 3.79 283 21:21 10.10.2022
1479 Clouds 11 1017 77 10000 3.66 280 19:45 10.10.2022
1480 Clouds 12 1016 70 10000 3.05 245 18:18 10.10.2022
1481 Clouds 14 1015 59 10000 3.78 237 16:43 10.10.2022
1482 Clouds 14 1015 58 10000 5.46 238 14:46 10.10.2022
1483 Clear 11 1016 67 10000 3.6 224 12:24 10.10.2022
1484 Clouds 9 1016 70 10000 3.17 219 11:18 10.10.2022
1485 Clear 4 1016 81 10000 1.94 175 07:47 10.10.2022
1486 Clear 3 1017 84 10000 1.9 165 05:39 10.10.2022
1487 Clear 4 1019 79 10000 2.13 151 02:50 10.10.2022
1488 Clear 5 1021 79 10000 2.72 142 00:26 10.10.2022
1489 Clear 4 1021 82 10000 2.71 126 22:27 09.10.2022
1490 Clear 5 1021 80 10000 2.71 126 21:54 09.10.2022
1491 Clear 5 1022 76 10000 2.69 122 20:57 09.10.2022
1492 Clear 6 1022 74 10000 2.62 120 19:54 09.10.2022
1493 Clear 7 1022 69 10000 2.62 120 19:32 09.10.2022
1494 Clear 9 1022 56 10000 2.31 117 18:32 09.10.2022
1495 Clouds 12 1022 48 10000 2.84 142 16:56 09.10.2022
1496 Clouds 12 1022 49 10000 2.84 142 16:32 09.10.2022
1497 Clouds 12 1022 51 10000 3.22 153 15:37 09.10.2022
1498 Clouds 12 1024 47 10000 3.28 162 14:29 09.10.2022
1499 Clouds 10 1025 63 10000 2.84 163 12:59 09.10.2022
1500 Clear 9 1026 69 10000 2.19 160 11:50 09.10.2022
1501 Clear 7 1026 81 10000 1.59 152 10:37 09.10.2022
1502 Clear 3 1027 94 10000 0.96 167 08:29 09.10.2022
1503 Clear 3 1026 93 10000 1.05 230 03:37 09.10.2022
1504 Clear 3 1026 93 10000 1.21 233 02:39 09.10.2022
1505 Clear 3 1026 95 10000 1.35 252 00:34 09.10.2022
1506 Clear 4 1025 89 10000 1.82 270 22:53 08.10.2022
1507 Clear 5 1025 88 10000 2.04 272 21:48 08.10.2022
1508 Clouds 6 1023 79 10000 2.5 275 20:27 08.10.2022
1509 Clouds 8 1022 74 10000 3.06 287 18:53 08.10.2022
1510 Clouds 10 1020 73 10000 5.12 279 16:38 08.10.2022
1511 Clouds 10 1019 68 10000 6.04 276 14:54 08.10.2022
1512 Clouds 10 1019 80 10000 4.69 264 13:25 08.10.2022
1513 Clouds 8 1019 86 10000 3.29 240 10:40 08.10.2022
1514 Clouds 7 1018 88 10000 3.25 245 10:21 08.10.2022
1515 Clouds 7 1018 86 10000 3.22 241 08:48 08.10.2022
1516 Clouds 6 1017 94 10000 2.06 225 03:59 08.10.2022
1517 Clouds 6 1018 89 10000 2.11 214 00:58 08.10.2022
1518 Clouds 8 1019 80 10000 1.97 216 23:32 07.10.2022
1519 Clouds 7 1019 79 10000 1.96 213 22:56 07.10.2022
1520 Clouds 8 1019 74 10000 2.09 208 21:40 07.10.2022
1521 Clouds 8 1020 76 10000 2.12 204 19:44 07.10.2022
1522 Clear 12 1020 48 10000 2.18 226 17:53 07.10.2022
1523 Clear 14 1020 50 10000 3.08 233 16:42 07.10.2022
1524 Clear 14 1021 53 10000 4.15 232 15:25 07.10.2022
1525 Clouds 13 1022 58 10000 4.05 233 13:55 07.10.2022
1526 Clouds 10 1025 64 10000 2.75 220 11:28 07.10.2022
1527 Clouds 6 1026 80 10000 1.48 196 09:25 07.10.2022
1528 Clear 3 1027 89 10000 1.5 184 08:20 07.10.2022
1529 Clear 4 1029 89 10000 1.29 190 02:52 07.10.2022
1530 Clear 5 1031 85 10000 1.14 201 22:54 06.10.2022
1531 Clear 5 1031 83 10000 1.18 207 21:57 06.10.2022
1532 Clear 6 1031 82 10000 1.18 207 21:36 06.10.2022
1533 Clear 6 1031 80 10000 1.18 211 20:39 06.10.2022
1534 Clear 10 1030 68 10000 1.38 252 18:56 06.10.2022
1535 Clear 10 1030 61 10000 1.38 252 18:32 06.10.2022
1536 Clear 13 1029 54 10000 4.38 261 15:38 06.10.2022
1537 Clouds 12 1029 63 10000 5.05 264 12:59 06.10.2022
1538 Clouds 9 1027 84 10000 5.24 268 09:27 06.10.2022
1539 Clouds 9 1021 95 10000 6.84 264 04:42 06.10.2022
1540 Clouds 13 1019 81 10000 5.53 238 01:47 06.10.2022
1541 Clouds 13 1018 78 10000 5.85 230 21:59 05.10.2022
1542 Clouds 13 1017 71 10000 4.74 219 19:45 05.10.2022
1543 Clouds 14 1016 63 10000 5.07 219 17:37 05.10.2022
1544 Clouds 14 1015 63 10000 5.35 220 16:45 05.10.2022
1545 Clouds 13 1016 70 10000 5.57 225 14:59 05.10.2022
1546 Clear 13 1016 70 10000 5.6 227 14:38 05.10.2022
1547 Clouds 12 1017 75 10000 5.43 224 13:29 05.10.2022
1548 Clouds 11 1018 76 10000 4.7 225 11:45 05.10.2022
1549 Clouds 6 1018 95 10000 2.66 216 08:26 05.10.2022
1550 Clouds 7 1018 86 10000 2.63 207 07:21 05.10.2022
1551 Clouds 6 1019 94 10000 2.58 212 05:32 05.10.2022
1552 Clouds 8 1020 79 10000 2.35 212 02:33 05.10.2022
1553 Clouds 7 1020 93 10000 2.29 210 00:41 05.10.2022
1554 Clouds 7 1021 93 10000 2.26 202 00:22 05.10.2022
1555 Clouds 8 1021 89 10000 2.15 206 21:25 04.10.2022
1556 Clear 9 1021 87 10000 2.18 202 20:20 04.10.2022
1557 Clear 11 1020 68 10000 2.15 219 18:56 04.10.2022
1558 Clear 11 1020 63 10000 2.15 219 18:34 04.10.2022
1559 Clear 14 1020 58 10000 2.97 221 16:58 04.10.2022
1560 Clouds 14 1021 58 10000 3.25 226 15:21 04.10.2022
1561 Clouds 10 1022 75 10000 2.04 223 10:54 04.10.2022
1562 Clouds 6 1023 95 10000 1.38 212 08:28 04.10.2022
1563 Clouds 6 1023 95 10000 1.2 224 06:22 04.10.2022
1564 Clouds 7 1025 93 10000 1.52 260 00:29 04.10.2022
1565 Clouds 8 1025 88 10000 1.64 266 22:58 03.10.2022
1566 Clouds 8 1025 89 10000 1.96 274 21:41 03.10.2022
1567 Clouds 9 1024 86 10000 2.25 274 20:43 03.10.2022
1568 Clouds 10 1024 82 10000 2.84 286 18:53 03.10.2022
1569 Clouds 11 1024 79 10000 3.39 290 17:38 03.10.2022
1570 Clouds 11 1024 76 10000 3.49 288 16:40 03.10.2022
1571 Clouds 12 1024 75 10000 4.3 300 15:26 03.10.2022
1572 Clouds 10 1025 83 10000 4.81 303 13:39 03.10.2022
1573 Clouds 9 1025 87 10000 4.42 302 11:45 03.10.2022
1574 Clouds 8 1025 97 10000 3.62 291 10:19 03.10.2022
1575 Clouds 7 1025 97 10000 3.15 287 08:59 03.10.2022
1576 Clouds 7 1023 99 10000 3.52 287 04:49 03.10.2022
1577 Clouds 6 1022 97 10000 3.25 286 01:51 03.10.2022
1578 Clouds 7 1020 96 10000 3.66 299 22:24 02.10.2022
1579 Clouds 7 1019 96 10000 3.17 296 20:32 02.10.2022
1580 Clouds 9 1016 92 10000 4.62 295 18:27 02.10.2022
1581 Clouds 10 1016 91 10000 4.62 295 17:32 02.10.2022
1582 Clouds 10 1016 94 10000 5.2 291 16:33 02.10.2022
1583 Clouds 10 1015 92 10000 5.6 289 15:40 02.10.2022
1584 Clouds 12 1015 74 10000 5.25 282 13:51 02.10.2022
1585 Clouds 11 1015 80 10000 5.41 276 12:51 02.10.2022
1586 Clouds 11 1015 83 10000 5.11 270 12:24 02.10.2022
1587 Clouds 10 1015 88 10000 5.11 270 11:36 02.10.2022
1588 Clouds 9 1015 92 10000 5.26 263 10:36 02.10.2022
1589 Clouds 8 1015 98 8584 4.77 244 08:53 02.10.2022
1590 Rain 7 1015 99 7653 3.87 234 07:29 02.10.2022
1591 Clouds 7 1014 98 10000 4.28 246 02:54 02.10.2022
1592 Clouds 7 1013 94 10000 4.99 256 00:45 02.10.2022
1593 Clouds 7 1013 94 10000 5.23 258 23:43 01.10.2022
1594 Rain 7 1012 93 10000 5.44 262 22:36 01.10.2022
1595 Clouds 7 1009 93 10000 5.37 264 20:21 01.10.2022
1596 Rain 8 1006 94 10000 5.9 259 17:55 01.10.2022
1597 Clouds 10 1005 89 10000 5.29 248 16:31 01.10.2022
1598 Clouds 8 1005 97 5092 5.83 233 14:26 01.10.2022
1599 Clouds 8 1005 96 4669 6.78 230 13:21 01.10.2022
1600 Clouds 7 1005 95 4669 6.78 230 12:30 01.10.2022
1601 Clouds 6 1004 96 1854 6.42 213 11:19 01.10.2022
1602 Rain 6 1004 96 1854 6.42 213 10:31 01.10.2022
1603 Rain 6 1005 95 6309 7.93 202 09:27 01.10.2022
1604 Rain 6 1005 94 6309 7.93 202 08:57 01.10.2022
1605 Clouds 7 1009 76 10000 3.6 200 04:19 01.10.2022
1606 Clouds 6 1010 76 10000 3.32 198 03:29 01.10.2022
1607 Clear 6 1011 80 10000 2.63 193 23:59 30.09.2022
1608 Clear 5 1011 83 10000 2.42 191 22:36 30.09.2022
1609 Clear 6 1011 77 10000 2.25 186 21:28 30.09.2022
1610 Clear 6 1011 77 10000 2.25 186 21:28 30.09.2022
1611 Clear 7 1011 77 10000 2.25 186 20:44 30.09.2022
1612 Clouds 7 1011 75 10000 2.2 184 19:49 30.09.2022
1613 Clouds 11 1010 53 10000 2.12 205 17:31 30.09.2022
1614 Clouds 12 1010 53 10000 3.66 245 15:56 30.09.2022
1615 Clear 11 1011 56 10000 3.31 227 13:30 30.09.2022
1616 Clear 9 1011 65 10000 2.37 210 11:57 30.09.2022
1617 Clear 7 1011 75 10000 1.9 207 10:30 30.09.2022
1618 Clear 3 1011 92 10000 0.99 204 08:26 30.09.2022
1619 Clear 2 1010 92 10000 1.12 207 05:54 30.09.2022
1620 Clouds 3 1009 88 10000 1.16 203 02:36 30.09.2022
1621 Clouds 4 1007 90 10000 1.06 174 22:40 29.09.2022
1622 Clouds 4 1006 89 10000 0.65 138 21:28 29.09.2022
1623 Clouds 4 1006 87 10000 0.65 138 20:57 29.09.2022
1624 Clouds 7 1005 78 10000 0.39 53 18:45 29.09.2022
1625 Clouds 9 1003 62 10000 1.35 283 17:24 29.09.2022
1626 Clouds 10 1003 59 10000 1.81 268 16:28 29.09.2022
1627 Clouds 10 1003 59 10000 1.81 268 15:36 29.09.2022
1628 Clouds 9 1003 61 10000 2.09 263 14:31 29.09.2022
1629 Clear 6 1002 83 10000 1.5 234 10:29 29.09.2022
1630 Clouds 2 1002 96 10000 1.16 204 07:22 29.09.2022
1631 Clouds 2 1001 93 10000 1.31 218 02:51 29.09.2022
1632 Clouds 4 1001 95 10000 1.44 217 23:56 28.09.2022
1633 Clouds 4 1001 95 10000 1.44 217 23:56 28.09.2022
1634 Clouds 4 1000 94 10000 1.51 220 22:44 28.09.2022
1635 Clouds 4 1000 96 10000 1.45 229 21:29 28.09.2022
1636 Clouds 4 999 96 10000 1.19 225 20:25 28.09.2022
1637 Clouds 5 999 95 10000 1.06 271 18:42 28.09.2022
1638 Clouds 6 997 94 10000 3.38 286 15:32 28.09.2022
1639 Clouds 5 996 94 10000 3.6 287 13:27 28.09.2022
1640 Clouds 4 995 97 10000 2.21 265 11:18 28.09.2022
1641 Clouds 4 995 99 4648 1.16 195 09:18 28.09.2022
1642 Clouds 4 995 98 7837 1.06 163 07:39 28.09.2022
1643 Rain 4 996 89 10000 2.2 176 04:34 28.09.2022
1644 Clouds 4 998 99 10000 2.44 207 01:36 28.09.2022
1645 Clouds 5 998 93 10000 3.4 230 23:27 27.09.2022
1646 Clouds 5 998 92 10000 3.19 229 21:47 27.09.2022
1647 Clouds 5 998 91 10000 2.77 234 20:44 27.09.2022
1648 Clouds 6 998 91 10000 3.07 240 19:49 27.09.2022
1649 Clouds 6 998 91 10000 3.07 240 19:30 27.09.2022
1650 Clouds 6 997 88 10000 4.36 259 17:46 27.09.2022
1651 Clouds 7 997 82 10000 5.46 261 15:59 27.09.2022
1652 Rain 8 996 78 10000 5.71 260 14:59 27.09.2022
1653 Clouds 8 996 86 10000 6.33 262 13:32 27.09.2022
1654 Clouds 7 996 89 10000 6.61 267 12:22 27.09.2022
1655 Rain 6 995 96 10000 5.11 264 09:49 27.09.2022
1656 Rain 6 994 98 7296 4.07 259 07:38 27.09.2022
1657 Rain 7 994 93 5351 3.97 211 02:59 27.09.2022
1658 Clouds 7 995 92 8348 4.58 206 01:35 27.09.2022
1659 Clouds 7 997 88 10000 5.37 211 23:39 26.09.2022
1660 Clouds 7 998 86 10000 5.98 216 23:20 26.09.2022
1661 Clouds 8 999 76 10000 5.31 221 20:48 26.09.2022
1662 Clouds 8 1000 78 10000 4.03 209 19:34 26.09.2022
1663 Clouds 8 1000 78 10000 4.68 216 18:38 26.09.2022
1664 Rain 8 1001 78 10000 5.84 222 17:24 26.09.2022
1665 Clouds 11 1002 59 10000 6.74 227 14:48 26.09.2022
1666 Clouds 10 1003 66 10000 6.24 221 12:30 26.09.2022
1667 Clouds 8 1005 79 10000 5.33 218 10:41 26.09.2022
1668 Clouds 8 1005 77 10000 3.82 210 10:22 26.09.2022
1669 Clouds 7 1005 78 10000 3.82 210 09:56 26.09.2022
1670 Clouds 7 1006 82 10000 2.87 205 09:26 26.09.2022
1671 Clouds 6 1006 82 10000 2.87 205 08:58 26.09.2022
1672 Clouds 5 1009 93 10000 2 235 03:48 26.09.2022
1673 Clouds 5 1010 92 10000 1.59 224 01:52 26.09.2022
1674 Clouds 6 1011 93 10000 1.03 277 23:20 25.09.2022
1675 Clouds 8 1012 91 10000 1.03 302 21:44 25.09.2022
1676 Clouds 8 1012 89 10000 1.53 317 20:57 25.09.2022
1677 Clouds 8 1012 87 10000 1.53 317 20:33 25.09.2022
1678 Clouds 10 1011 79 10000 2.4 324 18:44 25.09.2022
1679 Clouds 10 1011 78 10000 3.44 313 18:24 25.09.2022
1680 Clouds 10 1011 76 10000 3.89 300 17:22 25.09.2022
1681 Clouds 10 1011 82 10000 3.69 295 15:50 25.09.2022
1682 Clouds 10 1011 83 10000 3.63 293 14:35 25.09.2022
1683 Clouds 10 1012 86 10000 3.45 295 13:45 25.09.2022
1684 Clouds 8 1013 96 10000 2.09 276 10:38 25.09.2022
1685 Clouds 8 1013 95 10000 1.76 277 09:37 25.09.2022
1686 Clouds 8 1013 95 10000 1.42 261 06:53 25.09.2022
1687 Clouds 7 1013 94 10000 1.5 261 05:19 25.09.2022
1688 Clouds 8 1013 94 10000 0.67 245 23:36 24.09.2022
1689 Clouds 9 1013 96 10000 0.93 55 21:19 24.09.2022
1690 Rain 10 1013 90 10000 1.82 50 19:33 24.09.2022
1691 Rain 10 1013 84 10000 1.97 29 18:57 24.09.2022
1692 Rain 12 1012 69 10000 1.94 345 16:50 24.09.2022
1693 Clouds 13 1012 64 10000 1.54 291 15:23 24.09.2022
1694 Clouds 14 1012 61 10000 1.69 269 14:27 24.09.2022
1695 Clouds 13 1012 63 10000 1.41 262 13:18 24.09.2022
1696 Clouds 13 1013 62 10000 1.04 245 12:22 24.09.2022
1697 Clouds 9 1013 78 10000 0.67 225 09:58 24.09.2022
1698 Clouds 8 1013 82 10000 0.6 172 08:56 24.09.2022
1699 Rain 7 1013 85 10000 0.53 224 07:41 24.09.2022
1700 Clouds 7 1013 82 10000 0.78 204 04:52 24.09.2022
1701 Clouds 7 1014 81 10000 0.86 212 03:48 24.09.2022
1702 Clouds 9 1015 72 10000 1.2 188 22:54 23.09.2022
1703 Clouds 9 1015 71 10000 1.42 185 21:33 23.09.2022
1704 Clouds 9 1015 67 10000 1.32 170 20:57 23.09.2022
1705 Clouds 10 1015 68 10000 1.32 170 20:37 23.09.2022
1706 Clouds 10 1015 67 10000 1.26 184 19:19 23.09.2022
1707 Clouds 14 1016 46 10000 2.34 218 16:23 23.09.2022
1708 Clouds 13 1017 51 10000 2.82 220 12:52 23.09.2022
1709 Clouds 8 1019 67 10000 1.68 186 09:36 23.09.2022
1710 Clouds 3 1019 87 10000 1.34 168 06:51 23.09.2022
1711 Clouds 5 1022 84 10000 1.76 145 01:21 23.09.2022
1712 Clouds 7 1022 71 10000 1.64 142 23:29 22.09.2022
1713 Clouds 7 1022 72 10000 1.53 136 22:27 22.09.2022
1714 Clouds 6 1023 81 10000 1.55 134 21:24 22.09.2022
1715 Clouds 7 1022 83 10000 1.47 128 20:18 22.09.2022
1716 Clouds 10 1022 72 10000 1.44 124 18:44 22.09.2022
1717 Clouds 13 1023 57 10000 1.06 140 14:49 22.09.2022
1718 Clouds 9 1024 75 10000 1 121 10:39 22.09.2022
1719 Clouds 9 1024 77 10000 0.59 117 10:19 22.09.2022
1720 Clouds 4 1025 95 10000 0.38 206 07:50 22.09.2022
1721 Clouds 4 1025 94 10000 0.27 203 04:38 22.09.2022
1722 Clouds 5 1026 92 10000 0.31 148 00:25 22.09.2022
1723 Clouds 5 1026 90 10000 0.65 83 22:29 21.09.2022
1724 Clouds 6 1026 89 10000 0.8 46 21:18 21.09.2022
1725 Clouds 11 1025 66 10000 0.92 353 18:34 21.09.2022
1726 Clouds 11 1025 62 10000 0.94 345 17:41 21.09.2022
1727 Clouds 12 1026 67 10000 1.12 343 15:35 21.09.2022
1728 Clouds 11 1026 66 10000 1.13 340 13:41 21.09.2022
1729 Clouds 9 1026 75 10000 1.05 327 11:42 21.09.2022
1730 Clouds 8 1026 84 10000 0.87 322 10:54 21.09.2022
1731 Clouds 6 1027 96 10000 0.86 306 09:39 21.09.2022
1732 Clouds 6 1027 96 10000 0.86 306 09:39 21.09.2022
1733 Clear 3 1027 97 10000 0.54 312 08:31 21.09.2022
1734 Clear 2 1026 98 10000 0.58 289 03:51 21.09.2022
1735 Clear 3 1026 98 10000 0.57 293 02:38 21.09.2022
1736 Clear 3 1026 98 10000 0.61 292 01:52 21.09.2022
1737 Clear 3 1025 98 10000 0.55 319 00:19 21.09.2022
1738 Clear 4 1025 98 10000 0.57 326 21:52 20.09.2022
1739 Clear 5 1024 97 10000 0.78 303 20:32 20.09.2022
1740 Clouds 8 1022 93 10000 1.55 310 18:41 20.09.2022
1741 Rain 9 1021 86 10000 3.05 317 15:37 20.09.2022
1742 Clouds 9 1021 79 10000 2.82 304 14:18 20.09.2022
1743 Clouds 7 1021 96 10000 2.26 306 11:29 20.09.2022
1744 Clouds 6 1020 97 10000 2.37 293 08:44 20.09.2022
1745 Clouds 6 1020 97 7513 2.22 285 08:23 20.09.2022
1746 Clouds 5 1019 100 9431 2.31 272 04:37 20.09.2022
1747 Clouds 5 1019 100 10000 2.53 281 01:42 20.09.2022
1748 Clouds 6 1019 95 10000 3.5 298 22:44 19.09.2022
1749 Clouds 6 1018 94 10000 4.28 297 21:28 19.09.2022
1750 Rain 6 1018 95 10000 4.28 297 20:40 19.09.2022
1751 Clouds 6 1016 96 8527 4.01 294 18:49 19.09.2022
1752 Rain 7 1016 94 10000 4.33 284 17:20 19.09.2022
1753 Clouds 11 1016 67 10000 3.92 286 13:49 19.09.2022
1754 Clouds 10 1015 80 10000 4.14 292 12:26 19.09.2022
1755 Clouds 7 1015 95 6870 3.4 285 10:19 19.09.2022
1756 Clouds 6 1015 99 7525 3.42 285 08:41 19.09.2022
1757 Clouds 6 1012 97 6925 4.64 302 04:26 19.09.2022
1758 Clouds 5 1010 99 5764 4.88 295 00:52 19.09.2022
1759 Rain 5 1009 99 4941 5.96 291 22:42 18.09.2022
1760 Clouds 5 1009 95 10000 4.47 279 21:26 18.09.2022
1761 Clouds 4 1009 98 10000 5.74 285 19:56 18.09.2022
1762 Rain 5 1009 89 10000 5.69 284 17:53 18.09.2022
1763 Clouds 7 1009 85 10000 5.52 275 16:56 18.09.2022
1764 Rain 6 1010 88 10000 3.7 246 14:52 18.09.2022
1765 Rain 7 1011 89 8402 5.62 273 13:41 18.09.2022
1766 Rain 7 1010 86 10000 6.96 278 12:28 18.09.2022
1767 Clouds 7 1011 84 10000 5.94 280 10:28 18.09.2022
1768 Clouds 5 1011 92 10000 4.93 286 03:35 18.09.2022
1769 Rain 5 1010 96 10000 6.03 295 01:22 18.09.2022
1770 Clouds 5 1010 94 10000 7.11 297 23:36 17.09.2022
1771 Rain 5 1009 95 10000 6.89 291 21:35 17.09.2022
1772 Rain 6 1008 92 10000 6.89 292 19:40 17.09.2022
1773 Rain 6 1008 92 10000 6.89 292 19:40 17.09.2022
1774 Rain 6 1008 92 10000 6.95 289 18:43 17.09.2022
1775 Clouds 10 1008 53 10000 7.13 281 14:54 17.09.2022
1776 Clouds 11 1009 59 10000 6.96 287 13:38 17.09.2022
1777 Clouds 8 1009 84 10000 6.2 296 10:56 17.09.2022
1778 Rain 7 1009 95 10000 5.41 294 08:33 17.09.2022
1779 Clouds 7 1008 98 10000 4.76 294 06:21 17.09.2022
1780 Clouds 7 1007 87 4153 5.44 269 23:56 16.09.2022
1781 Rain 7 1007 82 7588 5.63 259 22:51 16.09.2022
1782 Clouds 7 1006 78 10000 7.1 267 20:54 16.09.2022
1783 Clouds 8 1006 83 10000 6.93 271 19:50 16.09.2022
1784 Rain 11 1006 63 10000 6.48 273 16:26 16.09.2022
1785 Clouds 12 1006 53 10000 6.32 276 14:53 16.09.2022
1786 Clouds 12 1007 55 10000 6.39 283 13:42 16.09.2022
1787 Clouds 9 1008 78 10000 6.17 280 10:46 16.09.2022
1788 Clouds 7 1008 93 7014 3.83 258 08:19 16.09.2022
1789 Clouds 7 1008 96 10000 3.75 260 06:48 16.09.2022
1790 Clouds 7 1008 96 10000 3.95 261 05:58 16.09.2022
1791 Clouds 7 1008 96 10000 3.07 259 02:37 16.09.2022
1792 Clouds 8 1008 93 10000 3.52 280 22:20 15.09.2022
1793 Clouds 8 1008 93 10000 3.52 280 22:20 15.09.2022
1794 Clouds 9 1007 91 10000 4.2 278 20:39 15.09.2022
1795 Rain 10 1007 90 10000 4.49 273 19:45 15.09.2022
1796 Clouds 12 1005 72 10000 4.79 285 18:29 15.09.2022
1797 Clouds 12 1005 67 10000 4.79 285 17:31 15.09.2022
1798 Clouds 13 1006 66 10000 4.98 280 15:50 15.09.2022
1799 Clouds 11 1006 79 10000 4.77 282 13:19 15.09.2022
1800 Clouds 10 1006 92 10000 4.07 280 11:48 15.09.2022
1801 Clouds 9 1006 94 10000 2.8 270 09:46 15.09.2022
1802 Clouds 8 1006 99 10000 2.46 267 07:45 15.09.2022
1803 Clouds 7 1005 99 10000 1.72 262 03:49 15.09.2022
1804 Clouds 9 1005 98 10000 1.45 240 23:32 14.09.2022
1805 Rain 10 1004 99 10000 0.92 257 20:48 14.09.2022
1806 Rain 10 1004 98 10000 0.83 239 19:33 14.09.2022
1807 Rain 11 1004 98 10000 0.3 228 18:26 14.09.2022
1808 Rain 12 1005 94 10000 0.89 259 16:40 14.09.2022
1809 Rain 12 1005 90 10000 1.25 290 15:29 14.09.2022
1810 Rain 13 1006 80 10000 0.65 322 13:35 14.09.2022
1811 Clouds 12 1006 80 10000 0.82 266 10:47 14.09.2022
1812 Clouds 11 1007 82 10000 0.8 253 09:27 14.09.2022
1813 Clouds 10 1007 91 10000 0.05 230 06:51 14.09.2022
1814 Clouds 10 1007 89 10000 0.05 230 06:33 14.09.2022
1815 Clouds 10 1008 90 10000 0.4 307 03:54 14.09.2022
1816 Clouds 11 1008 93 10000 1.08 259 01:41 14.09.2022
1817 Clouds 11 1008 93 10000 1.16 282 01:19 14.09.2022
1818 Clouds 12 1009 91 10000 1.01 291 23:55 13.09.2022
1819 Clouds 12 1009 93 10000 1.01 291 23:37 13.09.2022
1820 Clouds 12 1009 94 10000 1.39 292 23:19 13.09.2022
1821 Clouds 12 1009 94 10000 1.39 292 22:43 13.09.2022
1822 Clouds 12 1009 94 10000 1.39 292 22:43 13.09.2022
1823 Clouds 13 1009 93 10000 2.17 290 21:42 13.09.2022
1824 Clouds 16 1009 85 10000 1.66 301 19:32 13.09.2022
1825 Clouds 18 1008 72 10000 2.3 303 16:45 13.09.2022
1826 Clouds 17 1009 72 10000 2.95 312 15:53 13.09.2022
1827 Clouds 18 1009 63 10000 4.1 275 13:54 13.09.2022
1828 Clouds 18 1009 62 10000 3.83 255 12:28 13.09.2022
1829 Clouds 13 1010 79 10000 1.87 233 08:32 13.09.2022
1830 Clouds 10 1011 88 10000 1.9 213 04:32 13.09.2022
1831 Clouds 12 1013 72 10000 2.06 165 23:32 12.09.2022
1832 Clouds 12 1014 72 10000 2.03 163 22:49 12.09.2022
1833 Clouds 12 1014 75 10000 1.82 159 21:36 12.09.2022
1834 Clouds 13 1014 72 10000 1.22 134 20:25 12.09.2022
1835 Clouds 17 1014 55 10000 1.08 121 18:42 12.09.2022
1836 Clouds 18 1015 54 10000 1.08 215 16:21 12.09.2022
1837 Clouds 17 1016 59 10000 1.04 217 13:41 12.09.2022
1838 Clouds 15 1017 71 10000 0.95 214 11:22 12.09.2022
1839 Clouds 13 1017 87 10000 1.11 211 09:35 12.09.2022
1840 Clouds 8 1018 95 10000 0.2 202 04:46 12.09.2022
1841 Clouds 8 1018 96 10000 0.41 252 03:33 12.09.2022
1842 Clouds 9 1019 94 10000 0.93 283 23:22 11.09.2022
1843 Clouds 10 1019 94 10000 0.83 287 21:58 11.09.2022
1844 Clouds 11 1019 93 10000 0.63 312 20:46 11.09.2022
1845 Clouds 12 1018 87 10000 1.28 345 19:52 11.09.2022
1846 Clouds 13 1018 80 10000 1.62 342 19:22 11.09.2022
1847 Clouds 14 1018 76 10000 2.45 331 18:20 11.09.2022
1848 Clouds 15 1018 76 10000 2.84 322 16:34 11.09.2022
1849 Clouds 14 1018 58 10000 2.87 325 14:19 11.09.2022
1850 Clouds 13 1018 94 10000 2.83 328 12:33 11.09.2022
1851 Clouds 11 1017 98 10000 2.04 313 08:48 11.09.2022
1852 Clouds 10 1016 98 10000 1.73 292 06:56 11.09.2022
1853 Clouds 10 1014 98 10000 0.91 277 00:50 11.09.2022
1854 Clouds 11 1014 98 10000 0.68 251 22:55 10.09.2022
1855 Clouds 11 1013 96 10000 1.41 240 20:59 10.09.2022
1856 Clouds 12 1013 90 9559 1.58 242 19:47 10.09.2022
1857 Clouds 13 1012 88 10000 1.58 239 19:28 10.09.2022
1858 Clouds 13 1012 85 10000 1.58 239 18:51 10.09.2022
1859 Rain 14 1012 85 10000 3.23 245 15:49 10.09.2022
1860 Clouds 15 1012 73 10000 4.04 237 14:42 10.09.2022
1861 Clouds 13 1012 94 10000 3.65 227 12:52 10.09.2022
1862 Clouds 14 1012 73 10000 3.35 221 10:58 10.09.2022
1863 Clouds 13 1012 78 10000 2.59 214 09:37 10.09.2022
1864 Clouds 11 1012 87 10000 1.88 208 08:36 10.09.2022
1865 Clouds 10 1012 90 10000 1.94 207 06:43 10.09.2022
1866 Clouds 11 1012 93 10000 2.22 204 00:40 10.09.2022
1867 Clouds 11 1012 92 10000 2.29 202 23:32 09.09.2022
1868 Clouds 11 1012 89 10000 2.34 201 22:18 09.09.2022
1869 Clouds 13 1012 71 10000 2.41 203 20:46 09.09.2022
1870 Clouds 16 1010 58 10000 2.64 210 19:24 09.09.2022
1871 Clouds 16 1010 54 10000 2.64 210 18:47 09.09.2022
1872 Clouds 18 1010 54 10000 4.64 215 16:23 09.09.2022
1873 Clouds 17 1011 62 10000 5.17 219 13:49 09.09.2022
1874 Clouds 15 1011 76 10000 4.66 217 12:30 09.09.2022
1875 Clouds 13 1011 87 10000 3.54 214 09:55 09.09.2022
1876 Clouds 10 1010 94 10000 1.78 180 05:19 09.09.2022
1877 Clouds 10 1011 94 10000 1.99 187 03:20 09.09.2022
1878 Clear 11 1010 95 10000 2.04 214 21:53 08.09.2022
1879 Clear 12 1010 96 10000 1.48 227 20:56 08.09.2022
1880 Rain 12 1010 95 10000 1.48 227 20:31 08.09.2022
1881 Clouds 12 1009 95 10000 2.33 254 19:56 08.09.2022
1882 Clouds 14 1009 92 10000 4.05 259 18:22 08.09.2022
1883 Rain 13 1009 97 10000 3.59 269 16:19 08.09.2022
1884 Rain 13 1009 99 6532 3.92 260 14:40 08.09.2022
1885 Rain 13 1008 98 2252 2.01 218 13:27 08.09.2022
1886 Rain 13 1008 98 2246 1.74 191 11:57 08.09.2022
1887 Rain 14 1008 93 5932 1.3 209 10:57 08.09.2022
1888 Rain 14 1008 78 10000 1.88 174 08:51 08.09.2022
1889 Rain 12 1009 95 10000 1.21 108 06:42 08.09.2022
1890 Clouds 12 1011 94 10000 0.5 108 02:37 08.09.2022
1891 Clouds 13 1012 94 10000 0.75 121 02:18 08.09.2022
1892 Clouds 13 1012 94 10000 0.58 98 00:56 08.09.2022
1893 Clouds 15 1012 89 10000 0.65 57 22:44 07.09.2022
1894 Clouds 16 1012 85 10000 0.76 34 21:42 07.09.2022
1895 Clouds 16 1012 83 10000 1.13 339 20:49 07.09.2022
1896 Clouds 16 1012 93 10000 1.13 326 19:40 07.09.2022
1897 Clouds 21 1012 62 9502 1.7 260 17:49 07.09.2022
1898 Clouds 23 1013 49 10000 1.88 259 14:26 07.09.2022
1899 Clouds 17 1014 88 10000 1.42 173 10:48 07.09.2022
1900 Clouds 15 1013 80 10000 1.65 101 09:19 07.09.2022
1901 Clouds 14 1015 86 10000 1.16 253 07:23 07.09.2022
1902 Clouds 13 1015 91 10000 1.63 138 03:19 07.09.2022
1903 Clouds 15 1016 88 10000 2.07 107 22:59 06.09.2022
1904 Clouds 16 1016 82 10000 2.56 94 21:41 06.09.2022
1905 Clouds 16 1016 72 10000 2.59 99 20:45 06.09.2022
1906 Clouds 21 1015 59 10000 1.89 103 18:45 06.09.2022
1907 Clouds 21 1015 57 10000 2.82 103 18:22 06.09.2022
1908 Clouds 21 1016 53 10000 2.03 112 17:22 06.09.2022
1909 Clouds 21 1016 53 10000 2.03 112 16:37 06.09.2022
1910 Clouds 22 1016 47 10000 3.17 129 15:22 06.09.2022
1911 Clouds 21 1018 54 10000 2.95 128 13:45 06.09.2022
1912 Clouds 21 1018 54 10000 2.95 128 13:45 06.09.2022
1913 Clouds 20 1018 58 10000 3.02 119 13:24 06.09.2022
1914 Clouds 18 1018 65 10000 2.59 116 11:57 06.09.2022
1915 Clouds 15 1019 75 10000 1.89 119 10:41 06.09.2022
1916 Clouds 12 1019 93 10000 2.23 115 08:50 06.09.2022
1917 Clouds 11 1019 96 10000 1.92 113 07:45 06.09.2022
1918 Clouds 13 1020 95 10000 2.2 105 02:44 06.09.2022
1919 Clouds 15 1020 92 10000 3 100 23:23 05.09.2022
1920 Clouds 14 1021 88 10000 3.3 100 22:21 05.09.2022
1921 Clouds 15 1021 93 10000 3.41 83 20:35 05.09.2022
1922 Clouds 18 1021 77 10000 2.53 90 19:20 05.09.2022
1923 Clouds 19 1021 72 10000 2.53 90 18:45 05.09.2022
1924 Clouds 21 1021 65 10000 1.68 116 18:21 05.09.2022
1925 Clouds 21 1021 61 10000 1.86 136 16:37 05.09.2022
1926 Clouds 23 1021 47 10000 2.42 139 15:47 05.09.2022
1927 Clouds 21 1022 53 10000 2.96 139 13:26 05.09.2022
1928 Clouds 22 1022 48 10000 2.84 132 12:28 05.09.2022
1929 Clouds 16 1023 66 10000 2.4 112 10:18 05.09.2022
1930 Clouds 13 1022 77 10000 2.08 105 06:42 05.09.2022
1931 Clouds 14 1023 69 10000 1.97 104 02:19 05.09.2022
1932 Clouds 16 1022 66 10000 2.32 104 23:26 04.09.2022
1933 Clouds 16 1022 64 10000 2.03 110 22:27 04.09.2022
1934 Clouds 17 1022 62 10000 2.03 110 21:31 04.09.2022
1935 Clouds 19 1021 50 10000 1.49 112 19:38 04.09.2022
1936 Clouds 21 1020 48 10000 1.34 107 18:20 04.09.2022
1937 Clouds 22 1020 45 10000 1.32 91 16:56 04.09.2022
1938 Clouds 22 1019 43 10000 1.25 112 14:33 04.09.2022
1939 Clouds 22 1019 43 10000 1.76 117 13:49 04.09.2022
1940 Clouds 20 1019 52 10000 1.72 117 12:18 04.09.2022
1941 Clouds 16 1019 59 10000 1.59 113 10:47 04.09.2022
1942 Clouds 11 1019 77 10000 1.34 109 08:20 04.09.2022
1943 Clouds 9 1018 78 10000 1.69 95 05:35 04.09.2022
1944 Clouds 12 1017 60 10000 1.96 91 00:53 04.09.2022
1945 Clouds 14 1016 53 10000 2.22 88 22:24 03.09.2022
1946 Clouds 15 1016 55 10000 2.17 85 21:23 03.09.2022
1947 Clear 16 1015 52 10000 2.54 83 19:56 03.09.2022
1948 Clear 19 1014 37 10000 3.69 111 17:29 03.09.2022
1949 Clear 19 1014 36 10000 3.69 111 16:33 03.09.2022
1950 Clear 20 1015 36 10000 3.91 115 14:46 03.09.2022
1951 Clouds 19 1015 36 10000 4.23 116 14:26 03.09.2022
1952 Clouds 19 1015 38 10000 4.57 116 13:21 03.09.2022
1953 Clouds 15 1016 52 10000 5.02 114 10:55 03.09.2022
1954 Clouds 10 1016 72 10000 3.62 116 08:41 03.09.2022
1955 Clear 7 1017 77 10000 2.37 110 06:58 03.09.2022
1956 Clear 8 1017 71 10000 2.66 114 04:40 03.09.2022
1957 Clear 11 1018 57 10000 2.87 107 00:41 03.09.2022
1958 Clear 13 1018 54 10000 3.03 109 23:20 02.09.2022
1959 Clear 13 1017 58 10000 2.77 99 21:19 02.09.2022
1960 Clear 14 1017 43 10000 2.82 99 20:39 02.09.2022
1961 Clouds 17 1017 41 10000 2.37 85 19:30 02.09.2022
1962 Clouds 17 1017 36 10000 2.9 101 18:43 02.09.2022
1963 Clouds 17 1017 37 10000 4.04 113 18:24 02.09.2022
1964 Clouds 17 1017 37 10000 4.04 113 18:24 02.09.2022
1965 Clouds 18 1017 38 10000 4.03 114 16:50 02.09.2022
1966 Clouds 19 1017 37 10000 4.07 111 15:40 02.09.2022
1967 Clouds 17 1019 45 10000 4.1 114 12:49 02.09.2022
1968 Clear 14 1020 60 10000 3.49 107 10:25 02.09.2022
1969 Clear 14 1020 60 10000 3.49 107 10:25 02.09.2022
1970 Clear 13 1020 61 10000 3.49 107 09:41 02.09.2022
1971 Clear 10 1020 76 10000 2.68 106 08:35 02.09.2022
1972 Clear 8 1020 82 10000 2.11 100 06:42 02.09.2022
1973 Clear 8 1021 79 10000 2.05 107 03:53 02.09.2022
1974 Clear 10 1022 61 10000 2.11 83 22:54 01.09.2022
1975 Clear 12 1022 67 10000 2.72 79 21:45 01.09.2022
1976 Clear 12 1022 60 10000 2.47 74 21:26 01.09.2022
1977 Clear 12 1022 54 10000 2.18 72 20:48 01.09.2022
1978 Clear 16 1021 41 10000 2.64 77 19:23 01.09.2022
1979 Clear 18 1021 38 10000 3.47 77 17:49 01.09.2022
1980 Clear 18 1021 37 10000 3.54 73 16:41 01.09.2022
1981 Clouds 18 1022 40 10000 3.13 78 14:34 01.09.2022
1982 Clouds 17 1022 47 10000 3.69 74 12:59 01.09.2022
1983 Clouds 17 1022 52 10000 3.83 76 11:57 01.09.2022
1984 Clouds 17 1022 51 10000 3.83 76 11:38 01.09.2022
1985 Clouds 16 1023 55 10000 3.87 77 11:18 01.09.2022
1986 Clouds 11 1023 78 10000 2.71 68 08:53 01.09.2022
1987 Clouds 6 1023 89 10000 1.83 63 06:28 01.09.2022
1988 Clouds 9 1024 75 10000 1.72 64 01:45 01.09.2022
1989 Clouds 10 1024 71 10000 1.66 66 00:33 01.09.2022
1990 Clouds 11 1023 64 10000 1.98 69 22:21 31.08.2022
1991 Clouds 15 1022 52 10000 2.08 70 20:22 31.08.2022
1992 Clouds 18 1022 43 10000 2.84 65 18:19 31.08.2022
1993 Clouds 18 1022 48 10000 2.94 73 16:32 31.08.2022
1994 Clouds 18 1022 53 10000 3.23 65 14:58 31.08.2022
1995 Clouds 16 1023 62 10000 2.95 69 12:30 31.08.2022
1996 Clouds 15 1023 66 10000 3.04 72 11:38 31.08.2022
1997 Clouds 12 1023 79 10000 2.55 63 09:25 31.08.2022
1998 Clouds 11 1022 90 10000 2.13 63 06:35 31.08.2022
1999 Clouds 13 1022 85 10000 2.28 59 01:25 31.08.2022
2000 Clouds 13 1021 75 10000 2.81 65 21:49 30.08.2022
2001 Clouds 13 1022 74 10000 2.5 64 21:21 30.08.2022
2002 Clouds 18 1020 57 10000 1.71 50 18:53 30.08.2022
2003 Clouds 18 1020 59 10000 0.36 129 16:35 30.08.2022
2004 Clouds 16 1021 76 10000 1.9 68 13:30 30.08.2022
2005 Clouds 15 1022 85 10000 1.41 53 11:22 30.08.2022
2006 Clouds 15 1022 77 10000 1.41 53 10:57 30.08.2022
2007 Clouds 12 1022 94 10000 0.93 45 08:49 30.08.2022
2008 Clouds 9 1021 92 10000 0.99 87 03:55 30.08.2022
2009 Clouds 11 1021 87 10000 1.38 50 00:26 30.08.2022
2010 Clouds 13 1021 80 10000 0.89 50 22:34 29.08.2022
2011 Clouds 14 1021 77 10000 0.63 57 21:48 29.08.2022
2012 Clouds 15 1021 72 10000 0.71 40 20:34 29.08.2022
2013 Clouds 18 1019 59 10000 2.16 8 18:55 29.08.2022
2014 Clouds 19 1020 57 10000 2.54 350 17:26 29.08.2022
2015 Clouds 18 1020 59 10000 2.54 350 16:56 29.08.2022
2016 Clouds 18 1020 61 10000 1.65 329 15:18 29.08.2022
2017 Clouds 17 1020 66 10000 1.4 323 13:40 29.08.2022
2018 Clouds 15 1020 70 10000 1.34 331 11:44 29.08.2022
2019 Clouds 13 1021 75 10000 1.22 316 10:42 29.08.2022
2020 Clouds 10 1021 86 10000 1.49 276 08:40 29.08.2022
2021 Clouds 6 1021 89 10000 1.17 258 06:26 29.08.2022
2022 Clear 8 1021 86 10000 1.35 287 01:58 29.08.2022
2023 Clear 10 1020 76 10000 1.33 329 22:55 28.08.2022
2024 Clear 12 1020 69 10000 1.43 331 21:46 28.08.2022
2025 Clear 13 1019 63 10000 1.82 331 20:59 28.08.2022
2026 Clear 15 1018 55 10000 2.28 326 19:59 28.08.2022
2027 Clear 17 1017 49 10000 4.14 314 18:22 28.08.2022
2028 Clear 18 1017 50 10000 4.14 314 17:50 28.08.2022
2029 Clear 18 1017 52 10000 4.14 311 16:42 28.08.2022
2030 Clear 18 1017 55 10000 3.8 321 14:46 28.08.2022
2031 Clear 18 1017 55 10000 3.8 321 14:46 28.08.2022
2032 Clouds 16 1018 62 10000 3.7 319 12:57 28.08.2022
2033 Clouds 14 1018 71 10000 3.18 319 11:24 28.08.2022
2034 Clouds 13 1018 73 10000 2.87 317 10:20 28.08.2022
2035 Clouds 12 1018 85 10000 2.07 310 08:49 28.08.2022
2036 Clouds 11 1018 88 10000 2.08 306 07:51 28.08.2022
2037 Clouds 10 1017 88 10000 1.79 302 07:23 28.08.2022
2038 Clouds 12 1017 88 10000 1.62 318 00:36 28.08.2022
2039 Clouds 14 1016 88 10000 2.38 317 22:58 27.08.2022
2040 Clouds 14 1016 88 10000 1.53 288 22:24 27.08.2022
2041 Clouds 15 1016 88 10000 1.24 288 20:35 27.08.2022
2042 Clouds 15 1015 90 10000 2.15 314 18:57 27.08.2022
2043 Clouds 16 1015 93 10000 2.87 309 16:26 27.08.2022
2044 Clouds 15 1015 94 10000 2.87 309 15:31 27.08.2022
2045 Clouds 14 1015 96 5563 2.29 297 13:18 27.08.2022
2046 Clouds 14 1015 96 5162 2.28 303 11:58 27.08.2022
2047 Clouds 14 1014 97 7023 2.62 313 10:27 27.08.2022
2048 Clouds 14 1014 96 7023 2.62 313 09:31 27.08.2022
2049 Rain 14 1013 96 1760 2.7 314 05:59 27.08.2022
2050 Clouds 16 1013 95 3999 2.29 303 00:52 27.08.2022
2051 Rain 16 1013 94 10000 2.32 307 23:36 26.08.2022
2052 Rain 16 1013 92 10000 1.07 332 21:46 26.08.2022
2053 Rain 18 1012 86 10000 2.14 314 19:50 26.08.2022
2054 Clouds 19 1012 81 10000 1.79 325 17:53 26.08.2022
2055 Clouds 25 1013 49 10000 0.34 177 15:45 26.08.2022
2056 Clouds 25 1013 51 10000 1.4 30 15:24 26.08.2022
2057 Rain 24 1013 56 10000 1.09 24 12:59 26.08.2022
2058 Clouds 24 1013 64 10000 0.78 50 11:47 26.08.2022
2059 Clouds 22 1014 72 10000 0.91 70 11:21 26.08.2022
2060 Rain 18 1014 81 10000 0.86 95 08:21 26.08.2022
2061 Clouds 18 1015 82 10000 1.01 116 03:51 26.08.2022
2062 Clouds 19 1016 72 10000 1.8 105 23:47 25.08.2022
2063 Clouds 19 1016 69 10000 1.87 106 22:39 25.08.2022
2064 Clouds 20 1016 84 10000 1.98 101 20:54 25.08.2022
2065 Clouds 20 1016 84 10000 1.98 101 20:54 25.08.2022
2066 Clouds 23 1015 51 10000 2.76 89 19:35 25.08.2022
2067 Clouds 24 1016 50 10000 2.62 95 18:29 25.08.2022
2068 Clouds 24 1016 50 10000 2.62 95 17:31 25.08.2022
2069 Clouds 24 1016 49 10000 2.87 97 16:40 25.08.2022
2070 Clouds 25 1017 50 10000 3.26 107 15:29 25.08.2022
2071 Clouds 24 1017 55 10000 3.12 103 13:51 25.08.2022
2072 Clouds 22 1018 65 10000 3.43 104 11:21 25.08.2022
2073 Clouds 21 1018 67 10000 3.43 104 10:42 25.08.2022
2074 Clear 14 1020 88 10000 1.43 101 07:35 25.08.2022
2075 Clear 14 1020 78 10000 1.44 107 02:51 25.08.2022
2076 Clear 15 1021 66 10000 1.61 99 23:36 24.08.2022
2077 Clear 16 1021 63 10000 1.74 100 22:55 24.08.2022
2078 Clear 17 1021 57 10000 1.87 96 21:55 24.08.2022
2079 Clear 19 1021 49 10000 2.19 89 21:28 24.08.2022
2080 Clouds 22 1020 42 10000 2.31 81 19:56 24.08.2022
2081 Clouds 26 1019 33 10000 3.54 65 16:58 24.08.2022
2082 Clouds 26 1019 33 10000 3.48 62 15:54 24.08.2022
2083 Clouds 27 1019 34 10000 3.09 64 15:18 24.08.2022
2084 Clouds 25 1019 40 10000 2.52 78 12:51 24.08.2022
2085 Clouds 22 1020 50 10000 1.72 89 11:19 24.08.2022
2086 Clouds 17 1020 66 10000 1.15 124 08:45 24.08.2022
2087 Clouds 13 1020 77 10000 1.19 146 06:23 24.08.2022
2088 Clouds 15 1019 66 10000 1.52 135 00:53 24.08.2022
2089 Clouds 17 1019 52 10000 1.99 126 22:41 23.08.2022
2090 Clouds 18 1019 53 10000 2.32 116 21:55 23.08.2022
2091 Clouds 19 1019 52 10000 2.32 103 20:47 23.08.2022
2092 Clouds 22 1017 42 10000 2.91 98 19:24 23.08.2022
2093 Clouds 23 1017 40 10000 2.74 100 18:18 23.08.2022
2094 Clear 24 1017 38 10000 2.3 97 17:28 23.08.2022
2095 Clear 24 1017 38 10000 1.85 102 16:26 23.08.2022
2096 Clouds 24 1017 39 10000 1.96 117 14:30 23.08.2022
2097 Clear 23 1018 40 10000 2.41 130 12:46 23.08.2022
2098 Clear 21 1018 45 10000 2.56 136 11:19 23.08.2022
2099 Clear 19 1018 49 10000 2.56 136 10:33 23.08.2022
2100 Clear 17 1018 58 10000 2.29 137 09:38 23.08.2022
2101 Clear 15 1018 66 10000 2.04 135 08:47 23.08.2022
2102 Clear 14 1018 70 10000 1.6 138 08:19 23.08.2022
2103 Clear 13 1018 75 10000 1.6 138 07:33 23.08.2022
2104 Clear 11 1017 79 10000 1.41 139 06:25 23.08.2022
2105 Clouds 14 1018 72 10000 1.58 143 01:52 23.08.2022
2106 Clouds 15 1017 72 10000 1.88 137 00:27 23.08.2022
2107 Clouds 15 1017 72 10000 1.88 137 23:32 22.08.2022
2108 Clouds 16 1017 56 10000 2.51 121 22:25 22.08.2022
2109 Clouds 18 1017 53 10000 2.87 119 20:58 22.08.2022
2110 Clouds 20 1016 54 10000 3.01 115 19:46 22.08.2022
2111 Clouds 22 1015 36 10000 2.62 99 18:38 22.08.2022
2112 Clouds 23 1015 36 10000 1.37 83 16:26 22.08.2022
2113 Clouds 23 1015 35 10000 1.37 83 15:36 22.08.2022
2114 Clear 22 1016 43 10000 0.74 73 12:56 22.08.2022
2115 Clear 17 1016 59 10000 0.61 64 09:57 22.08.2022
2116 Clear 12 1017 77 10000 0.21 26 07:40 22.08.2022
2117 Clear 12 1016 73 10000 0.71 346 02:50 22.08.2022
2118 Clouds 12 1016 70 10000 1.2 330 00:37 22.08.2022
2119 Clouds 12 1016 72 10000 1.08 321 23:43 21.08.2022
2120 Clouds 15 1016 61 10000 0.78 292 21:57 21.08.2022
2121 Clouds 15 1016 59 10000 0.91 285 21:21 21.08.2022
2122 Clear 17 1015 54 10000 1.03 292 20:26 21.08.2022
2123 Clear 21 1015 42 10000 2.04 306 19:18 21.08.2022
2124 Clear 22 1015 41 10000 3.1 302 16:54 21.08.2022
2125 Clear 21 1015 43 10000 2.92 294 15:53 21.08.2022
2126 Clear 22 1015 44 10000 2.94 284 15:18 21.08.2022
2127 Clear 21 1016 47 10000 3.07 277 13:51 21.08.2022
2128 Clear 20 1016 49 10000 3.06 273 13:24 21.08.2022
2129 Clear 17 1017 69 10000 2.61 274 10:49 21.08.2022
2130 Clouds 16 1017 81 10000 1.9 281 09:31 21.08.2022
2131 Clouds 14 1017 89 10000 1.36 268 08:56 21.08.2022
2132 Clouds 14 1017 91 10000 1.32 250 08:38 21.08.2022
2133 Clouds 11 1017 95 10000 1 236 07:26 21.08.2022
2134 Clouds 12 1017 94 10000 1.02 268 03:24 21.08.2022
2135 Rain 14 1017 88 10000 0.81 278 23:49 20.08.2022
2136 Clouds 15 1017 86 10000 0.52 276 22:24 20.08.2022
2137 Clouds 15 1017 86 10000 0.63 306 21:26 20.08.2022
2138 Clouds 18 1016 72 10000 0.62 339 19:58 20.08.2022
2139 Clouds 18 1016 68 10000 0.62 339 19:40 20.08.2022
2140 Clouds 18 1016 73 10000 2.69 320 18:27 20.08.2022
2141 Clouds 18 1016 81 10000 2.69 320 17:40 20.08.2022
2142 Clouds 18 1016 81 10000 2.86 319 16:49 20.08.2022
2143 Clouds 19 1015 74 10000 3.63 317 15:26 20.08.2022
2144 Clouds 18 1015 69 10000 2.62 293 12:52 20.08.2022
2145 Clouds 18 1015 70 10000 1.87 295 11:47 20.08.2022
2146 Clouds 16 1015 73 10000 1.36 293 09:34 20.08.2022
2147 Clouds 15 1015 79 10000 1.29 266 08:29 20.08.2022
2148 Clouds 14 1014 84 10000 1 265 05:51 20.08.2022
2149 Clouds 15 1014 76 10000 0.2 262 00:59 20.08.2022
2150 Clouds 15 1014 74 10000 0.2 262 00:34 20.08.2022
2151 Clouds 15 1013 70 10000 0.72 322 22:59 19.08.2022
2152 Clouds 16 1013 67 10000 0.97 316 21:40 19.08.2022
2153 Clouds 20 1012 51 10000 1.07 344 19:54 19.08.2022
2154 Clouds 22 1012 46 10000 3.38 333 17:19 19.08.2022
2155 Clouds 21 1012 51 10000 3.86 332 14:54 19.08.2022
2156 Clouds 19 1013 62 10000 3.12 327 13:18 19.08.2022
2157 Clouds 15 1013 84 10000 3.3 317 10:52 19.08.2022
2158 Rain 15 1013 86 10000 3.13 316 10:19 19.08.2022
2159 Clouds 14 1012 93 10000 1.68 300 05:58 19.08.2022
2160 Clouds 16 1013 90 10000 1.65 340 00:56 19.08.2022
2161 Clouds 16 1013 90 10000 1.83 336 00:26 19.08.2022
2162 Clouds 16 1013 89 10000 1.83 336 23:37 18.08.2022
2163 Clouds 16 1013 87 10000 1.69 338 22:38 18.08.2022
2164 Clouds 17 1012 87 10000 1.13 323 21:55 18.08.2022
2165 Clouds 17 1012 87 10000 1.5 306 21:26 18.08.2022
2166 Clouds 17 1012 88 10000 0.7 88 19:56 18.08.2022
2167 Clouds 17 1012 91 10000 0.68 74 19:26 18.08.2022
2168 Clouds 17 1012 91 10000 0.91 6 17:50 18.08.2022
2169 Rain 17 1013 90 10000 1.58 345 16:58 18.08.2022
2170 Rain 18 1013 85 10000 0.2 172 14:44 18.08.2022
2171 Rain 17 1014 86 9634 0.93 247 14:19 18.08.2022
2172 Rain 19 1014 69 10000 0.56 308 12:55 18.08.2022
2173 Clouds 21 1013 62 10000 1.45 277 11:34 18.08.2022
2174 Clouds 19 1013 71 10000 1.78 286 09:43 18.08.2022
2175 Clouds 17 1013 78 10000 1.69 274 08:39 18.08.2022
2176 Clouds 14 1013 83 10000 1.38 270 07:19 18.08.2022
2177 Clouds 15 1012 72 10000 1.43 269 03:53 18.08.2022
2178 Clouds 16 1012 66 10000 0.35 106 23:30 17.08.2022
2179 Clouds 16 1012 70 10000 0.67 167 21:40 17.08.2022
2180 Clouds 21 1010 52 10000 1.03 175 20:18 17.08.2022
2181 Clouds 23 1010 62 10000 1.25 157 19:28 17.08.2022
2182 Rain 24 1011 37 10000 3.7 172 17:35 17.08.2022
2183 Clouds 26 1010 39 10000 1.12 123 16:22 17.08.2022
2184 Clouds 26 1010 39 10000 1.12 123 16:22 17.08.2022
2185 Clouds 26 1011 39 10000 1.36 141 15:22 17.08.2022
2186 Clouds 27 1011 37 10000 2.11 133 12:57 17.08.2022
2187 Clouds 24 1011 46 10000 2.36 128 11:37 17.08.2022
2188 Clouds 21 1012 57 10000 1.77 115 09:31 17.08.2022
2189 Clouds 18 1012 72 10000 0.53 133 08:23 17.08.2022
2190 Clear 16 1012 71 10000 0.7 118 03:27 17.08.2022
2191 Clouds 17 1012 66 10000 0.51 187 23:58 16.08.2022
2192 Clouds 18 1012 65 10000 0.65 184 22:30 16.08.2022
2193 Clouds 20 1011 60 10000 1.03 178 20:52 16.08.2022
2194 Clouds 22 1010 49 10000 1.18 191 19:53 16.08.2022
2195 Clouds 23 1010 47 10000 1.48 216 18:40 16.08.2022
2196 Clouds 24 1010 44 10000 1.49 225 17:43 16.08.2022
2197 Clouds 24 1009 45 10000 2.49 256 15:48 16.08.2022
2198 Clouds 24 1009 47 10000 2.37 273 14:55 16.08.2022
2199 Clouds 24 1009 44 10000 2.37 273 14:37 16.08.2022
2200 Clear 23 1009 49 10000 2.83 260 12:58 16.08.2022
2201 Clear 21 1009 58 10000 3.18 235 10:59 16.08.2022
2202 Clear 19 1009 65 10000 2.66 223 09:50 16.08.2022
2203 Clear 17 1009 72 10000 2.11 216 08:47 16.08.2022
2204 Clouds 15 1009 83 10000 1.73 213 07:33 16.08.2022
2205 Clouds 15 1008 88 10000 1.71 214 02:50 16.08.2022
2206 Clouds 15 1006 90 10000 0.07 73 22:31 15.08.2022
2207 Clouds 16 1007 91 10000 1.05 16 21:55 15.08.2022
2208 Clouds 16 1007 91 10000 1.05 16 21:34 15.08.2022
2209 Clouds 18 1005 91 10000 0.48 6 20:20 15.08.2022
2210 Clouds 19 1005 93 9405 1.3 157 18:42 15.08.2022
2211 Clouds 20 1004 83 10000 2.18 50 17:46 15.08.2022
2212 Clouds 18 1004 89 10000 2.37 322 16:22 15.08.2022
2213 Rain 24 1004 56 10000 3.02 234 13:58 15.08.2022
2214 Clouds 24 1004 48 10000 2.52 195 12:38 15.08.2022
2215 Clear 22 1005 53 10000 1.71 158 10:18 15.08.2022
2216 Clouds 19 1005 65 10000 1.42 162 08:51 15.08.2022
2217 Clouds 18 1005 67 10000 0.87 158 06:33 15.08.2022
2218 Clouds 17 1006 66 10000 1.02 131 03:34 15.08.2022
2219 Clouds 21 1007 53 10000 0.76 107 23:24 14.08.2022
2220 Clouds 21 1008 52 10000 1.05 111 21:43 14.08.2022
2221 Clouds 23 1007 45 10000 1.05 158 20:33 14.08.2022
2222 Clouds 25 1007 42 10000 1.96 146 19:36 14.08.2022
2223 Clouds 27 1007 36 10000 3.27 111 18:21 14.08.2022
2224 Clouds 27 1008 36 10000 3.21 106 17:27 14.08.2022
2225 Clouds 27 1008 37 10000 4.08 111 16:23 14.08.2022
2226 Clouds 27 1009 38 10000 4.48 112 14:55 14.08.2022
2227 Clouds 26 1010 46 10000 4.58 121 13:51 14.08.2022
2228 Clouds 26 1010 47 10000 4.58 121 13:31 14.08.2022
2229 Clouds 26 1010 47 10000 4.58 121 13:31 14.08.2022
2230 Clouds 24 1011 50 10000 4.33 118 12:35 14.08.2022
2231 Clouds 22 1012 61 10000 3.81 122 11:22 14.08.2022
2232 Clouds 17 1012 79 10000 3.9 103 08:56 14.08.2022
2233 Clouds 14 1013 85 10000 1.8 90 06:40 14.08.2022
2234 Clouds 14 1013 83 10000 1.52 90 05:37 14.08.2022
2235 Clouds 16 1015 76 10000 1.53 67 01:36 14.08.2022
2236 Clouds 17 1016 69 10000 1.19 82 22:56 13.08.2022
2237 Clouds 16 1016 73 10000 1.46 86 22:27 13.08.2022
2238 Clouds 19 1016 63 10000 1.72 85 20:50 13.08.2022
2239 Clouds 21 1016 56 10000 2.69 84 19:48 13.08.2022
2240 Clouds 22 1016 54 10000 3.57 78 19:18 13.08.2022
2241 Clouds 24 1017 46 10000 3.74 79 17:21 13.08.2022
2242 Clouds 24 1017 43 10000 4 79 14:50 13.08.2022
2243 Clouds 24 1017 42 10000 3.98 77 13:50 13.08.2022
2244 Clear 25 1018 41 10000 3.75 76 13:28 13.08.2022
2245 Clear 23 1018 43 10000 3.29 68 11:29 13.08.2022
2246 Clear 19 1019 52 10000 2.15 69 09:26 13.08.2022
2247 Clear 14 1019 65 10000 1.43 52 06:54 13.08.2022
2248 Clear 14 1020 59 10000 0.9 106 01:52 13.08.2022
2249 Clear 16 1021 55 10000 1.44 113 23:32 12.08.2022
2250 Clear 18 1020 47 10000 1.83 117 21:39 12.08.2022
2251 Clear 23 1019 34 10000 2.08 94 19:49 12.08.2022
2252 Clear 24 1019 32 10000 3.76 99 19:23 12.08.2022
2253 Clear 24 1019 32 10000 4.83 96 18:29 12.08.2022
2254 Clear 25 1019 27 10000 4.26 88 16:27 12.08.2022
2255 Clear 25 1020 28 10000 4.48 92 15:21 12.08.2022
2256 Clear 25 1020 31 10000 4.43 90 13:50 12.08.2022
2257 Clear 24 1020 33 10000 4.4 92 12:38 12.08.2022
2258 Clear 20 1021 42 10000 2.97 98 09:22 12.08.2022
2259 Clear 14 1021 58 10000 1.46 95 07:46 12.08.2022
2260 Clear 12 1022 59 10000 1.06 104 06:24 12.08.2022
2261 Clouds 15 1022 54 10000 1.64 116 01:22 12.08.2022
2262 Clouds 15 1022 52 10000 1.57 108 00:18 12.08.2022
2263 Clouds 16 1022 50 10000 1.62 90 23:27 11.08.2022
2264 Clouds 18 1022 43 10000 1.61 74 21:55 11.08.2022
2265 Clouds 19 1022 41 10000 1.79 57 21:28 11.08.2022
2266 Clouds 22 1022 32 10000 1.79 57 20:31 11.08.2022
2267 Clouds 23 1021 27 10000 2.12 43 19:41 11.08.2022
2268 Clouds 24 1021 28 10000 2.81 53 19:21 11.08.2022
2269 Clouds 26 1021 28 10000 3.11 57 17:23 11.08.2022
2270 Clouds 26 1021 29 10000 3.04 60 16:19 11.08.2022
2271 Clouds 26 1022 29 10000 2.95 67 15:20 11.08.2022
2272 Clouds 24 1023 34 10000 2.91 85 12:35 11.08.2022
2273 Clear 18 1024 51 10000 1.28 81 09:24 11.08.2022
2274 Clear 13 1024 65 10000 1 86 06:59 11.08.2022
2275 Clouds 12 1024 62 10000 1.44 83 03:25 11.08.2022
2276 Clear 13 1025 56 10000 1.44 79 00:28 11.08.2022
2277 Clear 15 1025 50 10000 1.58 69 22:18 10.08.2022
2278 Clear 17 1025 45 10000 2.08 63 21:20 10.08.2022
2279 Clear 19 1025 38 10000 2.08 63 20:43 10.08.2022
2280 Clear 19 1025 38 10000 2.08 63 20:43 10.08.2022
2281 Clouds 23 1024 33 10000 2.75 67 18:53 10.08.2022
2282 Clouds 24 1024 32 10000 2.89 69 17:31 10.08.2022
2283 Clear 24 1025 32 10000 2.86 71 15:53 10.08.2022
2284 Clouds 23 1025 37 10000 2.5 71 13:34 10.08.2022
2285 Clouds 22 1027 39 10000 2.44 82 12:24 10.08.2022
2286 Clouds 16 1027 62 10000 1.54 76 08:45 10.08.2022
2287 Clouds 14 1027 72 10000 1.3 67 07:44 10.08.2022
2288 Clouds 9 1027 78 10000 1.09 82 06:22 10.08.2022
2289 Clear 12 1028 68 10000 1.62 69 02:45 10.08.2022
2290 Clouds 14 1028 58 10000 1.72 41 23:34 09.08.2022
2291 Clouds 15 1028 56 10000 2.05 32 22:55 09.08.2022
2292 Clouds 16 1028 51 10000 1.94 35 21:34 09.08.2022
2293 Clouds 21 1026 42 10000 2.66 28 19:34 09.08.2022
2294 Clouds 22 1025 41 10000 3.03 28 18:23 09.08.2022
2295 Clouds 22 1026 40 10000 2.85 28 17:26 09.08.2022
2296 Clouds 22 1026 40 10000 2.85 28 16:40 09.08.2022
2297 Clouds 22 1026 42 10000 2.74 28 15:40 09.08.2022
2298 Clouds 21 1027 46 10000 2.64 51 12:25 09.08.2022
2299 Clear 15 1027 68 10000 2.05 51 09:22 09.08.2022
2300 Clear 13 1027 71 10000 2.05 51 08:33 09.08.2022
2301 Clear 11 1027 77 10000 1.48 45 07:20 09.08.2022
2302 Clear 11 1026 73 10000 1.57 42 03:32 09.08.2022
2303 Clear 14 1026 60 10000 1.94 48 23:27 08.08.2022
2304 Clear 14 1026 60 10000 1.94 48 23:27 08.08.2022
2305 Clear 14 1026 58 10000 1.94 48 22:54 08.08.2022
2306 Clear 16 1026 51 10000 2.38 35 21:49 08.08.2022
2307 Clouds 17 1025 46 10000 2.22 23 20:55 08.08.2022
2308 Clouds 20 1024 37 10000 2.41 13 19:50 08.08.2022
2309 Clouds 21 1023 36 10000 2.77 10 18:35 08.08.2022
2310 Clouds 22 1023 36 10000 2.97 13 16:37 08.08.2022
2311 Clouds 22 1023 35 10000 2.95 6 15:39 08.08.2022
2312 Clear 21 1024 39 10000 1.37 6 12:51 08.08.2022
2313 Clear 20 1024 40 10000 1.22 22 11:53 08.08.2022
2314 Clear 16 1024 54 10000 1.25 1 09:36 08.08.2022
2315 Clear 9 1024 71 10000 0.48 111 05:43 08.08.2022
2316 Clouds 10 1024 65 10000 0.65 65 02:27 08.08.2022
2317 Clouds 12 1023 59 10000 1.37 65 22:25 07.08.2022
2318 Clouds 13 1023 55 10000 1.37 65 21:38 07.08.2022
2319 Clouds 17 1022 43 10000 2.08 45 20:25 07.08.2022
2320 Clouds 18 1022 40 10000 2.08 45 19:54 07.08.2022
2321 Clouds 19 1022 39 10000 2.08 45 19:34 07.08.2022
2322 Clouds 20 1022 38 10000 2.62 28 18:23 07.08.2022
2323 Clouds 20 1022 37 10000 2.26 23 16:54 07.08.2022
2324 Clouds 20 1022 37 10000 1.97 19 16:28 07.08.2022
2325 Clouds 20 1023 38 10000 1.38 6 15:19 07.08.2022
2326 Clouds 19 1024 40 10000 0.81 75 13:24 07.08.2022
2327 Clouds 16 1025 49 10000 1.04 108 11:27 07.08.2022
2328 Clouds 16 1025 52 10000 1.04 108 10:34 07.08.2022
2329 Clouds 8 1026 82 10000 0.78 116 06:52 07.08.2022
2330 Clouds 7 1027 79 10000 0.72 82 03:19 07.08.2022
2331 Clear 9 1027 71 10000 1.21 52 00:31 07.08.2022
2332 Clear 11 1027 62 10000 1.43 31 22:24 06.08.2022
2333 Clear 13 1026 52 10000 1.49 21 20:42 06.08.2022
2334 Clouds 16 1025 43 10000 1.54 11 19:41 06.08.2022
2335 Clouds 17 1025 42 10000 2.13 348 18:30 06.08.2022
2336 Clouds 17 1025 42 10000 2.35 336 17:32 06.08.2022
2337 Clouds 17 1026 45 10000 2.67 333 14:43 06.08.2022
2338 Clouds 17 1026 47 10000 2.74 334 13:44 06.08.2022
2339 Clouds 15 1026 58 10000 3.06 336 11:55 06.08.2022
2340 Clear 13 1026 66 10000 3.02 333 10:32 06.08.2022
2341 Clear 11 1026 79 10000 2.58 325 08:32 06.08.2022
2342 Clouds 7 1025 86 10000 1.63 305 03:53 06.08.2022
2343 Clouds 11 1023 72 10000 2.69 321 23:50 05.08.2022
2344 Clouds 12 1022 75 10000 3.91 324 22:32 05.08.2022
2345 Clouds 15 1019 73 10000 3.36 323 19:46 05.08.2022
2346 Clouds 15 1018 76 10000 4.07 323 18:46 05.08.2022
2347 Clouds 15 1018 78 10000 3.68 322 18:25 05.08.2022
2348 Clouds 14 1017 88 10000 4.44 317 16:49 05.08.2022
2349 Clouds 20 1015 70 10000 4.36 296 15:22 05.08.2022
2350 Rain 18 1015 91 10000 4.36 296 14:31 05.08.2022
2351 Clouds 20 1014 80 10000 2.63 269 13:24 05.08.2022
2352 Clouds 19 1014 83 10000 2.63 269 12:30 05.08.2022
2353 Clouds 19 1015 85 10000 1.74 268 10:53 05.08.2022
2354 Rain 16 1014 93 10000 0.66 307 08:36 05.08.2022
2355 Clouds 15 1014 94 10000 0.28 306 07:23 05.08.2022
2356 Clouds 17 1014 83 10000 0.53 325 01:46 05.08.2022
2357 Clouds 18 1014 81 10000 1.46 39 22:33 04.08.2022
2358 Clouds 23 1014 50 10000 6.74 313 21:27 04.08.2022
2359 Clouds 24 1014 56 10000 6.74 313 20:45 04.08.2022
2360 Clouds 27 1011 42 10000 1.26 317 19:49 04.08.2022
2361 Clouds 30 1011 34 10000 2.58 289 18:52 04.08.2022
2362 Clouds 30 1011 32 10000 2.58 289 18:32 04.08.2022
2363 Clouds 30 1012 31 10000 3.29 242 14:45 04.08.2022
2364 Clouds 30 1013 30 10000 2.77 227 13:22 04.08.2022
2365 Clouds 28 1013 35 10000 2.36 213 11:38 04.08.2022
2366 Clouds 26 1014 38 10000 1.52 179 09:58 04.08.2022
2367 Clouds 19 1014 56 10000 1.13 155 07:31 04.08.2022
2368 Clear 18 1015 60 10000 0.97 103 02:42 04.08.2022
2369 Clouds 19 1016 58 10000 0.73 80 23:58 03.08.2022
2370 Clouds 19 1016 57 10000 0.73 80 23:36 03.08.2022
2371 Clouds 21 1015 52 10000 0.3 30 21:26 03.08.2022
2372 Clouds 24 1015 45 10000 0.44 299 20:19 03.08.2022
2373 Clouds 27 1015 35 10000 0.92 258 18:53 03.08.2022
2374 Clouds 28 1015 34 10000 2.46 246 16:27 03.08.2022
2375 Clouds 28 1015 34 10000 2.46 246 15:53 03.08.2022
2376 Clouds 26 1016 39 10000 2.56 236 13:38 03.08.2022
2377 Clouds 23 1017 42 10000 2.55 220 10:44 03.08.2022
2378 Clouds 16 1017 66 10000 1.33 178 07:23 03.08.2022
2379 Clouds 15 1017 65 10000 1.31 167 04:22 03.08.2022
2380 Clouds 14 1017 71 10000 1.26 161 03:23 03.08.2022
2381 Clouds 15 1018 70 10000 1.2 159 00:49 03.08.2022
2382 Clouds 17 1018 60 10000 1.02 163 22:36 02.08.2022
2383 Clouds 18 1018 59 10000 0.92 156 21:51 02.08.2022
2384 Clouds 20 1017 52 10000 0.24 194 20:29 02.08.2022
2385 Clouds 23 1017 41 10000 2.68 266 17:47 02.08.2022
2386 Clouds 23 1017 42 10000 3.16 252 14:46 02.08.2022
2387 Clouds 17 1019 65 10000 2.31 221 10:50 02.08.2022
2388 Clouds 14 1019 82 10000 1.41 194 08:54 02.08.2022
2389 Clouds 14 1019 82 10000 1.41 194 08:54 02.08.2022
2390 Clouds 12 1019 91 10000 0.82 207 07:52 02.08.2022
2391 Clouds 9 1019 93 10000 0.95 180 05:40 02.08.2022
2392 Clouds 9 1020 94 10000 0.27 159 03:40 02.08.2022
2393 Clouds 12 1019 90 10000 1.26 9 23:35 01.08.2022
2394 Clouds 13 1019 87 10000 1.48 327 22:21 01.08.2022
2395 Clouds 16 1018 76 10000 1.5 310 20:40 01.08.2022
2396 Clouds 17 1017 71 10000 2.68 322 19:22 01.08.2022
2397 Clouds 18 1017 71 10000 3.7 328 17:27 01.08.2022
2398 Clouds 18 1017 71 10000 3.7 328 16:50 01.08.2022
2399 Clouds 18 1017 75 10000 3.73 326 15:51 01.08.2022
2400 Clouds 18 1016 74 10000 4 328 15:28 01.08.2022
2401 Clouds 17 1017 84 10000 3.74 327 13:45 01.08.2022
2402 Clouds 15 1016 95 10000 3.66 313 11:49 01.08.2022
2403 Clouds 15 1016 92 10000 2.83 293 09:39 01.08.2022
2404 Clouds 14 1015 92 4698 2.76 280 08:21 01.08.2022
2405 Clouds 14 1014 94 3370 2.71 265 04:46 01.08.2022
2406 Clouds 15 1014 94 5160 3.2 259 02:32 01.08.2022
2407 Rain 15 1014 89 10000 2.88 250 23:54 31.07.2022
2408 Rain 14 1014 88 7612 2.11 243 22:36 31.07.2022
2409 Rain 14 1014 88 7612 2.11 243 22:36 31.07.2022
2410 Clouds 16 1014 77 10000 1.43 256 20:50 31.07.2022
2411 Rain 17 1014 67 10000 0.91 299 19:40 31.07.2022
2412 Rain 21 1014 50 10000 2.79 298 17:47 31.07.2022
2413 Clouds 22 1014 46 10000 3.33 250 15:35 31.07.2022
2414 Clouds 21 1016 47 10000 3.06 253 13:41 31.07.2022
2415 Clouds 20 1017 55 10000 2.66 254 11:52 31.07.2022
2416 Clouds 17 1018 75 10000 1.97 253 09:36 31.07.2022
2417 Clouds 12 1018 93 10000 0.85 230 06:48 31.07.2022
2418 Clouds 12 1018 88 10000 1.36 311 02:57 31.07.2022
2419 Clouds 13 1019 82 10000 1.01 232 23:36 30.07.2022
2420 Clouds 14 1019 81 10000 1.13 226 22:19 30.07.2022
2421 Clouds 15 1019 78 10000 1.13 226 21:48 30.07.2022
2422 Clouds 15 1018 79 10000 0.71 189 20:56 30.07.2022
2423 Rain 16 1018 78 10000 1.14 122 19:58 30.07.2022
2424 Clouds 17 1018 71 10000 1.24 110 18:53 30.07.2022
2425 Clouds 18 1018 64 10000 1.34 97 17:42 30.07.2022
2426 Clouds 18 1018 70 10000 1.17 99 15:50 30.07.2022
2427 Rain 17 1018 72 10000 0.94 66 15:22 30.07.2022
2428 Clouds 17 1018 72 10000 1.98 45 12:59 30.07.2022
2429 Clouds 16 1018 80 10000 1.41 25 11:55 30.07.2022
2430 Clouds 14 1017 95 10000 0.92 36 10:31 30.07.2022
2431 Clouds 13 1017 98 7005 0.67 359 09:47 30.07.2022
2432 Rain 12 1017 93 1420 1.28 18 07:55 30.07.2022
2433 Rain 14 1016 74 10000 0.97 330 02:37 30.07.2022
2434 Rain 14 1016 73 10000 1.35 341 01:49 30.07.2022
2435 Clouds 17 1016 51 10000 1.8 276 22:41 29.07.2022
2436 Clouds 19 1016 47 10000 1.33 319 21:24 29.07.2022
2437 Clouds 18 1016 47 10000 1.33 319 20:39 29.07.2022
2438 Clouds 21 1015 38 10000 2.31 15 18:18 29.07.2022
2439 Clouds 21 1015 40 10000 2.42 23 15:35 29.07.2022
2440 Clouds 19 1017 44 10000 1.8 72 13:19 29.07.2022
2441 Clouds 19 1017 47 10000 1.36 93 11:22 29.07.2022
2442 Clouds 14 1017 58 10000 2.08 95 08:50 29.07.2022
2443 Clouds 14 1017 59 10000 2.09 93 08:18 29.07.2022
2444 Rain 13 1019 54 10000 2.65 91 01:58 29.07.2022
2445 Clouds 13 1019 55 10000 2.4 77 22:53 28.07.2022
2446 Clouds 16 1018 47 10000 2.5 88 21:28 28.07.2022
2447 Clouds 17 1018 41 10000 2.5 88 20:32 28.07.2022
2448 Clouds 19 1017 39 10000 2.82 86 19:43 28.07.2022
2449 Clouds 19 1017 39 10000 3.2 97 19:24 28.07.2022
2450 Clouds 20 1017 37 10000 2.97 96 17:44 28.07.2022
2451 Clouds 20 1017 39 10000 2.67 97 16:57 28.07.2022
2452 Clouds 20 1017 39 10000 2.25 103 16:28 28.07.2022
2453 Clouds 18 1018 45 10000 2.06 92 13:30 28.07.2022
2454 Clouds 16 1019 53 10000 1.71 91 11:42 28.07.2022
2455 Clouds 7 1020 82 10000 1.22 67 06:46 28.07.2022
2456 Clouds 7 1020 83 10000 1.29 61 05:33 28.07.2022
2457 Clouds 7 1021 81 10000 1.42 47 02:40 28.07.2022
2458 Clear 10 1020 68 10000 1.34 355 22:56 27.07.2022
2459 Clouds 12 1019 58 10000 2.3 336 21:29 27.07.2022
2460 Clouds 16 1018 45 10000 3.6 341 19:44 27.07.2022
2461 Clouds 16 1017 44 10000 3.96 339 18:41 27.07.2022
2462 Clear 17 1017 44 10000 4.3 331 16:31 27.07.2022
2463 Clear 17 1017 42 10000 3.95 325 15:40 27.07.2022
2464 Clear 17 1017 43 10000 3.68 318 14:41 27.07.2022
2465 Clouds 15 1018 49 10000 3.43 310 12:52 27.07.2022
2466 Clouds 11 1018 72 10000 2.67 317 08:55 27.07.2022
2467 Clouds 10 1018 80 10000 2.03 316 07:33 27.07.2022
2468 Clouds 11 1018 72 10000 1.26 327 02:43 27.07.2022
2469 Clouds 11 1017 82 10000 1.26 317 22:47 26.07.2022
2470 Clouds 12 1017 78 10000 2.3 333 21:25 26.07.2022
2471 Clouds 14 1017 74 10000 2.3 333 20:49 26.07.2022
2472 Clouds 16 1015 72 10000 4.05 331 18:46 26.07.2022
2473 Clouds 15 1015 72 10000 4.27 330 18:28 26.07.2022
2474 Clouds 16 1015 74 10000 4.7 316 16:54 26.07.2022
2475 Clouds 16 1015 71 10000 5.24 308 15:43 26.07.2022
2476 Clouds 17 1014 67 10000 6.02 306 14:38 26.07.2022
2477 Clouds 17 1014 66 10000 5.43 276 11:47 26.07.2022
2478 Clouds 17 1014 66 10000 5.43 276 11:47 26.07.2022
2479 Clouds 15 1013 74 10000 5.49 271 09:44 26.07.2022
2480 Clouds 15 1013 75 10000 3.77 258 08:18 26.07.2022
2481 Clouds 14 1012 91 10000 2.25 259 01:44 26.07.2022
2482 Clouds 16 1012 83 10000 1.63 270 23:44 25.07.2022
2483 Clouds 17 1011 89 10000 1.58 289 22:39 25.07.2022
2484 Clouds 17 1011 90 10000 2.73 290 21:43 25.07.2022
2485 Rain 17 1010 87 10000 2.22 258 20:43 25.07.2022
2486 Rain 17 1009 84 10000 2.97 286 19:55 25.07.2022
2487 Clouds 19 1008 79 10000 4.55 301 19:20 25.07.2022
2488 Clouds 26 1007 48 10000 2.06 311 17:35 25.07.2022
2489 Rain 26 1006 37 10000 4.31 252 16:40 25.07.2022
2490 Clear 28 1009 37 10000 5.18 227 12:58 25.07.2022
2491 Clear 26 1010 39 10000 5.18 209 10:47 25.07.2022
2492 Clouds 19 1012 50 10000 2.05 176 07:32 25.07.2022
2493 Clouds 18 1016 51 10000 1.78 134 00:38 25.07.2022
2494 Clouds 17 1016 59 10000 1.43 135 23:45 24.07.2022
2495 Clouds 18 1017 50 10000 1.18 121 22:43 24.07.2022
2496 Clear 19 1017 50 10000 0.91 105 21:33 24.07.2022
2497 Clear 21 1017 46 10000 0.54 82 20:58 24.07.2022
2498 Clear 24 1017 36 10000 0.54 82 20:35 24.07.2022
2499 Clouds 26 1016 32 10000 1.43 250 19:18 24.07.2022
2500 Clouds 26 1016 32 10000 1.87 248 17:56 24.07.2022
2501 Clouds 25 1017 33 10000 2.15 246 15:54 24.07.2022
2502 Clouds 25 1018 34 10000 2.36 254 14:41 24.07.2022
2503 Clouds 24 1019 37 10000 2.52 254 13:47 24.07.2022
2504 Clouds 21 1020 46 10000 2.33 244 12:28 24.07.2022
2505 Clouds 20 1020 49 10000 2.33 244 11:30 24.07.2022
2506 Clouds 18 1020 56 10000 1.94 233 09:44 24.07.2022
2507 Clouds 14 1021 74 10000 1.25 196 07:53 24.07.2022
2508 Clouds 12 1021 78 10000 1.38 197 07:31 24.07.2022
2509 Clear 10 1021 78 10000 0.89 166 02:57 24.07.2022
2510 Clouds 13 1021 70 10000 0.93 32 22:52 23.07.2022
2511 Clouds 17 1019 52 10000 2.11 314 20:47 23.07.2022
2512 Clouds 20 1018 47 10000 4.15 300 19:29 23.07.2022
2513 Clouds 20 1018 46 10000 4.15 300 18:36 23.07.2022
2514 Clear 20 1018 46 10000 4.72 298 17:27 23.07.2022
2515 Clear 21 1018 46 10000 4.69 299 16:24 23.07.2022
2516 Clear 21 1018 47 10000 4.76 297 15:22 23.07.2022
2517 Clear 20 1018 48 10000 4.76 297 14:52 23.07.2022
2518 Clouds 20 1018 50 10000 4.49 294 14:23 23.07.2022
2519 Clouds 17 1018 64 10000 3.13 287 11:56 23.07.2022
2520 Clouds 16 1018 67 10000 2.37 296 10:41 23.07.2022
2521 Clouds 15 1018 76 10000 1.86 301 09:44 23.07.2022
2522 Clouds 12 1017 92 10000 1.22 294 07:37 23.07.2022
2523 Clouds 12 1018 93 10000 1.15 254 03:37 23.07.2022
2524 Clouds 12 1018 89 10000 0.69 255 00:37 23.07.2022
2525 Clouds 14 1018 80 10000 1.35 7 21:38 22.07.2022
2526 Clouds 15 1018 75 10000 1.71 346 20:33 22.07.2022
2527 Clouds 17 1018 72 10000 2.02 301 18:56 22.07.2022
2528 Clouds 17 1018 72 10000 2.02 295 17:40 22.07.2022
2529 Clouds 17 1019 72 10000 2.48 298 16:26 22.07.2022
2530 Clouds 16 1019 77 10000 2.43 289 13:50 22.07.2022
2531 Clouds 13 1020 93 10000 2.21 276 10:40 22.07.2022
2532 Clouds 13 1020 92 7054 2.1 272 09:25 22.07.2022
2533 Clouds 13 1019 93 5134 2.47 274 08:26 22.07.2022
2534 Clouds 14 1018 92 2528 2.53 244 04:24 22.07.2022
2535 Clouds 14 1018 90 10000 3.2 250 23:44 21.07.2022
2536 Clouds 15 1018 90 10000 3.31 242 22:20 21.07.2022
2537 Rain 15 1018 84 10000 3.42 240 20:36 21.07.2022
2538 Clouds 19 1018 62 10000 3.9 260 18:52 21.07.2022
2539 Clouds 21 1018 54 10000 3.7 262 17:29 21.07.2022
2540 Clouds 21 1018 52 10000 3.7 262 16:43 21.07.2022
2541 Clouds 21 1018 55 10000 4.74 240 14:52 21.07.2022
2542 Clouds 22 1018 50 10000 5.13 242 14:22 21.07.2022
2543 Clouds 20 1018 63 10000 4.47 227 12:27 21.07.2022
2544 Clouds 18 1018 76 10000 3.37 228 10:37 21.07.2022
2545 Clouds 17 1018 83 10000 1.77 248 08:54 21.07.2022
2546 Clouds 16 1018 88 10000 1.77 248 08:35 21.07.2022
2547 Clouds 15 1018 89 10000 1.53 224 07:23 21.07.2022
2548 Clouds 18 1017 90 10000 4.69 295 03:48 21.07.2022
2549 Clouds 22 1014 57 10000 0.92 17 23:26 20.07.2022
2550 Clouds 24 1014 44 10000 1.5 318 22:21 20.07.2022
2551 Clear 29 1014 33 10000 1.44 55 20:50 20.07.2022
2552 Clouds 31 1014 24 10000 2.17 79 19:48 20.07.2022
2553 Clouds 33 1013 24 10000 2.58 94 19:20 20.07.2022
2554 Clouds 33 1013 21 10000 2.58 94 18:33 20.07.2022
2555 Clouds 34 1014 18 10000 2.67 118 17:43 20.07.2022
2556 Clouds 33 1015 20 10000 2.78 143 15:59 20.07.2022
2557 Clouds 33 1016 21 10000 2.71 151 14:57 20.07.2022
2558 Clouds 32 1016 24 10000 2.93 156 13:53 20.07.2022
2559 Clouds 30 1017 27 10000 3.6 151 11:32 20.07.2022
2560 Clouds 25 1018 35 10000 1.5 157 07:50 20.07.2022
2561 Clouds 19 1018 42 10000 1.89 140 02:45 20.07.2022
2562 Clear 22 1018 36 10000 2.17 124 00:46 20.07.2022
2563 Clear 21 1019 40 10000 2.51 117 23:40 19.07.2022
2564 Clouds 22 1018 39 10000 2.67 95 22:22 19.07.2022
2565 Clouds 23 1018 40 10000 2.47 86 21:23 19.07.2022
2566 Clouds 28 1017 28 10000 2.14 76 20:27 19.07.2022
2567 Clouds 31 1017 23 10000 2.22 81 18:43 19.07.2022
2568 Clouds 31 1017 24 10000 1.77 91 17:57 19.07.2022
2569 Clouds 31 1018 24 10000 1.26 97 16:37 19.07.2022
2570 Clouds 31 1018 23 10000 0.26 120 14:52 19.07.2022
2571 Clouds 27 1020 31 10000 1.1 180 11:39 19.07.2022
2572 Clouds 26 1020 29 10000 0.92 164 10:47 19.07.2022
2573 Clouds 23 1020 38 10000 0.5 184 09:23 19.07.2022
2574 Clouds 21 1020 42 10000 0.5 184 08:38 19.07.2022
2575 Clear 17 1021 55 10000 0.64 191 07:19 19.07.2022
2576 Clear 15 1021 49 10000 0.74 193 05:28 19.07.2022
2577 Clear 15 1021 49 10000 0.74 193 04:53 19.07.2022
2578 Clouds 17 1021 50 10000 0.47 212 00:38 19.07.2022
2579 Clouds 17 1021 53 10000 0.55 192 23:36 18.07.2022
2580 Clouds 18 1021 52 10000 0.52 182 23:18 18.07.2022
2581 Clouds 17 1021 59 10000 0.6 185 21:58 18.07.2022
2582 Clouds 22 1021 37 10000 0.69 213 20:51 18.07.2022
2583 Clouds 26 1021 29 10000 0.78 195 19:33 18.07.2022
2584 Clouds 27 1021 27 10000 2.12 234 17:31 18.07.2022
2585 Clouds 26 1022 29 10000 1.97 231 15:55 18.07.2022
2586 Clouds 26 1023 28 10000 1.78 240 14:51 18.07.2022
2587 Clouds 23 1023 34 10000 1.6 211 13:23 18.07.2022
2588 Clouds 21 1024 37 10000 1.58 200 11:31 18.07.2022
2589 Clouds 18 1025 42 10000 0.67 185 09:28 18.07.2022
2590 Clouds 13 1025 60 10000 1.04 174 07:43 18.07.2022
2591 Clouds 11 1027 56 10000 0.75 153 01:44 18.07.2022
2592 Clouds 13 1027 52 10000 0.58 57 22:51 17.07.2022
2593 Clouds 13 1026 50 10000 0.81 50 22:23 17.07.2022
2594 Clouds 15 1026 48 10000 1.19 24 21:24 17.07.2022
2595 Clouds 16 1026 56 10000 1.19 24 20:44 17.07.2022
2596 Clouds 20 1025 32 10000 1.44 356 19:34 17.07.2022
2597 Clouds 21 1025 31 10000 2.13 337 18:56 17.07.2022
2598 Clouds 21 1025 29 10000 2.48 331 17:39 17.07.2022
2599 Clouds 21 1025 32 10000 2.59 334 16:51 17.07.2022
2600 Clouds 21 1026 32 10000 2.78 330 16:27 17.07.2022
2601 Clouds 20 1026 32 10000 2.85 332 15:27 17.07.2022
2602 Clouds 18 1026 39 10000 3.19 326 13:34 17.07.2022
2603 Clouds 16 1027 45 10000 2.97 311 12:22 17.07.2022
2604 Clouds 12 1027 61 10000 2.09 282 09:31 17.07.2022
2605 Clouds 7 1028 77 10000 1.07 270 06:37 17.07.2022
2606 Clouds 6 1028 78 10000 0.47 285 02:33 17.07.2022
2607 Clouds 8 1026 70 10000 1.55 337 23:22 16.07.2022
2608 Clouds 8 1026 70 10000 1.55 337 23:22 16.07.2022
2609 Clouds 10 1026 72 10000 1.9 341 21:57 16.07.2022
2610 Clouds 15 1023 46 10000 4.07 325 20:28 16.07.2022
2611 Clouds 17 1023 40 10000 4.67 319 18:42 16.07.2022
2612 Clouds 17 1022 39 10000 5.94 320 17:24 16.07.2022
2613 Clouds 17 1021 40 10000 5.84 314 15:41 16.07.2022
2614 Clouds 13 1022 72 10000 5.2 310 11:55 16.07.2022
2615 Clouds 10 1020 83 10000 4.46 296 09:41 16.07.2022
2616 Clouds 10 1020 82 10000 4.68 284 09:22 16.07.2022
2617 Rain 11 1020 75 10000 4.68 284 08:35 16.07.2022
2618 Clouds 10 1020 72 10000 2.77 255 06:47 16.07.2022
2619 Clouds 8 1020 83 10000 2.42 231 03:31 16.07.2022
2620 Clouds 10 1021 68 10000 1.51 226 23:54 15.07.2022
2621 Clouds 11 1021 65 10000 1.52 248 22:46 15.07.2022
2622 Clouds 12 1021 61 10000 1.52 259 21:52 15.07.2022
2623 Clouds 13 1021 56 10000 1.85 276 20:35 15.07.2022
2624 Clouds 15 1020 52 10000 3.61 313 18:46 15.07.2022
2625 Clouds 15 1020 50 10000 4.5 315 18:22 15.07.2022
2626 Clouds 15 1020 44 10000 4.47 307 16:46 15.07.2022
2627 Clouds 14 1021 51 10000 3.85 286 13:58 15.07.2022
2628 Clouds 12 1021 55 10000 3.9 296 12:22 15.07.2022
2629 Clouds 13 1021 56 10000 3.86 294 10:52 15.07.2022
2630 Clouds 10 1022 70 10000 3.31 292 07:48 15.07.2022
2631 Clouds 8 1020 79 10000 1.83 290 02:51 15.07.2022
2632 Clear 9 1020 74 10000 1.88 291 00:39 15.07.2022
2633 Clouds 11 1019 67 10000 2.37 313 22:56 14.07.2022
2634 Clouds 12 1019 64 10000 3.02 331 22:19 14.07.2022
2635 Clouds 13 1019 62 10000 3.02 331 21:39 14.07.2022
2636 Clouds 13 1018 59 10000 3.99 331 21:19 14.07.2022
2637 Clouds 14 1018 56 10000 3.99 331 20:43 14.07.2022
2638 Clouds 15 1017 50 10000 4.57 322 20:18 14.07.2022
2639 Clouds 18 1017 42 10000 5.35 310 18:24 14.07.2022
2640 Clouds 20 1017 40 10000 5.22 305 16:19 14.07.2022
2641 Clear 19 1017 44 10000 5 302 14:56 14.07.2022
2642 Clouds 19 1017 48 10000 3.84 294 13:51 14.07.2022
2643 Clouds 18 1017 55 10000 3.66 282 12:36 14.07.2022
2644 Clouds 17 1018 64 10000 2.8 284 11:28 14.07.2022
2645 Clouds 15 1018 67 10000 2.8 284 10:52 14.07.2022
2646 Clouds 14 1020 73 10000 1.79 311 08:58 14.07.2022
2647 Clouds 12 1020 79 10000 1.58 328 04:45 14.07.2022
2648 Clouds 14 1020 70 10000 1.65 339 01:19 14.07.2022
2649 Clouds 11 1020 92 10000 1.65 339 00:51 14.07.2022
2650 Clouds 17 1020 79 10000 1.97 346 22:31 13.07.2022
2651 Clouds 18 1019 76 10000 3.54 347 21:47 13.07.2022
2652 Clouds 19 1018 69 10000 2.39 294 20:41 13.07.2022
2653 Clouds 23 1018 42 10000 3.13 274 18:40 13.07.2022
2654 Clouds 24 1018 39 10000 3.76 274 17:31 13.07.2022
2655 Clouds 24 1018 39 10000 3.76 274 17:31 13.07.2022
2656 Clouds 25 1018 34 10000 6.04 255 16:19 13.07.2022
2657 Clouds 25 1018 33 10000 6.22 258 14:54 13.07.2022
2658 Clouds 22 1020 45 10000 3.31 230 11:56 13.07.2022
2659 Clouds 20 1020 48 10000 2.48 217 10:45 13.07.2022
2660 Clouds 20 1020 48 10000 3.18 234 09:56 13.07.2022
2661 Clouds 19 1021 45 10000 1.92 215 09:20 13.07.2022
2662 Clouds 12 1022 84 10000 1.72 219 05:29 13.07.2022
2663 Clouds 13 1024 72 10000 1.05 237 01:22 13.07.2022
2664 Clouds 14 1024 65 10000 0.89 245 23:35 12.07.2022
2665 Clouds 17 1024 57 10000 0.84 266 21:54 12.07.2022
2666 Clouds 17 1024 55 10000 1.07 300 21:18 12.07.2022
2667 Clouds 19 1024 46 10000 1.07 300 20:41 12.07.2022
2668 Clouds 23 1023 36 10000 2.54 327 18:56 12.07.2022
2669 Clouds 23 1023 36 10000 3.6 325 17:38 12.07.2022
2670 Clouds 22 1023 41 10000 3.55 320 15:42 12.07.2022
2671 Clouds 21 1024 43 10000 3.39 307 14:23 12.07.2022
2672 Clouds 17 1024 64 10000 2.48 299 12:19 12.07.2022
2673 Clouds 16 1024 68 10000 1.46 288 11:22 12.07.2022
2674 Clouds 13 1025 79 10000 1.34 296 09:28 12.07.2022
2675 Clouds 12 1025 85 10000 1.05 295 08:18 12.07.2022
2676 Clouds 9 1024 93 10000 1.08 296 06:24 12.07.2022
2677 Clouds 8 1024 94 10000 1.08 296 05:39 12.07.2022
2678 Clouds 10 1024 92 10000 1.26 328 02:21 12.07.2022
2679 Clouds 12 1024 91 10000 1.32 296 23:18 11.07.2022
2680 Clouds 12 1024 91 10000 1.66 287 22:29 11.07.2022
2681 Clouds 13 1023 87 10000 1.85 290 20:33 11.07.2022
2682 Clouds 13 1023 84 10000 2.5 294 19:36 11.07.2022
2683 Clouds 14 1023 80 10000 3.09 301 18:32 11.07.2022
2684 Clouds 15 1022 74 10000 3.09 306 17:39 11.07.2022
2685 Clouds 14 1023 74 10000 3.14 296 16:18 11.07.2022
2686 Clouds 15 1022 65 10000 4.23 295 14:37 11.07.2022
2687 Clouds 13 1022 77 10000 3.85 317 11:49 11.07.2022
2688 Clouds 12 1022 80 10000 3.68 323 10:29 11.07.2022
2689 Clouds 11 1022 82 10000 3.68 323 09:42 11.07.2022
2690 Clouds 11 1022 86 10000 2.78 319 08:34 11.07.2022
2691 Clouds 9 1022 88 10000 1.63 285 05:52 11.07.2022
2692 Clouds 10 1023 87 10000 2.1 296 00:22 11.07.2022
2693 Clouds 10 1022 85 10000 2.48 292 22:58 10.07.2022
2694 Clouds 11 1022 75 10000 3.09 292 21:51 10.07.2022
2695 Clouds 12 1022 77 10000 3.51 294 20:54 10.07.2022
2696 Clouds 12 1022 71 10000 4.16 292 19:50 10.07.2022
2697 Clouds 12 1022 71 10000 4.16 292 19:50 10.07.2022
2698 Clouds 12 1022 71 10000 4.16 292 19:50 10.07.2022
2699 Clouds 13 1022 71 10000 4.47 300 18:50 10.07.2022
2700 Clouds 13 1022 70 10000 5.04 301 17:40 10.07.2022
2701 Clouds 13 1022 64 10000 4.54 294 16:57 10.07.2022
2702 Clouds 13 1022 62 10000 5.67 299 16:19 10.07.2022
2703 Clouds 14 1022 56 10000 5.83 302 14:33 10.07.2022
2704 Clouds 13 1022 61 10000 5.69 306 12:30 10.07.2022
2705 Clouds 13 1022 63 10000 5.66 303 11:34 10.07.2022
2706 Clouds 9 1023 81 10000 4.61 303 08:46 10.07.2022
2707 Clouds 9 1023 82 10000 4.22 302 08:24 10.07.2022
2708 Clouds 9 1023 74 10000 3.68 293 03:38 10.07.2022
2709 Clouds 10 1024 86 10000 4.05 311 23:30 09.07.2022
2710 Clouds 11 1023 66 10000 4.8 328 22:25 09.07.2022
2711 Clouds 12 1022 66 10000 4.59 331 21:29 09.07.2022
2712 Clouds 16 1022 64 10000 5.8 327 18:59 09.07.2022
2713 Clouds 16 1022 64 10000 5.55 316 17:59 09.07.2022
2714 Clouds 16 1022 67 10000 4.78 285 16:59 09.07.2022
2715 Clouds 17 1023 67 10000 5.08 289 15:54 09.07.2022
2716 Clouds 17 1023 70 10000 5.08 289 15:35 09.07.2022
2717 Clouds 16 1023 68 10000 5.2 283 13:54 09.07.2022
2718 Clouds 16 1024 72 10000 4.37 280 13:27 09.07.2022
2719 Clouds 14 1025 75 10000 3.39 274 11:34 09.07.2022
2720 Clouds 14 1025 83 10000 2.43 270 10:24 09.07.2022
2721 Clouds 12 1025 88 10000 2.72 289 08:27 09.07.2022
2722 Clouds 12 1026 86 10000 1.62 264 06:59 09.07.2022
2723 Clouds 10 1026 95 10000 1.6 267 04:35 09.07.2022
2724 Clouds 12 1027 83 10000 1.78 269 23:27 08.07.2022
2725 Clouds 13 1028 81 10000 2.08 268 21:59 08.07.2022
2726 Clouds 14 1027 78 10000 1.99 273 21:20 08.07.2022
2727 Clouds 14 1027 74 10000 1.99 273 20:33 08.07.2022
2728 Clouds 15 1027 69 10000 4.04 308 18:36 08.07.2022
2729 Clouds 15 1027 72 10000 4.27 310 17:45 08.07.2022
2730 Clouds 15 1028 67 10000 3.94 318 15:53 08.07.2022
2731 Clouds 15 1027 64 10000 5.55 322 14:50 08.07.2022
2732 Clouds 14 1027 63 10000 5.21 306 12:30 08.07.2022
2733 Clouds 12 1028 68 10000 4.4 306 10:46 08.07.2022
2734 Clouds 10 1028 76 10000 4.4 308 09:42 08.07.2022
2735 Clouds 9 1027 82 10000 3.51 302 06:55 08.07.2022
2736 Clouds 9 1026 83 10000 3.07 296 04:32 08.07.2022
2737 Clouds 10 1024 82 10000 5.29 307 00:23 08.07.2022
2738 Clouds 10 1024 81 10000 5.99 309 22:47 07.07.2022
2739 Clear 10 1023 83 10000 6.11 315 21:41 07.07.2022
2740 Clouds 11 1020 83 10000 6.52 317 19:28 07.07.2022
2741 Rain 13 1019 89 10000 6.44 311 17:43 07.07.2022
2742 Clouds 13 1018 88 10000 5.03 298 15:58 07.07.2022
2743 Clouds 12 1017 92 4567 5.1 297 13:33 07.07.2022
2744 Rain 12 1017 93 4496 4.85 282 12:41 07.07.2022
2745 Clouds 13 1016 91 5584 4.7 286 12:22 07.07.2022
2746 Rain 12 1016 92 5584 4.7 286 11:32 07.07.2022
2747 Rain 11 1016 92 4629 3.45 277 10:45 07.07.2022
2748 Clouds 11 1016 92 1573 3.3 257 10:27 07.07.2022
2749 Rain 10 1016 94 2260 3.11 225 08:40 07.07.2022
2750 Clouds 9 1018 92 9086 3.18 221 05:44 07.07.2022
2751 Rain 11 1021 69 10000 1.98 222 00:18 07.07.2022
2752 Clouds 11 1021 63 10000 1.98 222 23:36 06.07.2022
2753 Clouds 11 1021 65 10000 1.72 231 23:18 06.07.2022
2754 Clouds 11 1021 65 10000 1.72 231 22:47 06.07.2022
2755 Clouds 11 1021 65 10000 1.72 231 22:47 06.07.2022
2756 Clouds 11 1021 61 10000 1.72 255 22:28 06.07.2022
2757 Clouds 15 1021 49 10000 3.13 306 19:46 06.07.2022
2758 Clouds 15 1021 47 10000 3.61 304 18:48 06.07.2022
2759 Clouds 15 1022 46 10000 4.1 288 16:58 06.07.2022
2760 Clouds 15 1023 44 10000 4.16 291 15:50 06.07.2022
2761 Clouds 14 1023 53 10000 4.11 295 12:44 06.07.2022
2762 Clouds 14 1023 56 10000 3.67 294 11:52 06.07.2022
2763 Clouds 13 1023 58 10000 3.86 295 10:48 06.07.2022
2764 Clouds 12 1024 66 10000 3.75 297 08:46 06.07.2022
2765 Clouds 10 1024 74 10000 3.32 294 07:43 06.07.2022
2766 Clouds 9 1023 77 10000 2.39 287 06:43 06.07.2022
2767 Clouds 14 1022 72 10000 2.87 314 22:52 05.07.2022
2768 Clouds 13 1022 57 10000 2.87 314 22:34 05.07.2022
2769 Clouds 17 1021 61 10000 2.46 319 20:45 05.07.2022
2770 Clouds 17 1021 43 10000 4.11 326 19:54 05.07.2022
2771 Clouds 17 1020 42 10000 4.01 332 19:35 05.07.2022
2772 Clouds 19 1019 40 10000 3.26 285 17:49 05.07.2022
2773 Clouds 19 1020 39 10000 3.57 272 17:18 05.07.2022
2774 Clouds 20 1020 41 10000 3.81 268 15:39 05.07.2022
2775 Clouds 18 1020 45 10000 2.97 272 14:44 05.07.2022
2776 Clouds 18 1020 51 10000 3.64 275 12:53 05.07.2022
2777 Clouds 17 1021 57 10000 3.59 281 12:21 05.07.2022
2778 Clouds 17 1021 59 10000 3.14 288 10:45 05.07.2022
2779 Clouds 15 1021 66 10000 2.63 293 09:44 05.07.2022
2780 Clear 14 1021 69 10000 1.69 290 08:20 05.07.2022
2781 Clear 10 1021 80 10000 0.97 262 06:47 05.07.2022
2782 Clear 9 1020 82 10000 0.33 14 04:28 05.07.2022
2783 Clouds 12 1020 63 10000 0.99 336 00:43 05.07.2022
2784 Clouds 13 1020 56 10000 1.06 332 23:36 04.07.2022
2785 Clouds 13 1020 58 10000 0.94 315 22:54 04.07.2022
2786 Clouds 14 1020 54 10000 1.11 301 21:56 04.07.2022
2787 Clear 17 1019 47 10000 1.58 275 20:55 04.07.2022
2788 Clear 18 1019 42 10000 1.58 275 20:35 04.07.2022
2789 Clear 19 1018 42 10000 3 272 19:56 04.07.2022
2790 Clear 19 1018 41 10000 3 272 19:36 04.07.2022
2791 Clear 20 1018 39 10000 3.38 284 18:34 04.07.2022
2792 Clear 20 1018 39 10000 3.69 284 16:42 04.07.2022
2793 Clear 20 1019 39 10000 3.62 282 15:34 04.07.2022
2794 Clouds 19 1019 45 10000 3.33 285 13:41 04.07.2022
2795 Clouds 18 1019 51 10000 3.32 287 12:38 04.07.2022
2796 Clear 16 1019 57 10000 3.33 277 10:39 04.07.2022
2797 Clear 16 1020 59 10000 3.3 281 10:20 04.07.2022
2798 Clear 14 1020 70 10000 2.88 283 08:31 04.07.2022
2799 Clear 9 1019 82 10000 1.58 275 05:36 04.07.2022
2800 Clouds 13 1018 74 10000 2.03 300 00:44 04.07.2022
2801 Clouds 13 1018 74 10000 2.03 300 00:44 04.07.2022
2802 Clouds 12 1018 83 10000 2.02 315 23:38 03.07.2022
2803 Clouds 16 1017 72 10000 1.41 323 22:27 03.07.2022
2804 Clouds 16 1017 63 10000 1.95 323 20:45 03.07.2022
2805 Clouds 21 1016 44 10000 2.73 341 19:42 03.07.2022
2806 Clouds 22 1016 46 10000 3.92 314 19:23 03.07.2022
2807 Clouds 24 1015 37 10000 3.12 286 17:46 03.07.2022
2808 Clouds 24 1015 39 10000 2.97 280 17:18 03.07.2022
2809 Clouds 24 1016 36 10000 3.45 253 15:26 03.07.2022
2810 Clouds 24 1016 38 10000 3.45 253 14:49 03.07.2022
2811 Clear 23 1017 39 10000 3.76 250 13:49 03.07.2022
2812 Clear 22 1017 44 10000 3.64 247 12:42 03.07.2022
2813 Clear 22 1017 44 10000 3.6 248 11:46 03.07.2022
2814 Clear 21 1017 44 10000 3.33 243 10:51 03.07.2022
2815 Clear 21 1017 43 10000 3.33 243 10:33 03.07.2022
2816 Clear 17 1018 55 10000 1.88 205 07:38 03.07.2022
2817 Clear 13 1018 69 10000 1.57 169 05:34 03.07.2022
2818 Clear 15 1020 59 10000 1.58 118 00:26 03.07.2022
2819 Clear 16 1020 53 10000 1.44 128 22:37 02.07.2022
2820 Clear 16 1020 51 10000 1.49 133 22:18 02.07.2022
2821 Clear 20 1020 38 10000 2.25 136 20:21 02.07.2022
2822 Clear 21 1020 38 10000 2.25 136 19:49 02.07.2022
2823 Clear 22 1020 36 10000 3.04 167 18:20 02.07.2022
2824 Clear 22 1020 36 10000 3.04 167 17:37 02.07.2022
2825 Clear 22 1021 37 10000 2.67 186 15:46 02.07.2022
2826 Clear 19 1023 47 10000 2.8 204 12:56 02.07.2022
2827 Clear 18 1023 48 10000 2.78 208 11:48 02.07.2022
2828 Clear 17 1024 51 10000 2.82 211 10:50 02.07.2022
2829 Clear 15 1024 57 10000 2.66 213 09:49 02.07.2022
2830 Clear 14 1024 64 10000 2 205 08:37 02.07.2022
2831 Clear 13 1024 68 10000 1.46 200 08:19 02.07.2022
2832 Clear 8 1023 85 10000 1.39 203 02:53 02.07.2022
2833 Clouds 9 1023 88 10000 1.44 223 00:28 02.07.2022
2834 Clouds 10 1022 86 10000 1.27 219 22:59 01.07.2022
2835 Clouds 11 1022 83 10000 0.91 199 22:29 01.07.2022
2836 Clouds 11 1022 87 10000 0.91 199 21:37 01.07.2022
2837 Clouds 11 1022 87 10000 0.91 199 21:37 01.07.2022
2838 Clouds 13 1021 82 10000 1.39 239 20:58 01.07.2022
2839 Clouds 13 1020 79 10000 2.83 263 20:20 01.07.2022
2840 Clouds 14 1020 74 10000 2.13 245 19:36 01.07.2022
2841 Rain 12 1019 85 10000 1.97 252 16:41 01.07.2022
2842 Rain 11 1018 92 5211 3.07 262 14:29 01.07.2022
2843 Rain 11 1018 92 5211 3.07 262 13:39 01.07.2022
2844 Rain 11 1017 93 10000 4.44 267 10:54 01.07.2022
2845 Rain 11 1016 93 10000 4.06 270 10:19 01.07.2022
2846 Rain 11 1015 93 5210 3.2 277 06:31 01.07.2022
2847 Rain 13 1014 98 96 5.1 246 02:43 01.07.2022
2848 Clear 18 1011 88 10000 2.32 119 23:44 30.06.2022
2849 Clear 18 1011 87 10000 2.07 109 22:50 30.06.2022
2850 Clear 18 1011 87 10000 2.07 109 22:31 30.06.2022
2851 Clear 16 1011 86 10000 2.05 111 21:53 30.06.2022
2852 Clear 18 1010 83 10000 2.21 88 20:49 30.06.2022
2853 Clouds 24 1010 48 10000 2.37 89 20:21 30.06.2022
2854 Clouds 24 1010 46 10000 2.19 89 19:48 30.06.2022
2855 Clouds 25 1010 44 10000 2.21 98 18:54 30.06.2022
2856 Clouds 25 1010 44 10000 1.43 105 17:56 30.06.2022
2857 Clouds 25 1011 44 10000 0.69 124 17:18 30.06.2022
2858 Clouds 25 1011 47 10000 0.86 192 16:18 30.06.2022
2859 Clouds 24 1012 54 10000 0.59 223 14:20 30.06.2022
2860 Clouds 23 1012 57 8603 0.6 159 13:21 30.06.2022
2861 Clouds 22 1012 64 8603 0.6 159 12:34 30.06.2022
2862 Clouds 21 1012 63 10000 1.17 119 10:57 30.06.2022
2863 Clouds 19 1012 71 10000 0.97 137 09:51 30.06.2022
2864 Clouds 18 1013 74 10000 1.21 134 09:23 30.06.2022
2865 Clouds 14 1013 79 10000 1.23 113 07:41 30.06.2022
2866 Clouds 12 1013 81 10000 0.99 110 05:46 30.06.2022
2867 Clouds 15 1014 65 10000 2.08 82 23:56 29.06.2022
2868 Clouds 15 1014 70 10000 2.18 80 22:53 29.06.2022
2869 Clouds 16 1014 65 10000 2.18 80 22:33 29.06.2022
2870 Clear 18 1014 57 10000 1.91 79 20:56 29.06.2022
2871 Clear 19 1014 55 10000 1.91 79 20:32 29.06.2022
2872 Clouds 19 1013 56 10000 2.62 64 19:33 29.06.2022
2873 Clouds 20 1014 54 10000 3.46 80 17:40 29.06.2022
2874 Clouds 20 1014 58 10000 3.79 86 16:33 29.06.2022
2875 Clouds 19 1016 61 10000 2.33 75 14:19 29.06.2022
2876 Rain 18 1017 59 10000 2.22 84 12:39 29.06.2022
2877 Rain 18 1017 58 10000 4.71 119 10:25 29.06.2022
2878 Clouds 18 1017 57 10000 4.71 119 09:31 29.06.2022
2879 Clouds 14 1017 60 10000 2.87 102 07:30 29.06.2022
2880 Clouds 11 1018 60 10000 1.95 97 04:49 29.06.2022
2881 Clouds 11 1019 62 10000 1.97 57 00:56 29.06.2022
2882 Clouds 12 1019 62 10000 1.97 57 00:35 29.06.2022
2883 Clouds 14 1020 58 10000 1.52 62 22:53 28.06.2022
2884 Clouds 15 1020 55 10000 1.53 49 22:23 28.06.2022
2885 Clouds 15 1020 55 10000 1.53 49 21:53 28.06.2022
2886 Clouds 16 1020 67 10000 1.53 49 21:31 28.06.2022
2887 Clouds 19 1019 40 10000 1.61 19 20:34 28.06.2022
2888 Clouds 19 1019 40 10000 1.12 358 19:33 28.06.2022
2889 Clouds 19 1019 40 10000 1.12 358 19:33 28.06.2022
2890 Clear 20 1019 37 10000 0.52 50 18:45 28.06.2022
2891 Clear 20 1019 37 10000 0.52 50 18:45 28.06.2022
2892 Clear 20 1019 37 10000 0.82 58 17:39 28.06.2022
2893 Clouds 20 1020 38 10000 1.97 356 15:57 28.06.2022
2894 Clouds 20 1020 38 10000 1.97 356 15:36 28.06.2022
2895 Clouds 19 1021 40 10000 2.55 320 14:20 28.06.2022
2896 Clouds 19 1021 43 10000 2.55 320 13:51 28.06.2022
2897 Clouds 18 1021 49 10000 2.32 303 12:55 28.06.2022
2898 Clear 16 1022 58 10000 2.57 292 11:18 28.06.2022
2899 Clear 14 1022 67 10000 2.77 296 09:29 28.06.2022
2900 Clear 12 1022 74 10000 2.77 296 08:43 28.06.2022
2901 Clouds 12 1022 78 10000 2.28 270 07:42 28.06.2022
2902 Clouds 9 1022 96 10000 1.45 253 06:20 28.06.2022
2903 Clouds 13 1021 92 10000 3.15 270 00:58 28.06.2022
2904 Clouds 13 1020 90 10000 2.9 283 23:37 27.06.2022
2905 Clouds 13 1021 93 10000 4.43 275 22:52 27.06.2022
2906 Clouds 14 1019 93 10000 4.56 275 21:37 27.06.2022
2907 Clouds 16 1018 80 10000 5.21 275 20:52 27.06.2022
2908 Clouds 17 1017 73 10000 4.71 254 19:33 27.06.2022
2909 Clouds 19 1017 78 10000 2.94 274 18:25 27.06.2022
2910 Clouds 18 1016 84 10000 4.84 275 16:20 27.06.2022
2911 Clouds 21 1015 73 10000 3.71 266 15:22 27.06.2022
2912 Rain 21 1014 67 10000 3.25 256 13:37 27.06.2022
2913 Clouds 22 1014 66 10000 2.95 255 12:56 27.06.2022
2914 Clouds 19 1014 83 10000 1.24 252 10:34 27.06.2022
2915 Rain 17 1014 81 10000 0.27 256 09:21 27.06.2022
2916 Rain 16 1014 82 10000 0.83 286 08:30 27.06.2022
2917 Clouds 15 1014 90 10000 0.88 60 06:39 27.06.2022
2918 Clouds 15 1015 85 10000 0.72 191 03:55 27.06.2022
2919 Clouds 14 1014 95 10000 1.83 62 01:18 27.06.2022
2920 Clouds 14 1016 89 10000 1.76 56 22:22 26.06.2022
2921 Clouds 15 1015 90 10000 1.26 43 20:48 26.06.2022
2922 Clouds 16 1015 85 10000 1.31 15 19:42 26.06.2022
2923 Clouds 16 1015 89 10000 2.05 344 18:31 26.06.2022
2924 Clouds 21 1015 62 10000 3.3 277 17:22 26.06.2022
2925 Clouds 23 1014 55 10000 0.91 285 15:27 26.06.2022
2926 Clouds 23 1015 51 10000 1 263 13:53 26.06.2022
2927 Clouds 24 1015 47 10000 1.92 259 13:20 26.06.2022
2928 Clouds 23 1015 55 10000 2.13 256 11:26 26.06.2022
2929 Clouds 22 1014 47 10000 1.76 234 10:28 26.06.2022
2930 Clouds 21 1014 49 10000 1.76 234 09:39 26.06.2022
2931 Clouds 18 1014 63 10000 1.24 215 07:45 26.06.2022
2932 Clouds 15 1013 72 10000 1.03 152 02:52 26.06.2022
2933 Clouds 15 1014 73 10000 0.61 143 00:21 26.06.2022
2934 Clouds 16 1014 72 10000 0.61 143 23:51 25.06.2022
2935 Clouds 16 1013 66 10000 0.81 137 23:24 25.06.2022
2936 Clouds 17 1013 68 10000 0.82 137 22:27 25.06.2022
2937 Clouds 18 1013 71 10000 0.82 137 21:46 25.06.2022
2938 Clouds 19 1013 61 10000 0.63 148 21:20 25.06.2022
2939 Clouds 21 1013 55 10000 0.63 148 20:30 25.06.2022
2940 Clouds 22 1012 52 10000 0.97 82 19:55 25.06.2022
2941 Clouds 22 1012 47 10000 0.74 331 18:19 25.06.2022
2942 Clouds 22 1012 50 10000 0.88 295 17:25 25.06.2022
2943 Clouds 22 1012 49 10000 1.03 251 16:24 25.06.2022
2944 Clouds 22 1012 49 10000 2.12 240 13:51 25.06.2022
2945 Clouds 21 1012 64 10000 2.33 248 12:39 25.06.2022
2946 Clouds 20 1012 69 10000 2.37 261 11:34 25.06.2022
2947 Clouds 17 1013 73 10000 2.55 259 09:22 25.06.2022
2948 Clouds 16 1013 76 10000 2.55 259 08:46 25.06.2022
2949 Clouds 16 1013 79 10000 2.52 249 08:19 25.06.2022
2950 Rain 13 1012 97 10000 1.56 223 05:26 25.06.2022
2951 Clouds 14 1011 92 10000 1.15 216 00:44 25.06.2022
2952 Clouds 14 1011 92 10000 1.15 216 00:44 25.06.2022
2953 Clear 15 1010 87 10000 1.33 240 23:18 24.06.2022
2954 Clear 15 1009 94 10000 1.12 248 21:57 24.06.2022
2955 Clouds 17 1009 89 10000 1.51 259 21:21 24.06.2022
2956 Clouds 19 1008 70 10000 2.51 253 20:22 24.06.2022
2957 Clouds 19 1007 70 10000 4.15 228 19:23 24.06.2022
2958 Clouds 20 1007 61 10000 4.15 228 18:50 24.06.2022
2959 Clouds 22 1007 50 10000 4.15 228 18:30 24.06.2022
2960 Clouds 19 1007 73 10000 4.06 209 17:46 24.06.2022
2961 Rain 22 1007 55 10000 4.87 201 15:56 24.06.2022
2962 Clouds 21 1008 59 10000 4.12 209 14:29 24.06.2022
2963 Clouds 21 1008 58 10000 4.12 209 13:55 24.06.2022
2964 Clouds 21 1008 58 10000 4.12 209 13:55 24.06.2022
2965 Rain 20 1008 59 10000 4.58 205 11:54 24.06.2022
2966 Clouds 20 1008 57 10000 4.58 205 11:34 24.06.2022
2967 Clouds 21 1008 62 10000 3.74 204 10:22 24.06.2022
2968 Clouds 21 1008 54 10000 3.74 204 09:41 24.06.2022
2969 Clouds 20 1008 62 10000 3.15 200 08:52 24.06.2022
2970 Clear 16 1009 68 10000 1.63 172 07:20 24.06.2022
2971 Clear 16 1009 57 10000 1.63 172 06:42 24.06.2022
2972 Clear 15 1009 56 10000 1.92 178 06:18 24.06.2022
2973 Clear 14 1010 55 10000 2.7 107 02:44 24.06.2022
2974 Clear 18 1012 48 10000 2.34 100 22:58 23.06.2022
2975 Clear 18 1012 48 10000 2.34 100 22:40 23.06.2022
2976 Clear 18 1012 51 10000 2.08 96 20:57 23.06.2022
2977 Clear 24 1012 51 10000 2.08 96 20:32 23.06.2022
2978 Clear 25 1012 29 10000 1.96 124 19:25 23.06.2022
2979 Clear 26 1012 27 10000 1.74 139 17:51 23.06.2022
2980 Clear 27 1012 28 10000 2.46 150 16:58 23.06.2022
2981 Clear 27 1012 28 10000 2.28 158 15:50 23.06.2022
2982 Clear 26 1013 28 10000 2.26 156 15:24 23.06.2022
2983 Clear 24 1013 39 10000 1.74 162 13:33 23.06.2022
2984 Clear 23 1014 39 10000 1.94 141 11:27 23.06.2022
2985 Clear 21 1014 43 10000 1.94 141 10:35 23.06.2022
2986 Clear 18 1014 54 10000 1.6 112 08:53 23.06.2022
2987 Clouds 10 1014 64 10000 1.06 102 03:35 23.06.2022
2988 Clouds 12 1014 58 10000 0.82 65 00:26 23.06.2022
2989 Clouds 13 1014 55 10000 0.82 65 23:30 22.06.2022
2990 Clouds 15 1014 54 10000 0.78 71 22:39 22.06.2022
2991 Clear 17 1013 52 10000 1.55 33 21:22 22.06.2022
2992 Clear 17 1013 51 10000 1.55 33 20:42 22.06.2022
2993 Clouds 19 1012 42 10000 1.39 7 19:56 22.06.2022
2994 Clouds 21 1012 38 10000 1.38 356 18:47 22.06.2022
2995 Clouds 22 1011 41 10000 0.82 352 17:28 22.06.2022
2996 Clouds 22 1012 41 10000 0.83 329 16:24 22.06.2022
2997 Clouds 21 1012 42 10000 0.75 337 15:26 22.06.2022
2998 Clouds 21 1012 43 10000 0.83 307 14:20 22.06.2022
2999 Clouds 21 1012 42 10000 0.83 307 13:39 22.06.2022
3000 Clouds 20 1013 44 10000 1.03 292 13:21 22.06.2022
3001 Clouds 18 1013 51 10000 0.28 46 11:49 22.06.2022
3002 Clouds 18 1013 50 10000 0.59 56 10:55 22.06.2022
3003 Clouds 17 1013 50 10000 1.09 25 10:19 22.06.2022
3004 Clouds 13 1013 66 10000 1.47 21 08:28 22.06.2022
3005 Clouds 8 1013 73 10000 0.54 29 04:50 22.06.2022
3006 Clouds 9 1014 72 10000 0.73 138 01:23 22.06.2022
3007 Clear 9 1014 72 10000 0.91 115 00:29 22.06.2022
3008 Clouds 12 1014 68 10000 0.63 79 22:19 21.06.2022
3009 Clouds 17 1013 51 10000 0.38 20 19:56 21.06.2022
3010 Clouds 18 1013 45 10000 0.86 351 18:36 21.06.2022
3011 Clouds 18 1013 45 10000 0.95 337 17:39 21.06.2022
3012 Clouds 18 1014 45 10000 0.42 314 14:22 21.06.2022
3013 Clouds 14 1015 61 10000 1.49 263 11:49 21.06.2022
3014 Clouds 11 1016 64 10000 2.03 266 10:19 21.06.2022
3015 Clouds 9 1017 74 10000 2.54 256 08:48 21.06.2022
3016 Clouds 7 1017 84 10000 1.47 260 07:23 21.06.2022
3017 Clear 7 1017 82 10000 2.57 295 01:43 21.06.2022
3018 Clear 9 1015 73 10000 3.81 304 23:26 20.06.2022
3019 Clear 11 1015 60 10000 4.41 307 21:58 20.06.2022
3020 Clear 11 1015 59 10000 4.41 307 21:30 20.06.2022
3021 Clouds 14 1014 53 10000 5.47 310 19:44 20.06.2022
3022 Clouds 14 1013 53 10000 6 304 18:53 20.06.2022
3023 Clouds 14 1013 53 10000 5.48 303 18:23 20.06.2022
3024 Clouds 15 1013 51 10000 5.48 303 17:36 20.06.2022
3025 Clouds 15 1012 62 10000 4.47 282 16:20 20.06.2022
3026 Clouds 7 1014 76 10000 2.31 273 14:18 20.06.2022
3027 Rain 8 1013 87 10000 2.12 289 11:30 20.06.2022
3028 Rain 9 1012 87 539 2.83 342 09:48 20.06.2022
3029 Rain 9 1011 86 344 1.53 309 08:45 20.06.2022
3030 Rain 9 1012 87 769 1.74 294 06:59 20.06.2022
3031 Clouds 11 1012 85 10000 1.19 5 03:29 20.06.2022
3032 Clouds 10 1013 84 10000 1.33 19 00:37 20.06.2022
3033 Clouds 11 1012 95 10000 1.19 17 23:29 19.06.2022
3034 Clouds 12 1012 93 10000 1.72 355 22:19 19.06.2022
3035 Clouds 12 1012 93 10000 1.72 355 22:19 19.06.2022
3036 Clouds 12 1012 93 10000 1.72 355 21:41 19.06.2022
3037 Clouds 15 1011 59 10000 3.02 350 20:48 19.06.2022
3038 Clouds 17 1010 54 10000 3.3 333 19:48 19.06.2022
3039 Clouds 17 1010 52 10000 4 331 19:24 19.06.2022
3040 Clouds 20 1010 46 10000 4 331 18:31 19.06.2022
3041 Clouds 21 1009 52 10000 3.05 328 17:39 19.06.2022
3042 Clouds 21 1009 52 10000 3.12 311 16:39 19.06.2022
3043 Clouds 21 1009 55 10000 4.47 304 15:44 19.06.2022
3044 Clouds 21 1008 57 10000 4.52 292 15:26 19.06.2022
3045 Clouds 21 1008 50 10000 5.19 292 14:41 19.06.2022
3046 Clouds 24 1007 45 10000 4.6 286 13:44 19.06.2022
3047 Clouds 26 1007 44 10000 5.52 261 12:19 19.06.2022
3048 Clouds 24 1007 48 10000 5.39 245 10:52 19.06.2022
3049 Clear 23 1007 48 10000 4.12 210 08:55 19.06.2022
3050 Clear 23 1007 40 10000 4.12 210 08:32 19.06.2022
3051 Clouds 18 1008 63 10000 2.05 186 07:26 19.06.2022
3052 Clouds 16 1010 72 10000 1.69 159 03:57 19.06.2022
3053 Clouds 18 1013 68 10000 2.03 113 00:51 19.06.2022
3054 Clouds 19 1013 67 10000 1.95 88 00:22 19.06.2022
3055 Clouds 19 1013 64 10000 1.95 88 23:35 18.06.2022
3056 Clouds 20 1014 59 10000 1.51 83 22:30 18.06.2022
3057 Clear 23 1014 58 10000 0.73 13 20:51 18.06.2022
3058 Clouds 25 1014 48 10000 0.44 301 20:18 18.06.2022
3059 Clouds 27 1014 40 10000 1.84 285 18:57 18.06.2022
3060 Clouds 28 1014 34 10000 1.84 285 18:38 18.06.2022
3061 Clouds 28 1015 33 10000 4.11 277 17:29 18.06.2022
3062 Clouds 28 1016 31 10000 4.59 273 16:18 18.06.2022
3063 Clouds 28 1016 34 10000 4.71 268 14:58 18.06.2022
3064 Clouds 28 1016 35 10000 4.71 268 14:37 18.06.2022
3065 Clear 25 1017 42 10000 4.57 258 12:31 18.06.2022
3066 Clear 24 1017 45 10000 4.38 252 11:25 18.06.2022
3067 Clear 23 1018 43 10000 4.09 246 10:23 18.06.2022
3068 Clear 21 1018 46 10000 3.63 241 08:59 18.06.2022
3069 Clouds 16 1018 70 10000 3.17 228 07:34 18.06.2022
3070 Clouds 16 1018 70 10000 3.17 228 07:34 18.06.2022
3071 Clouds 13 1019 69 10000 2.15 211 05:58 18.06.2022
3072 Clouds 13 1020 67 10000 2.03 196 02:53 18.06.2022
3073 Clouds 13 1022 66 10000 1.87 180 01:23 18.06.2022
3074 Clouds 14 1022 65 10000 1.87 180 00:39 18.06.2022
3075 Clouds 15 1022 64 10000 1.83 170 23:40 17.06.2022
3076 Clouds 15 1023 53 10000 1.86 163 22:49 17.06.2022
3077 Clouds 19 1023 62 10000 1.35 149 20:33 17.06.2022
3078 Clouds 20 1023 43 10000 0.87 243 19:24 17.06.2022
3079 Clouds 21 1023 41 10000 1.8 239 18:19 17.06.2022
3080 Rain 21 1023 36 10000 2.19 261 17:21 17.06.2022
3081 Clouds 21 1023 36 10000 2.19 261 16:37 17.06.2022
3082 Clouds 21 1023 37 10000 2.78 258 15:41 17.06.2022
3083 Clouds 21 1024 37 10000 3.01 255 14:37 17.06.2022
3084 Clouds 21 1024 40 10000 2.24 253 14:18 17.06.2022
3085 Clouds 20 1024 42 10000 2.24 253 13:41 17.06.2022
3086 Clouds 19 1024 43 10000 1.96 257 12:42 17.06.2022
3087 Clouds 18 1024 46 10000 2.16 276 11:56 17.06.2022
3088 Clouds 18 1024 47 10000 2.16 276 11:34 17.06.2022
3089 Clouds 15 1025 54 10000 1.3 284 09:49 17.06.2022
3090 Clouds 13 1024 56 10000 0.98 281 08:27 17.06.2022
3091 Clouds 9 1025 72 10000 0.86 249 06:51 17.06.2022
3092 Clouds 7 1025 73 10000 0.6 285 04:49 17.06.2022
3093 Clouds 9 1025 69 10000 0.92 353 01:57 17.06.2022
3094 Clouds 10 1025 60 10000 1.21 347 00:26 17.06.2022
3095 Clouds 7 1024 76 10000 1.59 328 22:43 16.06.2022
3096 Clouds 14 1023 64 10000 2.91 335 21:23 16.06.2022
3097 Clouds 14 1023 64 10000 2.91 335 20:56 16.06.2022
3098 Clouds 16 1023 43 10000 2.91 335 20:36 16.06.2022
3099 Clouds 16 1023 43 10000 2.91 335 20:36 16.06.2022
3100 Clear 18 1022 39 10000 3.88 331 19:45 16.06.2022
3101 Clear 19 1021 36 10000 4.93 327 18:27 16.06.2022
3102 Clear 19 1021 38 10000 4.93 327 17:43 16.06.2022
3103 Clear 20 1021 41 10000 4.92 329 16:39 16.06.2022
3104 Clear 19 1020 44 10000 4.2 328 15:22 16.06.2022
3105 Clear 20 1020 44 10000 4.2 328 14:46 16.06.2022
3106 Clouds 19 1020 48 10000 4.05 327 13:32 16.06.2022
3107 Clouds 18 1020 52 10000 3.99 330 12:36 16.06.2022
3108 Clouds 17 1020 55 10000 3.82 338 11:52 16.06.2022
3109 Clouds 15 1019 61 10000 3.49 339 10:56 16.06.2022
3110 Clouds 15 1019 61 10000 2.7 349 10:20 16.06.2022
3111 Clouds 12 1019 67 10000 2.65 344 09:21 16.06.2022
3112 Clouds 11 1019 69 10000 2.65 344 08:30 16.06.2022
3113 Clouds 11 1018 69 10000 1.59 344 07:26 16.06.2022
3114 Clouds 10 1018 77 10000 1.64 330 04:50 16.06.2022
3115 Clouds 11 1018 76 10000 0.77 344 02:21 16.06.2022
3116 Clouds 12 1018 74 10000 0.77 344 01:42 16.06.2022
3117 Clouds 13 1018 73 10000 0.98 320 01:21 16.06.2022
3118 Clouds 10 1018 78 10000 0.96 349 23:47 15.06.2022
3119 Clouds 10 1018 78 10000 0.96 349 23:47 15.06.2022
3120 Clouds 15 1018 55 10000 0.88 30 22:38 15.06.2022
3121 Clouds 17 1017 55 10000 1.52 35 21:22 15.06.2022
3122 Clouds 17 1017 73 10000 1.52 35 20:45 15.06.2022
3123 Clouds 20 1017 43 10000 1.65 10 20:27 15.06.2022
3124 Clouds 21 1017 38 10000 1.64 20 19:30 15.06.2022
3125 Clouds 22 1017 35 10000 2.08 315 17:56 15.06.2022
3126 Clouds 22 1017 35 10000 2.08 315 17:32 15.06.2022
3127 Clouds 22 1017 37 10000 2.3 282 15:46 15.06.2022
3128 Rain 22 1018 37 10000 1.8 270 14:26 15.06.2022
3129 Rain 19 1018 41 10000 1.47 261 12:54 15.06.2022
3130 Rain 20 1019 42 10000 1.12 251 12:28 15.06.2022
3131 Clear 16 1019 48 10000 0.46 142 10:27 15.06.2022
3132 Clear 16 1019 50 10000 0.46 142 09:45 15.06.2022
3133 Clouds 14 1019 57 10000 0.66 117 08:50 15.06.2022
3134 Clouds 9 1019 72 10000 0.8 128 06:42 15.06.2022
3135 Clear 6 1020 75 10000 0.93 120 04:47 15.06.2022
3136 Clear 7 1021 71 10000 0.89 138 01:55 15.06.2022
3137 Clear 8 1021 69 10000 0.83 124 00:51 15.06.2022
3138 Clear 9 1021 68 10000 0.88 107 23:40 14.06.2022
3139 Clear 9 1022 67 10000 0.88 99 23:21 14.06.2022
3140 Clear 10 1022 65 10000 1.23 79 22:28 14.06.2022
3141 Clear 11 1022 83 10000 1.23 79 21:41 14.06.2022
3142 Clear 13 1021 75 10000 1.39 46 20:57 14.06.2022
3143 Clear 14 1021 52 10000 1.39 46 20:32 14.06.2022
3144 Clouds 16 1020 49 10000 1.91 332 19:25 14.06.2022
3145 Clouds 17 1020 47 10000 2.27 317 18:25 14.06.2022
3146 Clouds 17 1021 44 10000 2.68 310 16:49 14.06.2022
3147 Clouds 17 1021 44 10000 2.78 304 15:50 14.06.2022
3148 Clouds 16 1021 46 10000 2.78 304 15:31 14.06.2022
3149 Clouds 16 1021 47 10000 2.94 296 14:46 14.06.2022
3150 Clouds 16 1022 46 10000 2.92 292 13:46 14.06.2022
3151 Clouds 15 1022 51 10000 2.92 289 12:48 14.06.2022
3152 Clouds 13 1022 55 10000 2.95 283 11:52 14.06.2022
3153 Clouds 12 1023 57 10000 2.83 280 10:49 14.06.2022
3154 Clouds 12 1023 64 10000 2.64 279 10:25 14.06.2022
3155 Clouds 12 1023 64 10000 2.64 279 10:25 14.06.2022
3156 Clouds 10 1023 69 10000 2.31 275 08:52 14.06.2022
3157 Clouds 9 1024 74 10000 1.64 273 07:58 14.06.2022
3158 Clouds 6 1023 79 10000 1 253 06:19 14.06.2022
3159 Clouds 5 1024 81 10000 1.01 265 03:36 14.06.2022
3160 Clouds 6 1024 81 10000 1.08 275 01:36 14.06.2022
3161 Clouds 7 1023 85 10000 1.33 300 23:53 13.06.2022
3162 Clouds 9 1023 74 10000 2.12 288 22:27 13.06.2022
3163 Clouds 9 1023 77 10000 2.12 288 21:59 13.06.2022
3164 Clouds 11 1022 62 10000 2.95 299 21:24 13.06.2022
3165 Clouds 13 1021 52 10000 3.46 309 19:48 13.06.2022
3166 Clouds 14 1021 53 10000 4.8 311 18:52 13.06.2022
3167 Clouds 14 1020 47 10000 5.42 310 17:52 13.06.2022
3168 Clouds 14 1020 51 10000 5.87 302 17:21 13.06.2022
3169 Clouds 14 1020 54 10000 6.27 297 16:22 13.06.2022
3170 Rain 12 1020 64 10000 5.14 299 14:48 13.06.2022
3171 Clouds 14 1020 47 10000 5.35 288 14:18 13.06.2022
3172 Clouds 14 1019 45 10000 5.11 282 13:28 13.06.2022
3173 Clouds 13 1019 75 9438 5.09 273 12:22 13.06.2022
3174 Clouds 13 1019 62 10000 4.36 275 10:36 13.06.2022
3175 Rain 12 1019 68 10000 3.43 289 09:43 13.06.2022
3176 Clouds 12 1019 71 10000 2.61 286 08:34 13.06.2022
3177 Clouds 9 1019 90 10000 1.33 291 06:35 13.06.2022
3178 Clouds 9 1019 89 10000 1.45 321 04:35 13.06.2022
3179 Clouds 11 1019 90 10000 1.37 326 01:45 13.06.2022
3180 Clouds 11 1019 90 10000 1.49 327 01:18 13.06.2022
3181 Clouds 12 1019 84 10000 1.72 320 23:43 12.06.2022
3182 Clouds 10 1019 81 10000 1.44 327 22:36 12.06.2022
3183 Clouds 10 1019 82 10000 1.25 336 21:46 12.06.2022
3184 Clouds 15 1019 71 10000 2.3 323 20:53 12.06.2022
3185 Clouds 18 1019 56 10000 3.05 310 19:58 12.06.2022
3186 Clouds 19 1019 39 10000 3.9 299 18:54 12.06.2022
3187 Clouds 20 1019 36 10000 4.53 299 17:36 12.06.2022
3188 Clouds 21 1019 36 10000 4.37 283 15:52 12.06.2022
3189 Clouds 20 1020 43 10000 4.78 275 14:50 12.06.2022
3190 Clouds 20 1020 44 10000 4.6 269 14:18 12.06.2022
3191 Clouds 20 1020 46 10000 4.6 269 13:45 12.06.2022
3192 Clouds 19 1021 52 10000 3.63 275 12:28 12.06.2022
3193 Clouds 17 1021 58 10000 3.34 285 11:19 12.06.2022
3194 Clouds 17 1021 57 10000 2.74 291 10:20 12.06.2022
3195 Clouds 16 1021 63 10000 2.1 291 08:51 12.06.2022
3196 Clouds 15 1021 66 10000 1.25 294 08:29 12.06.2022
3197 Clouds 13 1022 80 10000 0.95 307 06:49 12.06.2022
3198 Clouds 12 1022 82 10000 1.46 260 04:26 12.06.2022
3199 Clouds 12 1022 79 10000 0.77 182 02:32 12.06.2022
3200 Clouds 12 1022 85 10000 0.72 186 01:36 12.06.2022
3201 Clouds 11 1023 86 10000 0.76 179 00:57 12.06.2022
3202 Clouds 12 1023 86 10000 0.82 184 00:19 12.06.2022
3203 Clouds 12 1023 82 10000 0.45 175 23:21 11.06.2022
3204 Clouds 13 1023 81 10000 0.45 175 22:37 11.06.2022
3205 Clouds 15 1022 70 10000 0.81 310 21:31 11.06.2022
3206 Clouds 17 1022 60 10000 1.61 305 20:27 11.06.2022
3207 Clouds 18 1022 59 10000 1.75 296 19:36 11.06.2022
3208 Clouds 19 1022 59 10000 2.75 293 18:45 11.06.2022
3209 Clouds 19 1022 51 10000 2.96 288 18:27 11.06.2022
3210 Clouds 19 1022 51 10000 2.96 288 17:48 11.06.2022
3211 Clouds 20 1022 49 10000 3.17 288 17:26 11.06.2022
3212 Clouds 20 1022 49 10000 3.17 288 16:44 11.06.2022
3213 Clouds 20 1022 48 10000 3.42 280 16:18 11.06.2022
3214 Clouds 19 1022 56 10000 3.39 275 14:57 11.06.2022
3215 Clouds 19 1022 54 10000 3.57 266 13:52 11.06.2022
3216 Clouds 18 1022 60 10000 3.88 258 12:19 11.06.2022
3217 Clouds 17 1022 65 10000 3.53 256 10:32 11.06.2022
3218 Clouds 16 1022 66 10000 2.99 246 09:41 11.06.2022
3219 Clouds 16 1022 64 10000 2.46 225 08:45 11.06.2022
3220 Clear 13 1022 75 10000 1.57 208 06:34 11.06.2022
3221 Clear 12 1022 83 10000 1.45 198 05:53 11.06.2022
3222 Clear 12 1022 80 10000 1.36 179 03:31 11.06.2022
3223 Clouds 12 1022 83 10000 1.17 187 01:51 11.06.2022
3224 Clouds 12 1022 82 10000 1.09 180 01:25 11.06.2022
3225 Clouds 13 1022 71 10000 0.95 167 23:27 10.06.2022
3226 Clouds 13 1022 76 10000 0.57 197 22:21 10.06.2022
3227 Clouds 14 1022 72 10000 0.57 197 21:46 10.06.2022
3228 Clouds 16 1022 59 10000 0.53 263 20:39 10.06.2022
3229 Clouds 17 1022 55 10000 0.91 282 20:19 10.06.2022
3230 Clouds 16 1022 61 10000 1.85 274 19:19 10.06.2022
3231 Clouds 17 1022 59 10000 1.85 274 18:44 10.06.2022
3232 Clouds 17 1022 52 10000 2.56 288 17:54 10.06.2022
3233 Clouds 17 1022 53 10000 3.56 285 17:22 10.06.2022
3234 Clouds 18 1021 46 10000 3.18 256 16:28 10.06.2022
3235 Clouds 19 1021 43 10000 3.18 256 15:40 10.06.2022
3236 Clear 19 1022 43 10000 3.67 244 14:28 10.06.2022
3237 Clear 18 1022 49 10000 3.78 244 12:58 10.06.2022
3238 Clear 17 1022 50 10000 3.78 247 11:59 10.06.2022
3239 Clear 16 1023 52 10000 3.51 249 10:51 10.06.2022
3240 Clear 14 1023 59 10000 2.85 250 09:57 10.06.2022
3241 Clear 13 1022 66 10000 2.48 249 08:48 10.06.2022
3242 Clear 11 1023 82 10000 1.72 234 07:50 10.06.2022
3243 Clear 8 1022 88 10000 1.24 224 06:47 10.06.2022
3244 Clear 7 1022 91 10000 1.18 227 06:28 10.06.2022
3245 Clear 7 1022 88 10000 1.06 234 04:53 10.06.2022
3246 Clouds 8 1021 93 10000 1.02 283 01:59 10.06.2022
3247 Clouds 8 1021 93 10000 1.1 282 01:36 10.06.2022
3248 Clouds 8 1021 93 10000 1.1 282 01:36 10.06.2022
3249 Clouds 9 1020 92 10000 1.41 278 23:57 09.06.2022
3250 Clouds 10 1019 87 10000 1.66 274 22:30 09.06.2022
3251 Clouds 11 1019 83 10000 2.03 286 21:43 09.06.2022
3252 Clouds 12 1017 78 10000 3.01 300 21:24 09.06.2022
3253 Clouds 13 1017 69 10000 3.01 300 20:38 09.06.2022
3254 Clouds 14 1016 65 10000 3.51 301 19:43 09.06.2022
3255 Clouds 15 1016 65 10000 3.71 298 18:37 09.06.2022
3256 Rain 15 1015 66 10000 3.39 298 17:31 09.06.2022
3257 Clouds 17 1014 58 10000 4.3 294 16:28 09.06.2022
3258 Clouds 16 1013 61 10000 4.45 293 14:52 09.06.2022
3259 Clouds 16 1013 67 10000 4.44 290 14:27 09.06.2022
3260 Clouds 15 1013 67 10000 4.44 289 13:30 09.06.2022
3261 Clouds 14 1013 71 10000 4.8 281 12:55 09.06.2022
3262 Clouds 13 1012 76 10000 5.09 274 11:33 09.06.2022
3263 Clouds 12 1011 80 10000 4.08 263 09:55 09.06.2022
3264 Clouds 12 1011 80 10000 4.08 263 09:37 09.06.2022
3265 Clouds 11 1011 83 10000 3.79 261 08:38 09.06.2022
3266 Clouds 11 1010 86 10000 2.89 242 07:29 09.06.2022
3267 Clouds 10 1009 91 10000 2.27 241 03:31 09.06.2022
3268 Clouds 11 1008 89 10000 1.89 211 00:34 09.06.2022
3269 Rain 11 1008 88 10000 2.33 224 23:18 08.06.2022
3270 Rain 11 1008 85 10000 2.33 224 22:43 08.06.2022
3271 Rain 11 1008 85 10000 2.28 232 22:23 08.06.2022
3272 Rain 11 1008 84 10000 2.28 232 21:33 08.06.2022
3273 Rain 12 1008 85 10000 4.34 252 20:25 08.06.2022
3274 Clouds 13 1008 84 10000 4.22 262 19:41 08.06.2022
3275 Clouds 15 1007 63 10000 3.62 217 18:48 08.06.2022
3276 Clouds 17 1007 50 10000 2.72 203 17:41 08.06.2022
3277 Clouds 18 1007 51 10000 3.62 207 15:56 08.06.2022
3278 Clouds 18 1007 50 10000 3.09 198 14:44 08.06.2022
3279 Clouds 18 1008 52 10000 2.37 207 12:55 08.06.2022
3280 Clouds 18 1008 52 10000 2.37 207 12:55 08.06.2022
3281 Clouds 18 1008 52 10000 2.37 207 12:55 08.06.2022
3282 Clouds 18 1008 52 10000 2.37 207 12:55 08.06.2022
3283 Clouds 16 1009 63 10000 2.37 218 11:41 08.06.2022
3284 Clouds 16 1009 65 10000 2.26 227 11:19 08.06.2022
3285 Clouds 14 1009 76 10000 2.24 232 09:30 08.06.2022
3286 Clouds 13 1010 78 10000 1.82 219 08:55 08.06.2022
3287 Clouds 11 1010 90 10000 1.04 179 07:21 08.06.2022
3288 Clouds 11 1010 90 10000 1.04 179 07:21 08.06.2022
3289 Clouds 9 1011 97 10000 1.2 203 04:49 08.06.2022
3290 Clouds 10 1012 88 10000 1.63 218 01:27 08.06.2022
3291 Clouds 11 1012 85 10000 1.72 223 23:33 07.06.2022
3292 Clouds 12 1013 82 10000 1.73 224 22:58 07.06.2022
3293 Clouds 9 1013 95 10000 1.73 224 22:37 07.06.2022
3294 Clouds 12 1013 79 10000 1.74 225 21:41 07.06.2022
3295 Clouds 12 1012 82 10000 1.65 232 21:20 07.06.2022
3296 Clouds 14 1012 67 10000 1.65 232 20:42 07.06.2022
3297 Clouds 15 1012 72 10000 2.75 251 19:57 07.06.2022
3298 Clouds 16 1012 54 10000 3.36 242 18:26 07.06.2022
3299 Clouds 17 1012 50 10000 3.36 242 17:33 07.06.2022
3300 Clouds 18 1011 47 10000 4.05 242 16:44 07.06.2022
3301 Clouds 17 1012 51 10000 4.1 235 15:58 07.06.2022
3302 Clouds 17 1012 47 10000 4.1 235 15:37 07.06.2022
3303 Clouds 18 1012 47 10000 4.72 236 15:18 07.06.2022
3304 Clouds 18 1012 47 10000 4.72 236 14:43 07.06.2022
3305 Clouds 17 1012 47 10000 5.28 248 13:38 07.06.2022
3306 Clouds 17 1013 48 10000 5.2 244 13:20 07.06.2022
3307 Clouds 16 1013 49 10000 5.45 240 11:55 07.06.2022
3308 Clear 15 1013 53 10000 5.84 238 10:53 07.06.2022
3309 Clouds 14 1014 58 10000 5.27 237 09:26 07.06.2022
3310 Clouds 12 1014 62 10000 3.42 221 08:22 07.06.2022
3311 Clouds 10 1014 72 10000 2.03 207 06:42 07.06.2022
3312 Clouds 8 1014 86 10000 1.52 208 04:52 07.06.2022
3313 Clear 9 1015 86 10000 1.16 201 01:28 07.06.2022
3314 Clear 10 1015 92 10000 1.04 234 23:59 06.06.2022
3315 Clear 10 1015 91 10000 1.57 233 22:56 06.06.2022
3316 Clear 12 1015 76 10000 1.57 233 22:30 06.06.2022
3317 Clear 13 1014 71 10000 2.3 224 21:18 06.06.2022
3318 Clouds 15 1014 59 10000 3.83 233 19:29 06.06.2022
3319 Clouds 15 1014 64 10000 3.83 233 18:59 06.06.2022
3320 Clouds 16 1014 62 10000 3.83 233 18:32 06.06.2022
3321 Clouds 14 1015 74 10000 4.52 245 17:27 06.06.2022
3322 Clouds 16 1015 53 10000 4.95 242 16:21 06.06.2022
3323 Clouds 17 1015 52 10000 4.95 242 15:33 06.06.2022
3324 Clouds 16 1014 57 10000 5.77 235 14:36 06.06.2022
3325 Clouds 17 1015 54 10000 5.69 239 13:26 06.06.2022
3326 Clouds 17 1015 59 10000 5.69 239 12:36 06.06.2022
3327 Clouds 17 1015 59 10000 5.7 235 11:53 06.06.2022
3328 Clouds 16 1015 66 10000 5.47 233 10:41 06.06.2022
3329 Clouds 15 1015 71 10000 5.25 236 09:40 06.06.2022
3330 Clouds 14 1016 87 10000 4.97 237 08:33 06.06.2022
3331 Clouds 13 1015 87 10000 4.94 237 07:28 06.06.2022
3332 Clouds 12 1014 90 10000 2.86 219 05:28 06.06.2022
3333 Clouds 12 1014 88 10000 3.46 228 03:39 06.06.2022
3334 Clouds 14 1013 86 10000 3.99 228 01:23 06.06.2022
3335 Rain 14 1013 89 10000 3.99 228 00:39 06.06.2022
3336 Rain 14 1013 88 10000 4.93 223 23:40 05.06.2022
3337 Clouds 15 1013 95 10000 3.9 198 22:45 05.06.2022
3338 Clouds 15 1012 83 7807 2.28 151 20:57 05.06.2022
3339 Rain 16 1012 83 7753 2.76 178 19:44 05.06.2022
3340 Rain 18 1011 72 10000 4.62 111 18:30 05.06.2022
3341 Rain 18 1012 66 10000 4.44 109 17:55 05.06.2022
3342 Rain 18 1013 64 10000 3.58 113 17:26 05.06.2022
3343 Rain 19 1013 59 10000 3.58 113 16:52 05.06.2022
3344 Rain 19 1013 57 10000 3.58 113 16:34 05.06.2022
3345 Clouds 21 1015 48 10000 6 112 14:27 05.06.2022
3346 Clouds 21 1016 48 10000 4.91 116 12:57 05.06.2022
3347 Clouds 20 1017 54 10000 4.83 107 11:47 05.06.2022
3348 Clouds 17 1017 58 10000 5.01 106 10:39 05.06.2022
3349 Clouds 17 1018 58 10000 4.37 112 10:20 05.06.2022
3350 Clouds 14 1018 67 10000 4.51 106 08:34 05.06.2022
3351 Clouds 11 1018 69 10000 3.72 109 07:48 05.06.2022
3352 Clear 8 1020 73 10000 2.33 101 05:22 05.06.2022
3353 Clear 8 1021 72 10000 2.63 85 04:19 05.06.2022
3354 Clear 10 1022 71 10000 2.11 78 01:32 05.06.2022
3355 Clear 10 1022 71 10000 2.11 78 01:32 05.06.2022
3356 Clear 11 1022 70 10000 2.09 79 00:39 05.06.2022
3357 Clear 12 1021 68 10000 1.71 73 22:43 04.06.2022
3358 Clear 18 1021 47 10000 1.91 57 20:42 04.06.2022
3359 Clouds 19 1020 45 10000 2.82 48 18:51 04.06.2022
3360 Clouds 19 1020 43 10000 3.18 51 16:47 04.06.2022
3361 Clouds 19 1020 43 10000 3.29 51 16:18 04.06.2022
3362 Clouds 19 1020 49 10000 3.58 50 14:54 04.06.2022
3363 Clouds 18 1020 50 10000 3.12 63 13:36 04.06.2022
3364 Clouds 16 1021 57 10000 2.28 51 11:22 04.06.2022
3365 Clouds 16 1021 63 10000 2.28 51 10:49 04.06.2022
3366 Clouds 14 1021 65 10000 1.84 46 09:45 04.06.2022
3367 Clouds 13 1020 68 10000 2.1 45 08:43 04.06.2022
3368 Clouds 11 1020 72 10000 1.72 43 07:42 04.06.2022
3369 Clouds 10 1019 72 10000 1.76 43 05:30 04.06.2022
3370 Clouds 12 1018 68 10000 1.57 27 02:20 04.06.2022
3371 Clouds 13 1018 85 10000 1.78 46 00:19 04.06.2022
3372 Clouds 13 1018 86 10000 1.66 58 22:41 03.06.2022
3373 Clouds 15 1018 59 10000 1.96 50 21:39 03.06.2022
3374 Clouds 13 1017 84 10000 2.28 49 20:38 03.06.2022
3375 Clouds 20 1016 43 10000 2.83 81 18:54 03.06.2022
3376 Clouds 19 1017 40 10000 3.14 90 16:52 03.06.2022
3377 Clouds 20 1017 38 10000 2.99 97 15:37 03.06.2022
3378 Clouds 19 1018 41 10000 2.93 116 13:48 03.06.2022
3379 Clear 17 1019 46 10000 3.4 112 11:51 03.06.2022
3380 Clear 15 1020 49 10000 3.34 103 09:53 03.06.2022
3381 Clear 13 1020 57 10000 3.02 103 09:28 03.06.2022
3382 Clear 8 1021 70 10000 1.64 94 07:27 03.06.2022
3383 Clear 7 1021 71 10000 1.64 94 06:44 03.06.2022
3384 Clear 5 1022 76 10000 1.69 100 06:26 03.06.2022
3385 Clouds 5 1022 76 10000 1.61 101 02:24 03.06.2022
3386 Clouds 6 1023 75 10000 1.24 99 23:34 02.06.2022
3387 Clouds 9 1023 66 10000 1.15 74 21:57 02.06.2022
3388 Clouds 9 1023 66 10000 1.15 74 21:57 02.06.2022
3389 Clouds 12 1021 53 10000 1.57 39 20:26 02.06.2022
3390 Clouds 13 1021 53 10000 1.57 39 19:53 02.06.2022
3391 Clouds 13 1021 51 10000 1.93 22 19:35 02.06.2022
3392 Clouds 15 1021 45 10000 2.76 334 17:59 02.06.2022
3393 Clouds 14 1021 46 10000 3.26 303 16:28 02.06.2022
3394 Clouds 14 1021 48 10000 3.26 303 15:30 02.06.2022
3395 Clouds 13 1021 58 10000 3.47 299 13:30 02.06.2022
3396 Clouds 12 1021 60 10000 3.52 293 12:46 02.06.2022
3397 Clouds 10 1021 72 10000 3.03 279 10:32 02.06.2022
3398 Clouds 9 1021 74 10000 2.16 277 09:29 02.06.2022
3399 Clouds 7 1021 77 10000 2.16 277 08:30 02.06.2022
3400 Clouds 7 1021 79 10000 1.71 266 07:58 02.06.2022
3401 Clouds 3 1020 97 10000 1.3 245 06:20 02.06.2022
3402 Clouds 3 1019 98 10000 1.34 247 03:49 02.06.2022
3403 Clouds 4 1018 86 10000 1.9 240 00:39 02.06.2022
3404 Rain 7 1017 82 10000 2.69 266 22:57 01.06.2022
3405 Rain 7 1016 80 10000 2.52 259 21:52 01.06.2022
3406 Rain 7 1016 80 10000 2.67 270 21:22 01.06.2022
3407 Clouds 7 1016 80 10000 2.67 270 20:38 01.06.2022
3408 Clouds 8 1015 81 10000 3.24 275 19:50 01.06.2022
3409 Rain 10 1014 76 10000 4.01 268 18:28 01.06.2022
3410 Clouds 13 1014 53 10000 4.33 270 16:56 01.06.2022
3411 Clouds 14 1014 49 10000 4.53 267 15:42 01.06.2022
3412 Clouds 13 1013 54 10000 4.3 270 14:46 01.06.2022
3413 Clouds 12 1014 56 10000 4.75 261 13:18 01.06.2022
3414 Clouds 11 1014 64 10000 4.53 256 10:44 01.06.2022
3415 Clouds 10 1014 76 10000 2.22 241 09:28 01.06.2022
3416 Clouds 8 1014 78 10000 2.29 244 07:59 01.06.2022
3417 Clouds 6 1014 89 10000 1.35 221 07:20 01.06.2022
3418 Clouds 4 1014 92 10000 1.38 216 03:55 01.06.2022
3419 Clouds 6 1014 82 10000 1.31 187 23:50 31.05.2022
3420 Clouds 6 1014 80 10000 1.21 172 22:41 31.05.2022
3421 Clouds 7 1014 80 10000 1.1 179 22:22 31.05.2022
3422 Clouds 7 1014 79 10000 1.1 179 21:39 31.05.2022
3423 Clouds 8 1013 78 10000 0.44 161 20:44 31.05.2022
3424 Clouds 11 1012 67 10000 1.31 153 19:31 31.05.2022
3425 Clouds 10 1012 67 10000 1.22 126 18:32 31.05.2022
3426 Rain 11 1012 57 10000 2.11 116 17:38 31.05.2022
3427 Clouds 14 1012 48 10000 0.79 283 15:55 31.05.2022
3428 Clouds 14 1012 45 10000 0.79 283 15:34 31.05.2022
3429 Clouds 12 1013 55 10000 0.88 262 12:56 31.05.2022
3430 Clouds 13 1013 57 10000 0.81 222 12:18 31.05.2022
3431 Clouds 11 1014 55 10000 0.85 216 10:34 31.05.2022
3432 Clouds 8 1015 64 10000 0.93 152 08:26 31.05.2022
3433 Clouds 2 1016 81 10000 0.78 155 06:21 31.05.2022
3434 Clouds 2 1016 82 10000 0.74 152 04:31 31.05.2022
3435 Clouds 3 1017 80 10000 0.42 165 23:46 30.05.2022
3436 Clouds 3 1016 80 10000 0.43 181 23:24 30.05.2022
3437 Clouds 4 1016 80 10000 0.43 181 22:42 30.05.2022
3438 Clouds 4 1016 79 10000 0.41 230 21:40 30.05.2022
3439 Clouds 7 1015 77 10000 0.96 270 20:52 30.05.2022
3440 Clouds 8 1014 66 10000 1.37 292 19:44 30.05.2022
3441 Clouds 8 1014 64 10000 2.92 297 18:21 30.05.2022
3442 Clouds 9 1014 61 10000 2.92 288 17:23 30.05.2022
3443 Clouds 8 1014 61 10000 2.92 288 16:30 30.05.2022
3444 Clouds 7 1013 69 10000 3.03 296 13:38 30.05.2022
3445 Clouds 7 1013 70 10000 2.98 290 11:40 30.05.2022
3446 Clouds 7 1013 76 10000 2.33 292 10:20 30.05.2022
3447 Clouds 6 1013 81 10000 2.07 295 09:18 30.05.2022
3448 Clouds 3 1013 90 10000 1.34 265 06:28 30.05.2022
3449 Clouds 4 1012 98 10000 1.25 268 04:52 30.05.2022
3450 Clouds 5 1012 90 10000 1.54 285 01:30 30.05.2022
3451 Clouds 5 1012 91 10000 1.75 293 22:49 29.05.2022
3452 Clouds 5 1012 90 10000 1.73 292 22:29 29.05.2022
3453 Clouds 6 1012 89 10000 1.96 294 20:38 29.05.2022
3454 Rain 7 1011 84 10000 2.57 302 19:30 29.05.2022
3455 Clouds 7 1011 80 10000 2.7 299 18:34 29.05.2022
3456 Rain 8 1011 78 10000 2.78 297 16:51 29.05.2022
3457 Rain 8 1011 76 10000 3.83 291 15:47 29.05.2022
3458 Clouds 8 1011 76 10000 3.34 286 14:56 29.05.2022
3459 Clouds 8 1012 73 10000 3.64 290 13:46 29.05.2022
3460 Clouds 7 1013 78 10000 3.39 272 11:31 29.05.2022
3461 Clouds 7 1013 78 10000 3.25 268 10:38 29.05.2022
3462 Clouds 5 1013 86 7436 3.12 261 08:39 29.05.2022
3463 Clouds 3 1014 87 7459 2.43 251 05:22 29.05.2022
3464 Clouds 4 1014 86 7459 2.43 251 04:41 29.05.2022
3465 Clouds 3 1015 88 10000 2.11 252 02:50 29.05.2022
3466 Clear 3 1017 81 10000 2.5 284 23:49 28.05.2022
3467 Clear 4 1017 78 10000 2.9 295 23:26 28.05.2022
3468 Clear 5 1017 78 10000 3.13 302 22:25 28.05.2022
3469 Clear 7 1017 64 10000 3.13 302 21:34 28.05.2022
3470 Clouds 9 1016 57 10000 4.91 295 19:24 28.05.2022
3471 Clouds 9 1016 63 10000 4.91 295 18:46 28.05.2022
3472 Clouds 9 1016 67 10000 5.35 297 17:36 28.05.2022
3473 Clouds 10 1016 66 10000 6.3 303 16:37 28.05.2022
3474 Clouds 11 1016 56 10000 6.95 301 15:39 28.05.2022
3475 Clouds 9 1017 66 10000 6.05 291 14:18 28.05.2022
3476 Clouds 8 1017 67 10000 6.68 296 12:44 28.05.2022
3477 Clouds 8 1017 67 10000 6.89 300 12:18 28.05.2022
3478 Clouds 8 1017 68 10000 7.07 300 10:51 28.05.2022
3479 Clouds 7 1017 77 10000 6.95 295 09:57 28.05.2022
3480 Clouds 6 1017 75 10000 7.12 289 08:45 28.05.2022
3481 Clouds 6 1017 76 10000 6.4 280 07:23 28.05.2022
3482 Clouds 5 1017 83 10000 5.98 275 05:28 28.05.2022
3483 Clouds 6 1018 76 10000 6.07 274 02:44 28.05.2022
3484 Clouds 6 1018 71 10000 5.79 276 00:32 28.05.2022
3485 Clouds 7 1019 65 10000 5.69 279 22:53 27.05.2022
3486 Clear 8 1019 61 10000 5.68 286 21:44 27.05.2022
3487 Clear 9 1018 54 10000 6.1 292 20:50 27.05.2022
3488 Clouds 10 1017 51 10000 6.3 295 20:24 27.05.2022
3489 Clouds 11 1017 50 10000 6.33 293 19:42 27.05.2022
3490 Clouds 11 1017 50 10000 6.71 295 19:21 27.05.2022
3491 Clouds 13 1016 46 10000 7.11 294 17:52 27.05.2022
3492 Clouds 13 1016 45 10000 7.4 291 16:38 27.05.2022
3493 Clouds 14 1016 45 10000 8.15 289 15:22 27.05.2022
3494 Clouds 13 1016 52 10000 8.6 279 13:53 27.05.2022
3495 Clouds 12 1016 62 10000 8.54 282 12:43 27.05.2022
3496 Clouds 11 1016 69 10000 8.17 283 11:34 27.05.2022
3497 Clouds 11 1016 72 10000 7.24 281 10:55 27.05.2022
3498 Clouds 11 1016 75 10000 6.53 278 10:29 27.05.2022
3499 Clouds 10 1016 80 10000 6.53 278 09:34 27.05.2022
3500 Rain 9 1016 88 4208 5.86 277 07:52 27.05.2022
3501 Rain 10 1015 89 1779 5.01 260 05:39 27.05.2022
3502 Clouds 11 1017 84 10000 5.05 253 02:26 27.05.2022
3503 Clouds 13 1018 66 10000 4.98 252 00:29 27.05.2022
3504 Clouds 13 1018 63 10000 5.38 258 22:39 26.05.2022
3505 Clouds 13 1018 64 10000 4.88 254 21:39 26.05.2022
3506 Clouds 14 1018 57 10000 4.75 254 20:31 26.05.2022
3507 Clouds 14 1018 60 10000 5.12 262 19:19 26.05.2022
3508 Clouds 14 1018 60 10000 5.23 259 18:18 26.05.2022
3509 Clouds 14 1019 59 10000 5.8 266 16:42 26.05.2022
3510 Clouds 14 1019 58 10000 6.11 270 15:46 26.05.2022
3511 Clouds 14 1019 61 10000 6.3 273 14:43 26.05.2022
3512 Clouds 13 1020 66 10000 5.88 265 12:37 26.05.2022
3513 Clouds 13 1019 71 10000 5.84 264 11:24 26.05.2022
3514 Clouds 11 1019 79 10000 4.98 261 09:44 26.05.2022
3515 Clouds 10 1018 82 10000 4.67 253 09:26 26.05.2022
3516 Rain 10 1018 80 10000 4.67 253 08:35 26.05.2022
3517 Clouds 10 1016 67 10000 4.71 245 04:41 26.05.2022
3518 Clouds 11 1017 58 10000 4.28 232 00:48 26.05.2022
3519 Clouds 9 1017 72 10000 3.57 238 23:40 25.05.2022
3520 Clouds 10 1017 72 10000 1.9 245 22:22 25.05.2022
3521 Clouds 9 1017 78 10000 1.9 245 21:33 25.05.2022
3522 Clouds 13 1016 44 10000 2.01 267 20:37 25.05.2022
3523 Clouds 14 1015 45 10000 3.91 275 19:29 25.05.2022
3524 Clouds 15 1014 44 10000 4.07 273 17:43 25.05.2022
3525 Clouds 16 1014 43 10000 4.42 265 16:38 25.05.2022
3526 Clouds 16 1014 44 10000 4.9 261 15:57 25.05.2022
3527 Clouds 15 1014 52 10000 4.91 259 14:55 25.05.2022
3528 Clouds 15 1014 53 10000 4.91 259 14:33 25.05.2022
3529 Clouds 15 1014 53 10000 4.64 246 13:56 25.05.2022
3530 Clouds 14 1014 52 10000 4.63 246 12:45 25.05.2022
3531 Clear 12 1015 63 10000 4.25 254 10:54 25.05.2022
3532 Clear 11 1015 67 10000 3.88 256 10:19 25.05.2022
3533 Clouds 10 1014 70 10000 3.31 256 08:41 25.05.2022
3534 Clouds 8 1014 80 10000 1.58 225 07:23 25.05.2022
3535 Clouds 5 1013 89 10000 1.46 216 04:23 25.05.2022
3536 Clouds 6 1012 90 10000 1.32 222 00:28 25.05.2022
3537 Clouds 6 1012 90 10000 1.32 222 23:47 24.05.2022
3538 Clouds 7 1012 88 10000 1.1 245 22:39 24.05.2022
3539 Rain 8 1012 82 10000 1.3 259 21:43 24.05.2022
3540 Rain 9 1010 78 10000 1.77 267 21:21 24.05.2022
3541 Clouds 12 1010 59 10000 1.77 267 20:30 24.05.2022
3542 Clouds 13 1008 63 10000 3.88 270 18:56 24.05.2022
3543 Clouds 14 1007 54 10000 4.95 260 16:58 24.05.2022
3544 Clouds 14 1007 57 10000 5.51 257 16:28 24.05.2022
3545 Clouds 14 1006 61 10000 5.18 243 15:18 24.05.2022
3546 Clouds 13 1006 67 10000 5.18 243 14:34 24.05.2022
3547 Clouds 11 1007 84 10000 3.71 249 13:27 24.05.2022
3548 Rain 9 1007 90 10000 2.74 274 11:49 24.05.2022
3549 Clouds 13 1003 73 10000 5.39 219 09:47 24.05.2022
3550 Clouds 12 1003 80 10000 3.78 216 08:51 24.05.2022
3551 Clouds 10 1004 84 10000 2.97 221 07:30 24.05.2022
3552 Clouds 10 1003 84 9900 3.78 246 05:59 24.05.2022
3553 Clouds 12 1000 88 2253 6.18 258 02:54 24.05.2022
3554 Clouds 13 1000 86 5200 4 242 01:44 24.05.2022
3555 Clouds 12 1000 88 10000 3.15 202 23:44 23.05.2022
3556 Clouds 13 1000 98 10000 2.76 150 22:22 23.05.2022
3557 Clouds 11 1000 98 10000 2.76 150 21:42 23.05.2022
3558 Clouds 11 1000 96 10000 2.9 137 20:45 23.05.2022
3559 Clouds 17 1000 93 10000 3.02 145 19:44 23.05.2022
3560 Clouds 17 1000 51 10000 3.35 145 19:18 23.05.2022
3561 Clouds 17 1000 52 10000 3.35 145 18:37 23.05.2022
3562 Clouds 18 1001 53 10000 4.64 149 17:56 23.05.2022
3563 Clouds 17 1003 54 10000 5.44 144 15:55 23.05.2022
3564 Rain 18 1004 54 10000 5.88 131 13:56 23.05.2022
3565 Clouds 15 1007 62 10000 5.55 144 11:41 23.05.2022
3566 Clouds 14 1007 62 10000 4.81 135 10:45 23.05.2022
3567 Clouds 12 1007 66 10000 4.16 124 09:47 23.05.2022
3568 Clouds 12 1008 66 10000 3.36 128 08:46 23.05.2022
3569 Clouds 12 1008 66 10000 3.36 128 08:46 23.05.2022
3570 Clouds 10 1009 69 10000 1.85 125 07:24 23.05.2022
3571 Clouds 10 1009 68 10000 1.85 125 06:39 23.05.2022
3572 Clouds 7 1012 72 10000 1.88 122 03:27 23.05.2022
3573 Clouds 7 1013 76 10000 1.85 120 01:52 23.05.2022
3574 Clouds 7 1014 75 10000 1.97 124 01:26 23.05.2022
3575 Clouds 8 1014 74 10000 1.77 116 23:18 22.05.2022
3576 Clouds 9 1014 70 10000 1.67 101 22:27 22.05.2022
3577 Clouds 9 1014 68 10000 1.67 101 21:51 22.05.2022
3578 Clouds 12 1014 61 10000 1.6 91 20:43 22.05.2022
3579 Clouds 13 1014 54 10000 1.8 88 20:22 22.05.2022
3580 Clouds 14 1014 47 10000 1.8 88 19:34 22.05.2022
3581 Clouds 15 1014 46 10000 1.6 93 18:50 22.05.2022
3582 Clouds 15 1014 49 10000 1 50 18:21 22.05.2022
3583 Clouds 16 1014 46 10000 1.16 350 16:57 22.05.2022
3584 Clouds 16 1015 48 10000 1.9 332 15:34 22.05.2022
3585 Clouds 15 1015 50 10000 2.42 311 14:47 22.05.2022
3586 Clouds 14 1016 53 10000 2.8 302 13:21 22.05.2022
3587 Clouds 13 1016 58 10000 2.8 302 12:45 22.05.2022
3588 Clouds 12 1017 65 10000 2.49 288 10:55 22.05.2022
3589 Clouds 10 1017 73 10000 2.25 276 09:38 22.05.2022
3590 Clouds 9 1018 79 10000 1.24 281 07:54 22.05.2022
3591 Clouds 7 1018 87 10000 0.62 264 07:20 22.05.2022
3592 Clouds 5 1019 87 10000 0.62 228 04:49 22.05.2022
3593 Clouds 7 1020 86 10000 1.3 297 01:21 22.05.2022
3594 Clouds 8 1020 90 10000 1.53 290 00:26 22.05.2022
3595 Clouds 8 1020 96 10000 1.53 290 23:47 21.05.2022
3596 Clouds 9 1020 80 10000 1.73 279 22:24 21.05.2022
3597 Clouds 9 1020 80 10000 1.73 279 21:39 21.05.2022
3598 Clouds 10 1020 76 10000 2.75 289 20:48 21.05.2022
3599 Clouds 12 1019 67 10000 4.21 290 20:21 21.05.2022
3600 Clouds 12 1019 64 10000 5.12 287 19:24 21.05.2022
3601 Clouds 12 1019 64 10000 5.85 285 17:38 21.05.2022
3602 Clouds 13 1019 60 10000 7.05 281 15:38 21.05.2022
3603 Clouds 13 1019 65 10000 6.58 274 14:37 21.05.2022
3604 Clouds 12 1019 70 10000 7.07 272 13:39 21.05.2022
3605 Clouds 11 1020 80 10000 6.68 269 12:40 21.05.2022
3606 Clouds 11 1019 73 10000 6.85 269 11:56 21.05.2022
3607 Clouds 9 1019 79 10000 5.23 254 10:22 21.05.2022
3608 Clouds 9 1019 79 10000 5.23 254 09:38 21.05.2022
3609 Clouds 9 1019 78 10000 5.27 248 08:52 21.05.2022
3610 Clouds 7 1019 79 10000 4.42 261 06:28 21.05.2022
3611 Clouds 10 1016 84 6908 6.34 279 02:26 21.05.2022
3612 Clouds 8 1014 93 10000 9 271 23:47 20.05.2022
3613 Clouds 9 1013 94 10000 8.5 274 22:42 20.05.2022
3614 Clouds 14 1012 94 10000 9.6 257 22:23 20.05.2022
3615 Clouds 15 1012 87 10000 9.6 257 21:32 20.05.2022
3616 Rain 15 1011 91 10000 6.26 234 20:53 20.05.2022
3617 Rain 15 1012 91 10000 3.51 250 19:57 20.05.2022
3618 Rain 15 1011 91 10000 5.22 226 19:24 20.05.2022
3619 Rain 17 1012 84 1983 5.05 221 18:28 20.05.2022
3620 Clouds 19 1014 69 6827 2.68 168 16:51 20.05.2022
3621 Clouds 19 1015 67 10000 2.11 146 15:57 20.05.2022
3622 Clouds 20 1015 65 10000 2.11 146 15:39 20.05.2022
3623 Clouds 19 1018 65 10000 2.07 225 14:29 20.05.2022
3624 Clouds 18 1018 67 10000 1.76 221 13:54 20.05.2022
3625 Clouds 16 1020 77 10000 1.41 265 11:22 20.05.2022
3626 Clouds 15 1021 79 10000 1.62 267 09:51 20.05.2022
3627 Clouds 14 1021 84 10000 1.94 269 08:41 20.05.2022
3628 Clouds 12 1021 90 10000 2.44 278 06:46 20.05.2022
3629 Clouds 12 1021 90 10000 2.6 275 06:24 20.05.2022
3630 Clouds 13 1021 88 7571 2.75 262 04:22 20.05.2022
3631 Clouds 12 1020 91 10000 2.66 234 00:24 20.05.2022
3632 Clouds 13 1020 90 10000 2.78 222 22:46 19.05.2022
3633 Clouds 13 1019 85 10000 1.68 189 21:59 19.05.2022
3634 Clouds 14 1019 86 10000 1.68 189 21:40 19.05.2022
3635 Clouds 14 1019 87 9916 2.21 266 21:22 19.05.2022
3636 Rain 14 1020 89 3612 9.2 282 20:25 19.05.2022
3637 Rain 15 1020 87 2939 7.75 281 19:40 19.05.2022
3638 Clouds 23 1017 37 10000 3.42 214 18:19 19.05.2022
3639 Clouds 23 1018 54 10000 2.8 183 16:32 19.05.2022
3640 Clouds 23 1019 32 10000 4.05 206 14:52 19.05.2022
3641 Clouds 22 1019 42 10000 4.33 203 14:23 19.05.2022
3642 Clouds 22 1020 43 10000 4.56 199 13:20 19.05.2022
3643 Clouds 21 1020 43 10000 3.58 189 11:25 19.05.2022
3644 Clouds 18 1021 53 10000 2.37 182 09:19 19.05.2022
3645 Clouds 16 1021 54 10000 1.87 172 07:48 19.05.2022
3646 Clouds 12 1021 81 10000 1.91 170 05:32 19.05.2022
3647 Clouds 13 1022 89 10000 1.9 170 01:59 19.05.2022
3648 Clouds 14 1022 90 10000 2.01 157 23:55 18.05.2022
3649 Clouds 14 1023 91 10000 2.01 153 22:47 18.05.2022
3650 Clouds 15 1023 90 10000 1.99 148 21:47 18.05.2022
3651 Clouds 17 1023 89 10000 1.88 147 21:26 18.05.2022
3652 Clouds 14 1023 89 10000 1.88 147 20:41 18.05.2022
3653 Clouds 19 1022 59 10000 1.95 158 20:18 18.05.2022
3654 Clouds 22 1022 49 10000 2.33 171 18:28 18.05.2022
3655 Clouds 21 1022 47 10000 2.33 171 17:41 18.05.2022
3656 Clouds 22 1022 45 10000 2.2 173 17:23 18.05.2022
3657 Clouds 22 1022 45 10000 2.2 173 16:31 18.05.2022
3658 Clouds 22 1023 48 10000 2.28 173 15:41 18.05.2022
3659 Clouds 22 1023 50 10000 2.2 186 14:35 18.05.2022
3660 Clouds 21 1023 53 10000 1.85 208 13:35 18.05.2022
3661 Clouds 21 1023 48 10000 2.19 206 12:42 18.05.2022
3662 Clouds 19 1023 55 10000 2.09 189 11:34 18.05.2022
3663 Clouds 19 1023 58 10000 2.06 186 10:56 18.05.2022
3664 Clouds 17 1023 64 10000 2.04 181 09:31 18.05.2022
3665 Clouds 13 1023 76 10000 1.25 164 07:36 18.05.2022
3666 Clouds 12 1022 79 10000 1.43 149 05:56 18.05.2022
3667 Clouds 12 1022 85 10000 0.99 152 01:20 18.05.2022
3668 Clouds 13 1022 88 10000 0.71 143 00:22 18.05.2022
3669 Clouds 13 1022 88 10000 0.12 155 21:56 17.05.2022
3670 Clouds 14 1021 86 10000 0.71 300 21:20 17.05.2022
3671 Clouds 16 1021 67 10000 1.5 310 20:19 17.05.2022
3672 Clouds 18 1020 58 10000 2.98 327 19:28 17.05.2022
3673 Clouds 19 1020 45 10000 3.71 327 17:51 17.05.2022
3674 Clouds 20 1020 47 10000 4.39 322 16:59 17.05.2022
3675 Clouds 20 1020 44 10000 4.67 317 16:29 17.05.2022
3676 Clouds 19 1020 48 10000 4.99 312 15:25 17.05.2022
3677 Clouds 19 1020 54 10000 4.99 312 14:30 17.05.2022
3678 Clouds 19 1020 55 10000 4.94 301 13:35 17.05.2022
3679 Clouds 19 1020 55 10000 4.94 301 13:35 17.05.2022
3680 Clouds 17 1021 67 10000 4.09 293 11:43 17.05.2022
3681 Clouds 15 1021 76 10000 2.89 295 09:35 17.05.2022
3682 Clouds 13 1021 82 10000 2.27 287 08:33 17.05.2022
3683 Clouds 11 1020 89 10000 1.92 282 06:48 17.05.2022
3684 Clouds 11 1020 87 10000 2.57 289 03:41 17.05.2022
3685 Clouds 13 1019 84 10000 1.79 272 00:45 17.05.2022
3686 Clouds 14 1018 97 10000 2.06 291 22:44 16.05.2022
3687 Clouds 13 1018 79 10000 2.03 301 21:45 16.05.2022
3688 Clouds 14 1016 77 10000 2.24 267 20:47 16.05.2022
3689 Clouds 15 1016 75 10000 0.94 260 19:46 16.05.2022
3690 Rain 16 1015 71 10000 0.37 190 18:20 16.05.2022
3691 Clouds 16 1016 92 10000 0.89 116 15:53 16.05.2022
3692 Rain 18 1016 52 10000 3.23 204 14:26 16.05.2022
3693 Clouds 19 1017 52 10000 2.83 184 13:23 16.05.2022
3694 Clouds 19 1016 46 10000 2.77 141 11:25 16.05.2022
3695 Clouds 15 1016 53 10000 2.78 132 09:37 16.05.2022
3696 Clouds 8 1017 72 10000 1.87 121 06:58 16.05.2022
3697 Clear 7 1018 70 10000 2.23 113 03:58 16.05.2022
3698 Clouds 10 1020 62 10000 2.18 106 23:38 15.05.2022
3699 Clouds 10 1020 62 10000 2.13 101 22:32 15.05.2022
3700 Clouds 9 1020 89 10000 2.11 99 21:47 15.05.2022
3701 Clouds 10 1020 86 10000 2.23 92 20:57 15.05.2022
3702 Clouds 13 1019 75 10000 1.81 90 19:52 15.05.2022
3703 Clouds 18 1019 42 10000 1.16 89 17:52 15.05.2022
3704 Clouds 18 1019 41 10000 0.5 85 16:31 15.05.2022
3705 Clear 17 1020 46 10000 0.2 263 13:59 15.05.2022
3706 Clear 17 1020 47 10000 0.07 176 12:57 15.05.2022
3707 Clear 15 1021 50 10000 0.37 134 11:41 15.05.2022
3708 Clear 14 1021 54 10000 0.59 92 10:29 15.05.2022
3709 Clear 11 1022 64 10000 0.57 98 08:47 15.05.2022
3710 Clear 6 1022 77 10000 0.61 123 06:59 15.05.2022
3711 Clear 5 1022 78 10000 0.76 122 05:57 15.05.2022
3712 Clear 7 1023 74 10000 0.73 54 00:57 15.05.2022
3713 Clear 8 1023 71 10000 1 36 23:52 14.05.2022
3714 Clear 8 1023 71 10000 1 36 23:33 14.05.2022
3715 Clear 7 1022 91 10000 1.29 25 21:43 14.05.2022
3716 Clear 10 1022 64 10000 1.59 9 21:18 14.05.2022
3717 Clouds 15 1021 50 10000 2.68 347 19:40 14.05.2022
3718 Clouds 15 1020 44 10000 3.85 330 19:20 14.05.2022
3719 Clouds 15 1020 44 10000 3.85 330 18:47 14.05.2022
3720 Clouds 16 1020 44 10000 4.54 297 17:28 14.05.2022
3721 Clouds 16 1020 44 10000 4.89 297 15:34 14.05.2022
3722 Clouds 16 1020 46 10000 4.92 295 14:36 14.05.2022
3723 Clouds 15 1020 46 10000 4.94 281 12:51 14.05.2022
3724 Clouds 14 1020 51 10000 4.93 276 11:37 14.05.2022
3725 Clouds 13 1020 55 10000 4.31 269 10:23 14.05.2022
3726 Clouds 12 1020 56 10000 4.31 269 09:54 14.05.2022
3727 Clouds 11 1020 58 10000 3.86 265 08:59 14.05.2022
3728 Clouds 7 1020 85 10000 2.78 251 07:21 14.05.2022
3729 Clouds 5 1020 90 10000 2.7 254 03:41 14.05.2022
3730 Clouds 7 1021 88 10000 2.66 258 00:21 14.05.2022
3731 Clouds 8 1021 61 10000 2.59 257 23:24 13.05.2022
3732 Clouds 8 1021 87 10000 2.59 257 22:54 13.05.2022
3733 Clouds 8 1020 88 10000 2.03 246 22:20 13.05.2022
3734 Clouds 10 1020 81 10000 2.1 263 20:57 13.05.2022
3735 Clouds 12 1020 54 10000 2.1 263 20:30 13.05.2022
3736 Clouds 12 1019 54 10000 3.61 284 19:44 13.05.2022
3737 Clouds 13 1018 51 10000 4.82 283 18:44 13.05.2022
3738 Clouds 13 1018 52 10000 5.11 275 17:29 13.05.2022
3739 Clouds 13 1018 46 10000 6.07 272 16:29 13.05.2022
3740 Clouds 13 1018 51 10000 6.07 272 15:45 13.05.2022
3741 Clouds 12 1018 50 10000 6.45 274 14:24 13.05.2022
3742 Clouds 12 1018 49 10000 6.81 274 12:47 13.05.2022
3743 Clouds 12 1018 57 10000 6.54 267 11:36 13.05.2022
3744 Clouds 10 1018 63 10000 5.45 255 09:43 13.05.2022
3745 Clouds 10 1018 57 10000 4.16 255 08:51 13.05.2022
3746 Clouds 9 1018 66 10000 3.23 251 07:49 13.05.2022
3747 Clouds 6 1018 77 10000 2.09 227 06:48 13.05.2022
3748 Clear 6 1018 76 10000 1.44 215 04:54 13.05.2022
3749 Clouds 8 1018 71 10000 1 196 00:42 13.05.2022
3750 Clouds 10 1018 65 10000 0.73 254 22:47 12.05.2022
3751 Clouds 10 1018 64 10000 0.92 276 22:29 12.05.2022
3752 Clouds 13 1017 73 10000 0.96 279 20:41 12.05.2022
3753 Clouds 15 1017 47 10000 2.87 281 19:24 12.05.2022
3754 Clouds 15 1017 42 10000 3.04 279 18:19 12.05.2022
3755 Clouds 15 1017 39 10000 4.26 279 16:34 12.05.2022
3756 Clouds 15 1018 44 10000 5.12 270 14:52 12.05.2022
3757 Clouds 14 1018 51 10000 5.15 269 13:48 12.05.2022
3758 Clouds 12 1018 59 10000 5.1 271 11:31 12.05.2022
3759 Clouds 11 1017 63 10000 5.02 276 10:22 12.05.2022
3760 Clear 9 1017 72 10000 4.37 281 08:52 12.05.2022
3761 Clear 9 1017 72 10000 4.37 281 08:52 12.05.2022
3762 Clear 9 1017 72 10000 4.37 281 08:52 12.05.2022
3763 Clouds 8 1016 75 10000 4.1 284 07:58 12.05.2022
3764 Clouds 9 1014 72 10000 4.88 281 06:58 12.05.2022
3765 Rain 12 1011 74 10000 4.93 258 03:46 12.05.2022
3766 Clouds 13 1010 94 10000 4.29 240 01:29 12.05.2022
3767 Clouds 11 1010 92 10000 3.2 245 22:59 11.05.2022
3768 Clouds 11 1010 92 10000 2.74 250 22:18 11.05.2022
3769 Clouds 13 1010 89 10000 3.72 264 21:24 11.05.2022
3770 Clouds 13 1010 89 10000 3.72 264 21:24 11.05.2022
3771 Clouds 17 1010 54 10000 4.83 263 19:57 11.05.2022
3772 Clouds 17 1009 54 10000 3.21 256 17:33 11.05.2022
3773 Clouds 17 1010 54 10000 4.43 244 16:19 11.05.2022
3774 Clouds 17 1010 54 10000 5.14 235 14:47 11.05.2022
3775 Clouds 21 1011 41 10000 5.98 240 14:24 11.05.2022
3776 Clouds 21 1011 45 10000 7.04 237 12:39 11.05.2022
3777 Clouds 20 1011 48 10000 6.86 237 11:47 11.05.2022
3778 Clouds 15 1013 68 10000 3.12 220 09:29 11.05.2022
3779 Clouds 12 1013 78 10000 2.06 202 06:30 11.05.2022
3780 Clouds 14 1015 88 10000 1.3 227 01:53 11.05.2022
3781 Clouds 14 1016 84 10000 1.95 210 22:58 10.05.2022
3782 Clouds 14 1016 80 10000 2.22 210 22:24 10.05.2022
3783 Clouds 15 1015 68 10000 2.78 214 21:26 10.05.2022
3784 Clouds 17 1015 54 10000 3.07 211 20:26 10.05.2022
3785 Clouds 18 1015 45 10000 2.95 206 18:38 10.05.2022
3786 Clouds 20 1015 33 10000 3.79 210 17:38 10.05.2022
3787 Clouds 20 1017 32 10000 4.88 228 16:24 10.05.2022
3788 Clouds 20 1019 46 10000 4.34 218 13:19 10.05.2022
3789 Clouds 18 1019 48 10000 3.9 215 11:53 10.05.2022
3790 Clouds 18 1019 51 10000 3.9 215 11:30 10.05.2022
3791 Clouds 17 1019 52 10000 3.21 212 10:56 10.05.2022
3792 Clouds 16 1020 53 10000 2.43 199 09:36 10.05.2022
3793 Clouds 11 1021 68 10000 1.73 193 07:58 10.05.2022
3794 Clouds 8 1021 79 10000 1.48 184 06:20 10.05.2022
3795 Clouds 9 1023 74 10000 1.75 163 01:54 10.05.2022
3796 Clear 8 1024 79 10000 1.53 153 23:45 09.05.2022
3797 Clear 10 1025 61 10000 1.5 146 22:35 09.05.2022
3798 Clear 11 1025 60 10000 1.5 142 21:39 09.05.2022
3799 Clouds 11 1024 61 10000 0.88 121 20:20 09.05.2022
3800 Clouds 17 1024 38 10000 0.57 211 18:25 09.05.2022
3801 Clouds 18 1025 36 10000 0.69 202 17:26 09.05.2022
3802 Clear 17 1025 37 10000 0.87 191 16:19 09.05.2022
3803 Clear 17 1025 38 10000 0.87 191 15:47 09.05.2022
3804 Clear 17 1026 44 10000 0.75 188 14:37 09.05.2022
3805 Clouds 17 1026 42 10000 0.66 175 13:58 09.05.2022
3806 Clouds 16 1026 43 10000 0.73 147 13:22 09.05.2022
3807 Clouds 15 1026 41 10000 0.85 130 11:53 09.05.2022
3808 Clouds 13 1027 47 10000 1.1 120 10:48 09.05.2022
3809 Clear 13 1027 50 10000 1.01 107 10:26 09.05.2022
3810 Clouds 7 1028 63 10000 1.11 99 07:57 09.05.2022
3811 Clear 2 1028 71 10000 0.95 95 05:53 09.05.2022
3812 Clouds 4 1028 65 10000 1.3 79 01:59 09.05.2022
3813 Clouds 5 1028 58 10000 1.23 80 23:29 08.05.2022
3814 Clouds 6 1028 56 10000 1.23 80 22:32 08.05.2022
3815 Clouds 9 1027 51 10000 1.56 60 21:24 08.05.2022
3816 Clouds 11 1026 51 10000 1.67 40 20:25 08.05.2022
3817 Clouds 13 1026 37 10000 1.77 40 19:35 08.05.2022
3818 Clouds 13 1026 36 10000 2.24 28 18:40 08.05.2022
3819 Clouds 14 1025 36 10000 2.79 15 17:40 08.05.2022
3820 Clouds 14 1025 43 10000 3.02 2 16:22 08.05.2022
3821 Clouds 14 1025 45 10000 2.79 359 15:24 08.05.2022
3822 Clouds 12 1026 49 10000 2 357 13:44 08.05.2022
3823 Clouds 11 1026 54 10000 1.58 341 11:50 08.05.2022
3824 Clouds 9 1026 71 10000 1.22 358 10:26 08.05.2022
3825 Clouds 8 1026 74 10000 1.22 358 09:53 08.05.2022
3826 Clouds 6 1026 82 10000 1.76 17 07:57 08.05.2022
3827 Clouds 6 1025 85 7921 2.11 15 06:21 08.05.2022
3828 Clouds 7 1024 91 10000 1.87 6 03:22 08.05.2022
3829 Clouds 8 1024 86 10000 1.59 12 01:19 08.05.2022
3830 Clouds 9 1024 84 10000 1.53 21 23:57 07.05.2022
3831 Clouds 9 1024 81 10000 1.53 21 23:34 07.05.2022
3832 Clouds 10 1024 82 10000 1.6 12 22:46 07.05.2022
3833 Clouds 10 1023 81 10000 1.88 5 21:56 07.05.2022
3834 Clouds 11 1023 87 10000 1.99 351 21:28 07.05.2022
3835 Clouds 12 1021 75 9404 1.98 341 20:25 07.05.2022
3836 Clouds 15 1021 62 10000 2.22 343 18:52 07.05.2022
3837 Rain 15 1021 58 10000 2.49 330 16:50 07.05.2022
3838 Rain 17 1022 47 10000 2.17 299 15:18 07.05.2022
3839 Clouds 15 1023 54 10000 1.33 287 11:51 07.05.2022
3840 Clouds 12 1023 65 10000 1.24 273 09:55 07.05.2022
3841 Clouds 11 1023 62 10000 1.44 260 08:33 07.05.2022
3842 Clouds 9 1022 66 10000 1.13 228 07:25 07.05.2022
3843 Clouds 8 1022 66 10000 1.13 228 06:42 07.05.2022
3844 Clouds 8 1022 64 10000 1.12 212 04:19 07.05.2022
3845 Clouds 9 1023 60 10000 0.98 218 00:45 07.05.2022
3846 Clouds 10 1024 57 10000 0.88 204 22:40 06.05.2022
3847 Clouds 11 1024 54 10000 0.84 211 21:54 06.05.2022
3848 Clouds 11 1024 53 10000 0.84 211 21:30 06.05.2022
3849 Clouds 13 1023 58 10000 0.97 231 19:48 06.05.2022
3850 Clouds 15 1023 42 10000 0.56 305 19:25 06.05.2022
3851 Clouds 14 1023 62 10000 0.56 305 18:34 06.05.2022
3852 Clouds 15 1023 46 10000 0.93 327 17:37 06.05.2022
3853 Clouds 15 1024 46 10000 0.77 308 15:54 06.05.2022
3854 Clouds 15 1024 43 10000 0.77 308 15:30 06.05.2022
3855 Clouds 14 1024 47 10000 0.63 354 13:50 06.05.2022
3856 Clouds 14 1024 49 10000 1.23 354 12:51 06.05.2022
3857 Clouds 13 1024 51 10000 1.63 351 11:58 06.05.2022
3858 Clouds 13 1024 50 10000 1.75 350 11:27 06.05.2022
3859 Clouds 11 1024 55 10000 1.55 354 09:48 06.05.2022
3860 Clouds 11 1024 57 10000 1.02 355 09:18 06.05.2022
3861 Clouds 8 1025 66 10000 0.6 358 07:54 06.05.2022
3862 Clouds 4 1024 75 10000 0.5 99 06:26 06.05.2022
3863 Clouds 4 1024 73 10000 0.8 62 03:44 06.05.2022
3864 Clouds 4 1024 72 10000 0.8 61 02:38 06.05.2022
3865 Clouds 6 1024 67 10000 0.61 4 23:24 05.05.2022
3866 Clouds 8 1024 57 10000 0.81 333 21:50 05.05.2022
3867 Clouds 10 1023 43 10000 0.98 337 20:37 05.05.2022
3868 Clouds 13 1021 36 10000 2.57 349 19:19 05.05.2022
3869 Clouds 14 1021 41 10000 3.57 340 16:42 05.05.2022
3870 Clouds 14 1021 40 10000 3.65 331 15:46 05.05.2022
3871 Clouds 13 1021 40 10000 3.11 320 13:41 05.05.2022
3872 Clouds 13 1020 47 10000 3 316 13:18 05.05.2022
3873 Clouds 12 1021 54 10000 2.53 310 11:42 05.05.2022
3874 Clouds 9 1021 63 10000 1.5 328 09:46 05.05.2022
3875 Clouds 7 1020 70 10000 1.21 340 08:54 05.05.2022
3876 Clouds 3 1020 85 10000 1.03 341 06:33 05.05.2022
3877 Clouds 5 1019 80 10000 1.45 0 02:28 05.05.2022
3878 Clouds 6 1019 79 10000 1.37 9 01:45 05.05.2022
3879 Clouds 6 1019 82 10000 1.51 1 00:57 05.05.2022
3880 Clouds 7 1018 77 10000 1.37 17 23:22 04.05.2022
3881 Clouds 8 1018 75 10000 1.58 26 22:18 04.05.2022
3882 Clouds 7 1018 76 10000 1.58 26 21:45 04.05.2022
3883 Clouds 9 1017 74 10000 1.77 38 20:55 04.05.2022
3884 Clouds 11 1017 66 10000 1.84 30 20:20 04.05.2022
3885 Clouds 11 1016 60 10000 1.88 25 19:35 04.05.2022
3886 Clouds 12 1016 62 9525 1.78 12 18:43 04.05.2022
3887 Clouds 12 1016 62 10000 1.64 13 18:20 04.05.2022
3888 Clouds 13 1016 59 10000 1.32 22 17:22 04.05.2022
3889 Clouds 13 1016 60 10000 1.01 38 15:34 04.05.2022
3890 Clouds 12 1016 59 10000 0.4 59 14:45 04.05.2022
3891 Clouds 12 1016 59 10000 0.26 128 14:19 04.05.2022
3892 Clouds 12 1017 59 10000 0.33 241 12:58 04.05.2022
3893 Clouds 12 1018 60 10000 0.75 169 12:24 04.05.2022
3894 Clouds 9 1018 65 10000 0.72 141 10:28 04.05.2022
3895 Clouds 7 1018 68 10000 0.51 127 09:23 04.05.2022
3896 Clouds 6 1018 75 10000 0.33 102 08:26 04.05.2022
3897 Clouds 3 1018 80 10000 0.24 89 05:42 04.05.2022
3898 Clouds 4 1018 79 10000 0.29 46 02:42 04.05.2022
3899 Clouds 6 1019 73 10000 1.12 34 23:31 03.05.2022
3900 Clouds 8 1019 68 10000 1.7 8 22:00 03.05.2022
3901 Clouds 8 1019 67 10000 1.7 8 21:32 03.05.2022
3902 Clouds 9 1018 92 10000 1.87 5 20:52 03.05.2022
3903 Clouds 12 1017 49 10000 1.88 8 19:36 03.05.2022
3904 Clouds 10 1016 70 10000 2.55 12 18:47 03.05.2022
3905 Clouds 14 1016 38 10000 3.58 358 17:34 03.05.2022
3906 Clouds 14 1016 41 10000 3.36 340 16:20 03.05.2022
3907 Clouds 14 1016 41 10000 3.31 342 14:34 03.05.2022
3908 Clouds 13 1017 42 10000 3.03 327 12:46 03.05.2022
3909 Clouds 12 1017 44 10000 2.51 319 12:22 03.05.2022
3910 Clouds 10 1017 50 10000 2.02 319 10:50 03.05.2022
3911 Clouds 7 1018 62 10000 1.23 335 08:38 03.05.2022
3912 Clouds 5 1017 75 10000 1.03 352 06:46 03.05.2022
3913 Clouds 5 1017 75 10000 1.03 352 06:46 03.05.2022
3914 Clouds 5 1017 74 10000 1.09 3 03:34 03.05.2022
3915 Clear 7 1018 73 10000 1.03 21 23:32 02.05.2022
3916 Clear 7 1018 69 10000 1 28 22:34 02.05.2022
3917 Clear 8 1018 67 10000 1.04 34 21:48 02.05.2022
3918 Clear 11 1018 59 10000 1.18 44 20:48 02.05.2022
3919 Clouds 14 1017 48 10000 1.48 28 18:28 02.05.2022
3920 Clouds 14 1017 47 10000 1.48 28 17:44 02.05.2022
3921 Clouds 14 1017 48 10000 1.63 26 16:47 02.05.2022
3922 Clouds 14 1017 48 10000 1.51 15 15:52 02.05.2022
3923 Clouds 14 1018 48 10000 1.37 3 14:56 02.05.2022
3924 Clouds 14 1018 51 10000 1.12 3 13:47 02.05.2022
3925 Clouds 12 1019 50 10000 0.26 44 11:51 02.05.2022
3926 Clouds 10 1019 61 10000 1.19 88 10:18 02.05.2022
3927 Clouds 8 1020 66 10000 1.36 74 08:46 02.05.2022
3928 Clouds 6 1020 75 10000 1.35 74 07:30 02.05.2022
3929 Clouds 6 1022 72 10000 0.93 34 01:28 02.05.2022
3930 Clouds 6 1022 71 10000 1.03 19 00:23 02.05.2022
3931 Clouds 7 1022 69 10000 1.03 19 23:43 01.05.2022
3932 Clouds 7 1022 67 10000 0.86 28 21:56 01.05.2022
3933 Clouds 7 1022 91 10000 1.1 25 20:50 01.05.2022
3934 Clouds 9 1021 56 10000 1.34 13 19:46 01.05.2022
3935 Clouds 9 1021 54 10000 1.76 14 18:54 01.05.2022
3936 Clouds 10 1021 52 10000 1.8 16 17:57 01.05.2022
3937 Clouds 10 1022 85 10000 1.87 11 16:46 01.05.2022
3938 Clouds 10 1022 86 10000 1.99 357 16:23 01.05.2022
3939 Clouds 10 1022 55 10000 1.78 353 15:22 01.05.2022
3940 Clouds 10 1022 59 10000 0.49 39 13:23 01.05.2022
3941 Clouds 7 1023 74 10000 1.27 23 10:46 01.05.2022
3942 Clouds 5 1023 82 10000 1.53 11 08:51 01.05.2022
3943 Clouds 5 1023 84 10000 1.55 5 07:42 01.05.2022
3944 Clouds 5 1023 79 10000 1.65 352 02:51 01.05.2022
3945 Clouds 6 1024 71 10000 1.33 339 22:58 30.04.2022
3946 Clouds 7 1024 69 10000 1.35 342 21:35 30.04.2022
3947 Clouds 8 1024 65 10000 1.48 342 20:35 30.04.2022
3948 Clouds 8 1023 62 10000 1.74 348 19:36 30.04.2022
3949 Clouds 9 1023 56 10000 2.37 352 17:40 30.04.2022
3950 Clouds 9 1023 55 10000 2.45 360 16:35 30.04.2022
3951 Clouds 10 1023 59 10000 2.4 11 15:21 30.04.2022
3952 Clouds 10 1023 58 10000 2.4 11 14:33 30.04.2022
3953 Clouds 9 1023 63 10000 1.4 348 12:36 30.04.2022
3954 Clouds 7 1024 70 10000 1.35 352 11:33 30.04.2022
3955 Clouds 5 1025 77 10000 1.46 354 10:40 30.04.2022
3956 Clouds 4 1025 79 10000 2.05 4 08:54 30.04.2022
3957 Clouds 3 1025 82 10000 1.65 1 05:38 30.04.2022
3958 Clouds 6 1026 89 10000 1.96 357 01:51 30.04.2022
3959 Clouds 4 1026 80 10000 1.71 349 23:37 29.04.2022
3960 Clouds 6 1026 69 10000 1.47 356 22:31 29.04.2022
3961 Clouds 8 1026 63 10000 1.65 14 21:27 29.04.2022
3962 Clouds 10 1026 59 10000 1.65 14 20:39 29.04.2022
3963 Clouds 10 1025 75 10000 1.76 29 19:38 29.04.2022
3964 Clouds 13 1025 47 10000 1.79 40 17:50 29.04.2022
3965 Clouds 14 1025 42 10000 1.78 31 17:21 29.04.2022
3966 Clouds 14 1026 46 10000 1.46 297 14:57 29.04.2022
3967 Clouds 14 1026 47 10000 0.99 263 14:20 29.04.2022
3968 Clouds 13 1027 47 10000 0.61 164 12:48 29.04.2022
3969 Clouds 10 1028 59 10000 1.1 136 10:59 29.04.2022
3970 Clouds 4 1028 72 10000 0.78 131 08:33 29.04.2022
3971 Clouds 2 1029 83 10000 0.41 84 07:27 29.04.2022
3972 Clouds 1 1029 82 10000 0.41 84 06:37 29.04.2022
3973 Clouds 2 1029 81 10000 0.28 128 04:43 29.04.2022
3974 Clouds 3 1031 75 10000 0.93 311 00:19 29.04.2022
3975 Clouds 4 1031 68 10000 0.76 330 23:27 28.04.2022
3976 Clouds 5 1031 65 10000 0.76 330 22:41 28.04.2022
3977 Clouds 5 1031 64 10000 0.46 352 21:46 28.04.2022
3978 Clouds 4 1030 77 10000 0.58 359 20:57 28.04.2022
3979 Clouds 8 1029 57 10000 1.19 342 20:24 28.04.2022
3980 Clouds 6 1029 71 10000 1.19 342 19:41 28.04.2022
3981 Clouds 12 1028 46 10000 2.46 343 19:21 28.04.2022
3982 Clouds 12 1028 41 10000 2.46 343 18:35 28.04.2022
3983 Clouds 13 1027 45 10000 3.38 331 16:59 28.04.2022
3984 Clouds 12 1027 44 10000 3.38 331 16:40 28.04.2022
3985 Clouds 13 1027 45 10000 3.18 324 16:18 28.04.2022
3986 Clouds 13 1028 46 10000 3.01 317 15:27 28.04.2022
3987 Clouds 13 1028 46 10000 3.01 317 15:27 28.04.2022
3988 Clouds 12 1028 51 10000 3.31 310 13:44 28.04.2022
3989 Clouds 11 1028 55 10000 3.11 310 12:44 28.04.2022
3990 Clouds 10 1028 62 10000 2.77 308 11:56 28.04.2022
3991 Clouds 8 1028 64 10000 2.23 306 10:44 28.04.2022
3992 Clouds 6 1029 69 10000 1.64 315 09:54 28.04.2022
3993 Clouds 5 1029 74 10000 1.31 336 08:31 28.04.2022
3994 Clouds 2 1029 85 10000 1.12 343 06:59 28.04.2022
3995 Clouds 2 1028 85 10000 1.14 340 05:55 28.04.2022
3996 Clouds 2 1028 85 10000 1.14 340 05:37 28.04.2022
3997 Clouds 2 1028 84 10000 1.17 339 04:38 28.04.2022
3998 Clouds 3 1028 79 10000 0.7 339 00:30 28.04.2022
3999 Clouds 4 1028 77 10000 0.92 358 22:39 27.04.2022
4000 Clouds 6 1027 71 10000 1.33 360 21:54 27.04.2022
4001 Clouds 7 1027 68 10000 1.49 355 20:59 27.04.2022
4002 Clouds 8 1027 62 10000 1.49 355 20:37 27.04.2022
4003 Clouds 11 1025 51 10000 1.88 346 19:37 27.04.2022
4004 Clouds 11 1024 72 10000 2.18 346 19:18 27.04.2022
4005 Clouds 12 1024 49 10000 2.34 345 18:22 27.04.2022
4006 Clouds 12 1024 65 10000 2.26 343 16:58 27.04.2022
4007 Clouds 11 1025 57 10000 2.48 333 14:33 27.04.2022
4008 Clouds 10 1025 58 10000 0.76 342 12:23 27.04.2022
4009 Clouds 9 1025 64 10000 0.57 10 11:20 27.04.2022
4010 Clouds 7 1024 73 10000 0.64 31 09:43 27.04.2022
4011 Clouds 3 1023 85 10000 1.32 352 07:18 27.04.2022
4012 Clouds 1 1022 86 10000 1.29 349 04:45 27.04.2022
4013 Clouds 5 1022 81 10000 1.27 8 01:34 27.04.2022
4014 Clouds 5 1021 76 10000 1.48 4 00:38 27.04.2022
4015 Clouds 5 1021 76 10000 1.48 4 00:38 27.04.2022
4016 Clouds 6 1021 90 10000 1.55 1 23:40 26.04.2022
4017 Clouds 6 1020 89 10000 1.25 16 23:22 26.04.2022
4018 Clouds 6 1020 73 10000 1.25 16 22:41 26.04.2022
4019 Clouds 7 1020 72 10000 1.35 22 21:37 26.04.2022
4020 Clouds 8 1019 68 10000 1.75 30 20:53 26.04.2022
4021 Clouds 8 1019 67 10000 1.75 30 20:33 26.04.2022
4022 Clouds 9 1017 57 10000 1.94 22 19:32 26.04.2022
4023 Clouds 10 1016 59 10000 1.76 35 18:45 26.04.2022
4024 Clouds 10 1016 60 10000 2.02 53 18:18 26.04.2022
4025 Clouds 10 1016 58 10000 2.21 61 17:22 26.04.2022
4026 Clouds 10 1015 63 10000 2.39 74 14:28 26.04.2022
4027 Clouds 9 1015 65 10000 1.49 83 13:33 26.04.2022
4028 Clouds 9 1015 67 10000 1.86 80 11:57 26.04.2022
4029 Clouds 9 1015 70 10000 1.63 82 10:44 26.04.2022
4030 Clouds 6 1015 81 10000 1.11 79 09:25 26.04.2022
4031 Clouds 3 1015 87 10000 1.04 84 07:54 26.04.2022
4032 Clouds 0 1015 89 10000 0.86 108 04:33 26.04.2022
4033 Clouds 0 1015 88 10000 0.92 101 01:54 26.04.2022
4034 Clouds 1 1015 87 10000 0.92 114 00:26 26.04.2022
4035 Clouds 3 1015 86 10000 0.97 103 22:46 25.04.2022
4036 Clouds 3 1015 87 10000 0.97 102 21:43 25.04.2022
4037 Clouds 5 1014 86 10000 1.05 99 20:40 25.04.2022
4038 Clouds 7 1013 75 10000 2.17 63 18:58 25.04.2022
4039 Clouds 7 1012 74 10000 2.41 57 18:23 25.04.2022
4040 Clouds 7 1012 79 10000 2.24 60 17:23 25.04.2022
4041 Clouds 6 1012 82 10000 1.55 65 15:29 25.04.2022
4042 Clouds 6 1012 82 10000 1.55 65 14:46 25.04.2022
4043 Clouds 6 1012 85 10000 1.81 58 13:41 25.04.2022
4044 Clouds 5 1012 87 10000 1.1 55 11:49 25.04.2022
4045 Clouds 4 1011 92 4568 1.41 67 10:27 25.04.2022
4046 Clouds 4 1010 93 4753 1.66 44 08:47 25.04.2022
4047 Rain 3 1009 91 4026 1.21 32 06:46 25.04.2022
4048 Rain 3 1008 91 4237 1.54 16 04:33 25.04.2022
4049 Clouds 5 1007 93 8445 2.1 44 00:58 25.04.2022
4050 Clouds 5 1007 93 10000 2.24 42 23:52 24.04.2022
4051 Clouds 5 1006 79 10000 2.32 40 22:49 24.04.2022
4052 Clouds 6 1005 75 10000 2.55 46 22:29 24.04.2022
4053 Clouds 6 1005 79 10000 2.55 46 21:42 24.04.2022
4054 Clouds 6 1005 83 10000 2.65 48 21:18 24.04.2022
4055 Rain 6 1005 83 10000 1.98 47 20:37 24.04.2022
4056 Rain 7 1004 73 10000 2.43 49 19:48 24.04.2022
4057 Rain 8 1003 67 10000 4.37 64 18:20 24.04.2022
4058 Clouds 9 1003 65 10000 4.37 64 17:32 24.04.2022
4059 Clouds 9 1003 62 10000 4.38 58 16:59 24.04.2022
4060 Clouds 9 1003 62 10000 4.38 58 16:35 24.04.2022
4061 Clouds 9 1003 61 10000 5.23 53 15:56 24.04.2022
4062 Clouds 9 1003 59 10000 5.23 53 15:31 24.04.2022
4063 Clouds 10 1003 53 10000 5.06 48 13:58 24.04.2022
4064 Clouds 11 1003 54 10000 5.46 57 13:25 24.04.2022
4065 Clouds 10 1003 52 10000 5.46 57 12:32 24.04.2022
4066 Clouds 9 1003 58 10000 5.22 56 11:33 24.04.2022
4067 Clouds 6 1004 64 10000 4.07 52 10:27 24.04.2022
4068 Clouds 5 1004 68 10000 3.96 56 09:26 24.04.2022
4069 Clear 2 1005 78 10000 2.84 55 06:45 24.04.2022
4070 Clear 3 1005 72 10000 3.06 63 03:57 24.04.2022
4071 Clear 4 1006 67 10000 3.17 65 01:38 24.04.2022
4072 Clear 5 1007 61 10000 3.5 69 00:29 24.04.2022
4073 Clear 5 1007 64 10000 3.5 69 23:44 23.04.2022
4074 Clear 6 1006 58 10000 3.98 79 23:21 23.04.2022
4075 Clear 7 1006 55 10000 3.64 85 21:53 23.04.2022
4076 Clear 7 1006 54 10000 3.64 85 21:34 23.04.2022
4077 Clear 8 1006 52 10000 3.62 84 20:51 23.04.2022
4078 Clear 9 1006 47 10000 4.14 85 19:47 23.04.2022
4079 Clear 11 1006 42 10000 4.85 88 19:19 23.04.2022
4080 Clear 11 1006 40 10000 4.85 88 18:52 23.04.2022
4081 Clear 12 1006 41 10000 5.3 88 17:51 23.04.2022
4082 Clear 12 1006 39 10000 6.1 88 17:26 23.04.2022
4083 Clear 12 1006 36 10000 6.1 88 16:41 23.04.2022
4084 Clear 12 1007 41 10000 6.41 90 15:28 23.04.2022
4085 Clear 11 1008 42 10000 6.38 92 12:44 23.04.2022
4086 Clear 8 1009 54 10000 6.18 90 10:44 23.04.2022
4087 Clear 7 1010 62 10000 5.64 88 09:33 23.04.2022
4088 Clouds 3 1010 83 10000 3.15 80 06:32 23.04.2022
4089 Clouds 5 1009 81 10000 3.75 82 03:54 23.04.2022
4090 Clouds 6 1009 79 10000 4.14 81 01:20 23.04.2022
4091 Clouds 7 1009 80 10000 4 82 23:30 22.04.2022
4092 Clouds 7 1009 80 10000 4.4 84 22:20 22.04.2022
4093 Clouds 7 1009 83 10000 4.4 84 21:43 22.04.2022
4094 Clouds 7 1008 77 10000 4.49 89 20:47 22.04.2022
4095 Clouds 8 1008 77 10000 4.9 89 20:27 22.04.2022
4096 Clouds 8 1007 81 10000 5.02 86 19:20 22.04.2022
4097 Clouds 8 1007 81 10000 5.02 86 18:41 22.04.2022
4098 Clouds 8 1007 80 10000 5.22 82 17:40 22.04.2022
4099 Clouds 7 1007 77 10000 4.22 80 16:46 22.04.2022
4100 Clouds 8 1007 74 10000 4.16 79 15:32 22.04.2022
4101 Clouds 7 1008 80 5933 3.3 70 14:44 22.04.2022
4102 Clouds 6 1008 83 10000 4.02 69 13:49 22.04.2022
4103 Clouds 6 1008 84 10000 4.37 75 12:57 22.04.2022
4104 Clouds 5 1008 87 5338 3.91 71 11:48 22.04.2022
4105 Clouds 4 1009 87 5186 3.16 71 11:21 22.04.2022
4106 Clouds 4 1009 89 5186 3.16 71 10:48 22.04.2022
4107 Clouds 4 1009 88 5107 2.67 64 10:29 22.04.2022
4108 Clouds 4 1009 88 5107 2.67 64 09:50 22.04.2022
4109 Clouds 5 1009 88 2628 2.58 59 08:50 22.04.2022
4110 Clouds 5 1009 91 1658 2.54 55 06:58 22.04.2022
4111 Clouds 5 1011 91 2076 2.32 60 02:45 22.04.2022
4112 Clouds 5 1012 91 2533 2.22 64 00:51 22.04.2022
4113 Clouds 5 1012 90 10000 2.54 82 23:24 21.04.2022
4114 Rain 5 1013 87 10000 2.78 82 22:27 21.04.2022
4115 Clouds 5 1013 83 5655 2.16 67 20:36 21.04.2022
4116 Clouds 5 1013 83 5655 2.16 67 20:36 21.04.2022
4117 Clouds 6 1013 79 10000 1.63 58 20:18 21.04.2022
4118 Clouds 6 1013 77 5913 1.83 67 18:35 21.04.2022
4119 Clouds 6 1013 77 6218 2.06 64 17:57 21.04.2022
4120 Clouds 7 1013 70 10000 2.53 57 16:35 21.04.2022
4121 Clouds 7 1014 90 10000 2.17 48 15:21 21.04.2022
4122 Clouds 7 1014 90 10000 2.17 48 14:47 21.04.2022
4123 Clouds 6 1014 91 10000 1.93 43 13:23 21.04.2022
4124 Rain 6 1014 91 10000 1.93 43 12:57 21.04.2022
4125 Rain 5 1014 69 10000 1.81 39 10:49 21.04.2022
4126 Clouds 3 1014 76 10000 1.61 44 08:56 21.04.2022
4127 Clouds 3 1014 77 10000 1.47 42 07:32 21.04.2022
4128 Clouds 1 1014 82 10000 1.66 34 05:42 21.04.2022
4129 Clouds 1 1015 80 10000 1.84 36 03:32 21.04.2022
4130 Clouds 2 1015 77 10000 1.8 22 02:47 21.04.2022
4131 Clouds 3 1015 75 10000 1.48 20 00:47 21.04.2022
4132 Clouds 4 1015 72 10000 1.87 33 23:51 20.04.2022
4133 Clouds 4 1015 69 10000 2.47 35 23:22 20.04.2022
4134 Clouds 4 1015 69 10000 2.47 35 22:50 20.04.2022
4135 Clouds 4 1015 67 10000 2.47 35 22:31 20.04.2022
4136 Clouds 5 1015 62 10000 1.75 21 21:29 20.04.2022
4137 Clouds 5 1015 59 10000 1.75 21 20:37 20.04.2022
4138 Clouds 7 1014 48 10000 2.79 31 19:52 20.04.2022
4139 Clouds 9 1014 47 10000 3.04 28 19:21 20.04.2022
4140 Clouds 9 1015 44 10000 3.66 36 18:22 20.04.2022
4141 Clouds 9 1015 48 10000 3.92 36 16:56 20.04.2022
4142 Clouds 9 1015 48 10000 3.92 36 16:37 20.04.2022
4143 Clouds 9 1016 50 10000 3.89 47 14:21 20.04.2022
4144 Clouds 8 1017 57 10000 3.15 48 11:52 20.04.2022
4145 Clouds 8 1017 56 10000 2.96 53 11:24 20.04.2022
4146 Clouds 6 1017 61 10000 2.53 56 10:24 20.04.2022
4147 Clouds 4 1017 64 10000 2.14 47 09:25 20.04.2022
4148 Clouds 4 1017 64 10000 2.14 47 09:25 20.04.2022
4149 Clouds 2 1017 71 10000 1.43 31 08:22 20.04.2022
4150 Clouds 0 1017 75 10000 1.66 38 07:37 20.04.2022
4151 Clouds 0 1018 72 10000 1.08 43 03:54 20.04.2022
4152 Clouds 2 1018 68 10000 1.52 74 00:24 20.04.2022
4153 Clouds 3 1018 65 10000 1.52 74 23:59 19.04.2022
4154 Clouds 3 1018 62 10000 2 78 22:28 19.04.2022
4155 Clouds 4 1018 59 10000 2 78 21:57 19.04.2022
4156 Clouds 5 1018 83 10000 2 78 21:34 19.04.2022
4157 Clouds 5 1017 79 10000 2.13 70 20:50 19.04.2022
4158 Clouds 7 1017 46 10000 2.13 70 20:32 19.04.2022
4159 Clouds 9 1015 44 10000 3.89 46 19:24 19.04.2022
4160 Clear 10 1015 37 10000 4.52 46 17:59 19.04.2022
4161 Clear 10 1015 35 10000 4.52 48 16:44 19.04.2022
4162 Clear 10 1015 35 10000 4.51 48 16:24 19.04.2022
4163 Clear 10 1015 38 10000 4.47 46 14:51 19.04.2022
4164 Clear 10 1015 40 10000 4.47 46 14:30 19.04.2022
4165 Clouds 9 1015 40 10000 3.73 47 12:51 19.04.2022
4166 Clouds 8 1015 41 10000 3.51 48 12:26 19.04.2022
4167 Clouds 8 1016 45 10000 3.14 47 11:22 19.04.2022
4168 Clouds 4 1016 62 10000 2.24 46 09:25 19.04.2022
4169 Clouds 0 1016 80 10000 1.78 35 06:34 19.04.2022
4170 Clouds 1 1016 76 10000 1.48 46 04:19 19.04.2022
4171 Clouds 2 1017 67 10000 1.25 38 00:56 19.04.2022
4172 Clouds 3 1018 64 10000 0.98 54 23:38 18.04.2022
4173 Clouds 4 1018 58 10000 1.07 67 21:48 18.04.2022
4174 Clouds 5 1018 55 10000 1.29 68 21:24 18.04.2022
4175 Clouds 6 1018 50 10000 1.42 71 20:38 18.04.2022
4176 Clouds 7 1018 47 10000 1.61 72 19:59 18.04.2022
4177 Clouds 9 1017 35 10000 2.38 73 19:27 18.04.2022
4178 Clouds 10 1017 33 10000 2.38 73 18:33 18.04.2022
4179 Clouds 11 1017 31 10000 2.76 73 17:39 18.04.2022
4180 Clouds 11 1017 30 10000 2.57 76 17:19 18.04.2022
4181 Clouds 11 1017 32 10000 2.57 76 16:35 18.04.2022
4182 Clouds 11 1017 32 10000 2.57 76 16:35 18.04.2022
4183 Clouds 12 1018 34 10000 2.1 71 15:28 18.04.2022
4184 Clouds 11 1019 42 10000 1.93 53 13:44 18.04.2022
4185 Clouds 10 1019 42 10000 1.67 52 12:40 18.04.2022
4186 Clouds 9 1020 46 10000 1.62 57 11:43 18.04.2022
4187 Clouds 8 1020 53 10000 1.33 61 10:43 18.04.2022
4188 Clouds 5 1021 58 10000 0.89 75 09:31 18.04.2022
4189 Clouds 5 1021 58 10000 0.89 75 09:31 18.04.2022
4190 Clouds 4 1021 63 10000 0.98 89 08:37 18.04.2022
4191 Clear 0 1022 72 10000 0.68 89 06:25 18.04.2022
4192 Clouds 0 1024 71 10000 1.11 109 02:22 18.04.2022
4193 Clouds 3 1026 61 10000 1.3 118 22:53 17.04.2022
4194 Clouds 3 1026 56 10000 1.3 118 22:31 17.04.2022
4195 Clouds 4 1027 56 10000 1.57 111 21:32 17.04.2022
4196 Clouds 5 1026 74 10000 1.64 103 20:50 17.04.2022
4197 Clear 4 1026 70 10000 2 103 19:55 17.04.2022
4198 Clear 10 1025 35 10000 2.76 97 18:34 17.04.2022
4199 Clear 10 1026 33 10000 3.64 97 16:44 17.04.2022
4200 Clear 10 1027 34 10000 3.49 101 15:33 17.04.2022
4201 Clear 10 1027 34 10000 3.22 105 14:38 17.04.2022
4202 Clouds 10 1029 33 10000 3.15 99 13:23 17.04.2022
4203 Clouds 9 1029 32 10000 3.15 99 12:31 17.04.2022
4204 Clouds 6 1030 47 10000 2.33 96 10:48 17.04.2022
4205 Clouds 5 1031 50 10000 1.86 92 10:29 17.04.2022
4206 Clouds 4 1031 56 10000 1.86 92 09:51 17.04.2022
4207 Clear 3 1031 55 10000 1.36 103 09:18 17.04.2022
4208 Clouds 2 1031 65 10000 1.1 100 08:29 17.04.2022
4209 Clouds -3 1033 76 10000 1.01 105 05:33 17.04.2022
4210 Clouds -1 1034 77 10000 1.57 98 01:52 17.04.2022
4211 Clouds 0 1035 70 10000 1.35 86 00:37 17.04.2022
4212 Clouds 1 1035 70 10000 1.69 83 23:19 16.04.2022
4213 Clouds 2 1035 69 10000 1.69 75 21:47 16.04.2022
4214 Clouds 3 1035 62 10000 1.7 69 20:54 16.04.2022
4215 Clouds 7 1033 45 10000 2.58 73 19:24 16.04.2022
4216 Clouds 7 1033 45 10000 2.58 73 18:43 16.04.2022
4217 Clouds 8 1033 43 10000 4 77 17:20 16.04.2022
4218 Clouds 7 1033 44 10000 4.34 79 15:51 16.04.2022
4219 Clouds 7 1034 45 10000 4.49 76 14:58 16.04.2022
4220 Clouds 7 1034 45 10000 4.49 76 14:40 16.04.2022
4221 Clouds 6 1034 49 10000 4.29 73 13:49 16.04.2022
4222 Clouds 6 1034 51 10000 4.63 74 13:18 16.04.2022
4223 Clouds 4 1034 58 10000 4.57 73 11:43 16.04.2022
4224 Clouds 2 1034 65 10000 4.35 71 10:33 16.04.2022
4225 Clouds 1 1034 72 10000 3.6 65 09:37 16.04.2022
4226 Clouds 0 1034 75 10000 3.27 61 08:51 16.04.2022
4227 Clouds -1 1034 82 10000 2.32 65 07:22 16.04.2022
4228 Clouds 0 1033 86 10000 2.56 65 05:38 16.04.2022
4229 Clouds 3 1031 87 10000 2.85 50 01:47 16.04.2022
4230 Clouds 4 1031 88 5208 2.19 48 23:52 15.04.2022
4231 Clouds 5 1030 89 5331 2.55 47 22:48 15.04.2022
4232 Clouds 5 1030 89 10000 2.48 38 22:28 15.04.2022
4233 Rain 5 1029 88 10000 2.33 14 21:21 15.04.2022
4234 Rain 5 1029 87 10000 2.33 14 20:38 15.04.2022
4235 Rain 6 1028 83 10000 3.4 29 19:45 15.04.2022
4236 Clouds 6 1027 81 10000 3.52 25 18:59 15.04.2022
4237 Clouds 6 1027 80 10000 3.52 25 18:41 15.04.2022
4238 Rain 6 1027 81 10000 3.81 18 18:21 15.04.2022
4239 Rain 7 1026 78 10000 4.36 0 17:26 15.04.2022
4240 Clouds 7 1026 76 10000 4.35 344 16:25 15.04.2022
4241 Clouds 8 1026 74 10000 4.35 344 15:45 15.04.2022
4242 Clouds 8 1026 73 10000 3.98 332 14:18 15.04.2022
4243 Clouds 6 1026 78 10000 3.75 328 12:52 15.04.2022
4244 Clouds 6 1026 80 10000 3.65 322 12:26 15.04.2022
4245 Clouds 5 1026 80 10000 3.65 322 11:51 15.04.2022
4246 Clouds 4 1026 86 10000 3.86 317 10:46 15.04.2022
4247 Clouds 4 1025 90 10000 3.38 312 10:20 15.04.2022
4248 Clouds 4 1025 88 10000 2.83 305 09:22 15.04.2022
4249 Clouds 4 1025 87 10000 2.83 305 08:49 15.04.2022
4250 Clouds 4 1024 90 10000 3.1 312 06:51 15.04.2022
4251 Clouds 4 1023 95 10000 2.61 303 04:49 15.04.2022
4252 Clouds 6 1022 94 10000 2.1 300 00:51 15.04.2022
4253 Clouds 6 1022 89 10000 1.65 295 23:28 14.04.2022
4254 Clouds 6 1022 91 10000 1.65 295 22:46 14.04.2022
4255 Clouds 7 1022 88 10000 1.51 299 22:27 14.04.2022
4256 Clouds 7 1022 91 10000 1.51 299 21:50 14.04.2022
4257 Clouds 9 1020 86 10000 1.73 304 19:51 14.04.2022
4258 Rain 9 1019 83 10000 3.21 307 19:22 14.04.2022
4259 Rain 12 1019 71 10000 2.72 298 17:48 14.04.2022
4260 Clouds 13 1019 68 10000 2.68 289 17:18 14.04.2022
4261 Clouds 13 1019 67 10000 2.68 289 16:32 14.04.2022
4262 Clouds 10 1019 83 10000 2.13 297 13:55 14.04.2022
4263 Clouds 9 1019 90 10000 2.08 301 13:26 14.04.2022
4264 Rain 8 1019 90 10000 2.08 301 12:33 14.04.2022
4265 Rain 8 1020 92 10000 1.53 304 11:47 14.04.2022
4266 Rain 8 1020 91 10000 1.13 329 11:20 14.04.2022
4267 Rain 9 1020 88 10000 1.13 329 10:33 14.04.2022
4268 Clouds 9 1019 87 10000 1.32 309 09:52 14.04.2022
4269 Clouds 9 1019 83 8170 1.27 333 08:39 14.04.2022
4270 Clouds 8 1018 78 1917 1.46 349 06:24 14.04.2022
4271 Clouds 10 1018 77 1351 2.33 345 01:49 14.04.2022
4272 Clouds 11 1018 64 10000 1.05 315 22:41 13.04.2022
4273 Clouds 11 1017 64 10000 0.59 86 21:44 13.04.2022
4274 Clouds 12 1017 61 10000 0.9 60 20:48 13.04.2022
4275 Clouds 13 1017 58 10000 0.87 32 20:18 13.04.2022
4276 Clouds 16 1016 73 10000 0.64 24 18:50 13.04.2022
4277 Clouds 18 1016 41 10000 0.54 13 17:54 13.04.2022
4278 Clouds 18 1016 40 10000 0.45 339 17:23 13.04.2022
4279 Clouds 18 1016 41 10000 0.45 339 16:33 13.04.2022
4280 Clouds 18 1016 40 10000 1.06 271 15:32 13.04.2022
4281 Clouds 18 1016 40 10000 1.03 249 14:50 13.04.2022
4282 Clouds 18 1016 39 10000 0.88 257 13:58 13.04.2022
4283 Clouds 16 1016 41 10000 1.35 255 13:00 13.04.2022
4284 Clouds 15 1016 40 10000 1.29 235 12:20 13.04.2022
4285 Clouds 14 1015 40 10000 1.18 221 10:46 13.04.2022
4286 Clouds 11 1015 47 10000 1.04 186 08:57 13.04.2022
4287 Clouds 9 1015 51 10000 1.04 186 08:31 13.04.2022
4288 Clouds 6 1015 61 10000 1.42 172 06:51 13.04.2022
4289 Clouds 5 1014 62 10000 1.54 166 06:25 13.04.2022
4290 Clouds 7 1014 52 10000 1.53 160 04:55 13.04.2022
4291 Clouds 7 1015 51 10000 1.8 151 00:20 13.04.2022
4292 Clouds 7 1015 48 10000 2.06 145 23:21 12.04.2022
4293 Clouds 8 1015 52 10000 2.88 138 21:57 12.04.2022
4294 Clouds 9 1015 63 10000 3.29 128 20:57 12.04.2022
4295 Clouds 9 1015 63 10000 3.29 128 20:38 12.04.2022
4296 Clouds 7 1015 66 10000 3.1 115 19:48 12.04.2022
4297 Clouds 12 1014 38 10000 3.52 127 19:29 12.04.2022
4298 Clouds 12 1014 38 10000 3.52 127 19:29 12.04.2022
4299 Clouds 14 1014 35 10000 4.39 132 17:59 12.04.2022
4300 Clouds 15 1014 35 10000 4.5 140 16:58 12.04.2022
4301 Clouds 14 1014 32 10000 4.7 142 16:19 12.04.2022
4302 Clouds 14 1015 34 10000 4.7 143 15:26 12.04.2022
4303 Clouds 14 1015 31 10000 4.49 139 14:21 12.04.2022
4304 Clouds 12 1015 32 10000 3.73 137 13:29 12.04.2022
4305 Clouds 12 1015 34 10000 3.73 137 12:49 12.04.2022
4306 Clouds 11 1016 45 10000 3.29 144 11:46 12.04.2022
4307 Clouds 7 1016 57 10000 3.21 136 10:32 12.04.2022
4308 Clouds 3 1016 64 10000 2.32 133 08:57 12.04.2022
4309 Clouds 1 1017 71 10000 1.96 127 07:51 12.04.2022
4310 Clouds 0 1017 72 10000 1.9 131 05:50 12.04.2022
4311 Clouds 1 1017 70 10000 1.86 127 04:55 12.04.2022
4312 Clouds 2 1019 68 10000 1.5 124 23:53 11.04.2022
4313 Clouds 1 1019 71 10000 1.43 110 22:44 11.04.2022
4314 Clouds 2 1019 68 10000 1.35 107 21:37 11.04.2022
4315 Clouds 2 1019 68 10000 1.35 107 21:37 11.04.2022
4316 Clouds 3 1018 67 10000 1.52 94 20:56 11.04.2022
4317 Clouds 4 1018 61 10000 1.22 93 20:29 11.04.2022
4318 Clouds 8 1018 65 10000 1.22 93 19:42 11.04.2022
4319 Clouds 8 1017 43 10000 0.28 128 19:18 11.04.2022
4320 Clouds 9 1017 39 10000 0.28 128 18:41 11.04.2022
4321 Clouds 9 1017 41 10000 0.92 240 17:56 11.04.2022
4322 Clouds 9 1017 37 10000 1.47 241 16:54 11.04.2022
4323 Clouds 9 1017 40 10000 2 235 15:54 11.04.2022
4324 Clouds 8 1018 42 10000 1.96 236 13:59 11.04.2022
4325 Clouds 7 1019 50 10000 1.92 238 12:47 11.04.2022
4326 Clouds 6 1020 49 10000 2.19 240 12:29 11.04.2022
4327 Clouds 5 1020 57 10000 2.19 240 11:30 11.04.2022
4328 Clouds 4 1020 57 10000 2.14 222 10:24 11.04.2022
4329 Clouds 1 1021 67 10000 1.71 215 08:56 11.04.2022
4330 Clouds -3 1021 83 10000 1.43 207 06:21 11.04.2022
4331 Clouds -2 1022 86 10000 1.12 222 01:23 11.04.2022
4332 Clouds -1 1022 81 10000 1.11 239 22:34 10.04.2022
4333 Clouds -1 1022 79 10000 1.33 253 21:55 10.04.2022
4334 Clouds -1 1021 75 10000 1.79 272 21:28 10.04.2022
4335 Clouds 1 1021 72 10000 1.79 272 20:30 10.04.2022
4336 Clouds 2 1020 63 10000 2.64 297 19:43 10.04.2022
4337 Clouds 3 1019 67 10000 4.11 309 19:18 10.04.2022
4338 Clouds 2 1019 68 10000 4.11 309 18:41 10.04.2022
4339 Clouds 4 1019 63 10000 5.01 309 17:52 10.04.2022
4340 Clouds 3 1019 66 10000 5.01 309 17:32 10.04.2022
4341 Rain 3 1018 63 10000 5.96 300 15:56 10.04.2022
4342 Rain 2 1018 71 5989 6.15 292 14:59 10.04.2022
4343 Clouds 3 1018 66 5209 5.86 283 13:54 10.04.2022
4344 Snow 2 1018 71 5097 6.14 285 12:33 10.04.2022
4345 Snow 1 1018 73 5592 5.84 284 11:46 10.04.2022
4346 Snow 1 1018 75 3641 5.83 285 11:28 10.04.2022
4347 Snow 1 1018 74 3619 5.82 285 10:43 10.04.2022
4348 Snow 0 1018 78 4055 5.81 281 09:50 10.04.2022
4349 Clouds -1 1018 82 6789 5.38 275 08:56 10.04.2022
4350 Clouds -1 1017 85 5007 4.8 272 08:21 10.04.2022
4351 Clouds -2 1017 83 4802 4.49 269 06:59 10.04.2022
4352 Clouds -1 1016 83 4659 4.24 262 05:19 10.04.2022
4353 Snow -2 1015 85 3722 3.83 256 02:20 10.04.2022
4354 Clouds -1 1014 86 9674 4.13 269 23:54 09.04.2022
4355 Clouds -1 1014 86 10000 4.08 271 23:29 09.04.2022
4356 Clouds -1 1014 87 10000 4.08 271 22:39 09.04.2022
4357 Snow -1 1013 88 10000 4.16 275 21:32 09.04.2022
4358 Snow -1 1012 86 4395 4.32 280 20:39 09.04.2022
4359 Snow -1 1011 87 10000 4.73 282 20:18 09.04.2022
4360 Snow -1 1011 86 10000 4.91 282 19:41 09.04.2022
4361 Snow 1 1010 81 10000 5.35 285 18:54 09.04.2022
4362 Snow 1 1009 77 10000 5.52 289 18:18 09.04.2022
4363 Snow 1 1009 84 10000 5.52 289 17:32 09.04.2022
4364 Clouds 2 1009 80 9013 6.05 291 16:42 09.04.2022
4365 Snow 2 1008 80 10000 6.87 289 15:52 09.04.2022
4366 Snow 1 1008 83 3770 7.16 284 15:26 09.04.2022
4367 Rain 2 1008 77 4289 6.49 273 14:26 09.04.2022
4368 Rain 2 1008 77 4672 6.54 270 13:38 09.04.2022
4369 Clouds 2 1008 80 9868 6.44 270 12:59 09.04.2022
4370 Rain 3 1008 62 10000 6.65 271 11:52 09.04.2022
4371 Snow 2 1007 71 9422 6.83 277 10:55 09.04.2022
4372 Clouds 1 1006 76 10000 5.92 277 10:19 09.04.2022
4373 Clouds 1 1006 82 10000 5.92 277 09:36 09.04.2022
4374 Clouds 0 1006 84 10000 5.87 278 08:45 09.04.2022
4375 Snow 0 1002 80 10000 5.56 286 05:58 09.04.2022
4376 Clouds 0 997 78 10000 2.81 300 00:38 09.04.2022
4377 Clouds 1 997 76 10000 1.99 292 23:25 08.04.2022
4378 Clouds 1 997 64 10000 2.06 273 21:58 08.04.2022
4379 Clouds 2 996 57 10000 2.41 270 20:47 08.04.2022
4380 Clouds 3 996 60 10000 2.91 262 19:58 08.04.2022
4381 Clouds 3 996 57 10000 3.22 263 19:18 08.04.2022
4382 Clouds 4 996 53 10000 3.85 253 18:25 08.04.2022
4383 Clouds 4 996 53 10000 3.85 253 17:38 08.04.2022
4384 Clouds 4 996 55 10000 4 252 17:19 08.04.2022
4385 Clouds 4 996 52 10000 4 252 16:38 08.04.2022
4386 Clouds 4 996 55 10000 4.11 260 15:53 08.04.2022
4387 Clouds 4 996 54 10000 4.61 261 15:23 08.04.2022
4388 Clouds 4 996 57 10000 5.33 258 14:26 08.04.2022
4389 Clouds 4 996 55 10000 5.08 258 13:44 08.04.2022
4390 Clouds 4 997 58 10000 5.52 258 13:25 08.04.2022
4391 Clouds 3 998 67 10000 5.68 259 11:53 08.04.2022
4392 Clouds 2 999 73 10000 6.75 258 10:32 08.04.2022
4393 Snow 1 999 80 10000 6.43 261 09:37 08.04.2022
4394 Snow 0 999 86 9272 5.96 264 08:34 08.04.2022
4395 Snow 1 997 87 787 7.17 268 06:47 08.04.2022
4396 Snow 1 997 87 787 7.17 268 06:47 08.04.2022
4397 Snow 1 996 84 5056 6.87 274 04:58 08.04.2022
4398 Clouds 2 989 83 2656 9.35 258 01:26 08.04.2022
4399 Snow 2 987 83 10000 9.71 251 00:22 08.04.2022
4400 Snow 2 987 82 10000 9.18 247 22:59 07.04.2022
4401 Snow 2 987 84 10000 9.18 247 22:39 07.04.2022
4402 Clouds 2 987 83 10000 8.79 248 22:20 07.04.2022
4403 Clouds 2 987 82 10000 8.79 248 21:49 07.04.2022
4404 Clouds 3 986 75 10000 9.08 251 20:58 07.04.2022
4405 Clouds 3 986 76 10000 9.08 251 20:30 07.04.2022
4406 Clouds 5 985 70 10000 9.64 252 18:34 07.04.2022
4407 Clouds 4 983 79 10000 9.53 253 17:26 07.04.2022
4408 Clouds 6 983 73 10000 9.53 253 16:44 07.04.2022
4409 Clouds 6 983 76 10000 9.5 254 16:21 07.04.2022
4410 Clouds 3 984 87 10000 8.85 256 14:42 07.04.2022
4411 Clouds 7 982 84 3821 11.6 232 13:43 07.04.2022
4412 Clouds 6 983 82 10000 10.63 211 12:46 07.04.2022
4413 Clouds 7 985 73 4585 9.5 208 11:30 07.04.2022
4414 Clouds 6 988 74 10000 9.48 216 09:37 07.04.2022
4415 Clouds 5 989 77 10000 8.9 219 08:38 07.04.2022
4416 Clouds 5 991 74 10000 8.05 220 06:42 07.04.2022
4417 Clouds 5 994 76 10000 6.7 232 02:51 07.04.2022
4418 Clouds 6 995 75 10000 7.41 233 02:20 07.04.2022
4419 Clouds 6 996 75 10000 7.5 232 00:27 07.04.2022
4420 Clouds 6 997 68 10000 7.51 227 22:51 06.04.2022
4421 Clouds 6 997 68 10000 7.15 228 22:27 06.04.2022
4422 Clouds 6 997 67 10000 7.15 228 21:44 06.04.2022
4423 Clouds 6 998 67 10000 6.45 228 20:40 06.04.2022
4424 Clouds 6 998 65 10000 6.75 232 19:54 06.04.2022
4425 Clouds 7 998 66 10000 6.76 230 18:52 06.04.2022
4426 Clouds 7 998 65 10000 6.76 230 18:32 06.04.2022
4427 Clouds 7 998 63 10000 6.32 240 17:35 06.04.2022
4428 Clouds 7 999 63 10000 6.41 241 16:38 06.04.2022
4429 Clouds 7 999 66 10000 6.61 242 15:48 06.04.2022
4430 Clouds 7 1000 62 10000 6.91 240 15:21 06.04.2022
4431 Clouds 6 1002 71 10000 6.65 237 13:25 06.04.2022
4432 Clouds 5 1002 69 10000 6.73 236 12:27 06.04.2022
4433 Clouds 5 1002 80 10000 6.82 237 10:52 06.04.2022
4434 Clouds 5 1002 81 10000 6.82 237 10:30 06.04.2022
4435 Clouds 5 1002 82 10000 6.38 239 09:41 06.04.2022
4436 Clouds 5 1002 83 6437 5.83 241 08:36 06.04.2022
4437 Clouds 5 1002 83 9191 5.97 238 07:54 06.04.2022
4438 Clouds 5 1003 86 9873 4.91 243 04:31 06.04.2022
4439 Clouds 5 1004 94 4823 5.5 251 23:56 05.04.2022
4440 Clouds 5 1004 92 5097 4.56 260 23:22 05.04.2022
4441 Clouds 5 1003 90 3927 4.97 277 21:29 05.04.2022
4442 Clouds 5 1003 89 3927 4.97 277 20:44 05.04.2022
4443 Clouds 5 1003 88 3881 5.17 264 20:19 05.04.2022
4444 Rain 6 1003 87 5461 5.51 272 18:24 05.04.2022
4445 Clouds 6 1003 87 3232 4.49 267 17:20 05.04.2022
4446 Clouds 5 1003 87 3232 4.49 267 16:41 05.04.2022
4447 Clouds 5 1003 91 5127 4.12 256 15:49 05.04.2022
4448 Clouds 4 1004 90 4294 2.44 239 15:29 05.04.2022
4449 Clouds 3 1005 86 3574 2.2 239 13:42 05.04.2022
4450 Clouds 3 1005 88 1960 2.85 254 11:51 05.04.2022
4451 Clouds 2 1005 87 1960 2.85 254 11:33 05.04.2022
4452 Clouds 3 1005 89 1984 3.14 269 10:57 05.04.2022
4453 Clouds 2 1005 91 1973 3.76 281 09:31 05.04.2022
4454 Snow 1 1004 91 5171 5.21 286 08:22 05.04.2022
4455 Snow 1 1002 91 3800 6.14 257 02:58 05.04.2022
4456 Snow 0 1002 91 2069 6.9 257 23:38 04.04.2022
4457 Snow 0 1002 90 2035 7.24 258 22:37 04.04.2022
4458 Snow 0 1002 90 3871 7.36 255 21:46 04.04.2022
4459 Snow 0 1002 89 2739 7.68 253 21:18 04.04.2022
4460 Snow 0 1002 89 2739 7.68 253 20:47 04.04.2022
4461 Snow -1 1002 88 151 8.21 247 19:28 04.04.2022
4462 Snow -1 1002 88 151 8.21 247 18:40 04.04.2022
4463 Snow -1 1003 87 71 9.52 241 17:19 04.04.2022
4464 Snow -1 1003 86 96 10.22 237 16:28 04.04.2022
4465 Snow -1 1003 84 96 10.22 237 15:33 04.04.2022
4466 Snow 0 1004 77 455 10.29 231 14:46 04.04.2022
4467 Snow 1 1006 71 1210 10.19 228 13:59 04.04.2022
4468 Snow 1 1007 66 4086 9.63 231 12:58 04.04.2022
4469 Clouds 0 1010 65 10000 8.32 231 11:29 04.04.2022
4470 Clouds 0 1012 67 10000 7.21 232 10:29 04.04.2022
4471 Clouds -2 1015 82 9779 4.66 234 06:58 04.04.2022
4472 Clouds -3 1018 87 9386 2.53 232 03:18 04.04.2022
4473 Clouds -2 1020 79 9746 2.32 233 23:42 03.04.2022
4474 Snow -2 1019 83 5697 2.76 251 22:18 03.04.2022
4475 Snow -2 1019 81 5697 2.76 251 21:31 03.04.2022
4476 Snow -1 1019 79 3984 2.63 259 20:35 03.04.2022
4477 Snow 0 1019 69 7114 3.56 273 18:51 03.04.2022
4478 Snow 1 1019 62 7251 4.23 283 17:57 03.04.2022
4479 Snow 2 1019 58 7251 4.23 283 17:37 03.04.2022
4480 Snow 1 1019 60 9884 4.28 286 16:50 03.04.2022
4481 Snow 2 1019 58 7170 4.66 289 15:57 03.04.2022
4482 Snow 1 1020 55 4063 4.23 291 14:27 03.04.2022
4483 Clouds 1 1020 51 7565 4.13 289 13:34 03.04.2022
4484 Clouds 0 1021 56 10000 4.01 290 11:59 03.04.2022
4485 Clear -2 1021 53 10000 2.71 293 10:22 03.04.2022
4486 Clouds -4 1021 63 10000 1.87 288 09:19 03.04.2022
4487 Clouds -8 1022 76 10000 0.57 279 07:24 03.04.2022
4488 Clouds -8 1022 69 10000 0.95 326 03:37 03.04.2022
4489 Clouds -4 1021 59 10000 1.78 9 00:29 03.04.2022
4490 Clouds -3 1020 69 10000 2.69 17 22:54 02.04.2022
4491 Clouds -2 1019 64 10000 3.93 20 21:57 02.04.2022
4492 Clouds -2 1018 64 10000 4.54 18 21:28 02.04.2022
4493 Clouds -2 1018 62 10000 4.54 18 20:41 02.04.2022
4494 Clouds -1 1016 59 10000 4.18 21 18:57 02.04.2022
4495 Clouds 0 1016 59 10000 4.43 23 18:20 02.04.2022
4496 Clouds 0 1016 59 10000 4.43 23 18:20 02.04.2022
4497 Clouds 0 1016 58 10000 4.43 23 17:46 02.04.2022
4498 Clouds 0 1015 58 10000 5.07 25 16:22 02.04.2022
4499 Clouds 0 1015 59 10000 5.39 26 15:21 02.04.2022
4500 Clouds 0 1015 60 10000 5.39 26 14:43 02.04.2022
4501 Clouds -1 1015 66 10000 5.77 31 13:34 02.04.2022
4502 Clouds -1 1015 63 8628 5.69 33 12:37 02.04.2022
4503 Clouds -1 1014 65 10000 5.73 36 10:58 02.04.2022
4504 Clouds -4 1014 76 10000 5.5 32 08:49 02.04.2022
4505 Clouds -5 1013 76 8416 5.02 31 06:50 02.04.2022
4506 Clouds -4 1012 69 10000 4.69 35 03:45 02.04.2022
4507 Clouds -3 1011 62 10000 4.68 38 23:56 01.04.2022
4508 Clouds -3 1011 63 10000 4.62 40 23:18 01.04.2022
4509 Clouds -2 1011 61 10000 5.36 37 21:33 01.04.2022
4510 Clouds -1 1010 59 10000 6.01 38 20:51 01.04.2022
4511 Clouds -2 1009 59 10000 6.07 36 20:25 01.04.2022
4512 Clouds -1 1009 56 10000 6.1 37 19:32 01.04.2022
4513 Clouds 0 1007 56 10000 5.89 39 18:45 01.04.2022
4514 Clouds 0 1007 49 10000 5.73 39 17:46 01.04.2022
4515 Clouds 0 1006 49 10000 5.94 41 16:52 01.04.2022
4516 Clouds 0 1006 53 10000 6.08 42 15:39 01.04.2022
4517 Clouds -1 1006 61 10000 5.92 50 14:25 01.04.2022
4518 Clouds -2 1006 70 10000 6.21 50 13:34 01.04.2022
4519 Snow -3 1006 75 7868 5.92 52 12:32 01.04.2022
4520 Snow -4 1006 81 2790 5.66 51 11:41 01.04.2022
4521 Snow -5 1006 89 310 4.87 49 10:19 01.04.2022
4522 Snow -6 1005 89 222 4.73 51 08:58 01.04.2022
4523 Snow -5 1004 90 180 4.83 52 06:54 01.04.2022
4524 Snow -4 1003 89 211 5.65 58 04:51 01.04.2022
4525 Snow -4 1003 90 211 5.65 58 04:33 01.04.2022
4526 Snow -3 1003 76 5460 5.97 64 01:57 01.04.2022
4527 Snow -2 1002 77 1047 6.19 68 23:58 31.03.2022
4528 Snow -2 1002 90 88 5.69 67 21:54 31.03.2022
4529 Snow -2 1002 90 88 5.69 67 21:32 31.03.2022
4530 Snow -2 1001 90 37 5.42 65 20:30 31.03.2022
4531 Snow -2 1001 85 34 5.27 70 19:50 31.03.2022
4532 Snow -1 1001 78 5144 5.25 80 18:51 31.03.2022
4533 Clouds 0 1001 70 10000 5.64 83 17:50 31.03.2022
4534 Clouds 0 1000 63 10000 5.68 84 16:39 31.03.2022
4535 Clouds 0 1000 64 10000 5.9 84 15:48 31.03.2022
4536 Clouds 0 1001 65 10000 5.85 85 15:20 31.03.2022
4537 Clouds 0 1001 66 10000 5.85 85 14:40 31.03.2022
4538 Clouds 0 1002 76 4356 4.75 84 12:30 31.03.2022
4539 Clouds 0 1002 76 4356 4.75 84 12:30 31.03.2022
4540 Clouds -1 1002 76 5818 3.95 90 11:28 31.03.2022
4541 Clouds -1 1002 78 5564 3.79 93 09:50 31.03.2022
4542 Clouds -1 1002 81 10000 3.28 102 08:23 31.03.2022
4543 Clouds -2 1002 83 10000 2.7 99 05:42 31.03.2022
4544 Clouds 0 1003 75 10000 1.64 110 00:46 31.03.2022
4545 Clouds 0 1003 73 10000 1.8 87 23:23 30.03.2022
4546 Clouds 1 1004 73 10000 1.88 66 21:41 30.03.2022
4547 Clouds 2 1003 71 10000 2.03 54 20:55 30.03.2022
4548 Clouds 2 1003 68 10000 2.05 52 20:20 30.03.2022
4549 Clouds 3 1003 65 10000 2.24 51 19:36 30.03.2022
4550 Clouds 5 1003 56 10000 2.16 54 18:29 30.03.2022
4551 Clouds 5 1003 54 10000 2.16 54 17:48 30.03.2022
4552 Clouds 6 1003 55 10000 2.16 58 16:57 30.03.2022
4553 Clouds 6 1003 54 10000 2.16 58 16:38 30.03.2022
4554 Clouds 6 1003 55 10000 1.9 44 15:24 30.03.2022
4555 Clouds 6 1003 57 10000 1.93 41 13:44 30.03.2022
4556 Clouds 5 1004 61 10000 1.73 37 12:58 30.03.2022
4557 Clouds 3 1004 67 10000 1.43 40 11:34 30.03.2022
4558 Clouds 2 1005 70 10000 1.32 45 10:31 30.03.2022
4559 Clouds 0 1006 78 10000 0.98 65 09:25 30.03.2022
4560 Clouds -3 1007 83 10000 0.97 79 07:33 30.03.2022
4561 Clouds -3 1007 82 10000 1.05 57 05:41 30.03.2022
4562 Clouds -2 1008 83 10000 0.92 40 04:19 30.03.2022
4563 Clouds 0 1009 79 10000 1.24 19 00:42 30.03.2022
4564 Clouds 2 1010 72 10000 1.59 359 22:34 29.03.2022
4565 Clouds 2 1010 67 10000 1.98 355 21:45 29.03.2022
4566 Clouds 3 1009 61 10000 2 348 20:54 29.03.2022
4567 Clouds 4 1009 63 10000 1.84 334 20:19 29.03.2022
4568 Clouds 6 1008 55 10000 2.6 323 18:56 29.03.2022
4569 Clouds 7 1008 54 10000 2.6 323 18:31 29.03.2022
4570 Clouds 8 1009 52 10000 3.58 315 17:36 29.03.2022
4571 Clouds 8 1009 51 10000 3.8 308 16:58 29.03.2022
4572 Clouds 8 1009 54 10000 3.77 306 15:58 29.03.2022
4573 Clouds 8 1010 55 10000 3.69 308 14:53 29.03.2022
4574 Clouds 8 1011 58 10000 3.28 308 14:18 29.03.2022
4575 Clouds 6 1012 67 10000 2.75 304 12:53 29.03.2022
4576 Clouds 5 1012 70 10000 2.32 300 11:43 29.03.2022
4577 Clouds 3 1013 75 10000 1.9 301 10:51 29.03.2022
4578 Clouds 2 1014 79 10000 1.77 310 09:49 29.03.2022
4579 Clouds 1 1014 90 10000 1.09 311 07:35 29.03.2022
4580 Clouds 2 1015 81 10000 1.31 297 04:47 29.03.2022
4581 Clouds 3 1017 81 10000 1.65 315 00:36 29.03.2022
4582 Clouds 3 1018 78 10000 1.99 324 23:24 28.03.2022
4583 Clouds 2 1018 79 10000 1.99 324 22:53 28.03.2022
4584 Clouds 4 1018 74 10000 1.82 319 22:26 28.03.2022
4585 Clouds 5 1018 72 10000 1.77 318 20:58 28.03.2022
4586 Clouds 6 1018 69 10000 1.97 313 20:23 28.03.2022
4587 Clouds 8 1018 65 10000 1.88 311 19:44 28.03.2022
4588 Clouds 9 1017 62 10000 2.93 317 19:25 28.03.2022
4589 Clouds 10 1017 59 10000 2.93 317 18:37 28.03.2022
4590 Clouds 12 1017 57 10000 3.89 316 17:39 28.03.2022
4591 Clouds 13 1018 57 10000 4.3 295 16:20 28.03.2022
4592 Clouds 13 1019 58 10000 3.99 288 14:47 28.03.2022
4593 Clear 13 1020 59 10000 3.63 279 14:21 28.03.2022
4594 Clear 11 1022 65 10000 2.57 268 12:20 28.03.2022
4595 Clear 10 1023 70 10000 1.91 265 11:24 28.03.2022
4596 Clear 6 1023 83 10000 1.53 258 09:43 28.03.2022
4597 Clear 5 1024 87 10000 0.88 253 09:19 28.03.2022
4598 Clear 3 1025 87 10000 0.59 242 08:22 28.03.2022
4599 Clear 1 1025 88 10000 0.68 229 07:28 28.03.2022
4600 Clear 2 1027 86 10000 0.63 251 03:44 28.03.2022
4601 Clear 5 1029 82 10000 0.19 248 23:30 27.03.2022
4602 Clear 5 1029 81 10000 0.43 58 22:24 27.03.2022
4603 Clear 5 1029 81 10000 0.43 58 22:24 27.03.2022
4604 Clear 6 1029 80 10000 0.43 58 21:42 27.03.2022
4605 Clear 6 1029 78 10000 0.77 36 20:57 27.03.2022
4606 Clouds 8 1029 73 10000 1.12 360 19:48 27.03.2022
4607 Clouds 9 1028 67 10000 1.45 338 19:20 27.03.2022
4608 Clouds 11 1028 62 10000 1.84 320 18:27 27.03.2022
4609 Clouds 12 1028 61 10000 1.84 320 17:39 27.03.2022
4610 Clouds 12 1028 60 10000 1.22 283 16:28 27.03.2022
4611 Clouds 12 1029 60 10000 0.74 262 15:21 27.03.2022
4612 Clouds 11 1030 63 10000 0.2 299 13:55 27.03.2022
4613 Clouds 9 1031 70 10000 0.19 309 12:24 27.03.2022
4614 Clouds 7 1031 80 10000 0.37 221 10:57 27.03.2022
4615 Clouds 5 1031 87 10000 0.38 176 08:51 27.03.2022
4616 Clouds 5 1031 88 10000 0.58 242 05:54 27.03.2022
4617 Clouds 5 1032 83 10000 0.27 166 00:48 27.03.2022
4618 Clouds 6 1032 84 10000 0.61 35 23:40 26.03.2022
4619 Clouds 7 1032 81 10000 1.11 13 22:36 26.03.2022
4620 Clouds 5 1032 91 10000 1.62 355 21:33 26.03.2022
4621 Clouds 8 1031 78 10000 1.99 339 20:52 26.03.2022
4622 Clouds 9 1030 71 10000 3.04 336 19:21 26.03.2022
4623 Clouds 11 1029 60 10000 2.89 322 17:53 26.03.2022
4624 Clouds 12 1029 55 10000 2.89 322 17:32 26.03.2022
4625 Clouds 13 1029 49 10000 4.12 322 16:27 26.03.2022
4626 Clouds 13 1029 47 10000 4.31 323 14:57 26.03.2022
4627 Clouds 13 1030 47 10000 4.37 320 13:52 26.03.2022
4628 Clear 12 1030 51 10000 4.25 316 12:51 26.03.2022
4629 Clear 11 1030 55 10000 3.93 314 11:33 26.03.2022
4630 Clear 10 1031 58 10000 2.64 312 10:18 26.03.2022
4631 Clear 6 1031 64 10000 2.03 312 08:33 26.03.2022
4632 Clear 1 1031 75 10000 0.91 287 05:54 26.03.2022
4633 Clear 1 1031 73 10000 0.77 334 04:21 26.03.2022
4634 Clear 3 1031 64 10000 0.73 293 23:51 25.03.2022
4635 Clear 5 1031 60 10000 0.41 332 21:35 25.03.2022
4636 Clear 5 1031 60 10000 0.41 332 21:35 25.03.2022
4637 Clear 5 1031 58 10000 0.28 25 20:46 25.03.2022
4638 Clear 7 1030 55 10000 0.94 23 19:28 25.03.2022
4639 Clear 7 1030 53 10000 0.94 23 18:47 25.03.2022
4640 Clear 11 1029 38 10000 1.51 22 17:37 25.03.2022
4641 Clear 12 1029 40 10000 2.33 33 16:50 25.03.2022
4642 Clear 11 1029 40 10000 2.67 35 16:18 25.03.2022
4643 Clear 12 1029 37 10000 2.72 44 14:22 25.03.2022
4644 Clear 11 1030 38 10000 2.5 55 12:33 25.03.2022
4645 Clear 9 1030 42 10000 1.8 57 09:55 25.03.2022
4646 Clear 7 1029 45 10000 1.37 63 09:26 25.03.2022
4647 Clear 4 1030 48 10000 0.98 66 07:53 25.03.2022
4648 Clear 1 1030 61 10000 1.01 58 07:26 25.03.2022
4649 Clear 1 1029 58 10000 0.88 53 05:35 25.03.2022
4650 Clear 2 1030 59 10000 0.65 81 00:42 25.03.2022
4651 Clear 3 1030 58 10000 0.83 72 22:30 24.03.2022
4652 Clear 3 1030 56 10000 0.99 64 21:35 24.03.2022
4653 Clear 5 1029 57 10000 1.3 45 19:51 24.03.2022
4654 Clear 5 1029 55 10000 1.19 49 19:33 24.03.2022
4655 Clear 10 1027 35 10000 1.81 28 17:46 24.03.2022
4656 Clear 12 1027 35 10000 2.1 4 16:54 24.03.2022
4657 Clear 13 1027 32 10000 1.57 335 15:21 24.03.2022
4658 Clear 13 1027 33 10000 1.57 335 14:43 24.03.2022
4659 Clear 13 1028 33 10000 1.27 330 14:18 24.03.2022
4660 Clear 12 1028 37 10000 1.34 329 12:47 24.03.2022
4661 Clear 11 1028 38 10000 1.01 327 11:44 24.03.2022
4662 Clear 7 1029 48 10000 0.26 11 09:53 24.03.2022
4663 Clear 5 1029 60 10000 0.34 58 08:41 24.03.2022
4664 Clear 1 1029 64 10000 0.37 75 06:49 24.03.2022
4665 Clear 2 1030 60 10000 0.69 72 02:24 24.03.2022
4666 Clear 4 1031 53 10000 0.83 74 23:20 23.03.2022
4667 Clear 5 1031 50 10000 0.97 68 21:27 23.03.2022
4668 Clear 5 1031 50 10000 0.97 68 20:59 23.03.2022
4669 Clear 6 1031 46 10000 1.12 54 19:45 23.03.2022
4670 Clear 8 1030 42 10000 1.28 41 18:36 23.03.2022
4671 Clear 12 1029 30 10000 1.63 25 17:36 23.03.2022
4672 Clear 13 1029 25 10000 2.08 360 16:33 23.03.2022
4673 Clear 13 1029 24 10000 1.81 319 14:51 23.03.2022
4674 Clear 14 1029 24 10000 1.37 296 14:26 23.03.2022
4675 Clear 13 1030 28 10000 1.03 292 12:51 23.03.2022
4676 Clear 8 1031 37 10000 0.29 164 09:42 23.03.2022
4677 Clear 2 1031 55 10000 0.62 77 06:48 23.03.2022
4678 Clear 1 1031 53 10000 0.8 32 04:41 23.03.2022
4679 Clear 2 1032 53 10000 0.38 142 00:29 23.03.2022
4680 Clear 2 1032 47 10000 0.38 142 23:39 22.03.2022
4681 Clear 4 1032 53 10000 0.74 104 21:30 22.03.2022
4682 Clear 5 1032 51 10000 0.81 104 20:45 22.03.2022
4683 Clear 5 1032 51 10000 0.9 115 19:43 22.03.2022
4684 Clear 6 1032 50 10000 1.05 122 19:19 22.03.2022
4685 Clear 9 1032 31 10000 1.05 122 18:31 22.03.2022
4686 Clear 9 1032 47 10000 0.93 130 17:37 22.03.2022
4687 Clear 12 1031 27 10000 1.03 110 16:27 22.03.2022
4688 Clear 13 1031 28 10000 1.05 115 15:23 22.03.2022
4689 Clear 13 1031 30 10000 1.05 115 14:47 22.03.2022
4690 Clear 13 1032 29 10000 0.95 119 14:27 22.03.2022
4691 Clear 12 1032 31 10000 0.95 119 13:36 22.03.2022
4692 Clear 11 1032 29 10000 0.94 129 11:52 22.03.2022
4693 Clear 9 1033 37 10000 1.03 124 10:44 22.03.2022
4694 Clear 5 1033 51 10000 0.41 117 08:36 22.03.2022
4695 Clear 0 1034 56 10000 0.46 147 06:53 22.03.2022
4696 Clear 1 1033 51 10000 0.75 145 03:49 22.03.2022
4697 Clear 1 1034 55 10000 0.71 149 00:29 22.03.2022
4698 Clear 3 1034 59 10000 0.93 144 22:42 21.03.2022
4699 Clear 3 1034 58 10000 1.16 137 21:18 21.03.2022
4700 Clear 4 1034 57 10000 1.16 137 20:41 21.03.2022
4701 Clear 5 1034 58 10000 1.27 139 19:59 21.03.2022
4702 Clear 5 1034 57 10000 1.27 139 19:34 21.03.2022
4703 Clear 6 1034 54 10000 1.32 140 18:36 21.03.2022
4704 Clear 10 1032 38 10000 1.26 136 17:19 21.03.2022
4705 Clear 10 1032 37 10000 1.26 136 16:51 21.03.2022
4706 Clear 11 1032 35 10000 1.59 132 16:00 21.03.2022
4707 Clear 10 1032 35 10000 1.61 134 15:21 21.03.2022
4708 Clear 11 1032 35 10000 1.51 136 14:28 21.03.2022
4709 Clear 9 1033 40 10000 1.27 126 12:43 21.03.2022
4710 Clear 8 1033 41 10000 1.07 126 11:54 21.03.2022
4711 Clear 7 1033 40 10000 0.88 135 10:45 21.03.2022
4712 Clear 3 1034 57 10000 1.24 154 09:21 21.03.2022
4713 Clear -2 1034 64 10000 1.61 140 06:59 21.03.2022
4714 Clear -1 1034 59 10000 1.95 139 03:29 21.03.2022
4715 Clear 1 1035 48 10000 2.29 132 00:36 21.03.2022
4716 Clear 3 1034 42 10000 2.82 132 22:56 20.03.2022
4717 Clear 3 1034 38 10000 3.89 134 21:57 20.03.2022
4718 Clear 4 1034 46 10000 3.89 134 21:30 20.03.2022
4719 Clear 4 1034 45 10000 4.37 131 20:47 20.03.2022
4720 Clear 5 1033 44 10000 4.83 131 20:24 20.03.2022
4721 Clear 5 1033 47 10000 4.83 131 19:43 20.03.2022
4722 Clear 6 1033 44 10000 5.33 134 18:48 20.03.2022
4723 Clear 7 1032 35 10000 6.35 133 17:38 20.03.2022
4724 Clear 8 1032 31 10000 6.96 130 16:59 20.03.2022
4725 Clear 9 1032 30 10000 7.11 129 15:57 20.03.2022
4726 Clear 9 1032 31 10000 7.18 126 14:37 20.03.2022
4727 Clear 7 1032 42 10000 7.35 131 13:31 20.03.2022
4728 Clear 6 1033 41 10000 7.91 123 11:51 20.03.2022
4729 Clear 3 1034 51 10000 7.26 117 09:58 20.03.2022
4730 Clear -2 1035 58 10000 5.72 105 07:51 20.03.2022
4731 Clear -4 1035 59 10000 4.96 94 05:49 20.03.2022
4732 Clear -2 1037 61 10000 4.42 86 03:18 20.03.2022
4733 Clear -1 1038 58 10000 3.87 81 00:51 20.03.2022
4734 Clear 0 1038 63 10000 4.24 81 23:35 19.03.2022
4735 Clear 0 1039 66 10000 5.58 88 21:58 19.03.2022
4736 Clouds 1 1039 65 10000 5.96 85 21:25 19.03.2022
4737 Clouds 3 1039 58 10000 5.52 82 19:22 19.03.2022
4738 Clouds 4 1039 59 10000 5.9 88 18:30 19.03.2022
4739 Clouds 4 1039 55 10000 5.51 84 17:45 19.03.2022
4740 Clouds 5 1039 53 10000 5.76 78 16:46 19.03.2022
4741 Clouds 5 1039 50 10000 6.25 64 15:22 19.03.2022
4742 Clouds 5 1040 53 10000 6.82 66 13:45 19.03.2022
4743 Clear 6 1040 55 10000 6.76 63 12:42 19.03.2022
4744 Clear 5 1041 59 10000 6.06 63 12:20 19.03.2022
4745 Clear 5 1041 59 10000 6.06 63 11:42 19.03.2022
4746 Clear 1 1044 76 10000 3.71 50 08:57 19.03.2022
4747 Clouds 1 1044 85 9407 2.91 60 04:42 19.03.2022
4748 Clouds 0 1045 83 9306 2.49 54 02:33 19.03.2022
4749 Clouds 1 1045 80 10000 2.59 57 23:51 18.03.2022
4750 Clouds 1 1045 80 10000 2.84 52 22:48 18.03.2022
4751 Clouds 1 1045 79 10000 2.61 48 22:21 18.03.2022
4752 Clear 2 1045 75 10000 2.5 49 20:25 18.03.2022
4753 Clear 3 1044 75 10000 2.32 40 19:24 18.03.2022
4754 Clear 4 1045 76 10000 2.39 40 18:43 18.03.2022
4755 Clear 7 1043 54 10000 3.12 39 16:54 18.03.2022
4756 Clear 7 1043 52 10000 3.66 36 16:24 18.03.2022
4757 Clear 7 1043 52 10000 3.58 28 14:27 18.03.2022
4758 Clear 7 1043 52 10000 3.58 28 13:39 18.03.2022
4759 Clear 5 1042 62 10000 2.98 34 11:37 18.03.2022
4760 Clear 4 1042 65 10000 2.19 46 10:27 18.03.2022
4761 Clear 1 1042 73 10000 2.06 24 08:46 18.03.2022
4762 Clear -3 1042 89 10000 1.68 3 06:59 18.03.2022
4763 Clear -3 1040 91 10000 1.53 8 05:20 18.03.2022
4764 Clear -1 1039 89 10000 1.65 357 01:38 18.03.2022
4765 Clouds -1 1038 92 10000 1.71 349 23:59 17.03.2022
4766 Clouds -1 1037 90 10000 1.99 350 22:50 17.03.2022
4767 Clouds 0 1037 88 10000 1.98 352 22:19 17.03.2022
4768 Clouds 0 1037 87 10000 1.98 352 21:31 17.03.2022
4769 Clouds 1 1036 88 10000 1.9 348 20:54 17.03.2022
4770 Clouds 2 1034 87 10000 2.3 345 20:20 17.03.2022
4771 Clouds 2 1034 85 10000 2.3 345 19:38 17.03.2022
4772 Clouds 3 1034 89 10000 2.37 338 18:53 17.03.2022
4773 Clouds 4 1033 83 10000 2.69 331 17:47 17.03.2022
4774 Clouds 4 1031 83 10000 2.2 313 16:29 17.03.2022
4775 Clouds 4 1031 84 10000 2.2 313 15:43 17.03.2022
4776 Clouds 4 1030 85 10000 2.07 309 15:18 17.03.2022
4777 Clouds 4 1030 81 10000 2.26 282 13:47 17.03.2022
4778 Clouds 5 1029 72 10000 2.41 243 12:47 17.03.2022
4779 Clouds 6 1028 64 10000 3.03 223 11:40 17.03.2022
4780 Clouds 6 1027 60 10000 3.19 222 10:58 17.03.2022
4781 Clouds 6 1026 57 10000 3.22 198 09:40 17.03.2022
4782 Clouds 5 1025 60 10000 2.34 167 08:21 17.03.2022
4783 Clouds 2 1025 74 10000 2.47 145 06:18 17.03.2022
4784 Clouds 2 1025 77 10000 2.53 136 05:23 17.03.2022
4785 Clouds 3 1026 68 10000 3.22 134 00:33 17.03.2022
4786 Clear 4 1026 67 10000 4.08 125 22:58 16.03.2022
4787 Clear 4 1026 68 10000 4.08 125 22:37 16.03.2022
4788 Clear 3 1027 68 10000 3.75 122 21:58 16.03.2022
4789 Clear 4 1027 69 10000 3.56 121 20:47 16.03.2022
4790 Clouds 5 1026 65 10000 3.63 110 19:24 16.03.2022
4791 Clouds 5 1026 65 10000 3.63 110 18:43 16.03.2022
4792 Clouds 6 1026 63 10000 3.78 111 18:18 16.03.2022
4793 Clouds 7 1026 59 10000 3.78 111 17:36 16.03.2022
4794 Clouds 8 1026 48 10000 3.76 127 16:36 16.03.2022
4795 Clouds 9 1026 50 10000 4.04 131 15:34 16.03.2022
4796 Clouds 9 1027 61 10000 3.96 124 13:41 16.03.2022
4797 Clouds 8 1028 62 10000 3.58 126 12:57 16.03.2022
4798 Clouds 6 1028 69 10000 2.94 130 11:26 16.03.2022
4799 Clouds 5 1028 73 10000 2.94 130 10:43 16.03.2022
4800 Clouds 5 1028 74 10000 2.19 134 09:58 16.03.2022
4801 Clouds 2 1028 82 10000 1.55 120 08:37 16.03.2022
4802 Clouds -1 1027 89 10000 1.16 46 03:30 16.03.2022
4803 Clouds 0 1026 88 10000 0.84 18 23:37 15.03.2022
4804 Clouds 1 1025 87 10000 0.87 46 22:37 15.03.2022
4805 Clouds 2 1024 85 10000 1.68 32 21:27 15.03.2022
4806 Clouds 4 1024 80 10000 1.29 44 19:47 15.03.2022
4807 Clouds 4 1024 81 10000 1.8 80 18:38 15.03.2022
4808 Clouds 6 1023 72 10000 1.79 64 16:45 15.03.2022
4809 Clouds 6 1023 70 10000 1.71 69 15:44 15.03.2022
4810 Clouds 6 1024 73 10000 1.14 107 14:55 15.03.2022
4811 Clouds 7 1024 70 10000 1.14 107 14:30 15.03.2022
4812 Clouds 6 1026 66 10000 1.07 139 13:24 15.03.2022
4813 Clouds 6 1027 68 10000 1.22 164 11:48 15.03.2022
4814 Clouds 6 1028 71 10000 1.02 159 10:56 15.03.2022
4815 Clouds 4 1028 84 10000 1.16 155 09:31 15.03.2022
4816 Clouds 2 1029 85 10000 1.08 153 08:32 15.03.2022
4817 Clouds 1 1029 86 10000 1.1 156 07:44 15.03.2022
4818 Clouds 0 1029 85 10000 1.21 163 06:32 15.03.2022
4819 Clouds 1 1030 86 10000 1.23 220 01:59 15.03.2022
4820 Clouds 1 1031 87 10000 1.63 219 23:36 14.03.2022
4821 Clouds 1 1030 87 10000 1.6 229 23:18 14.03.2022
4822 Clouds 2 1030 89 10000 2 237 21:57 14.03.2022
4823 Clouds 3 1030 86 10000 2.51 241 21:20 14.03.2022
4824 Clouds 3 1030 89 10000 2.51 241 20:31 14.03.2022
4825 Clouds 3 1029 88 10000 2.29 243 19:47 14.03.2022
4826 Clouds 4 1028 91 8604 2.07 260 18:23 14.03.2022
4827 Clouds 4 1028 87 8604 2.07 260 17:43 14.03.2022
4828 Clouds 4 1027 88 3238 2.59 257 16:54 14.03.2022
4829 Clouds 3 1027 89 2556 2.32 222 15:20 14.03.2022
4830 Clouds 3 1026 88 3368 2.46 238 14:24 14.03.2022
4831 Clouds 5 1026 62 10000 3.07 230 11:36 14.03.2022
4832 Clouds 5 1024 57 10000 2.38 256 10:23 14.03.2022
4833 Clouds 4 1024 49 10000 2.38 256 09:38 14.03.2022
4834 Clouds 4 1023 47 10000 2.09 240 09:18 14.03.2022
4835 Clouds 3 1023 40 10000 2.09 240 08:46 14.03.2022
4836 Clouds 0 1022 52 10000 1.65 221 07:21 14.03.2022
4837 Clear -1 1021 47 10000 1.37 179 04:27 14.03.2022
4838 Clear -2 1020 46 10000 1.38 126 01:51 14.03.2022
4839 Clear -1 1021 44 10000 1.7 127 00:38 14.03.2022
4840 Clear 1 1020 41 10000 2.83 146 21:56 13.03.2022
4841 Clear 2 1019 41 10000 3.44 137 21:27 13.03.2022
4842 Clear 3 1019 38 10000 3.44 137 20:49 13.03.2022
4843 Clear 3 1019 34 10000 3.51 122 20:26 13.03.2022
4844 Clear 4 1019 33 10000 3.51 122 19:43 13.03.2022
4845 Clear 4 1019 32 10000 3.06 114 19:24 13.03.2022
4846 Clear 5 1019 33 10000 3.06 114 18:49 13.03.2022
4847 Clear 6 1018 29 10000 2.93 114 18:26 13.03.2022
4848 Clear 7 1018 28 10000 3.34 115 17:39 13.03.2022
4849 Clear 8 1018 26 10000 4.01 118 16:48 13.03.2022
4850 Clear 9 1018 26 10000 4.19 124 16:27 13.03.2022
4851 Clear 9 1018 26 10000 4.19 124 15:44 13.03.2022
4852 Clear 9 1018 25 10000 4.06 125 14:49 13.03.2022
4853 Clear 9 1018 25 10000 3.2 128 13:30 13.03.2022
4854 Clear 8 1018 25 10000 2.23 143 12:26 13.03.2022
4855 Clear 8 1018 26 10000 2.23 143 11:51 13.03.2022
4856 Clear 5 1018 32 10000 2.23 149 11:25 13.03.2022
4857 Clear 5 1018 31 10000 2.23 149 10:44 13.03.2022
4858 Clear 3 1018 30 10000 2.16 147 09:43 13.03.2022
4859 Clear 0 1018 46 10000 2.09 135 09:20 13.03.2022
4860 Clear -1 1018 56 10000 2.09 135 08:39 13.03.2022
4861 Clear -3 1019 59 10000 1.78 137 07:37 13.03.2022
4862 Clear -4 1019 55 10000 1.9 135 05:39 13.03.2022
4863 Clouds -3 1020 46 10000 1.7 136 01:48 13.03.2022
4864 Clouds -2 1021 45 10000 1.76 138 23:30 12.03.2022
4865 Clouds -1 1022 42 10000 2.12 136 21:48 12.03.2022
4866 Clouds 1 1022 41 10000 2.68 126 20:29 12.03.2022
4867 Clouds 2 1022 39 10000 2.68 126 19:47 12.03.2022
4868 Clouds 3 1022 49 10000 2.63 115 18:47 12.03.2022
4869 Clouds 5 1021 30 10000 2.1 123 18:20 12.03.2022
4870 Clouds 7 1021 28 10000 2.84 135 17:23 12.03.2022
4871 Clouds 9 1021 26 10000 3.11 148 16:23 12.03.2022
4872 Clouds 9 1021 28 10000 3.17 149 15:22 12.03.2022
4873 Clouds 9 1021 29 10000 3.33 140 13:55 12.03.2022
4874 Clouds 8 1021 27 10000 2.72 137 12:35 12.03.2022
4875 Clouds 7 1022 29 10000 2.23 147 11:56 12.03.2022
4876 Clouds 6 1022 29 10000 2.23 147 11:34 12.03.2022
4877 Clouds 4 1022 30 10000 2.01 162 10:52 12.03.2022
4878 Clouds 1 1022 35 10000 2.08 164 09:44 12.03.2022
4879 Clouds 0 1023 34 10000 2.3 165 08:53 12.03.2022
4880 Clouds -4 1023 44 10000 2.61 151 06:53 12.03.2022
4881 Clear -4 1022 48 10000 3.57 137 01:44 12.03.2022
4882 Clear -2 1023 41 10000 4.38 137 23:52 11.03.2022
4883 Clear -1 1023 37 10000 4.75 141 22:52 11.03.2022
4884 Clear -1 1023 41 10000 5.62 138 21:35 11.03.2022
4885 Clear 0 1023 38 10000 6.02 136 20:54 11.03.2022
4886 Clear 1 1022 36 10000 5.67 131 20:28 11.03.2022
4887 Clear 2 1022 35 10000 5.67 131 19:42 11.03.2022
4888 Clear 2 1022 34 10000 5.47 126 18:51 11.03.2022
4889 Clear 4 1021 28 10000 6.14 121 17:28 11.03.2022
4890 Clear 6 1021 26 10000 6.26 123 16:27 11.03.2022
4891 Clear 6 1021 25 10000 6.26 123 15:53 11.03.2022
4892 Clear 5 1022 24 10000 6.57 131 14:19 11.03.2022
4893 Clouds 4 1022 29 10000 6.08 129 12:43 11.03.2022
4894 Clouds 4 1023 29 10000 5.82 131 12:20 11.03.2022
4895 Clouds 4 1023 30 10000 5.82 131 11:43 11.03.2022
4896 Clouds 0 1024 37 10000 4.7 131 09:39 11.03.2022
4897 Clouds -2 1024 43 10000 4.4 132 08:40 11.03.2022
4898 Clouds -3 1025 50 10000 3.94 129 07:49 11.03.2022
4899 Clouds -5 1025 68 10000 3.57 126 06:59 11.03.2022
4900 Clouds -5 1025 71 10000 3.15 124 05:42 11.03.2022
4901 Clouds -3 1026 70 10000 3.16 129 02:45 11.03.2022
4902 Clouds -1 1027 65 10000 3.06 120 22:56 10.03.2022
4903 Clouds 0 1027 63 10000 3.23 111 22:28 10.03.2022
4904 Clouds 1 1027 61 10000 3.31 107 21:27 10.03.2022
4905 Clouds 2 1027 58 10000 3.31 107 20:45 10.03.2022
4906 Clear 3 1027 56 10000 3.59 103 19:22 10.03.2022
4907 Clear 4 1027 49 10000 3.5 103 18:30 10.03.2022
4908 Clear 7 1026 38 10000 4.16 111 16:53 10.03.2022
4909 Clear 8 1026 33 10000 4.27 116 15:41 10.03.2022
4910 Clear 9 1027 34 10000 4.06 122 14:23 10.03.2022
4911 Clear 8 1027 35 10000 3.54 127 12:46 10.03.2022
4912 Clear 7 1027 39 10000 2.92 132 11:39 10.03.2022
4913 Clear 4 1028 44 10000 2.59 136 10:19 10.03.2022
4914 Clear 1 1028 57 10000 2.11 132 08:48 10.03.2022
4915 Clear -4 1028 76 10000 1.64 133 05:50 10.03.2022
4916 Clear -4 1028 71 10000 1.63 133 03:33 10.03.2022
4917 Clear -2 1028 64 10000 1.43 136 00:23 10.03.2022
4918 Clear -2 1028 64 10000 1.47 132 22:45 09.03.2022
4919 Clear -2 1027 63 10000 1.47 132 21:48 09.03.2022
4920 Clear 0 1027 64 10000 1.35 137 20:59 09.03.2022
4921 Clear 1 1026 65 10000 1.49 135 19:28 09.03.2022
4922 Clear 4 1026 63 10000 1.42 131 18:19 09.03.2022
4923 Clear 7 1025 55 10000 1.06 127 17:26 09.03.2022
4924 Clear 9 1025 42 10000 0.96 133 16:23 09.03.2022
4925 Clear 8 1025 37 10000 0.98 155 14:27 09.03.2022
4926 Clear 8 1025 37 10000 0.98 155 13:51 09.03.2022
4927 Clear 6 1025 37 10000 1.01 164 12:27 09.03.2022
4928 Clear 6 1025 37 10000 1.01 164 11:48 09.03.2022
4929 Clear 4 1025 37 10000 1.08 171 11:18 09.03.2022
4930 Clear 1 1026 40 10000 0.95 157 09:41 09.03.2022
4931 Clear -2 1026 45 10000 0.85 163 08:47 09.03.2022
4932 Clouds -7 1026 61 10000 0.85 150 06:27 09.03.2022
4933 Clouds -3 1026 60 10000 1.13 148 01:53 09.03.2022
4934 Clouds -3 1027 60 10000 1.5 151 00:26 09.03.2022
4935 Clouds -3 1027 56 10000 1.75 126 22:46 08.03.2022
4936 Clouds -2 1026 52 10000 1.73 120 21:52 08.03.2022
4937 Clouds -3 1026 56 10000 1.78 115 21:22 08.03.2022
4938 Clouds -3 1026 56 10000 1.78 115 21:22 08.03.2022
4939 Clouds -2 1026 52 10000 1.75 117 20:22 08.03.2022
4940 Clear -1 1025 53 10000 1.85 115 19:24 08.03.2022
4941 Clear 1 1025 46 10000 1.71 122 18:23 08.03.2022
4942 Clear 4 1024 40 10000 2.58 123 16:56 08.03.2022
4943 Clear 5 1024 41 10000 3.93 122 14:58 08.03.2022
4944 Clear 5 1024 42 10000 4.61 111 13:48 08.03.2022
4945 Clear 4 1025 45 10000 3.48 113 12:28 08.03.2022
4946 Clear 3 1025 50 10000 3.48 113 11:43 08.03.2022
4947 Clear 1 1025 56 10000 2.35 101 10:29 08.03.2022
4948 Clear -2 1026 72 10000 1.5 101 08:57 08.03.2022
4949 Clear -2 1026 72 10000 1.5 101 08:57 08.03.2022
4950 Clear -5 1026 77 10000 1.28 109 06:30 08.03.2022
4951 Clouds -5 1026 76 10000 1.21 97 03:48 08.03.2022
4952 Clouds -4 1028 75 10000 1.1 64 22:53 07.03.2022
4953 Clouds -4 1028 73 10000 0.82 75 21:45 07.03.2022
4954 Clear -3 1027 72 10000 1 71 21:23 07.03.2022
4955 Clear -3 1027 72 10000 1 71 20:34 07.03.2022
4956 Clear -3 1027 70 10000 1.05 69 19:50 07.03.2022
4957 Clear -2 1027 70 10000 1.38 51 19:20 07.03.2022
4958 Clear -1 1027 63 10000 1.51 51 18:33 07.03.2022
4959 Clear 2 1027 55 10000 1.77 44 17:31 07.03.2022
4960 Clear 2 1026 49 10000 2.53 47 16:54 07.03.2022
4961 Clear 3 1026 50 10000 2.94 50 14:51 07.03.2022
4962 Clear 1 1027 58 10000 2.43 48 12:35 07.03.2022
4963 Clear 1 1027 58 10000 2.33 53 11:36 07.03.2022
4964 Clear -1 1028 64 10000 2.18 48 10:34 07.03.2022
4965 Clouds -4 1028 72 10000 1.59 41 08:35 07.03.2022
4966 Clouds -4 1028 67 10000 1.23 36 02:56 07.03.2022
4967 Clouds -5 1028 69 10000 1.38 48 00:21 07.03.2022
4968 Clouds -4 1027 66 10000 1.41 48 23:26 06.03.2022
4969 Clouds -4 1027 67 10000 1.41 48 22:30 06.03.2022
4970 Clouds -4 1027 67 10000 1.71 39 21:44 06.03.2022
4971 Clouds -4 1026 62 10000 1.82 44 20:29 06.03.2022
4972 Clouds -4 1026 62 10000 1.82 44 20:29 06.03.2022
4973 Clouds -4 1026 63 10000 1.82 44 19:48 06.03.2022
4974 Clouds -4 1026 63 10000 2.1 35 18:51 06.03.2022
4975 Clouds -4 1025 63 10000 2.34 29 17:49 06.03.2022
4976 Clouds -4 1025 63 10000 3.26 26 17:20 06.03.2022
4977 Clouds -3 1025 63 10000 3.26 26 16:40 06.03.2022
4978 Clouds -3 1025 61 10000 3.73 25 15:37 06.03.2022
4979 Clouds -3 1025 60 10000 3.56 20 14:48 06.03.2022
4980 Clouds -3 1025 63 10000 3.33 19 14:26 06.03.2022
4981 Clouds -2 1025 65 10000 2.72 23 12:40 06.03.2022
4982 Clouds -2 1025 64 10000 2.5 26 11:56 06.03.2022
4983 Clouds -2 1025 64 10000 2.16 36 10:43 06.03.2022
4984 Clouds -3 1025 72 10000 1.56 53 09:25 06.03.2022
4985 Clouds -4 1025 73 10000 1.17 45 08:28 06.03.2022
4986 Clouds -4 1025 76 10000 1.17 45 07:33 06.03.2022
4987 Clouds -4 1025 69 10000 1.01 52 03:58 06.03.2022
4988 Clear -4 1025 69 10000 0.83 71 00:42 06.03.2022
4989 Clear -4 1025 69 10000 0.73 69 00:23 06.03.2022
4990 Clear -5 1025 72 10000 0.73 78 23:19 05.03.2022
4991 Clear -4 1025 69 10000 0.73 78 22:38 05.03.2022
4992 Clear -4 1025 69 10000 1.12 104 21:31 05.03.2022
4993 Clear -3 1025 70 10000 1.45 108 20:39 05.03.2022
4994 Clouds -2 1024 64 10000 1.75 109 19:23 05.03.2022
4995 Clouds -3 1024 73 10000 1.75 109 18:50 05.03.2022
4996 Clouds 0 1023 50 10000 2.18 102 17:39 05.03.2022
4997 Clouds 1 1023 49 10000 2.71 115 16:20 05.03.2022
4998 Clouds 1 1023 49 10000 2.71 115 15:30 05.03.2022
4999 Clear 1 1023 52 10000 2.64 121 14:42 05.03.2022
5000 Clear 2 1023 50 10000 2.68 124 14:24 05.03.2022
5001 Clear 1 1023 52 10000 2.78 122 12:55 05.03.2022
5002 Clear 0 1023 57 10000 2.87 124 11:39 05.03.2022
5003 Clear 0 1024 60 10000 2.75 124 11:18 05.03.2022
5004 Clear -2 1024 76 10000 2.53 124 09:58 05.03.2022
5005 Clear -4 1024 77 10000 2.12 123 08:49 05.03.2022
5006 Clear -6 1024 79 10000 1.71 112 07:23 05.03.2022
5007 Clear -6 1024 78 10000 1.77 103 05:41 05.03.2022
5008 Clear -5 1024 84 10000 1.92 104 01:30 05.03.2022
5009 Clouds -4 1025 83 10000 1.47 108 23:35 04.03.2022
5010 Clouds -4 1025 82 10000 1.52 113 22:41 04.03.2022
5011 Clouds -4 1025 82 10000 1.49 113 21:47 04.03.2022
5012 Clouds -3 1025 80 10000 1.43 111 20:49 04.03.2022
5013 Clouds -3 1025 78 10000 1.64 109 20:21 04.03.2022
5014 Clouds -3 1025 74 10000 1.64 109 19:35 04.03.2022
5015 Clouds -3 1024 80 10000 1.92 109 18:37 04.03.2022
5016 Clouds -2 1023 71 10000 2.92 100 17:30 04.03.2022
5017 Clouds -2 1023 72 10000 3.65 83 16:43 04.03.2022
5018 Clouds -1 1023 70 10000 3.54 72 15:28 04.03.2022
5019 Clouds -1 1023 75 10000 3.32 75 14:19 04.03.2022
5020 Clouds -1 1023 74 10000 3.35 76 13:24 04.03.2022
5021 Clear -2 1023 74 10000 3.28 73 11:40 04.03.2022
5022 Clear -2 1023 71 10000 2.78 72 10:42 04.03.2022
5023 Clear -3 1023 76 10000 2.14 69 09:40 04.03.2022
5024 Clear -4 1024 79 10000 1.7 73 08:36 04.03.2022
5025 Clear -6 1023 83 10000 1.58 73 07:23 04.03.2022
5026 Clear -5 1023 83 10000 1.46 77 03:50 04.03.2022
5027 Clear -5 1023 82 10000 1.42 77 00:24 04.03.2022
5028 Clear -4 1023 82 10000 1.62 77 22:26 03.03.2022
5029 Clear -4 1023 82 10000 1.62 77 21:41 03.03.2022
5030 Clear -4 1022 82 10000 1.65 73 21:21 03.03.2022
5031 Clear -3 1022 80 10000 1.75 61 19:51 03.03.2022
5032 Clear -2 1022 79 10000 1.95 62 18:53 03.03.2022
5033 Clear -1 1021 77 10000 2.4 60 18:23 03.03.2022
5034 Clear 2 1021 67 10000 2.4 60 17:30 03.03.2022
5035 Clear 4 1020 50 10000 3.31 60 16:24 03.03.2022
5036 Clear 4 1020 44 10000 3.23 56 15:21 03.03.2022
5037 Clear 4 1020 45 10000 3.23 56 14:42 03.03.2022
5038 Clear 4 1020 46 10000 3.14 60 13:19 03.03.2022
5039 Clear 3 1020 45 10000 2.12 59 11:54 03.03.2022
5040 Clear 2 1021 50 10000 2.2 65 10:42 03.03.2022
5041 Clear -1 1021 66 10000 1.27 63 08:57 03.03.2022
5042 Clear -4 1022 70 10000 0.92 86 07:48 03.03.2022
5043 Clouds -5 1022 70 10000 1.47 58 06:35 03.03.2022
5044 Clouds -4 1023 68 10000 0.84 92 02:23 03.03.2022
5045 Clear -4 1023 71 10000 0.71 86 23:34 02.03.2022
5046 Clear -4 1024 71 10000 0.67 87 22:52 02.03.2022
5047 Clear -3 1024 68 10000 0.78 119 21:34 02.03.2022
5048 Clear -3 1024 67 10000 0.86 116 20:53 02.03.2022
5049 Clear -2 1024 66 10000 1.07 110 20:24 02.03.2022
5050 Clear -2 1024 65 10000 1.07 110 19:36 02.03.2022
5051 Clouds -1 1024 64 10000 1.33 107 18:54 02.03.2022
5052 Clouds 0 1024 56 10000 1.53 91 18:19 02.03.2022
5053 Clouds 2 1024 47 10000 1.53 91 17:34 02.03.2022
5054 Clouds 3 1023 44 10000 1.24 94 16:51 02.03.2022
5055 Clouds 5 1023 40 10000 1.13 97 14:59 02.03.2022
5056 Clouds 4 1023 43 10000 1.32 105 13:30 02.03.2022
5057 Clouds 3 1024 44 10000 1.23 88 12:45 02.03.2022
5058 Clouds 3 1025 45 10000 0.78 91 11:59 02.03.2022
5059 Clouds 2 1025 48 10000 0.54 102 11:25 02.03.2022
5060 Clouds 1 1025 54 10000 0.62 119 10:25 02.03.2022
5061 Clouds -1 1025 59 10000 0.62 119 09:31 02.03.2022
5062 Clouds -4 1026 62 10000 0.66 114 07:59 02.03.2022
5063 Clouds -4 1026 67 10000 0.84 105 07:23 02.03.2022
5064 Clouds -4 1027 63 10000 0.5 86 03:56 02.03.2022
5065 Clouds -3 1029 64 10000 0.85 175 00:40 02.03.2022
5066 Clouds -3 1029 66 10000 1.01 167 22:53 01.03.2022
5067 Clouds -3 1029 66 10000 1.01 167 22:35 01.03.2022
5068 Clouds -3 1030 64 10000 0.91 165 21:26 01.03.2022
5069 Clouds -2 1030 63 10000 0.91 165 20:37 01.03.2022
5070 Clouds -2 1030 63 10000 0.81 189 20:19 01.03.2022
5071 Clouds -2 1029 61 10000 0.75 171 18:52 01.03.2022
5072 Clouds -1 1029 59 10000 0.83 150 18:21 01.03.2022
5073 Clouds 0 1029 56 10000 0.83 150 17:39 01.03.2022
5074 Clouds 2 1029 43 10000 0.9 163 16:36 01.03.2022
5075 Clouds 3 1029 40 10000 1.19 174 15:47 01.03.2022
5076 Clouds 3 1030 38 10000 1.57 209 14:53 01.03.2022
5077 Clouds 3 1030 38 10000 1.57 209 14:31 01.03.2022
5078 Clouds 3 1030 48 10000 2.18 191 13:26 01.03.2022
5079 Clouds 2 1030 43 10000 1.98 186 12:36 01.03.2022
5080 Clear 0 1031 46 10000 2.14 185 10:57 01.03.2022
5081 Clear -2 1032 51 10000 2.16 187 09:43 01.03.2022
5082 Clear -5 1032 60 10000 1.63 171 08:20 01.03.2022
5083 Clear -5 1032 63 10000 1.79 171 06:47 01.03.2022
5084 Clear -5 1033 65 10000 1.79 163 03:26 01.03.2022
5085 Clear -4 1033 63 10000 2.06 154 00:48 01.03.2022
5086 Clear -4 1034 64 10000 1.95 146 23:46 28.02.2022
5087 Clear -4 1034 66 10000 2.04 137 22:43 28.02.2022
5088 Clear -3 1034 68 10000 2.28 133 21:47 28.02.2022
5089 Clear -3 1034 69 10000 2.41 130 20:54 28.02.2022
5090 Clear -3 1034 77 10000 2.51 127 19:51 28.02.2022
5091 Clear -2 1034 75 10000 2.54 122 18:56 28.02.2022
5092 Clear -1 1033 75 10000 2.54 117 17:43 28.02.2022
5093 Clear 0 1033 75 10000 2.85 120 17:23 28.02.2022
5094 Clear 2 1032 66 10000 3.18 123 16:25 28.02.2022
5095 Clear 3 1033 59 10000 2.84 123 14:33 28.02.2022
5096 Clear 3 1033 64 10000 2.39 124 13:56 28.02.2022
5097 Clear 3 1033 59 10000 2.29 127 13:24 28.02.2022
5098 Clear 2 1033 64 10000 2.26 128 12:29 28.02.2022
5099 Clear 1 1034 62 10000 2.11 129 11:20 28.02.2022
5100 Clear 0 1034 72 10000 2.2 127 10:23 28.02.2022
5101 Clear 0 1034 74 10000 2.2 127 09:51 28.02.2022
5102 Clear -3 1034 79 10000 1.72 130 09:24 28.02.2022
5103 Clear -3 1034 79 10000 1.72 130 09:24 28.02.2022
5104 Clear -5 1034 82 10000 1.17 139 08:22 28.02.2022
5105 Clear -5 1034 82 10000 1.17 139 08:22 28.02.2022
5106 Clear -6 1034 79 10000 1.47 131 06:44 28.02.2022
5107 Clear -5 1034 79 10000 1.46 132 04:31 28.02.2022
5108 Clear -5 1035 76 10000 1.47 129 01:42 28.02.2022
5109 Clear -3 1035 74 10000 2.07 125 22:57 27.02.2022
5110 Clear -3 1035 75 10000 2.07 125 22:32 27.02.2022
5111 Clear -3 1035 72 10000 2.19 117 21:42 27.02.2022
5112 Clear -2 1035 71 10000 2.13 109 20:54 27.02.2022
5113 Clear -2 1035 71 10000 2.18 110 20:25 27.02.2022
5114 Clear -2 1035 68 10000 2.18 110 19:50 27.02.2022
5115 Clear -2 1035 70 10000 2.2 109 19:26 27.02.2022
5116 Clear -1 1035 66 10000 2.23 108 18:39 27.02.2022
5117 Clear 1 1035 61 10000 2.27 105 17:53 27.02.2022
5118 Clear 3 1034 52 10000 2.76 105 16:36 27.02.2022
5119 Clear 4 1034 50 10000 3.37 110 15:42 27.02.2022
5120 Clear 3 1035 60 10000 4.42 124 12:53 27.02.2022
5121 Clear 2 1035 64 10000 4.06 121 12:29 27.02.2022
5122 Clear 1 1036 69 10000 3.93 120 10:47 27.02.2022
5123 Clear 0 1036 78 10000 3.56 117 09:58 27.02.2022
5124 Clear -1 1036 79 10000 3.07 109 09:27 27.02.2022
5125 Clear -2 1036 81 10000 3.07 109 08:59 27.02.2022
5126 Clouds -4 1036 83 10000 1.87 105 06:43 27.02.2022
5127 Clouds -4 1036 83 10000 1.65 106 05:35 27.02.2022
5128 Clouds -3 1036 81 10000 1.96 114 00:37 27.02.2022
5129 Clear -3 1036 83 10000 1.64 96 22:56 26.02.2022
5130 Clear -3 1036 83 10000 1.5 81 21:39 26.02.2022
5131 Clear -2 1036 83 10000 1.35 80 20:48 26.02.2022
5132 Clear -2 1035 83 10000 1.36 67 20:19 26.02.2022
5133 Clear -2 1035 84 10000 1.36 67 19:41 26.02.2022
5134 Clouds -1 1035 81 10000 1.49 52 19:19 26.02.2022
5135 Clouds 1 1034 74 10000 1.18 4 17:45 26.02.2022
5136 Clouds 3 1034 64 10000 1.49 352 16:51 26.02.2022
5137 Clouds 3 1034 62 10000 2.13 357 15:57 26.02.2022
5138 Clouds 4 1034 59 10000 2.27 348 15:23 26.02.2022
5139 Clouds 4 1034 60 10000 2.27 348 14:54 26.02.2022
5140 Clouds 4 1034 59 10000 2.27 348 14:33 26.02.2022
5141 Clouds 3 1034 66 10000 2.54 332 13:19 26.02.2022
5142 Clouds 2 1034 71 10000 2.76 323 12:29 26.02.2022
5143 Clouds 1 1034 79 10000 2.87 318 11:28 26.02.2022
5144 Clouds 1 1034 79 10000 2.87 318 10:49 26.02.2022
5145 Clouds -1 1034 84 10000 2.78 320 08:55 26.02.2022
5146 Clouds -1 1033 85 10000 3.39 327 07:37 26.02.2022
5147 Clouds -2 1028 87 10000 5.29 302 01:27 26.02.2022
5148 Clouds -1 1026 88 10000 5.7 300 22:55 25.02.2022
5149 Clouds -1 1025 88 10000 5.81 301 21:44 25.02.2022
5150 Clouds -1 1024 89 10000 5.95 301 21:25 25.02.2022
5151 Clouds -1 1024 90 10000 5.95 301 20:33 25.02.2022
5152 Clouds -1 1024 90 10000 5.95 301 20:33 25.02.2022
5153 Snow -1 1022 88 3087 5.61 289 19:18 25.02.2022
5154 Clouds -2 1020 86 10000 6.36 271 17:30 25.02.2022
5155 Clouds -1 1020 87 10000 6.38 271 16:35 25.02.2022
5156 Snow 0 1019 78 10000 6.65 269 15:48 25.02.2022
5157 Snow 0 1019 82 5262 6.43 268 15:22 25.02.2022
5158 Snow 1 1019 76 5262 6.43 268 14:42 25.02.2022
5159 Snow -1 1019 84 6387 6.3 273 13:51 25.02.2022
5160 Snow -1 1018 85 62 6.54 248 13:19 25.02.2022
5161 Clouds 0 1018 71 10000 6.53 234 11:28 25.02.2022
5162 Clouds 0 1018 71 10000 6.53 234 10:48 25.02.2022
5163 Clouds 0 1018 71 10000 6.47 238 10:22 25.02.2022
5164 Clouds -1 1018 76 10000 6.47 238 09:30 25.02.2022
5165 Clouds -2 1018 77 10000 5.87 244 07:44 25.02.2022
5166 Clouds -2 1017 78 10000 6.63 255 05:58 25.02.2022
5167 Clouds -2 1017 79 10000 6.63 255 05:31 25.02.2022
5168 Clouds -1 1013 83 10000 6.06 261 00:27 25.02.2022
5169 Snow -1 1011 85 10000 6.48 274 22:20 24.02.2022
5170 Snow -1 1011 84 10000 6.48 274 21:42 24.02.2022
5171 Snow -1 1010 83 8047 6.95 276 21:20 24.02.2022
5172 Snow 0 1010 80 8047 6.95 276 20:30 24.02.2022
5173 Clouds 5 1005 69 10000 9.65 232 18:52 24.02.2022
5174 Clouds 5 1005 67 10000 8.42 221 18:19 24.02.2022
5175 Clouds 5 1005 66 10000 8.42 221 17:42 24.02.2022
5176 Clouds 6 1005 69 10000 8.42 227 16:56 24.02.2022
5177 Clouds 6 1006 66 10000 7.6 219 16:25 24.02.2022
5178 Clouds 6 1006 66 10000 7.6 219 16:25 24.02.2022
5179 Clouds 6 1007 66 10000 7.05 217 15:31 24.02.2022
5180 Clouds 6 1007 64 10000 7.07 217 14:43 24.02.2022
5181 Clouds 6 1008 62 10000 6.74 219 13:45 24.02.2022
5182 Clouds 6 1009 61 10000 6.39 216 13:27 24.02.2022
5183 Clouds 4 1012 67 10000 4.95 214 10:48 24.02.2022
5184 Clouds 4 1013 64 10000 4.45 214 09:42 24.02.2022
5185 Clouds 3 1014 65 10000 3.96 216 08:43 24.02.2022
5186 Clouds 3 1014 65 10000 3.96 216 08:43 24.02.2022
5187 Clouds 2 1015 65 10000 3.8 212 06:27 24.02.2022
5188 Clouds 2 1015 63 10000 3.8 212 05:37 24.02.2022
5189 Clouds 0 1020 74 10000 2.95 200 00:30 24.02.2022
5190 Clouds 0 1020 74 10000 2.95 200 00:30 24.02.2022
5191 Clouds 0 1022 86 10000 2.77 202 21:56 23.02.2022
5192 Clear 1 1022 72 10000 2.47 198 20:33 23.02.2022
5193 Clouds 1 1023 82 10000 2.48 200 19:56 23.02.2022
5194 Clear 2 1023 66 10000 2.87 210 18:59 23.02.2022
5195 Clear 4 1023 51 10000 2.49 214 17:47 23.02.2022
5196 Clear 6 1024 49 10000 4.04 248 16:18 23.02.2022
5197 Clouds 5 1025 57 10000 5.83 262 13:36 23.02.2022
5198 Clouds 4 1025 67 10000 5.65 261 12:29 23.02.2022
5199 Clouds 3 1026 74 10000 5.54 263 10:55 23.02.2022
5200 Clouds 2 1025 77 10000 5.22 266 09:38 23.02.2022
5201 Clouds 1 1025 77 10000 4.96 270 08:54 23.02.2022
5202 Clouds 1 1024 79 10000 5.27 273 07:47 23.02.2022
5203 Clouds 1 1018 82 7990 6.63 287 02:23 23.02.2022
5204 Clouds 2 1015 81 10000 7.62 289 23:50 22.02.2022
5205 Clouds 2 1014 83 10000 6.83 295 23:31 22.02.2022
5206 Clouds 3 1012 89 4236 8.47 278 22:28 22.02.2022
5207 Clouds 3 1012 89 4236 8.47 278 21:44 22.02.2022
5208 Clouds 3 1011 89 3151 6.96 240 21:20 22.02.2022
5209 Clouds 3 1011 87 3151 6.96 240 20:41 22.02.2022
5210 Clouds 3 1012 87 2083 6.87 237 20:22 22.02.2022
5211 Clouds 2 1012 86 2083 6.87 237 19:34 22.02.2022
5212 Clouds 2 1012 85 5102 6.81 235 18:35 22.02.2022
5213 Snow 2 1013 83 5118 6.8 233 17:34 22.02.2022
5214 Clouds 2 1013 80 2409 5.54 230 16:57 22.02.2022
5215 Clouds 3 1014 75 10000 5.57 232 16:22 22.02.2022
5216 Clouds 3 1014 67 10000 5.57 232 15:31 22.02.2022
5217 Clouds 3 1016 69 10000 5.29 254 14:33 22.02.2022
5218 Clouds 2 1017 72 10000 6 264 11:39 22.02.2022
5219 Clouds 0 1017 81 10000 6.19 282 09:48 22.02.2022
5220 Clouds -1 1016 82 8561 5.93 292 07:38 22.02.2022
5221 Clouds -1 1014 83 8818 6.38 297 07:19 22.02.2022
5222 Clouds -1 1014 83 8818 6.38 297 07:19 22.02.2022
5223 Snow 0 1010 89 1878 7.73 299 02:51 22.02.2022
5224 Snow 0 1007 87 283 6.74 286 23:48 21.02.2022
5225 Snow 0 1005 85 2060 6.59 281 22:37 21.02.2022
5226 Snow 0 1003 84 6360 6.98 296 21:23 21.02.2022
5227 Snow 0 998 87 2722 7.95 314 19:36 21.02.2022
5228 Snow 0 996 90 2858 7.84 307 18:39 21.02.2022
5229 Snow -1 994 87 134 8.14 243 16:37 21.02.2022
5230 Snow -1 996 85 6387 8.67 223 14:24 21.02.2022
5231 Snow 0 996 78 6387 8.67 223 13:55 21.02.2022
5232 Snow 1 997 65 9772 9.42 237 12:57 21.02.2022
5233 Clouds 1 998 69 9684 8.73 241 12:21 21.02.2022
5234 Snow 0 998 74 5917 8.08 245 10:32 21.02.2022
5235 Snow -1 997 84 6064 8.64 260 07:52 21.02.2022
5236 Clouds 5 991 85 7154 11.27 226 00:36 21.02.2022
5237 Clouds 4 994 88 2658 10.74 224 22:40 20.02.2022
5238 Clouds 4 996 87 3131 10.23 224 21:54 20.02.2022
5239 Clouds 4 998 88 2018 9.7 226 21:25 20.02.2022
5240 Clouds 4 998 87 2018 9.7 226 20:50 20.02.2022
5241 Clouds 4 1000 87 2413 8.95 228 19:59 20.02.2022
5242 Clouds 4 1001 87 2024 8.3 232 18:57 20.02.2022
5243 Clouds 4 1001 87 2114 8.31 232 18:37 20.02.2022
5244 Clouds 4 1002 87 2502 8.37 235 17:56 20.02.2022
5245 Clouds 4 1002 87 2147 8.42 238 17:24 20.02.2022
5246 Clouds 4 1004 87 3327 8.59 238 15:29 20.02.2022
5247 Clouds 4 1005 86 3021 8.67 239 14:20 20.02.2022
5248 Clouds 3 1006 86 3032 8.69 235 12:51 20.02.2022
5249 Clouds 2 1007 84 1057 8.67 231 11:56 20.02.2022
5250 Snow 1 1010 82 3206 4.61 222 10:21 20.02.2022
5251 Snow 1 1010 80 3206 4.61 222 09:52 20.02.2022
5252 Clouds 0 1010 85 9299 6.84 265 06:44 20.02.2022
5253 Snow -1 1005 84 402 9 225 00:33 20.02.2022
5254 Snow -1 1007 81 2201 7.13 211 23:42 19.02.2022
5255 Clouds 0 1010 79 10000 6.46 214 22:25 19.02.2022
5256 Clouds 1 1010 74 10000 6.46 214 21:54 19.02.2022
5257 Clouds 1 1011 66 10000 6.04 219 20:48 19.02.2022
5258 Clouds 1 1012 50 10000 5.21 219 19:41 19.02.2022
5259 Clouds 1 1012 52 10000 5.49 232 18:41 19.02.2022
5260 Clouds 2 1012 52 10000 6.14 244 18:19 19.02.2022
5261 Clouds 2 1012 51 10000 6.14 244 17:33 19.02.2022
5262 Clouds 3 1012 53 10000 7.22 252 16:21 19.02.2022
5263 Clouds 2 1012 55 10000 7.54 256 14:56 19.02.2022
5264 Clouds 2 1012 54 10000 7.26 254 13:59 19.02.2022
5265 Snow 1 1012 63 4778 8.29 255 11:59 19.02.2022
5266 Snow 1 1012 65 4778 8.29 255 11:36 19.02.2022
5267 Snow 0 1010 68 4489 8.35 256 09:34 19.02.2022
5268 Snow 0 1006 63 8116 10.08 257 06:52 19.02.2022
5269 Clouds 2 1000 55 10000 12.08 248 01:39 19.02.2022
5270 Clouds 2 997 71 8570 12.13 248 22:54 18.02.2022
5271 Clouds 4 996 60 7899 12.53 249 21:30 18.02.2022
5272 Clouds 4 995 65 8739 13.4 248 20:33 18.02.2022
5273 Clear 5 993 61 10000 13.23 243 19:51 18.02.2022
5274 Clouds 5 992 76 10000 11.54 236 18:49 18.02.2022
5275 Clouds 5 992 81 6559 11.48 241 18:19 18.02.2022
5276 Clouds 8 992 78 10000 9.48 221 17:25 18.02.2022
5277 Clouds 5 995 87 5396 8.77 222 14:48 18.02.2022
5278 Clouds 4 996 89 5865 7.82 215 13:54 18.02.2022
5279 Clouds 3 999 87 5308 6.39 208 12:51 18.02.2022
5280 Clouds 2 1001 85 5179 6.39 195 11:58 18.02.2022
5281 Clouds 2 1001 85 5179 6.39 195 11:58 18.02.2022
5282 Clouds 2 1003 83 3814 4.98 191 11:21 18.02.2022
5283 Clouds 2 1005 78 10000 4.02 196 09:33 18.02.2022
5284 Clouds 1 1009 79 10000 3.77 232 06:52 18.02.2022
5285 Clouds 1 1010 79 10000 4.33 246 05:38 18.02.2022
5286 Clouds 2 1010 66 10000 6.96 264 22:47 17.02.2022
5287 Clouds 2 1009 67 10000 7.78 273 21:43 17.02.2022
5288 Clouds 2 1008 71 10000 8.51 271 20:59 17.02.2022
5289 Clouds 1 1008 71 10000 8.51 271 20:34 17.02.2022
5290 Clouds 1 1008 72 10000 8.78 274 19:48 17.02.2022
5291 Clouds 2 1006 69 10000 8.75 272 18:38 17.02.2022
5292 Clouds 2 1005 71 10000 9.49 275 17:48 17.02.2022
5293 Clouds 4 1003 52 10000 9.77 276 16:20 17.02.2022
5294 Clouds 5 1001 51 10000 9.7 277 15:26 17.02.2022
5295 Clouds 4 1001 60 10000 10.2 276 14:20 17.02.2022
5296 Clouds 4 1000 65 10000 11.06 276 12:24 17.02.2022
5297 Clouds 4 998 64 9988 11.02 276 11:21 17.02.2022
5298 Clouds 3 995 72 10000 12.02 273 08:43 17.02.2022
5299 Clouds 8 988 90 10000 11.91 245 00:29 17.02.2022
5300 Clouds 7 989 89 6350 10.84 242 22:41 16.02.2022
5301 Clouds 7 991 86 6979 9.06 224 21:25 16.02.2022
5302 Clouds 7 993 85 10000 8.81 237 19:43 16.02.2022
5303 Clouds 6 995 87 10000 8.96 240 18:36 16.02.2022
5304 -273 0 0 0 0 0 17:39 16.02.2022
5305 Clouds 6 995 87 10000 8.15 239 17:36 16.02.2022
5306 Clouds 5 996 84 5098 7.53 236 15:30 16.02.2022
5307 Clouds 5 996 83 5153 8.13 240 14:57 16.02.2022
5308 Clouds 4 997 83 7850 8.91 226 12:34 16.02.2022
5309 Clouds 4 998 89 8004 9.4 224 11:53 16.02.2022
5310 Clouds 3 998 89 3040 8.41 216 11:23 16.02.2022
5311 Clouds 3 999 88 5331 7.98 215 10:29 16.02.2022
5312 Clouds 2 1002 86 3119 7.3 219 06:57 16.02.2022
5313 Snow 2 1004 85 2919 6.66 219 04:42 16.02.2022
5314 Snow 2 1008 78 3947 7.38 219 23:35 15.02.2022
5315 Clouds 2 1009 65 10000 6.78 213 22:18 15.02.2022
5316 Clouds 2 1009 66 10000 6.78 213 21:45 15.02.2022
5317 Clouds 2 1010 66 10000 6.07 210 21:26 15.02.2022
5318 Clouds 2 1010 68 10000 6.07 210 20:53 15.02.2022
5319 Clouds 2 1010 69 10000 5.53 214 19:48 15.02.2022
5320 Clouds 2 1011 68 10000 4.85 217 18:52 15.02.2022
5321 Clouds 2 1011 71 10000 4.32 221 18:19 15.02.2022
5322 Clouds 3 1011 66 10000 4.32 221 17:48 15.02.2022
5323 Clouds 4 1011 66 10000 4.55 231 16:30 15.02.2022
5324 Clouds 5 1011 68 10000 5.11 242 15:22 15.02.2022
5325 Clouds 4 1011 71 10000 2.84 230 13:26 15.02.2022
5326 Clouds 4 1012 72 10000 3.29 232 11:57 15.02.2022
5327 Clouds 3 1011 78 10000 3.2 237 10:58 15.02.2022
5328 Clouds 2 1011 90 10000 3.23 238 09:28 15.02.2022
5329 Clouds 2 1010 81 8421 3.57 237 06:50 15.02.2022
5330 Clouds 2 1008 75 10000 2.92 219 02:36 15.02.2022
5331 Clouds 3 1007 95 10000 3.44 213 22:26 14.02.2022
5332 Clouds 3 1007 95 10000 3.44 213 21:35 14.02.2022
5333 Clouds 4 1006 95 10000 3.13 217 20:30 14.02.2022
5334 Clouds 4 1006 95 10000 3.34 220 19:32 14.02.2022
5335 Clouds 5 1006 81 10000 3.75 221 18:30 14.02.2022
5336 Clouds 5 1005 92 10000 3.92 219 17:58 14.02.2022
5337 Clouds 6 1005 72 10000 4.86 217 17:24 14.02.2022
5338 Clouds 6 1004 63 10000 4.87 210 16:19 14.02.2022
5339 Clouds 7 1004 64 10000 5.9 216 13:54 14.02.2022
5340 Clouds 8 1004 57 10000 5.67 213 13:26 14.02.2022
5341 Clouds 7 1004 62 10000 6.02 214 12:33 14.02.2022
5342 Clouds 5 1004 63 10000 5.92 212 11:54 14.02.2022
5343 Clouds 4 1005 63 10000 6.58 210 10:37 14.02.2022
5344 Clouds 3 1005 66 10000 5.3 205 08:45 14.02.2022
5345 Clouds 2 1005 76 10000 4 190 07:31 14.02.2022
5346 Clouds 2 1008 61 10000 4.17 188 01:18 14.02.2022
5347 Clouds 1 1010 59 10000 4.79 196 22:42 13.02.2022
5348 Clouds 2 1010 59 10000 4.66 196 22:24 13.02.2022
5349 Clouds 1 1010 81 10000 4.66 196 21:32 13.02.2022
5350 Clouds 2 1011 64 10000 4.55 197 20:35 13.02.2022
5351 Clouds 2 1011 65 10000 4.29 193 19:45 13.02.2022
5352 Clouds 2 1012 67 10000 3.86 194 18:49 13.02.2022
5353 Clouds 2 1012 86 10000 3.76 193 18:28 13.02.2022
5354 Clouds 5 1013 53 10000 4.56 210 15:54 13.02.2022
5355 Clouds 5 1013 56 10000 4.97 214 15:24 13.02.2022
5356 Clouds 5 1013 54 10000 4.97 214 14:31 13.02.2022
5357 Clouds 2 1015 55 10000 4.74 218 12:51 13.02.2022
5358 Clouds 1 1016 60 10000 4.13 216 11:44 13.02.2022
5359 Clouds -1 1017 64 10000 3.98 209 10:34 13.02.2022
5360 Clouds -2 1018 67 10000 3.43 215 09:46 13.02.2022
5361 Clouds -4 1019 73 10000 2.6 190 07:51 13.02.2022
5362 Clouds -3 1023 77 10000 2.31 191 00:36 13.02.2022
5363 Clouds -3 1024 76 10000 2.42 190 23:53 12.02.2022
5364 Clouds -4 1024 85 10000 2.57 188 22:33 12.02.2022
5365 Clouds -3 1025 86 10000 2.53 191 21:31 12.02.2022
5366 Clouds -3 1025 84 10000 2.63 191 20:52 12.02.2022
5367 Clouds -2 1026 73 10000 2.85 189 19:47 12.02.2022
5368 Clouds -2 1026 71 10000 2.68 186 18:53 12.02.2022
5369 Clouds -2 1026 72 10000 2.9 187 18:35 12.02.2022
5370 Clouds -2 1027 67 10000 2.17 183 17:37 12.02.2022
5371 Clouds 0 1027 61 10000 2.56 186 16:43 12.02.2022
5372 Clouds 1 1027 59 10000 3.38 191 15:52 12.02.2022
5373 Clouds 1 1028 58 10000 3.53 194 14:55 12.02.2022
5374 Clouds 1 1028 58 10000 3.53 194 14:55 12.02.2022
5375 Clouds 1 1029 57 10000 3.62 196 14:25 12.02.2022
5376 Clouds -1 1032 82 10000 2.93 201 11:20 12.02.2022
5377 Clouds -2 1032 74 10000 2.2 194 10:28 12.02.2022
5378 Clouds -4 1032 79 10000 2.2 194 09:33 12.02.2022
5379 Clouds -5 1033 80 10000 1.6 186 08:46 12.02.2022
5380 Clouds -5 1034 79 10000 1.01 177 06:46 12.02.2022
5381 Clouds -5 1035 80 10000 0.89 190 04:38 12.02.2022
5382 Clouds -5 1035 82 10000 0.84 202 02:19 12.02.2022
5383 Clouds -4 1035 88 10000 1.15 290 23:20 11.02.2022
5384 Clouds -4 1034 87 10000 1.78 296 22:20 11.02.2022
5385 Clouds -3 1033 82 10000 2.88 312 21:18 11.02.2022
5386 Clouds -3 1032 77 10000 4.22 313 20:26 11.02.2022
5387 Snow -2 1031 77 10000 4.43 319 19:28 11.02.2022
5388 Snow -1 1029 82 1932 5.33 317 18:29 11.02.2022
5389 Clouds -1 1028 84 3562 5.26 322 17:26 11.02.2022
5390 Clouds -1 1028 86 3562 5.26 322 16:39 11.02.2022
5391 Snow 0 1024 90 1939 6.38 307 15:19 11.02.2022
5392 Snow 0 1024 89 1851 6.33 307 14:37 11.02.2022
5393 Snow 0 1022 87 131 6.4 284 14:19 11.02.2022
5394 Snow 0 1022 86 131 6.4 284 13:40 11.02.2022
5395 Snow 0 1022 86 38 5.35 255 12:45 11.02.2022
5396 Snow 0 1021 85 5175 5.9 254 10:49 11.02.2022
5397 Snow -1 1021 86 2081 5.69 253 09:32 11.02.2022
5398 Snow -2 1021 85 108 4.89 230 08:31 11.02.2022
5399 Clouds -2 1020 83 8911 5.11 247 07:40 11.02.2022
5400 Clouds -2 1020 86 5478 4.07 251 05:34 11.02.2022
5401 Snow -1 1020 87 10000 3.18 277 02:21 11.02.2022
5402 Snow -1 1020 89 3026 1.96 277 23:45 10.02.2022
5403 Snow 0 1020 87 1292 2.09 264 22:25 10.02.2022
5404 Snow 1 1020 85 1292 2.09 264 21:40 10.02.2022
5405 Snow 1 1020 86 5002 2.65 260 20:50 10.02.2022
5406 Clouds 1 1020 84 5757 3.04 261 19:51 10.02.2022
5407 Snow 1 1020 82 5058 3.06 259 19:22 10.02.2022
5408 Snow 1 1019 85 1687 1.57 270 18:22 10.02.2022
5409 Snow 1 1019 85 1955 1.53 281 17:21 10.02.2022
5410 Snow 2 1019 85 1955 1.53 281 16:39 10.02.2022
5411 Clouds 2 1019 84 1034 2.51 288 15:40 10.02.2022
5412 Clouds 2 1018 84 4524 2.93 272 15:21 10.02.2022
5413 Clouds 2 1018 79 4524 2.93 272 14:35 10.02.2022
5414 Clouds 2 1018 85 3257 3.52 254 13:40 10.02.2022
5415 Clouds 3 1018 85 5669 3.54 245 13:19 10.02.2022
5416 Clouds 3 1018 76 8069 3.67 243 11:52 10.02.2022
5417 Clouds 3 1018 76 8069 3.67 243 11:30 10.02.2022
5418 Clouds 3 1018 79 10000 3.75 233 10:23 10.02.2022
5419 Clouds 3 1018 79 10000 3.75 233 09:44 10.02.2022
5420 Clouds 2 1018 79 10000 2.86 219 08:40 10.02.2022
5421 Clouds 2 1019 83 10000 2.04 199 06:33 10.02.2022
5422 Clouds 3 1022 77 10000 1.48 207 02:43 10.02.2022
5423 Clouds 3 1023 79 10000 1.98 217 00:56 10.02.2022
5424 Clouds 4 1023 76 10000 1.98 217 00:38 10.02.2022
5425 Clouds 4 1023 76 10000 2.16 221 00:20 10.02.2022
5426 Clouds 4 1024 77 10000 2.14 223 22:54 09.02.2022
5427 Clouds 4 1024 78 10000 2.14 223 22:30 09.02.2022
5428 Clouds 4 1024 78 10000 2.19 230 21:47 09.02.2022
5429 Clouds 4 1024 78 10000 2.44 239 21:27 09.02.2022
5430 Clouds 4 1024 77 10000 2.44 239 20:43 09.02.2022
5431 Clouds 4 1024 77 10000 2.87 245 20:22 09.02.2022
5432 Clouds 4 1024 77 10000 2.87 245 19:41 09.02.2022
5433 Clouds 4 1024 78 10000 3.49 247 18:38 09.02.2022
5434 Clouds 5 1024 77 10000 4.98 254 16:57 09.02.2022
5435 Clouds 5 1024 76 10000 5.7 259 16:20 09.02.2022
5436 Clouds 5 1024 76 10000 5.95 261 15:23 09.02.2022
5437 Clouds 5 1024 78 10000 5.99 254 12:53 09.02.2022
5438 Clouds 5 1024 81 10000 5.9 250 11:36 09.02.2022
5439 Clouds 4 1024 82 10000 5.32 246 10:34 09.02.2022
5440 Clouds 4 1024 82 10000 5.14 242 09:50 09.02.2022
5441 Clouds 4 1025 83 10000 4.79 244 09:22 09.02.2022
5442 Clouds 4 1025 83 10000 4.79 244 08:45 09.02.2022
5443 Clouds 4 1025 79 10000 4.63 248 06:52 09.02.2022
5444 Clouds 4 1025 80 10000 4.73 243 04:30 09.02.2022
5445 Clouds 4 1026 81 7415 4.7 238 03:48 09.02.2022
5446 Clouds 4 1026 90 6050 4.59 242 23:45 08.02.2022
5447 Clouds 4 1026 91 7212 4.65 245 23:19 08.02.2022
5448 Clouds 4 1026 91 7212 4.65 245 23:19 08.02.2022
5449 Clouds 4 1026 86 7212 4.65 245 22:38 08.02.2022
5450 Clouds 4 1026 87 7055 4.62 245 22:38 08.02.2022
5451 Clouds 4 1026 88 6036 4.62 249 22:20 08.02.2022
5452 Clouds 4 1026 86 6071 4.87 252 21:22 08.02.2022
5453 Clouds 4 1026 84 6071 4.87 252 20:58 08.02.2022
5454 Clouds 4 1026 84 6071 4.87 252 20:38 08.02.2022
5455 Clouds 4 1025 83 10000 5.32 255 19:28 08.02.2022
5456 Clouds 4 1025 85 9173 5.88 259 18:24 08.02.2022
5457 Clouds 5 1025 79 9173 5.88 259 17:30 08.02.2022
5458 Clouds 5 1024 81 8486 6.21 254 15:47 08.02.2022
5459 Clouds 5 1024 82 10000 6.45 251 15:27 08.02.2022
5460 Clouds 4 1024 82 8758 6.29 249 13:50 08.02.2022
5461 Clouds 3 1024 81 5117 5.7 245 12:24 08.02.2022
5462 Clouds 2 1024 85 5125 5.79 249 10:52 08.02.2022
5463 Clouds 2 1024 86 5152 6 251 09:49 08.02.2022
5464 Clouds 1 1024 86 5180 5.38 245 08:53 08.02.2022
5465 Clouds 1 1024 86 5180 5.38 245 08:53 08.02.2022
5466 Clouds 0 1024 89 5437 4.76 236 06:49 08.02.2022
5467 Clouds 0 1025 83 10000 4.26 233 04:40 08.02.2022
5468 Clouds 0 1025 82 10000 4.22 233 04:22 08.02.2022
5469 Clouds 0 1025 80 10000 4.22 233 03:36 08.02.2022
5470 Clouds 0 1026 79 10000 4.23 236 03:18 08.02.2022
5471 Clouds -1 1026 79 10000 4.23 236 02:59 08.02.2022
5472 Clouds -1 1026 79 10000 4.23 236 02:36 08.02.2022
5473 Clouds -1 1026 80 10000 4.21 242 02:18 08.02.2022
5474 Clouds -1 1026 79 10000 4.21 242 01:44 08.02.2022
5475 Clouds -1 1026 79 10000 4.54 251 01:25 08.02.2022
5476 Clouds -1 1026 79 10000 4.54 251 00:55 08.02.2022
5477 Clouds -1 1026 82 10000 4.82 259 00:21 08.02.2022
5478 Clouds -1 1026 83 10000 4.83 259 23:44 07.02.2022
5479 Clouds -1 1026 83 10000 4.83 259 23:44 07.02.2022
5480 Clouds -1 1026 84 10000 5.18 266 23:18 07.02.2022
5481 Clouds -1 1026 83 10000 5.18 266 22:59 07.02.2022
5482 Clouds -1 1026 83 10000 5.35 273 22:19 07.02.2022
5483 Clouds -1 1026 82 10000 5.35 273 21:51 07.02.2022
5484 Clouds -1 1025 83 10000 5.57 279 21:27 07.02.2022
5485 Clouds -1 1025 82 10000 5.57 279 20:45 07.02.2022
5486 Clouds -1 1024 82 10000 5.45 288 20:27 07.02.2022
5487 Clouds -1 1024 85 10000 5.45 288 19:47 07.02.2022
5488 Clouds -1 1024 86 10000 5.64 296 18:37 07.02.2022
5489 Snow -1 1023 86 10000 6.54 298 17:33 07.02.2022
5490 Snow -1 1022 80 9133 6.69 295 16:52 07.02.2022
5491 Snow -1 1021 83 10000 6.85 295 15:48 07.02.2022
5492 Snow 0 1019 82 10000 7.22 296 14:19 07.02.2022
5493 Snow 2 1019 69 10000 7.55 300 13:27 07.02.2022
5494 Snow 1 1019 74 10000 7.55 300 12:35 07.02.2022
5495 Snow 1 1017 79 7731 7.73 301 11:50 07.02.2022
5496 Snow 0 1016 85 7354 7.74 304 11:24 07.02.2022
5497 Snow 0 1016 82 7354 7.74 304 10:42 07.02.2022
5498 Snow 0 1015 82 7039 7.09 304 10:24 07.02.2022
5499 Snow -1 1015 83 7039 7.09 304 09:52 07.02.2022
5500 Snow -1 1013 84 5534 7.07 307 09:18 07.02.2022
5501 Snow -1 1011 85 1305 6.94 301 07:53 07.02.2022
5502 Snow -2 1010 86 4071 7.61 299 06:34 07.02.2022
5503 Clouds -2 1006 87 10000 7.54 283 05:18 07.02.2022
5504 Snow -2 1003 85 10000 7.38 291 02:38 07.02.2022
5505 Snow -1 997 82 70 7.64 284 00:24 07.02.2022
5506 Snow -1 997 86 70 7.64 284 23:33 06.02.2022
5507 Snow -1 996 89 66 7.13 267 22:45 06.02.2022
5508 Snow -1 996 88 738 5.38 253 21:47 06.02.2022
5509 Snow 0 996 82 2852 4.93 250 21:21 06.02.2022
5510 Snow 0 996 82 2852 4.93 250 21:21 06.02.2022
5511 Snow 0 996 82 2852 4.93 250 21:21 06.02.2022
5512 Snow 1 996 83 2852 4.93 250 20:48 06.02.2022
5513 Snow 1 997 84 1938 4.65 254 20:24 06.02.2022
5514 Snow 0 997 85 1938 4.65 254 19:30 06.02.2022
5515 Snow 1 996 86 883 5.2 259 18:34 06.02.2022
5516 Clouds 0 996 84 10000 7.51 269 17:39 06.02.2022
5517 Snow 1 995 88 5515 9.55 285 16:52 06.02.2022
5518 Snow 1 995 88 5515 9.55 285 16:30 06.02.2022
5519 Snow 1 994 87 671 10.28 230 15:47 06.02.2022
5520 Snow 1 996 87 314 10 223 15:25 06.02.2022
5521 Snow 2 998 86 1298 9.61 224 14:25 06.02.2022
5522 Rain 2 1001 85 371 9.26 225 13:24 06.02.2022
5523 Rain 2 1001 87 371 9.26 225 12:34 06.02.2022
5524 Snow 2 1004 88 2019 8.91 229 10:43 06.02.2022
5525 Snow 1 1005 86 5111 8.56 233 09:48 06.02.2022
5526 Snow 1 1005 86 2400 8.89 234 08:41 06.02.2022
5527 Snow 1 1006 88 4207 8.92 237 07:36 06.02.2022
5528 Snow 1 1008 86 867 8.43 231 05:29 06.02.2022
5529 Snow 0 1011 84 1553 7.72 232 02:26 06.02.2022
5530 Snow 0 1012 82 4341 7.89 233 00:51 06.02.2022
5531 Clouds 0 1013 79 10000 8.09 235 00:24 06.02.2022
5532 Clouds 1 1015 70 10000 7.56 233 21:59 05.02.2022
5533 Clouds 1 1016 67 10000 7.32 237 20:48 05.02.2022
5534 Clouds 1 1016 66 10000 7.01 239 20:23 05.02.2022
5535 Clouds 1 1016 66 10000 7.01 239 19:44 05.02.2022
5536 Clouds 1 1017 67 10000 6.69 238 18:48 05.02.2022
5537 Clouds 1 1017 67 10000 6.51 242 17:37 05.02.2022
5538 Clouds 1 1017 64 10000 6.34 243 16:33 05.02.2022
5539 Clouds 1 1018 64 10000 6.44 243 15:31 05.02.2022
5540 Clouds 2 1018 62 10000 6.38 245 14:40 05.02.2022
5541 Clouds 1 1019 72 10000 6.16 252 12:46 05.02.2022
5542 Clouds 1 1019 75 10000 6.47 258 11:47 05.02.2022
5543 Clouds 0 1019 78 10000 6.78 263 10:46 05.02.2022
5544 Clouds 0 1018 82 10000 6.77 265 09:51 05.02.2022
5545 Clouds 0 1018 79 9704 6.8 265 09:25 05.02.2022
5546 Snow -1 1017 79 6616 6.81 267 07:36 05.02.2022
5547 Snow -1 1016 79 2405 6.71 267 06:56 05.02.2022
5548 Snow -1 1014 85 5413 7.29 265 03:22 05.02.2022
5549 Clouds -1 1013 86 7475 7.29 269 01:19 05.02.2022
5550 Snow -1 1012 86 7446 7.55 268 00:42 05.02.2022
5551 Clouds -1 1012 86 9852 7.16 274 23:38 04.02.2022
5552 Snow -1 1010 86 5259 7.37 278 23:20 04.02.2022
5553 Snow -1 1009 90 27 6.76 282 21:36 04.02.2022
5554 Snow -1 1007 89 36 8.33 296 21:18 04.02.2022
5555 Snow 0 1007 89 36 8.33 296 20:46 04.02.2022
5556 Clouds 2 1004 84 2897 8.54 233 19:33 04.02.2022
5557 Clouds 2 1005 82 10000 7.82 223 17:27 04.02.2022
5558 Clouds 3 1006 78 10000 7.24 222 15:38 04.02.2022
5559 Clouds 4 1007 78 10000 6.76 223 14:51 04.02.2022
5560 Clouds 3 1009 88 10000 6.15 226 12:43 04.02.2022
5561 Clouds 3 1010 84 10000 6.12 231 11:47 04.02.2022
5562 Clouds 3 1010 86 10000 5.49 230 11:22 04.02.2022
5563 Clouds 2 1010 87 10000 5.49 230 10:32 04.02.2022
5564 Clouds 2 1011 88 9430 4.86 232 08:34 04.02.2022
5565 Clouds 1 1012 85 10000 3.75 241 05:19 04.02.2022
5566 Clouds 1 1012 85 10000 3.75 243 02:39 04.02.2022
5567 Clouds 1 1012 86 9924 3.68 240 00:31 04.02.2022
5568 Clouds 1 1012 86 10000 3.25 238 23:21 03.02.2022
5569 Clouds 1 1013 90 10000 3.11 245 22:26 03.02.2022
5570 Clouds 1 1013 89 10000 3.11 245 21:47 03.02.2022
5571 Clouds 2 1012 86 10000 3.3 244 20:26 03.02.2022
5572 Clouds 2 1012 90 10000 3.3 244 19:59 03.02.2022
5573 Clouds 2 1012 87 10000 3.46 243 19:26 03.02.2022
5574 Clouds 2 1013 88 10000 3.62 233 18:26 03.02.2022
5575 Clouds 3 1013 91 10000 3.46 233 17:27 03.02.2022
5576 Clouds 3 1014 86 10000 3.87 234 15:52 03.02.2022
5577 Clouds 3 1015 85 5136 3.79 228 14:26 03.02.2022
5578 Clouds 3 1015 89 5093 4.08 231 12:37 03.02.2022
5579 Snow 1 1018 91 5097 2.49 206 09:29 03.02.2022
5580 Snow 0 1018 95 5147 2.41 202 08:23 03.02.2022
5581 Clouds -2 1021 88 10000 2.26 218 03:28 03.02.2022
5582 Clouds -2 1022 80 7197 1.99 218 00:30 03.02.2022
5583 Clouds -2 1022 84 10000 1.68 223 22:47 02.02.2022
5584 Clouds -2 1022 87 10000 1.52 233 21:53 02.02.2022
5585 Clouds -2 1022 87 10000 1.52 233 21:30 02.02.2022
5586 Clouds -1 1021 84 10000 2.2 273 20:33 02.02.2022
5587 Clouds -1 1021 88 10000 3.31 303 19:51 02.02.2022
5588 Clouds -1 1020 81 10000 4.91 310 19:20 02.02.2022
5589 Clouds 0 1019 79 10000 5.71 307 18:27 02.02.2022
5590 Clouds 0 1019 73 10000 5.71 307 17:37 02.02.2022
5591 Clouds 0 1018 72 10000 6.54 308 17:18 02.02.2022
5592 Clouds 1 1017 71 10000 7.25 307 16:20 02.02.2022
5593 Snow 1 1014 74 10000 7.8 303 12:54 02.02.2022
5594 Clouds 1 1014 75 10000 7.51 302 11:51 02.02.2022
5595 Clouds 1 1014 76 10000 7.51 302 11:31 02.02.2022
5596 Clouds 0 1012 80 8829 7.75 300 09:46 02.02.2022
5597 Snow 0 1009 84 6031 8.36 299 06:18 02.02.2022
5598 Snow 2 1006 84 10000 8.24 287 22:44 01.02.2022
5599 Snow 1 1006 88 2905 8.25 294 21:30 01.02.2022
5600 Clouds 2 1004 88 9613 8.95 288 19:56 01.02.2022
5601 Snow 1 1003 91 1967 7.19 289 17:38 01.02.2022
5602 Snow 0 1004 90 2490 8.44 272 16:33 01.02.2022
5603 Snow -1 1010 88 401 7.09 238 13:28 01.02.2022
5604 Snow -1 1012 82 3881 6.12 245 12:28 01.02.2022
5605 Snow -1 1013 84 5545 6.13 253 10:44 01.02.2022
5606 Snow -2 1015 87 4845 2.84 278 02:30 01.02.2022
5607 Snow -2 1015 91 1997 3.07 314 23:40 31.01.2022
5608 Snow -3 1014 91 209 2.88 324 22:43 31.01.2022
5609 Snow -3 1013 91 1007 2.58 340 21:38 31.01.2022
5610 Snow -2 1011 90 252 3.24 0 20:44 31.01.2022
5611 Snow -2 1009 90 41 2.25 8 20:24 31.01.2022
5612 Snow -2 1008 91 26 2.19 352 18:54 31.01.2022
5613 Snow -1 1007 91 1779 3.24 294 18:20 31.01.2022
5614 Snow -1 1006 90 278 3.09 304 17:25 31.01.2022
5615 Clouds -1 1005 92 928 3.16 320 16:25 31.01.2022
5616 Clouds 0 1003 88 35 1.49 316 14:54 31.01.2022
5617 Snow -1 1002 85 27 1.59 250 13:43 31.01.2022
5618 Snow -1 1002 89 29 2.71 244 12:38 31.01.2022
5619 Snow -1 1003 88 783 4.49 258 11:34 31.01.2022
5620 Clouds -1 1003 87 6327 5.43 266 10:49 31.01.2022
5621 Clouds -3 1003 88 4101 6.23 277 09:38 31.01.2022
5622 Snow -3 1003 88 39 4.74 267 08:57 31.01.2022
5623 Snow -3 1003 88 39 4.74 267 08:38 31.01.2022
5624 Snow -3 1004 88 118 4.15 225 08:19 31.01.2022
5625 Snow -2 1007 85 1694 3.5 210 06:18 31.01.2022
5626 Clouds -2 1018 74 10000 2.82 229 00:44 31.01.2022
5627 Clouds -1 1021 67 10000 3.47 267 22:34 30.01.2022
5628 Clouds -1 1023 64 10000 3.89 276 21:56 30.01.2022
5629 Clouds -1 1023 62 10000 3.89 276 21:37 30.01.2022
5630 Clouds -1 1023 61 10000 4.58 283 21:18 30.01.2022
5631 Clouds 0 1023 65 10000 4.58 283 20:43 30.01.2022
5632 Clouds 0 1024 65 10000 5.58 287 20:25 30.01.2022
5633 Clouds 0 1024 63 10000 6.36 291 19:23 30.01.2022
5634 Clouds 0 1024 65 10000 6.36 291 18:35 30.01.2022
5635 Clouds 1 1024 66 10000 6.66 293 17:40 30.01.2022
5636 Clouds 1 1024 66 10000 7.03 297 17:19 30.01.2022
5637 Clouds 1 1024 65 10000 7.03 297 16:37 30.01.2022
5638 Clouds 1 1023 65 10000 7.7 300 16:19 30.01.2022
5639 Clouds 1 1023 66 10000 7.7 300 15:48 30.01.2022
5640 Clouds 1 1023 66 10000 7.7 300 15:30 30.01.2022
5641 Clouds 1 1023 67 10000 8.28 301 14:45 30.01.2022
5642 Clouds 1 1023 67 10000 9.05 302 12:46 30.01.2022
5643 Clouds 1 1023 66 10000 9.39 302 11:53 30.01.2022
5644 Clouds 1 1021 68 10000 10.04 304 10:27 30.01.2022
5645 Clouds 0 1021 69 10000 10.04 304 09:48 30.01.2022
5646 Clouds 0 1020 74 10000 10.67 302 08:52 30.01.2022
5647 Clouds 0 1019 77 10000 11.3 289 06:55 30.01.2022
5648 Clouds 1 1018 76 10000 10.88 292 01:55 30.01.2022
5649 Clouds 1 1017 84 10000 10.42 288 00:19 30.01.2022
5650 Clouds 3 1016 86 10000 10.58 284 22:58 29.01.2022
5651 Clouds 3 1016 79 10000 10.58 282 21:47 29.01.2022
5652 Clouds 3 1016 83 10000 9.86 286 21:23 29.01.2022
5653 Clouds 4 1015 86 10000 11.12 288 20:22 29.01.2022
5654 Clouds 4 1015 89 10000 11.12 288 19:33 29.01.2022
5655 Clouds 5 1014 86 10000 10.92 274 18:51 29.01.2022
5656 Rain 5 1013 88 10000 11.2 267 18:18 29.01.2022
5657 Clouds 4 1015 89 10000 10.47 263 17:28 29.01.2022
5658 Clouds 5 1014 83 10000 9.39 256 15:50 29.01.2022
5659 Clouds 4 1018 85 5085 8.14 257 13:59 29.01.2022
5660 Clouds 4 1018 84 5085 8.14 257 13:41 29.01.2022
5661 Clouds 4 1019 84 1982 7.27 252 13:22 29.01.2022
5662 Clouds 3 1020 85 1988 7.03 252 11:40 29.01.2022
5663 Clouds 3 1020 87 2032 6.74 250 10:46 29.01.2022
5664 Clouds 1 1022 86 2694 6.11 247 08:42 29.01.2022
5665 Snow 0 1023 87 5214 5.44 239 06:37 29.01.2022
5666 Snow -1 1029 78 10000 3.64 226 00:34 29.01.2022
5667 Clouds -1 1030 77 10000 3.01 226 23:44 28.01.2022
5668 Clouds -1 1031 77 10000 2.91 233 22:48 28.01.2022
5669 Clouds -1 1032 78 10000 3 250 22:20 28.01.2022
5670 Clouds -1 1032 78 10000 3 250 21:35 28.01.2022
5671 Clouds 0 1032 75 10000 3.1 269 20:29 28.01.2022
5672 Clouds 0 1033 74 10000 3.68 280 19:28 28.01.2022
5673 Clouds 0 1033 75 10000 3.68 280 18:42 28.01.2022
5674 Clouds 1 1032 72 10000 4.66 299 16:45 28.01.2022
5675 Clouds 1 1031 69 10000 5.9 311 14:59 28.01.2022
5676 Clouds 1 1030 69 10000 6.59 314 13:37 28.01.2022
5677 Clouds 1 1030 71 8267 7.21 308 12:27 28.01.2022
5678 Clouds 0 1029 78 6304 7.32 306 10:41 28.01.2022
5679 Clouds -1 1028 81 4595 7.35 303 09:49 28.01.2022
5680 Snow -1 1026 83 5155 7.45 300 07:43 28.01.2022
5681 Snow -1 1025 81 3685 7.67 299 06:39 28.01.2022
5682 Clouds 0 1023 81 5795 7.49 298 03:53 28.01.2022
5683 Clouds 0 1023 80 8608 7.74 300 02:30 28.01.2022
5684 Clouds 0 1022 76 8890 8.1 299 01:57 28.01.2022
5685 Clouds 0 1022 79 8858 8.11 299 01:30 28.01.2022
5686 Clouds 0 1020 83 10000 8.42 292 22:47 27.01.2022
5687 Snow 0 1019 83 10000 8 291 21:45 27.01.2022
5688 Snow 0 1019 83 10000 7.68 291 21:26 27.01.2022
5689 Snow 1 1018 85 10000 7.77 289 20:23 27.01.2022
5690 Snow 1 1017 89 5392 7.53 282 18:24 27.01.2022
5691 Snow 1 1017 88 2809 7.29 268 17:26 27.01.2022
5692 Snow 0 1018 88 2396 6.88 257 14:25 27.01.2022
5693 Snow 0 1019 88 5197 6.57 252 13:19 27.01.2022
5694 Snow -1 1019 87 5063 6.13 247 12:25 27.01.2022
5695 Snow -2 1020 82 7463 6.29 241 09:56 27.01.2022
5696 Clouds -2 1021 83 10000 6.09 239 08:41 27.01.2022
5697 Clouds -2 1021 83 10000 6.25 238 08:18 27.01.2022
5698 Clouds -2 1024 88 9200 5.9 245 03:37 27.01.2022
5699 Clouds -2 1026 87 6100 4.99 251 00:25 27.01.2022
5700 Clouds -2 1027 87 6218 4.46 250 22:37 26.01.2022
5701 Clouds -2 1028 86 5834 4.09 251 21:44 26.01.2022
5702 Clouds -2 1028 87 5802 3.97 252 20:59 26.01.2022
5703 Clouds -2 1028 87 5802 3.97 252 20:35 26.01.2022
5704 Clouds -2 1028 90 5921 3.82 255 19:52 26.01.2022
5705 Clouds -2 1028 88 5636 4.16 260 19:18 26.01.2022
5706 Clouds -2 1029 86 7863 4.11 263 18:25 26.01.2022
5707 Clouds -2 1029 87 7863 4.11 263 17:49 26.01.2022
5708 Clouds -2 1029 87 9996 4.12 260 17:19 26.01.2022
5709 Clouds -2 1029 86 10000 3.8 260 16:26 26.01.2022
5710 Clouds -2 1029 84 10000 3.86 254 15:24 26.01.2022
5711 Clouds -3 1031 86 10000 3.91 265 12:52 26.01.2022
5712 Clouds -3 1031 87 10000 3.81 266 10:57 26.01.2022
5713 Clouds -3 1031 88 10000 3.02 256 09:59 26.01.2022
5714 Clouds -3 1031 87 10000 3.02 256 09:40 26.01.2022
5715 Clouds -3 1031 87 10000 1.73 244 07:28 26.01.2022
5716 Clouds -2 1032 90 10000 1.45 259 00:44 26.01.2022
5717 Clouds -2 1032 84 10000 1.21 244 23:44 25.01.2022
5718 Clouds -2 1033 90 10000 1.04 249 22:50 25.01.2022
5719 Clouds -2 1033 90 10000 1.11 260 22:21 25.01.2022
5720 Clouds -2 1033 89 10000 1.11 260 21:37 25.01.2022
5721 Clouds -2 1033 86 10000 0.93 250 20:46 25.01.2022
5722 Clouds -2 1033 87 10000 0.79 253 19:59 25.01.2022
5723 Clouds -2 1033 88 10000 0.79 253 19:40 25.01.2022
5724 Clouds -2 1032 87 10000 1.06 311 18:20 25.01.2022
5725 Clouds -1 1032 87 10000 1.06 311 17:40 25.01.2022
5726 Clouds -1 1032 83 10000 0.91 297 16:35 25.01.2022
5727 Clouds -1 1032 83 10000 0.92 302 15:44 25.01.2022
5728 Clouds -1 1032 82 10000 1.2 293 15:26 25.01.2022
5729 Clouds -1 1032 78 10000 1.2 293 14:57 25.01.2022
5730 Clouds -1 1033 90 10000 1.09 295 13:18 25.01.2022
5731 Clouds -1 1034 88 5342 0.67 319 10:00 25.01.2022
5732 Clouds -2 1034 87 5230 0.93 335 08:32 25.01.2022
5733 Clouds -1 1034 82 6703 1.06 321 07:28 25.01.2022
5734 Clouds -2 1034 86 7137 0.95 302 06:22 25.01.2022
5735 Clouds -1 1035 89 10000 0.51 242 01:34 25.01.2022
5736 Clouds -1 1034 89 10000 0.3 259 23:36 24.01.2022
5737 Clouds -1 1034 91 10000 0.49 256 23:18 24.01.2022
5738 Clouds -1 1034 91 10000 0.49 256 22:59 24.01.2022
5739 Clouds 0 1034 91 10000 0.49 256 22:41 24.01.2022
5740 Clouds 0 1034 91 10000 0.72 249 21:45 24.01.2022
5741 Clouds 0 1034 91 10000 1.26 251 21:26 24.01.2022
5742 Clouds 0 1034 90 10000 1.34 250 20:28 24.01.2022
5743 Clouds 0 1034 86 10000 1.34 250 19:39 24.01.2022
5744 Clouds 1 1034 85 10000 1.09 222 18:55 24.01.2022
5745 Clouds 0 1034 89 10000 0.99 213 17:44 24.01.2022
5746 Clouds 1 1034 93 10000 1.13 216 17:23 24.01.2022
5747 Clouds 1 1034 89 10000 1.13 216 16:32 24.01.2022
5748 Clouds 1 1034 89 10000 1.11 218 15:52 24.01.2022
5749 Clouds 1 1034 85 10000 1.45 203 14:27 24.01.2022
5750 Clouds 1 1034 88 10000 1.2 199 12:36 24.01.2022
5751 Clouds 1 1034 89 10000 0.96 196 11:45 24.01.2022
5752 Clouds 1 1035 89 10000 0.71 191 10:24 24.01.2022
5753 Clouds 1 1035 90 10000 0.71 191 09:46 24.01.2022
5754 Clouds 0 1035 95 10000 0.64 210 08:19 24.01.2022
5755 Clouds 1 1036 96 10000 0.53 132 02:33 24.01.2022
5756 Clouds 1 1036 95 10000 0.44 115 01:28 24.01.2022
5757 Clouds 1 1036 94 10000 0.4 129 00:34 24.01.2022
5758 Clouds 1 1036 93 10000 0.3 141 23:47 23.01.2022
5759 Clouds 1 1036 96 10000 0.41 4 22:21 23.01.2022
5760 Clouds 1 1036 96 10000 0.41 4 21:42 23.01.2022
5761 Clouds 1 1036 96 9694 0.63 321 21:24 23.01.2022
5762 Clouds 1 1036 96 8128 0.91 306 20:28 23.01.2022
5763 Clouds 1 1036 96 7914 1.07 309 19:21 23.01.2022
5764 Clouds 2 1036 92 7914 1.07 309 18:44 23.01.2022
5765 Clouds 2 1035 93 8456 1.14 308 17:27 23.01.2022
5766 Clouds 2 1035 92 8871 1.37 296 16:27 23.01.2022
5767 Clouds 2 1035 92 9298 1.56 290 14:54 23.01.2022
5768 Clouds 1 1035 94 10000 1.6 285 14:19 23.01.2022
5769 Clouds 1 1035 91 10000 1.83 289 12:49 23.01.2022
5770 Clouds 1 1035 91 10000 1.82 293 12:21 23.01.2022
5771 Clouds 1 1035 91 10000 1.82 293 11:51 23.01.2022
5772 Clouds 1 1035 92 10000 1.75 295 11:18 23.01.2022
5773 Clouds 0 1035 91 10000 1.67 285 10:26 23.01.2022
5774 Clouds 0 1035 91 10000 1.67 285 09:37 23.01.2022
5775 Clouds 0 1035 92 10000 1.7 281 08:51 23.01.2022
5776 Clouds 0 1033 94 9934 1.74 272 05:37 23.01.2022
5777 Clouds 0 1032 91 6833 2.04 284 01:46 23.01.2022
5778 Clouds 0 1032 91 6889 2.03 288 01:23 23.01.2022
5779 Clouds 0 1032 91 10000 2.36 294 00:23 23.01.2022
5780 Clouds 0 1032 91 10000 2.36 294 23:35 22.01.2022
5781 Clouds 0 1032 91 7727 2.52 298 22:34 22.01.2022
5782 Clouds 1 1032 93 7231 2.85 297 21:28 22.01.2022
5783 Clouds 1 1032 92 7550 3.07 303 19:51 22.01.2022
5784 Clouds 1 1031 92 10000 3.64 307 18:49 22.01.2022
5785 Clouds 1 1031 92 10000 3.8 305 17:59 22.01.2022
5786 Clouds 1 1031 93 10000 3.8 305 17:35 22.01.2022
5787 Clouds 1 1030 91 3319 3.69 304 16:55 22.01.2022
5788 Clouds 2 1030 92 2019 3.32 303 15:49 22.01.2022
5789 Clouds 2 1030 93 1993 3.36 304 14:58 22.01.2022
5790 Snow 2 1030 92 1707 2.86 301 13:42 22.01.2022
5791 Rain 2 1030 93 426 2.53 305 12:50 22.01.2022
5792 Snow 2 1030 94 93 1.82 300 12:28 22.01.2022
5793 Snow 2 1029 93 110 1.73 306 10:56 22.01.2022
5794 Snow 2 1029 94 138 2.04 320 10:29 22.01.2022
5795 Snow 1 1029 93 138 2.04 320 09:59 22.01.2022
5796 Clouds 1 1028 94 253 2.97 328 08:52 22.01.2022
5797 Clouds 1 1028 94 441 3.43 324 07:38 22.01.2022
5798 Snow 1 1026 94 81 4.56 311 04:52 22.01.2022
5799 Snow 0 1026 94 70 5.55 299 01:35 22.01.2022
5800 Snow 0 1025 93 594 4.96 296 23:38 21.01.2022
5801 Snow 0 1025 93 594 4.96 296 23:38 21.01.2022
5802 Snow -1 1026 93 1861 4.32 283 22:28 21.01.2022
5803 Snow -1 1027 91 30 3.53 274 20:22 21.01.2022
5804 Snow -2 1027 87 79 3.83 279 18:40 21.01.2022
5805 Clouds -2 1027 87 5841 4.47 288 17:31 21.01.2022
5806 Clouds -2 1028 85 8183 5.61 314 15:42 21.01.2022
5807 Clouds -1 1028 81 401 5.67 312 13:37 21.01.2022
5808 Clouds -2 1028 84 8209 6.62 315 12:38 21.01.2022
5809 Snow -2 1028 86 4960 6.15 318 11:28 21.01.2022
5810 Snow -3 1028 88 1627 5.46 309 10:19 21.01.2022
5811 Snow -4 1028 88 1621 3.96 289 08:24 21.01.2022
5812 Snow -4 1028 85 1373 3.26 277 06:57 21.01.2022
5813 Clouds -5 1027 81 10000 3.56 298 23:40 20.01.2022
5814 Clouds -5 1027 79 10000 3.7 307 22:41 20.01.2022
5815 Clouds -4 1026 82 10000 4.45 317 21:43 20.01.2022
5816 Clouds -4 1025 86 10000 5.66 324 20:56 20.01.2022
5817 Snow -4 1023 82 10000 7.82 314 19:21 20.01.2022
5818 Snow -4 1023 82 10000 7.82 314 18:51 20.01.2022
5819 Snow -4 1022 81 619 6.81 308 17:30 20.01.2022
5820 Snow -3 1021 81 697 7.2 311 15:45 20.01.2022
5821 Snow -3 1021 82 138 6.05 306 15:24 20.01.2022
5822 Snow -3 1021 85 504 7.1 309 13:42 20.01.2022
5823 Snow -3 1021 83 249 7.95 301 12:38 20.01.2022
5824 Snow -3 1021 84 162 6.79 299 11:57 20.01.2022
5825 Snow -3 1021 83 776 6.79 298 10:47 20.01.2022
5826 Snow -3 1020 82 149 6.43 301 09:42 20.01.2022
5827 Snow -3 1020 86 225 6.25 308 08:34 20.01.2022
5828 Snow -2 1017 89 77 7.4 276 05:38 20.01.2022
5829 Snow 0 1016 88 2844 6.88 281 23:42 19.01.2022
5830 Snow -1 1017 88 3072 6.31 272 22:37 19.01.2022
5831 Snow -1 1017 86 60 5.07 252 21:24 19.01.2022
5832 Snow -1 1017 87 60 5.07 252 20:51 19.01.2022
5833 Snow -1 1017 84 2638 5.21 247 19:58 19.01.2022
5834 Clouds -1 1017 80 5585 5.3 249 18:48 19.01.2022
5835 Clouds -1 1017 80 10000 5.84 249 17:50 19.01.2022
5836 Clouds -1 1018 80 10000 5.59 244 16:59 19.01.2022
5837 Clouds -1 1020 82 10000 5.07 237 14:42 19.01.2022
5838 Clouds 0 1022 81 10000 4.36 229 12:53 19.01.2022
5839 Clouds -1 1023 83 10000 3.86 228 11:43 19.01.2022
5840 Clouds -1 1024 83 10000 3.01 217 10:38 19.01.2022
5841 Clouds -2 1026 88 10000 2.36 215 09:34 19.01.2022
5842 Clouds -3 1028 86 10000 1.49 214 07:18 19.01.2022
5843 Clouds -2 1030 88 10000 1.51 168 05:19 19.01.2022
5844 Clouds 0 1035 79 10000 1.05 188 23:53 18.01.2022
5845 Clouds 0 1036 80 10000 1.15 188 23:18 18.01.2022
5846 Clouds 1 1036 83 10000 0.75 210 21:43 18.01.2022
5847 Clouds 1 1037 87 10000 0.81 253 19:57 18.01.2022
5848 Clouds 1 1037 87 10000 0.73 255 19:38 18.01.2022
5849 Clouds 1 1037 88 10000 1.15 268 19:18 18.01.2022
5850 Clouds 2 1036 87 10000 0.91 292 17:59 18.01.2022
5851 Clouds 2 1036 89 10000 1.11 313 17:29 18.01.2022
5852 Clouds 2 1036 84 10000 1.34 312 15:56 18.01.2022
5853 Clouds 3 1036 83 10000 1.72 302 15:24 18.01.2022
5854 Clouds 2 1037 85 10000 1.89 316 13:32 18.01.2022
5855 Clouds 1 1037 90 10000 2.37 316 10:49 18.01.2022
5856 Clouds 1 1036 88 10000 1.99 310 09:58 18.01.2022
5857 Clouds 0 1036 91 10000 2.22 312 08:19 18.01.2022
5858 Clouds 0 1036 90 10000 2.22 312 07:31 18.01.2022
5859 Clouds -1 1034 86 10000 4.46 311 00:22 18.01.2022
5860 Clouds -1 1034 83 10000 4.36 312 22:31 17.01.2022
5861 Clouds -1 1034 79 10000 4.53 313 21:36 17.01.2022
5862 Clouds -1 1033 80 10000 4.45 313 20:33 17.01.2022
5863 Clouds 0 1031 85 10000 5.18 321 18:42 17.01.2022
5864 Clouds 0 1030 88 10000 5.64 329 18:23 17.01.2022
5865 Snow 1 1028 87 9488 6.38 333 16:53 17.01.2022
5866 Clouds 2 1027 88 9281 7.33 323 15:31 17.01.2022
5867 Clouds 2 1025 89 4160 7.72 309 14:58 17.01.2022
5868 Snow 2 1025 88 3306 7.35 299 13:42 17.01.2022
5869 Clouds 2 1025 87 4466 7.78 284 12:58 17.01.2022
5870 Clouds 1 1025 89 5079 7.24 285 11:51 17.01.2022
5871 Clouds 0 1025 87 5069 7.33 281 10:47 17.01.2022
5872 Clouds 0 1025 86 5105 7.54 280 09:35 17.01.2022
5873 Clouds 0 1025 87 5399 7.7 277 08:43 17.01.2022
5874 Clouds 1 1025 79 10000 8.65 281 07:19 17.01.2022
5875 Clouds 1 1025 88 2223 6.8 273 00:58 17.01.2022
5876 Clouds 0 1025 86 2056 6.17 268 23:27 16.01.2022
5877 Clouds 0 1024 85 5057 5.97 262 20:41 16.01.2022
5878 Clouds 0 1024 83 5052 5.62 263 19:55 16.01.2022
5879 Clouds 0 1024 84 5293 5.64 264 18:45 16.01.2022
5880 Clouds 0 1023 83 5244 5.79 266 17:46 16.01.2022
5881 Clouds 0 1023 85 5556 5.61 268 16:50 16.01.2022
5882 Snow -1 1022 88 5316 5.73 267 15:39 16.01.2022
5883 Clouds -1 1022 88 2052 5.44 260 14:29 16.01.2022
5884 Clouds -2 1022 88 10000 5.07 258 12:57 16.01.2022
5885 Clouds -2 1022 87 10000 5.01 254 11:49 16.01.2022
5886 Clouds -2 1022 87 10000 4 250 10:58 16.01.2022
5887 Clouds -2 1022 87 10000 3.07 243 10:27 16.01.2022
5888 Clouds -2 1022 86 10000 3.07 243 09:57 16.01.2022
5889 Clouds -3 1022 89 7394 2.28 235 09:23 16.01.2022
5890 Clouds -3 1022 89 7394 2.28 235 08:52 16.01.2022
5891 Clouds -3 1022 89 9975 1.97 236 05:35 16.01.2022
5892 Clouds -2 1025 88 10000 1.17 188 23:51 15.01.2022
5893 Clouds -2 1026 87 10000 1.14 184 22:37 15.01.2022
5894 Clouds -2 1027 87 10000 1.17 171 21:21 15.01.2022
5895 Clouds -2 1027 87 10000 1.17 171 20:43 15.01.2022
5896 Clouds -2 1027 87 10000 1.17 160 19:52 15.01.2022
5897 Clouds -2 1027 87 10000 1.04 159 19:19 15.01.2022
5898 Clear -1 1028 83 10000 1.19 147 17:35 15.01.2022
5899 Clear 0 1028 85 10000 0.95 150 16:38 15.01.2022
5900 Clear 0 1028 83 10000 0.77 181 13:57 15.01.2022
5901 Clouds 0 1030 83 10000 0.78 180 12:23 15.01.2022
5902 Clouds 0 1030 86 10000 0.61 200 11:18 15.01.2022
5903 Clouds -1 1031 90 10000 0.27 291 08:36 15.01.2022
5904 Clouds 0 1032 93 5386 1.39 279 00:49 15.01.2022
5905 Clouds 0 1033 92 5149 1.76 288 21:57 14.01.2022
5906 Clouds 0 1033 91 5117 1.91 284 20:42 14.01.2022
5907 Clouds 0 1033 91 5135 1.98 280 20:23 14.01.2022
5908 Clouds 0 1033 92 5135 1.98 280 19:40 14.01.2022
5909 Clouds 0 1032 91 5818 2.12 269 18:27 14.01.2022
5910 Clouds 0 1033 90 6320 2.41 271 16:50 14.01.2022
5911 Clouds 0 1032 89 7166 2.55 270 15:48 14.01.2022
5912 Clouds 0 1032 88 7371 2.85 269 14:46 14.01.2022
5913 Clouds 0 1032 88 10000 3.14 272 13:47 14.01.2022
5914 Clouds -1 1033 87 10000 3.04 268 12:31 14.01.2022
5915 Clouds -1 1034 87 10000 2.8 277 11:27 14.01.2022
5916 Clouds -2 1034 84 10000 2.66 278 09:50 14.01.2022
5917 Clouds -2 1034 81 9867 2.63 270 08:51 14.01.2022
5918 Clouds -2 1033 86 9838 2.85 260 07:21 14.01.2022
5919 Clouds -2 1035 96 9943 3.04 263 01:37 14.01.2022
5920 Clouds -2 1036 96 9833 3.05 256 23:32 13.01.2022
5921 Clouds -2 1037 97 9831 2.79 258 21:40 13.01.2022
5922 Clouds -2 1037 96 9866 2.74 260 21:22 13.01.2022
5923 Clouds -1 1037 97 10000 2.86 260 19:41 13.01.2022
5924 Clouds -1 1037 97 10000 3.04 259 19:22 13.01.2022
5925 Clouds -1 1037 97 9159 2.91 254 17:54 13.01.2022
5926 Clouds -1 1037 97 10000 2.95 250 16:22 13.01.2022
5927 Clouds -1 1037 97 10000 2.95 250 15:37 13.01.2022
5928 Clouds -1 1037 97 10000 3.16 251 14:49 13.01.2022
5929 Clouds 0 1038 97 10000 3.55 259 12:46 13.01.2022
5930 Clouds -2 1039 97 10000 2.68 256 10:25 13.01.2022
5931 Clouds -3 1039 97 10000 2.41 255 09:20 13.01.2022
5932 Clouds -2 1039 89 10000 2.43 257 08:27 13.01.2022
5933 Clouds -2 1039 92 10000 2.47 258 07:24 13.01.2022
5934 Clouds -3 1039 97 10000 2.47 258 06:38 13.01.2022
5935 Clouds -2 1039 90 10000 2.36 259 05:20 13.01.2022
5936 Clouds -2 1039 88 10000 2.34 261 02:33 13.01.2022
5937 Clouds -2 1040 87 10000 2.18 255 00:56 13.01.2022
5938 Clouds -2 1040 82 7712 1.76 252 23:50 12.01.2022
5939 Clouds -2 1040 83 8818 1.95 251 23:29 12.01.2022
5940 Clouds -2 1040 85 7821 1.79 247 21:58 12.01.2022
5941 Clouds -1 1040 81 7273 1.67 252 21:23 12.01.2022
5942 Clouds -1 1040 82 7273 1.67 252 20:57 12.01.2022
5943 Clouds -1 1040 86 7128 1.4 255 20:19 12.01.2022
5944 Clouds -1 1039 88 7646 1.54 261 18:48 12.01.2022
5945 Clouds -1 1038 89 7457 1.7 255 17:51 12.01.2022
5946 Clouds -1 1038 85 10000 1.54 262 16:42 12.01.2022
5947 Clouds -1 1038 89 7680 2.04 273 14:49 12.01.2022
5948 Clouds -1 1038 89 10000 1.72 258 13:37 12.01.2022
5949 Clouds -1 1038 85 10000 1.58 257 12:35 12.01.2022
5950 Clouds -2 1037 80 10000 1.6 250 08:50 12.01.2022
5951 Clouds -2 1037 79 10000 1.65 265 07:55 12.01.2022
5952 Clouds -2 1037 78 10000 1.65 265 07:32 12.01.2022
5953 Clouds -3 1036 85 10000 1.28 217 01:34 12.01.2022
5954 Clouds -3 1037 84 10000 0.93 207 23:25 11.01.2022
5955 Clouds -3 1036 87 10000 0.95 194 22:24 11.01.2022
5956 Clouds -3 1036 87 10000 0.76 190 21:28 11.01.2022
5957 Clouds -3 1036 89 10000 0.76 190 20:35 11.01.2022
5958 Clouds -3 1036 88 10000 0.58 164 19:23 11.01.2022
5959 Clouds -2 1035 89 10000 0.36 148 17:46 11.01.2022
5960 Clouds -1 1035 90 10000 0.22 212 16:39 11.01.2022
5961 Clouds -1 1034 91 10000 0.43 234 16:18 11.01.2022
5962 Clouds 0 1034 90 10000 0.52 240 14:48 11.01.2022
5963 Clouds 0 1034 89 10000 0.52 240 14:30 11.01.2022
5964 Clouds 0 1034 82 10000 0.72 191 13:46 11.01.2022
5965 Clouds 0 1034 87 10000 0.71 178 13:25 11.01.2022
5966 Clouds 0 1034 84 10000 0.62 136 12:24 11.01.2022
5967 Clouds -2 1034 92 10000 0.57 124 10:26 11.01.2022
5968 Clouds -1 1033 92 10000 0.47 112 07:50 11.01.2022
5969 Clouds -1 1032 93 7957 0.64 93 03:47 11.01.2022
5970 Clouds -2 1031 95 6869 0.44 78 00:25 11.01.2022
5971 Clouds -1 1031 95 6869 0.44 78 23:38 10.01.2022
5972 Clouds -1 1030 94 5634 0.56 351 22:20 10.01.2022
5973 Clouds -1 1030 94 5634 0.56 351 21:57 10.01.2022
5974 Clouds -1 1030 94 5634 0.56 351 21:33 10.01.2022
5975 Clouds -1 1030 94 5800 0.8 351 20:58 10.01.2022
5976 Clouds -1 1030 94 5800 0.8 351 20:36 10.01.2022
5977 Clouds -1 1029 94 10000 1.05 357 20:18 10.01.2022
5978 Clouds -1 1029 96 10000 1.05 357 19:37 10.01.2022
5979 Clouds -1 1028 94 10000 1.1 20 19:18 10.01.2022
5980 Clouds -1 1028 91 10000 1.1 20 18:46 10.01.2022
5981 Clouds 0 1026 89 10000 0.63 5 16:48 10.01.2022
5982 Clouds 0 1025 94 10000 0.88 335 16:26 10.01.2022
5983 Clouds 1 1024 94 7173 1.11 319 14:43 10.01.2022
5984 Clouds 1 1022 94 10000 1.24 312 13:22 10.01.2022
5985 Clouds 0 1021 94 7563 1.23 299 11:56 10.01.2022
5986 Clouds 0 1020 93 5512 1.03 291 10:48 10.01.2022
5987 Clouds -1 1019 95 5250 1.06 275 09:37 10.01.2022
5988 Clouds -1 1015 91 5223 1.49 264 05:51 10.01.2022
5989 Clouds -1 1011 93 5283 1.88 255 02:32 10.01.2022
5990 Clouds -1 1010 91 5312 2.22 260 01:21 10.01.2022
5991 Clouds -1 1009 90 5109 2.13 251 00:20 10.01.2022
5992 Clouds -1 1008 90 5077 2.45 254 22:47 09.01.2022
5993 Clouds -1 1007 90 5063 2.9 255 22:18 09.01.2022
5994 Clouds -1 1007 90 5063 2.9 255 21:41 09.01.2022
5995 Clouds -1 1007 90 5063 2.9 255 21:41 09.01.2022
5996 Snow -1 1006 87 4995 3.42 254 21:22 09.01.2022
5997 Snow -1 1006 87 4995 3.42 254 20:47 09.01.2022
5998 Clouds -1 1005 87 5052 3.87 255 20:28 09.01.2022
5999 Clouds -1 1005 88 5052 3.87 255 19:41 09.01.2022
6000 Clouds -1 1004 88 5182 4.24 259 19:21 09.01.2022
6001 Clouds -1 1004 88 5073 4 255 18:41 09.01.2022
6002 Clouds -1 1002 89 5442 4.71 261 18:23 09.01.2022
6003 Clouds 0 1002 89 5442 4.71 261 17:30 09.01.2022
6004 Clouds -1 1001 89 5276 5.62 264 16:50 09.01.2022
6005 Snow -1 1000 90 1956 6.1 262 15:52 09.01.2022
6006 Snow -1 1000 90 1956 6.1 262 15:33 09.01.2022
6007 Snow -1 999 90 156 6.39 262 14:39 09.01.2022
6008 Snow -1 998 90 58 6.79 265 13:49 09.01.2022
6009 Snow -1 996 89 47 5.31 268 12:26 09.01.2022
6010 Snow -2 996 88 47 5.31 268 11:47 09.01.2022
6011 Snow -2 994 91 36 3.12 249 09:56 09.01.2022
6012 Clouds -2 993 89 327 2.52 213 09:29 09.01.2022
6013 Snow -2 992 90 436 3.29 191 08:25 09.01.2022
6014 Snow -1 993 78 5265 4.13 171 02:31 09.01.2022
6015 Clouds -2 996 78 8673 4.94 184 01:20 09.01.2022
6016 Clouds -2 997 79 7692 5.01 181 23:38 08.01.2022
6017 Clouds -2 998 78 8277 5.28 184 22:59 08.01.2022
6018 Snow -2 1000 83 5261 5.21 186 21:33 08.01.2022
6019 Clouds -2 1002 78 5653 5.41 188 20:45 08.01.2022
6020 Clouds -2 1003 77 10000 5.71 194 20:23 08.01.2022
6021 Clouds -2 1003 77 10000 5.71 194 19:55 08.01.2022
6022 Clouds -3 1006 80 10000 4.77 193 17:51 08.01.2022
6023 Clouds -2 1007 79 10000 4.47 203 17:21 08.01.2022
6024 Clouds -2 1008 75 10000 4.96 214 15:47 08.01.2022
6025 Clouds -1 1009 81 10000 5.27 220 14:40 08.01.2022
6026 Clouds -2 1010 89 10000 3.46 231 12:44 08.01.2022
6027 Clouds -2 1011 89 10000 3.15 248 10:59 08.01.2022
6028 Clouds -3 1010 90 10000 2.85 246 10:25 08.01.2022
6029 Clouds -3 1010 89 10000 2.85 246 09:44 08.01.2022
6030 Clouds -3 1010 91 10000 1.36 210 07:19 08.01.2022
6031 Clouds -3 1010 92 10000 3.26 228 02:39 08.01.2022
6032 Snow -2 1010 85 5293 4.24 238 00:41 08.01.2022
6033 Snow -2 1011 92 1876 3.86 229 22:40 07.01.2022
6034 Snow -2 1011 91 2896 3.22 202 20:56 07.01.2022
6035 Clouds -2 1011 88 4793 3.16 202 19:56 07.01.2022
6036 Clouds -2 1011 88 4793 3.16 202 19:56 07.01.2022
6037 Clouds -2 1011 83 9706 3.1 210 18:58 07.01.2022
6038 Clouds -2 1011 89 5191 2.74 201 18:38 07.01.2022
6039 Snow -2 1012 88 5144 3.42 222 17:25 07.01.2022
6040 Clouds -2 1012 89 5343 3.91 231 16:23 07.01.2022
6041 Snow -2 1012 89 5866 4.61 226 13:53 07.01.2022
6042 Snow -2 1012 90 5163 4.84 229 13:21 07.01.2022
6043 Snow -2 1012 89 5098 4.57 228 12:49 07.01.2022
6044 Snow -3 1013 85 4703 5.37 217 09:37 07.01.2022
6045 Clouds -4 1017 87 10000 3.68 211 02:55 07.01.2022
6046 Clouds -4 1018 83 10000 2.99 208 01:54 07.01.2022
6047 Clouds -4 1019 82 10000 2.56 202 01:27 07.01.2022
6048 Clouds -5 1018 81 10000 2.66 205 00:58 07.01.2022
6049 Clouds -5 1020 87 10000 2.19 195 22:54 06.01.2022
6050 Clouds -5 1020 88 10000 1.69 199 21:28 06.01.2022
6051 Clouds -4 1020 91 10000 1.59 208 20:22 06.01.2022
6052 Clouds -4 1020 91 10000 1.59 208 19:45 06.01.2022
6053 Clouds -4 1020 90 10000 1.3 237 18:29 06.01.2022
6054 Clouds -3 1020 90 10000 1.3 237 17:40 06.01.2022
6055 Clouds -2 1020 88 10000 1.41 241 16:44 06.01.2022
6056 Clouds -2 1019 85 10000 2.01 249 15:47 06.01.2022
6057 Clouds -1 1018 78 10000 2.61 258 15:26 06.01.2022
6058 Clouds -1 1018 77 10000 2.61 258 14:45 06.01.2022
6059 Clouds -1 1018 76 10000 3.29 267 14:18 06.01.2022
6060 Clouds -1 1018 82 10000 3.51 262 12:50 06.01.2022
6061 Clouds -2 1017 86 10000 2.69 274 11:43 06.01.2022
6062 Clouds -3 1017 86 10000 2.32 282 11:22 06.01.2022
6063 Clouds -5 1016 90 10000 1.41 272 08:52 06.01.2022
6064 Snow -1 1009 83 4559 6.13 296 01:37 06.01.2022
6065 Clouds -1 1008 85 8687 5.87 285 23:38 05.01.2022
6066 Clouds 0 1007 90 10000 6.54 285 22:59 05.01.2022
6067 Clouds 0 1007 86 10000 6.54 285 22:33 05.01.2022
6068 Clouds 0 1006 84 10000 6.57 291 21:52 05.01.2022
6069 Clouds 0 1005 85 8039 7.05 287 21:21 05.01.2022
6070 Snow 0 1004 86 5895 7.2 283 20:19 05.01.2022
6071 Snow 0 1003 88 10000 7.53 278 18:54 05.01.2022
6072 Clouds -1 1002 87 10000 7.52 275 17:45 05.01.2022
6073 Clouds -1 1002 88 10000 7.1 271 16:56 05.01.2022
6074 Snow -1 1001 86 5080 7.02 264 15:46 05.01.2022
6075 Snow -2 1000 87 1925 7.18 242 14:28 05.01.2022
6076 Snow -2 1000 87 1925 7.18 242 13:32 05.01.2022
6077 Clouds -1 1001 83 10000 7.07 247 11:45 05.01.2022
6078 Clouds -2 1000 87 10000 6.5 263 08:20 05.01.2022
6079 Clouds -2 999 82 10000 4.95 264 06:25 05.01.2022
6080 Snow 0 998 91 3829 2.13 285 00:59 05.01.2022
6081 Snow 1 997 85 2378 1.86 272 23:38 04.01.2022
6082 Snow 1 997 86 5047 1.83 265 23:18 04.01.2022
6083 Clouds 1 997 88 5202 1.76 276 21:31 04.01.2022
6084 Rain 1 996 89 3283 3.56 274 19:55 04.01.2022
6085 Rain 2 995 89 4094 3.65 253 18:19 04.01.2022
6086 Clouds 3 995 85 4339 3.36 253 16:53 04.01.2022
6087 Clouds 3 995 85 4339 3.36 253 16:30 04.01.2022
6088 Clouds 3 995 89 10000 3.39 250 14:58 04.01.2022
6089 Clouds 3 995 84 10000 3.39 250 14:36 04.01.2022
6090 Clouds 3 995 84 10000 2.89 253 13:48 04.01.2022
6091 Rain 3 996 90 10000 2.79 238 10:59 04.01.2022
6092 Rain 3 996 89 10000 2.84 230 09:58 04.01.2022
6093 Rain 2 997 90 10000 3.06 232 08:35 04.01.2022
6094 Clouds 3 1000 79 10000 2.92 250 04:24 04.01.2022
6095 Clouds 4 1003 81 10000 4.66 237 00:42 04.01.2022
6096 Clouds 4 1004 82 10000 4.41 234 23:44 03.01.2022
6097 Clouds 3 1005 81 10000 4.7 232 22:21 03.01.2022
6098 Clouds 4 1005 87 10000 4.7 232 21:38 03.01.2022
6099 Clouds 4 1006 88 10000 4.9 233 20:34 03.01.2022
6100 Clouds 4 1007 90 10000 5.66 241 18:54 03.01.2022
6101 Clouds 4 1008 89 10000 5.99 244 18:29 03.01.2022
6102 Rain 5 1008 83 10000 6.18 243 17:20 03.01.2022
6103 Clouds 5 1008 77 10000 6.16 244 16:28 03.01.2022
6104 Clouds 5 1009 79 10000 6.45 249 14:31 03.01.2022
6105 Rain 5 1010 81 10000 6.45 246 12:52 03.01.2022
6106 Clouds 6 1010 73 10000 6.9 245 11:50 03.01.2022
6107 Clouds 5 1011 75 10000 6.88 249 10:37 03.01.2022
6108 Clouds 5 1011 79 10000 7.12 256 09:27 03.01.2022
6109 Clouds 4 1011 85 10000 7.51 259 07:52 03.01.2022
6110 Clouds 5 1008 83 10000 8.76 252 02:28 03.01.2022
6111 Rain 5 1009 86 5948 5.96 231 23:23 02.01.2022
6112 Clouds 6 1009 84 5948 5.96 231 22:56 02.01.2022
6113 Clouds 6 1011 81 10000 6.31 239 21:52 02.01.2022
6114 Clouds 6 1011 81 10000 6.34 243 20:50 02.01.2022
6115 Clouds 7 1011 78 10000 6.14 246 20:29 02.01.2022
6116 Clouds 7 1011 80 10000 6.14 246 19:31 02.01.2022
6117 Clouds 7 1012 80 10000 6.61 250 18:55 02.01.2022
6118 Clouds 7 1011 77 10000 6.34 249 17:56 02.01.2022
6119 Clouds 7 1011 77 10000 6.34 249 17:38 02.01.2022
6120 Clouds 7 1011 78 10000 6.71 246 17:20 02.01.2022
6121 Clouds 7 1012 78 10000 6.4 236 16:27 02.01.2022
6122 Clouds 7 1011 81 10000 6.44 237 14:41 02.01.2022
6123 Clouds 7 1011 81 10000 6.44 237 14:41 02.01.2022
6124 Clouds 8 1012 74 10000 5.83 219 13:25 02.01.2022
6125 Clouds 7 1012 83 10000 6.2 222 12:31 02.01.2022
6126 Clouds 6 1013 91 10000 5.19 216 11:41 02.01.2022
6127 Clouds 6 1014 89 10000 2.8 200 10:53 02.01.2022
6128 Rain 6 1015 87 10000 2.76 195 09:56 02.01.2022
6129 Rain 6 1016 87 10000 2.87 206 07:34 02.01.2022
6130 Clouds 5 1019 85 10000 2.67 214 02:51 02.01.2022
6131 Clouds 5 1021 85 10000 2.36 198 23:42 01.01.2022
6132 Clouds 5 1022 85 10000 2.33 206 23:24 01.01.2022
6133 Clouds 6 1023 84 10000 2.19 196 22:25 01.01.2022
6134 Clouds 6 1023 81 10000 2.19 196 21:45 01.01.2022
6135 Clouds 6 1023 83 10000 2.06 201 21:21 01.01.2022
6136 Clouds 7 1023 80 10000 2.08 207 20:20 01.01.2022
6137 Clouds 7 1023 79 10000 2.08 207 19:33 01.01.2022
6138 Clouds 7 1024 76 10000 2.11 201 18:51 01.01.2022
6139 Clouds 7 1024 78 10000 2.03 206 17:38 01.01.2022
6140 Clouds 8 1024 83 10000 1.98 198 16:34 01.01.2022
6141 Clouds 8 1024 81 10000 1.99 211 15:33 01.01.2022
6142 Clouds 9 1024 82 10000 2.76 232 14:22 01.01.2022
6143 Clouds 9 1024 77 10000 2.76 232 13:35 01.01.2022
6144 Clouds 9 1024 82 10000 3.68 257 12:18 01.01.2022
6145 Clouds 8 1024 84 10000 3.98 259 11:25 01.01.2022
6146 Clouds 8 1024 85 10000 3.98 259 10:56 01.01.2022
6147 Clouds 8 1024 84 10000 4.19 258 09:48 01.01.2022
6148 Clouds 8 1024 84 10000 4.54 259 08:35 01.01.2022
6149 Clouds 8 1023 84 7525 4.31 261 07:56 01.01.2022
6150 Clouds 8 1023 84 7525 4.31 261 07:37 01.01.2022
6151 Clouds 8 1023 84 10000 4.74 263 06:43 01.01.2022
6152 Clouds 8 1022 85 10000 5.45 262 04:39 01.01.2022
6153 Clouds 8 1022 86 10000 5.2 257 03:50 01.01.2022
6154 Clouds 8 1021 88 7859 5.83 264 23:53 31.12.2021
6155 Clouds 8 1019 89 5333 6 270 22:24 31.12.2021
6156 Clouds 8 1019 87 5333 6 270 21:39 31.12.2021
6157 Clouds 8 1018 85 10000 6.8 269 19:43 31.12.2021
6158 Clouds 8 1017 91 10000 6.31 266 18:50 31.12.2021
6159 Clouds 8 1017 84 10000 7.05 269 17:49 31.12.2021
6160 Clouds 8 1016 84 10000 6.66 256 17:26 31.12.2021
6161 Clouds 8 1016 84 10000 6.66 256 16:52 31.12.2021
6162 Clouds 9 1015 81 10000 6.7 251 16:18 31.12.2021
6163 Clouds 9 1015 80 10000 6.7 251 15:45 31.12.2021
6164 Clouds 9 1016 80 10000 6.41 249 15:26 31.12.2021
6165 Clouds 9 1016 80 10000 6.41 249 15:26 31.12.2021
6166 Clouds 9 1016 79 10000 6.41 249 14:39 31.12.2021
6167 Clouds 9 1016 79 10000 6.57 247 13:51 31.12.2021
6168 Clouds 10 1017 79 10000 7.03 244 12:50 31.12.2021
6169 Clouds 9 1017 83 10000 6.58 241 12:21 31.12.2021
6170 Clouds 9 1017 85 10000 6.58 241 11:42 31.12.2021
6171 Clouds 9 1017 82 10000 6.13 241 10:55 31.12.2021
6172 Clouds 8 1017 86 10000 5.8 239 10:28 31.12.2021
6173 Clouds 8 1017 85 10000 5.8 239 09:34 31.12.2021
6174 Clouds 9 1017 84 10000 6.09 241 08:52 31.12.2021
6175 Clouds 9 1017 83 10000 6.15 240 07:55 31.12.2021
6176 Clouds 8 1017 88 10000 5.49 241 04:54 31.12.2021
6177 Clouds 9 1017 91 10000 5.76 244 23:18 30.12.2021
6178 Clouds 9 1017 90 10000 5.76 244 22:32 30.12.2021
6179 Clouds 9 1016 91 10000 5.75 245 21:39 30.12.2021
6180 Clouds 9 1016 91 9694 5.4 244 21:19 30.12.2021
6181 Clouds 9 1016 91 9694 5.4 244 20:39 30.12.2021
6182 Clouds 9 1016 91 10000 5.47 248 19:56 30.12.2021
6183 Clouds 9 1016 91 10000 5.47 248 19:31 30.12.2021
6184 Clouds 9 1015 93 10000 6.19 254 18:28 30.12.2021
6185 Clouds 9 1014 90 10000 6.64 255 16:53 30.12.2021
6186 Clouds 9 1014 88 10000 7.2 258 15:54 30.12.2021
6187 Clouds 9 1013 88 10000 7.27 258 15:21 30.12.2021
6188 Clouds 9 1013 89 10000 7.27 258 14:36 30.12.2021
6189 Clouds 9 1013 92 3058 6.05 253 13:25 30.12.2021
6190 Clouds 9 1013 92 3058 6.05 253 13:25 30.12.2021
6191 Clouds 7 1013 91 5119 6.1 240 11:58 30.12.2021
6192 Clouds 7 1013 91 2837 4.87 232 10:40 30.12.2021
6193 Clouds 6 1013 92 3401 4.13 230 09:49 30.12.2021
6194 Clouds 6 1013 87 10000 4.84 248 06:59 30.12.2021
6195 Clouds 6 1013 87 10000 4.84 248 06:32 30.12.2021
6196 Clouds 6 1011 90 10000 5.81 264 03:41 30.12.2021
6197 Clouds 5 1010 91 5227 5.47 265 02:32 30.12.2021
6198 Clouds 3 1008 93 4911 3.13 230 23:39 29.12.2021
6199 Clouds 3 1008 93 5144 2.48 210 22:59 29.12.2021
6200 Clouds 3 1008 92 5307 2.07 214 22:18 29.12.2021
6201 Clouds 3 1007 95 2631 1.92 187 21:19 29.12.2021
6202 Clouds 2 1007 95 2631 1.92 187 20:30 29.12.2021
6203 Clouds 2 1007 95 2631 1.92 187 20:30 29.12.2021
6204 Clouds 2 1007 95 2631 1.92 187 20:30 29.12.2021
6205 Clouds 2 1007 95 2631 1.92 187 20:30 29.12.2021
6206 Clouds 3 1007 93 8404 1.98 203 19:38 29.12.2021
6207 Clouds 3 1008 94 8117 2.14 202 18:44 29.12.2021
6208 Clouds 3 1009 95 8217 1.78 208 17:52 29.12.2021
6209 Clouds 3 1009 95 10000 2.3 234 17:27 29.12.2021
6210 Clouds 3 1008 96 7656 2.85 249 16:22 29.12.2021
6211 Clouds 4 1008 94 5263 3.34 256 15:26 29.12.2021
6212 Clouds 4 1007 93 2077 3.74 257 13:53 29.12.2021
6213 Clouds 4 1007 92 2029 3.44 279 12:36 29.12.2021
6214 Clouds 4 1006 93 2374 4.06 274 11:26 29.12.2021
6215 Clouds 3 1005 92 1983 4.11 277 09:56 29.12.2021
6216 Clouds 3 1003 93 391 3.2 266 07:51 29.12.2021
6217 Clouds 2 1002 94 5188 1.86 239 06:38 29.12.2021
6218 Rain 2 1002 93 4952 1.75 222 05:58 29.12.2021
6219 Rain 2 1002 96 4952 1.75 222 05:36 29.12.2021
6220 Clouds 1 999 91 5450 1.21 235 02:22 29.12.2021
6221 Clouds 1 997 93 9942 0.86 194 00:22 29.12.2021
6222 Clouds 1 997 90 9942 0.86 194 23:34 28.12.2021
6223 Rain 1 996 90 10000 1.47 183 22:42 28.12.2021
6224 Rain 2 995 93 10000 2.43 209 22:24 28.12.2021
6225 Rain 2 995 92 10000 2.43 209 21:36 28.12.2021
6226 Clouds 2 995 92 10000 3.09 219 20:36 28.12.2021
6227 Rain 2 994 91 10000 2.95 242 19:24 28.12.2021
6228 Clouds 1 994 92 10000 3.59 239 18:37 28.12.2021
6229 Clouds 2 994 92 9268 4.51 229 17:59 28.12.2021
6230 Rain 1 994 90 4628 2.35 182 16:34 28.12.2021
6231 Rain 2 994 90 4164 2.41 170 15:50 28.12.2021
6232 Clouds 2 994 89 5318 3.25 176 15:20 28.12.2021
6233 Clouds 2 994 89 5318 3.25 176 14:47 28.12.2021
6234 Clouds 2 995 90 5453 3.21 174 14:21 28.12.2021
6235 Clouds 2 995 88 5453 3.21 174 13:42 28.12.2021
6236 Clouds 2 995 88 5453 3.21 174 13:42 28.12.2021
6237 Clouds 2 996 88 5432 3.5 173 13:24 28.12.2021
6238 Clouds 2 996 85 5144 3.5 173 12:49 28.12.2021
6239 Clouds 1 997 95 5516 3.64 176 11:36 28.12.2021
6240 Clouds -1 999 90 5145 2.13 172 08:30 28.12.2021
6241 Clouds -1 999 92 5100 1.92 156 06:42 28.12.2021
6242 Clouds -2 1003 98 5320 2.17 157 23:44 27.12.2021
6243 Clouds -2 1004 83 5215 1.88 159 23:23 27.12.2021
6244 Clouds -2 1004 84 5235 2.08 168 21:42 27.12.2021
6245 Clouds -1 1004 83 5236 1.9 159 21:20 27.12.2021
6246 Clouds -2 1004 87 5201 1.95 162 20:23 27.12.2021
6247 Clouds -2 1004 86 5201 1.95 162 19:41 27.12.2021
6248 Clouds -2 1004 90 5161 1.82 161 18:34 27.12.2021
6249 Clouds -2 1004 90 5262 1.76 163 17:48 27.12.2021
6250 Clouds -2 1003 87 5498 1.68 157 16:40 27.12.2021
6251 Clouds -2 1004 87 5436 1.7 158 15:52 27.12.2021
6252 Clouds -2 1003 86 5585 1.66 156 14:33 27.12.2021
6253 Clouds -2 1004 84 5661 1.58 160 13:40 27.12.2021
6254 Clouds -2 1004 85 5524 1.56 164 12:40 27.12.2021
6255 Clouds -3 1005 90 5278 1.5 156 10:32 27.12.2021
6256 Clouds -4 1005 90 5233 1.65 153 09:47 27.12.2021
6257 Clouds -4 1005 90 5485 1.69 153 08:39 27.12.2021
6258 Clouds -5 1005 90 6660 1.62 150 07:32 27.12.2021
6259 Snow -6 1008 84 5986 1.86 136 02:24 27.12.2021
6260 Clouds -7 1008 83 10000 1.92 134 23:58 26.12.2021
6261 Clouds -7 1008 82 10000 1.92 134 23:40 26.12.2021
6262 Clouds -7 1009 82 10000 1.89 131 22:36 26.12.2021
6263 Clouds -7 1010 74 7607 1.92 129 20:59 26.12.2021
6264 Clouds -8 1010 73 10000 1.9 128 19:49 26.12.2021
6265 Clouds -9 1011 85 10000 1.96 133 18:25 26.12.2021
6266 Clouds -9 1011 83 10000 1.96 133 17:30 26.12.2021
6267 Clear -8 1011 70 10000 2.27 119 14:32 26.12.2021
6268 Clear -8 1011 68 10000 2.41 114 13:43 26.12.2021
6269 Clear -8 1012 67 10000 2.5 114 13:20 26.12.2021
6270 Clear -8 1012 69 10000 2.39 114 12:33 26.12.2021
6271 Clear -10 1013 50 10000 2.34 111 10:48 26.12.2021
6272 Clear -13 1013 83 10000 1.88 115 09:29 26.12.2021
6273 Clear -12 1013 82 10000 1.88 115 08:44 26.12.2021
6274 Clear -13 1013 76 10000 1.82 115 07:59 26.12.2021
6275 Clear -13 1014 65 10000 2.11 108 01:36 26.12.2021
6276 Clear -14 1015 70 10000 2 107 00:20 26.12.2021
6277 Clear -13 1015 69 10000 1.97 109 23:28 25.12.2021
6278 Clear -11 1015 56 10000 1.93 107 22:29 25.12.2021
6279 Clear -12 1015 66 10000 1.93 103 21:29 25.12.2021
6280 Clear -12 1015 71 10000 1.93 105 19:46 25.12.2021
6281 Clear -12 1015 81 10000 1.86 104 19:18 25.12.2021
6282 Clear -12 1014 85 10000 2.01 94 18:26 25.12.2021
6283 Clear -10 1014 70 10000 2 87 16:49 25.12.2021
6284 Clear -8 1014 58 10000 2.06 84 15:30 25.12.2021
6285 Clear -7 1013 59 10000 2.79 86 14:22 25.12.2021
6286 Clouds -8 1013 71 10000 3 84 12:21 25.12.2021
6287 Clouds -8 1013 75 10000 3.06 84 10:38 25.12.2021
6288 Clouds -9 1013 80 10000 2.95 83 09:48 25.12.2021
6289 Clouds -9 1011 82 10000 2.6 78 07:27 25.12.2021
6290 Snow -5 1009 93 2095 2.55 60 01:40 25.12.2021
6291 Snow -5 1009 92 204 2.67 50 00:21 25.12.2021
6292 Snow -4 1007 92 187 2.72 46 21:57 24.12.2021
6293 Snow -3 1004 94 23 1.31 346 19:27 24.12.2021
6294 Snow -3 1004 93 23 1.31 346 18:56 24.12.2021
6295 Snow -1 1004 92 28 1.51 342 16:49 24.12.2021
6296 Snow 1 1003 94 55 2.76 330 15:50 24.12.2021
6297 Clouds 2 1001 95 178 4.89 291 15:25 24.12.2021
6298 Clouds 3 1001 92 178 4.89 291 14:35 24.12.2021
6299 Clouds 3 1000 84 2876 7.18 268 13:59 24.12.2021
6300 Clouds 3 1000 83 2876 7.18 268 13:32 24.12.2021
6301 Clouds 4 1000 86 10000 8.14 262 12:47 24.12.2021
6302 Clouds 4 1000 87 5535 7.85 266 11:46 24.12.2021
6303 Clouds 4 1001 88 1757 7.43 261 11:24 24.12.2021
6304 Clouds 4 1001 86 1757 7.43 261 10:36 24.12.2021
6305 Clouds 4 1000 90 872 6.73 261 09:22 24.12.2021
6306 Clouds 4 1000 91 980 6.88 262 08:19 24.12.2021
6307 Clouds 3 1000 91 980 6.88 262 07:44 24.12.2021
6308 Snow 0 1002 87 2575 5.39 246 00:48 24.12.2021
6309 Snow 0 1003 86 2029 4.91 240 23:54 23.12.2021
6310 Snow -1 1003 85 2105 4.41 237 22:54 23.12.2021
6311 Snow -1 1004 85 4912 4.89 240 22:26 23.12.2021
6312 Snow -1 1004 84 4912 4.89 240 21:59 23.12.2021
6313 Snow -1 1005 82 10000 4.68 237 20:54 23.12.2021
6314 Clouds -2 1006 80 10000 4.39 236 19:39 23.12.2021
6315 Clouds -2 1006 79 10000 4.39 230 18:32 23.12.2021
6316 Clouds -2 1007 78 10000 3.42 227 17:55 23.12.2021
6317 Snow -3 1008 79 10000 2.73 219 16:43 23.12.2021
6318 Snow -3 1009 79 8922 2.36 202 16:23 23.12.2021
6319 Snow -3 1009 75 8922 2.36 202 15:31 23.12.2021
6320 Snow -3 1009 75 8922 2.36 202 15:31 23.12.2021
6321 Snow -3 1010 80 5051 2.67 222 14:43 23.12.2021
6322 Snow -3 1010 75 10000 2.91 227 14:19 23.12.2021
6323 Clouds -3 1011 73 10000 2.79 226 12:48 23.12.2021
6324 Clouds -4 1013 75 10000 2.35 208 10:43 23.12.2021
6325 Snow -5 1014 86 10000 2.18 214 09:35 23.12.2021
6326 Clouds -5 1015 88 10000 1.96 206 08:59 23.12.2021
6327 Clouds -6 1016 72 9423 1.83 208 06:51 23.12.2021
6328 Clouds -6 1017 69 10000 1.8 200 04:30 23.12.2021
6329 Clouds -7 1022 77 10000 1.48 193 22:57 22.12.2021
6330 Clouds -7 1022 76 10000 1.48 193 22:39 22.12.2021
6331 Clouds -7 1023 75 10000 1.56 178 21:54 22.12.2021
6332 Clouds -8 1023 79 10000 1.46 173 21:29 22.12.2021
6333 Clouds -8 1023 80 10000 1.46 173 20:44 22.12.2021
6334 Clouds -8 1023 80 10000 1.46 177 20:25 22.12.2021
6335 Clouds -7 1024 81 10000 1.4 179 19:21 22.12.2021
6336 Clouds -7 1025 86 10000 1.39 178 17:42 22.12.2021
6337 Clouds -6 1025 86 10000 1.51 180 16:39 22.12.2021
6338 Clouds -5 1025 83 10000 1.14 178 15:39 22.12.2021
6339 Clouds -4 1026 81 10000 1.1 193 13:32 22.12.2021
6340 Clouds -4 1026 83 10000 1.3 196 12:40 22.12.2021
6341 Clouds -7 1027 83 10000 1.37 181 10:19 22.12.2021
6342 Clouds -8 1027 80 10000 1.37 181 09:38 22.12.2021
6343 Clouds -8 1028 84 10000 1.35 182 07:25 22.12.2021
6344 Clouds -8 1028 83 10000 1.17 175 05:43 22.12.2021
6345 Clouds -8 1028 83 10000 1.2 174 05:24 22.12.2021
6346 Clouds -8 1028 83 10000 1.2 174 04:50 22.12.2021
6347 Clouds -8 1028 83 10000 1.16 167 04:26 22.12.2021
6348 Clouds -8 1028 84 10000 1.16 167 03:32 22.12.2021
6349 Clear -8 1028 82 10000 1.02 167 00:47 22.12.2021
6350 Clear -8 1028 84 10000 0.8 178 23:25 21.12.2021
6351 Clear -8 1028 85 10000 0.73 166 22:28 21.12.2021
6352 Clear -7 1028 85 10000 0.73 166 21:44 21.12.2021
6353 Clear -8 1028 86 10000 0.63 156 21:22 21.12.2021
6354 Clear -8 1027 88 10000 0.62 168 20:21 21.12.2021
6355 Clear -7 1027 87 10000 0.62 168 19:42 21.12.2021
6356 Clouds -7 1027 88 10000 0.72 167 18:46 21.12.2021
6357 Clouds -7 1027 91 10000 0.59 149 18:21 21.12.2021
6358 Clouds -6 1027 89 10000 0.59 149 17:42 21.12.2021
6359 Clouds -6 1027 87 10000 0.46 80 16:26 21.12.2021
6360 Clouds -4 1026 87 10000 0.15 79 15:25 21.12.2021
6361 Clouds -3 1026 85 10000 0.34 160 13:51 21.12.2021
6362 Clouds -3 1026 83 10000 0.34 160 13:31 21.12.2021
6363 Clouds -4 1027 83 10000 0.38 112 11:57 21.12.2021
6364 Clouds -6 1027 90 10000 0.25 83 10:25 21.12.2021
6365 Clouds -7 1027 84 10000 0.25 83 09:33 21.12.2021
6366 Clouds -7 1027 86 10000 0.48 340 08:28 21.12.2021
6367 Clouds -7 1027 86 10000 0.48 340 07:32 21.12.2021
6368 Clouds -7 1027 86 10000 0.28 308 06:50 21.12.2021
6369 Clouds -7 1028 86 10000 0.45 287 03:18 21.12.2021
6370 Clouds -7 1028 91 10000 0.35 333 23:59 20.12.2021
6371 Clouds -7 1028 91 10000 0.35 333 23:32 20.12.2021
6372 Clouds -6 1029 90 10000 0.56 318 22:33 20.12.2021
6373 Clear -6 1029 86 10000 0.71 321 21:48 20.12.2021
6374 Clear -6 1029 89 10000 0.84 318 21:24 20.12.2021
6375 Clear -6 1029 89 10000 0.84 318 20:48 20.12.2021
6376 Clear -6 1028 87 10000 0.93 325 19:54 20.12.2021
6377 Clear -5 1028 87 10000 0.93 325 19:31 20.12.2021
6378 Clear -5 1028 86 10000 1.04 332 18:55 20.12.2021
6379 Clear -5 1028 86 10000 1.14 342 17:55 20.12.2021
6380 Clear -5 1028 85 10000 1.14 342 17:37 20.12.2021
6381 Clear -3 1028 80 10000 1.2 335 16:43 20.12.2021
6382 Clear -2 1028 72 10000 1.44 328 15:52 20.12.2021
6383 Clear -1 1027 67 10000 1.7 330 14:56 20.12.2021
6384 Clear -1 1027 69 10000 2.21 332 13:18 20.12.2021
6385 Clear -2 1028 78 10000 2.11 327 11:27 20.12.2021
6386 Clear -4 1027 84 10000 1.5 316 09:51 20.12.2021
6387 Clear -4 1027 81 10000 1.5 316 09:31 20.12.2021
6388 Clear -5 1027 83 10000 1.41 320 08:42 20.12.2021
6389 Clear -5 1027 87 10000 1.43 324 07:55 20.12.2021
6390 Clear -5 1027 86 10000 1.43 324 07:31 20.12.2021
6391 Clouds -4 1026 90 10000 1.55 342 04:36 20.12.2021
6392 Clouds 0 1025 88 10000 2.78 324 00:18 20.12.2021
6393 Clouds 0 1025 87 10000 2.23 323 22:53 19.12.2021
6394 Clouds 1 1024 86 10000 2.82 309 21:55 19.12.2021
6395 Clouds 1 1024 85 10000 2.82 309 21:30 19.12.2021
6396 Clouds 2 1024 87 10000 3.82 326 20:34 19.12.2021
6397 Clouds 2 1024 87 10000 5.38 331 19:52 19.12.2021
6398 Clouds 2 1024 90 10000 5.38 331 19:32 19.12.2021
6399 Clouds 2 1023 88 10000 6.21 327 18:30 19.12.2021
6400 Clouds 2 1023 89 10000 6.79 320 17:53 19.12.2021
6401 Clouds 2 1023 89 10000 7 315 17:20 19.12.2021
6402 Clouds 2 1023 90 10000 6.85 306 16:26 19.12.2021
6403 Clouds 2 1023 91 10000 7.31 309 15:43 19.12.2021
6404 Clouds 2 1023 91 10000 6.74 302 15:21 19.12.2021
6405 Clouds 2 1023 90 10000 6.74 302 14:42 19.12.2021
6406 Clouds 2 1024 90 10000 6.15 297 13:24 19.12.2021
6407 Clouds 2 1024 90 10000 6.15 297 12:47 19.12.2021
6408 Clouds 2 1026 90 10000 6.08 299 12:28 19.12.2021
6409 Clouds 2 1026 88 10000 6 299 11:26 19.12.2021
6410 Clouds 2 1027 88 10000 6.46 301 10:28 19.12.2021
6411 Clouds 2 1027 88 10000 6.46 301 09:48 19.12.2021
6412 Clouds 2 1027 88 10000 5.86 294 08:43 19.12.2021
6413 Clouds 2 1029 88 10000 5.47 297 04:45 19.12.2021
6414 Clouds 2 1031 87 10000 4.42 290 01:34 19.12.2021
6415 Clouds 2 1031 87 10000 4.49 292 00:53 19.12.2021
6416 Clouds 3 1032 90 10000 3.98 291 22:50 18.12.2021
6417 Clouds 3 1033 91 10000 3.81 290 22:20 18.12.2021
6418 Clouds 3 1033 91 10000 3.81 290 22:20 18.12.2021
6419 Clouds 2 1033 91 10000 3.81 290 21:41 18.12.2021
6420 Clouds 2 1033 91 10000 3.81 290 21:41 18.12.2021
6421 Clouds 2 1033 92 10000 3.61 286 21:22 18.12.2021
6422 Clouds 2 1034 94 10000 3.19 286 20:20 18.12.2021
6423 Clouds 2 1034 91 10000 2.87 287 19:27 18.12.2021
6424 Clouds 2 1034 91 10000 3.18 301 18:23 18.12.2021
6425 Clouds 2 1034 91 10000 3.18 301 17:49 18.12.2021
6426 Clouds 2 1035 91 10000 2.94 302 16:26 18.12.2021
6427 Clouds 2 1035 90 10000 2.94 302 15:48 18.12.2021
6428 Clouds 3 1035 91 10000 2.73 298 14:51 18.12.2021
6429 Clouds 3 1036 90 5089 2.16 278 13:29 18.12.2021
6430 Clouds 3 1036 90 5089 2.16 278 13:29 18.12.2021
6431 Clouds 3 1037 93 5328 2.19 287 11:47 18.12.2021
6432 Clouds 2 1038 92 5239 1.7 277 09:53 18.12.2021
6433 Clouds 2 1038 92 5239 1.7 277 09:30 18.12.2021
6434 Clouds 2 1038 93 5174 1.53 271 08:35 18.12.2021
6435 Clouds 2 1037 94 7568 1.4 296 06:27 18.12.2021
6436 Clouds 1 1039 94 5101 1.24 301 00:42 18.12.2021
6437 Clouds 2 1039 90 5101 1.28 292 23:46 17.12.2021
6438 Clouds 1 1039 88 6058 1.41 291 22:18 17.12.2021
6439 Clouds 1 1039 86 10000 1.61 306 21:28 17.12.2021
6440 Clouds 2 1039 84 10000 1.61 306 20:42 17.12.2021
6441 Clouds 1 1039 87 10000 1.55 305 19:50 17.12.2021
6442 Clear 1 1039 87 10000 1.33 311 18:39 17.12.2021
6443 Clear 2 1039 88 10000 1.41 311 17:47 17.12.2021
6444 Clear 1 1039 90 10000 1.61 303 16:50 17.12.2021
6445 Clear 2 1039 90 10000 1.48 304 16:27 17.12.2021
6446 Clear 2 1038 86 10000 1.7 297 15:27 17.12.2021
6447 Clear 3 1038 86 10000 1.7 297 14:42 17.12.2021
6448 Clear 3 1038 88 10000 1.87 303 13:35 17.12.2021
6449 Clouds 3 1038 90 10000 2.28 313 12:28 17.12.2021
6450 Clouds 2 1039 91 10000 2.08 319 10:41 17.12.2021
6451 Clouds 2 1038 90 10000 1.83 300 09:47 17.12.2021
6452 Clouds 2 1038 89 10000 1.6 304 08:31 17.12.2021
6453 Clouds 2 1038 83 10000 2.04 307 07:21 17.12.2021
6454 Clouds 2 1039 83 10000 1.09 324 04:40 17.12.2021
6455 Clouds 1 1039 88 10000 1.4 285 00:22 17.12.2021
6456 Clouds 3 1039 84 10000 1.66 305 22:24 16.12.2021
6457 Clouds 3 1039 84 10000 1.66 305 21:51 16.12.2021
6458 Clouds 3 1039 85 10000 1.66 305 21:33 16.12.2021
6459 Clouds 3 1039 89 10000 1.6 308 20:31 16.12.2021
6460 Clouds 3 1038 89 10000 1.59 302 19:51 16.12.2021
6461 Clouds 3 1038 91 10000 1.98 321 18:42 16.12.2021
6462 Clouds 4 1037 91 10000 2.1 323 18:22 16.12.2021
6463 Clouds 4 1037 92 10000 2.1 323 17:32 16.12.2021
6464 Clouds 4 1037 91 6689 1.34 301 16:23 16.12.2021
6465 Clouds 4 1036 91 5125 1.41 283 15:22 16.12.2021
6466 Clouds 4 1036 88 5404 1.41 304 13:44 16.12.2021
6467 Clouds 4 1036 89 5308 1.59 274 11:48 16.12.2021
6468 Clouds 4 1036 90 5699 1.51 291 11:18 16.12.2021
6469 Clouds 3 1036 90 5699 1.51 291 10:32 16.12.2021
6470 Clouds 3 1035 90 8402 1.53 296 09:39 16.12.2021
6471 Clouds 2 1033 96 10000 1.73 265 06:23 16.12.2021
6472 Clouds 3 1033 77 9792 2.21 264 03:19 16.12.2021
6473 Clouds 4 1032 84 10000 2.43 264 23:36 15.12.2021
6474 Clouds 4 1032 84 10000 2.29 265 22:49 15.12.2021
6475 Clouds 4 1032 84 10000 2.4 262 22:19 15.12.2021
6476 Clouds 4 1032 85 10000 2.4 262 21:31 15.12.2021
6477 Clouds 4 1032 83 10000 2.68 261 20:32 15.12.2021
6478 Clouds 4 1032 83 10000 2.59 257 19:53 15.12.2021
6479 Clouds 4 1031 80 10000 2.23 247 18:41 15.12.2021
6480 Clouds 4 1031 86 10000 2.6 238 18:18 15.12.2021
6481 Clouds 4 1031 86 10000 2.6 238 17:40 15.12.2021
6482 Clouds 4 1031 85 10000 2.91 239 16:57 15.12.2021
6483 Clouds 4 1031 87 10000 2.7 238 15:47 15.12.2021
6484 Clouds 4 1031 88 10000 2.72 244 15:29 15.12.2021
6485 Clouds 4 1030 90 10000 2.84 245 14:44 15.12.2021
6486 Clouds 4 1031 90 10000 2.72 244 14:44 15.12.2021
6487 Clouds 4 1030 88 6037 2.72 236 13:27 15.12.2021
6488 Clouds 4 1031 86 5279 2.38 229 10:58 15.12.2021
6489 Clouds 3 1030 90 5122 2.14 225 09:38 15.12.2021
6490 Clouds 3 1030 89 5098 1.97 215 07:52 15.12.2021
6491 Clouds 3 1029 89 5564 2.14 227 03:58 15.12.2021
6492 Clouds 3 1030 87 10000 2.09 228 23:46 14.12.2021
6493 Clouds 3 1029 89 10000 2.06 225 22:52 14.12.2021
6494 Clouds 3 1029 87 10000 2.06 225 22:34 14.12.2021
6495 Clouds 3 1029 86 6390 1.94 219 21:25 14.12.2021
6496 Clouds 3 1029 86 5415 1.98 219 20:18 14.12.2021
6497 Clouds 3 1028 89 5350 1.92 221 19:21 14.12.2021
6498 Clouds 3 1028 90 5448 1.78 224 18:38 14.12.2021
6499 Clouds 3 1028 89 5486 1.68 225 17:50 14.12.2021
6500 Clouds 3 1028 88 6650 1.88 234 16:43 14.12.2021
6501 Clouds 3 1028 88 6650 1.88 234 16:43 14.12.2021
6502 Clouds 3 1027 86 7577 1.81 244 15:54 14.12.2021
6503 Clouds 3 1027 85 10000 2.13 253 13:35 14.12.2021
6504 Clouds 3 1027 81 10000 2.09 257 12:47 14.12.2021
6505 Clouds 3 1027 81 10000 2.34 245 11:25 14.12.2021
6506 Clouds 3 1027 86 10000 1.95 241 10:28 14.12.2021
6507 Clouds 3 1027 86 10000 1.95 241 09:53 14.12.2021
6508 Clouds 2 1027 74 6516 1.91 224 08:40 14.12.2021
6509 Clouds 2 1026 74 8555 1.96 225 08:20 14.12.2021
6510 Clouds 2 1026 96 9797 1.91 204 06:27 14.12.2021
6511 Clouds 3 1028 86 10000 1.55 210 23:42 13.12.2021
6512 Clouds 3 1028 87 10000 1.62 209 22:18 13.12.2021
6513 Clouds 3 1028 87 10000 1.62 209 21:34 13.12.2021
6514 Clouds 3 1029 88 10000 1.59 205 20:50 13.12.2021
6515 Clouds 3 1029 87 10000 1.6 210 20:20 13.12.2021
6516 Clouds 3 1029 87 10000 1.6 210 19:49 13.12.2021
6517 Clouds 3 1029 85 10000 1.16 222 17:27 13.12.2021
6518 Clouds 4 1028 85 10000 1.5 238 16:24 13.12.2021
6519 Clouds 4 1028 85 10000 1.5 238 15:43 13.12.2021
6520 Clouds 4 1028 85 10000 2.07 252 13:57 13.12.2021
6521 Clouds 4 1028 85 10000 2.07 252 13:31 13.12.2021
6522 Clouds 4 1027 85 6822 1.78 248 12:39 13.12.2021
6523 Clouds 4 1027 87 7017 1.86 249 11:44 13.12.2021
6524 Clouds 4 1027 85 2668 1.75 246 11:24 13.12.2021
6525 Clouds 3 1027 89 2003 1.52 247 10:21 13.12.2021
6526 Clouds 3 1027 90 2046 1.53 245 08:43 13.12.2021
6527 Clouds 3 1026 90 1987 1.63 240 05:38 13.12.2021
6528 Clouds 2 1026 97 2066 1.67 239 04:52 13.12.2021
6529 Clouds 1 1025 97 2343 1.88 235 23:55 12.12.2021
6530 Snow 1 1024 90 5134 1.97 233 21:57 12.12.2021
6531 Rain 1 1024 87 5200 2.05 234 20:48 12.12.2021
6532 Snow 0 1024 97 4965 2.21 236 19:34 12.12.2021
6533 Snow 1 1023 85 4199 2.36 231 17:58 12.12.2021
6534 Snow 1 1023 86 4764 2.93 225 16:29 12.12.2021
6535 Snow 0 1023 96 4764 2.93 225 15:54 12.12.2021
6536 Snow 1 1023 85 5105 3.11 218 15:28 12.12.2021
6537 Snow 0 1023 84 5105 3.11 218 14:42 12.12.2021
6538 Clouds 0 1023 84 5301 3.22 219 13:56 12.12.2021
6539 Clouds 0 1023 83 5538 4 218 12:48 12.12.2021
6540 Clouds -1 1022 85 10000 4.26 210 11:45 12.12.2021
6541 Clouds -1 1023 84 10000 3.78 203 11:25 12.12.2021
6542 Clouds -1 1023 79 10000 3.78 203 10:43 12.12.2021
6543 Snow -1 1023 81 9417 3.41 202 09:48 12.12.2021
6544 Snow -2 1024 77 7246 3.1 208 08:44 12.12.2021
6545 Clouds -2 1023 76 10000 2.83 213 06:55 12.12.2021
6546 Clouds -3 1024 84 10000 2.01 205 05:28 12.12.2021
6547 Clouds -2 1024 83 10000 1.87 203 04:18 12.12.2021
6548 Clouds -3 1023 82 10000 2.08 225 00:45 12.12.2021
6549 Clouds -4 1023 80 10000 1.81 229 22:42 11.12.2021
6550 Clouds -4 1022 83 10000 1.83 226 22:20 11.12.2021
6551 Clouds -4 1022 78 10000 1.88 224 21:26 11.12.2021
6552 Clouds -4 1021 82 10000 1.77 218 19:50 11.12.2021
6553 Clouds -4 1020 76 10000 1.71 220 19:21 11.12.2021
6554 Clouds -4 1020 73 10000 1.92 230 18:42 11.12.2021
6555 Clouds -4 1019 79 10000 1.87 231 17:48 11.12.2021
6556 Clouds -3 1018 76 10000 1.87 227 15:58 11.12.2021
6557 Clouds -3 1018 75 10000 1.87 227 15:39 11.12.2021
6558 Clouds -1 1017 75 10000 1.77 239 14:33 11.12.2021
6559 Clouds -2 1014 73 10000 2.17 264 12:29 11.12.2021
6560 Clouds -3 1014 80 10000 1.81 260 10:49 11.12.2021
6561 Clouds -3 1013 77 10000 1.28 260 09:40 11.12.2021
6562 Clouds -6 1007 83 10000 1.02 321 03:57 11.12.2021
6563 Clouds -5 1003 88 10000 0.83 7 00:48 11.12.2021
6564 Clouds -5 1003 84 10000 0.51 28 23:44 10.12.2021
6565 Clouds -5 1002 83 10000 0.38 79 22:39 10.12.2021
6566 Clouds -5 1001 83 10000 0.66 107 21:40 10.12.2021
6567 Clouds -5 999 79 10000 1.25 115 20:28 10.12.2021
6568 Clouds -5 998 78 10000 1.53 105 19:19 10.12.2021
6569 Clouds -4 998 75 10000 1.55 102 17:46 10.12.2021
6570 Clouds -2 997 77 10000 1.44 102 16:37 10.12.2021
6571 Clouds -1 997 66 10000 1.36 116 15:45 10.12.2021
6572 Clouds -1 996 69 10000 1.69 157 15:26 10.12.2021
6573 Clouds 0 996 67 10000 1.69 157 14:49 10.12.2021
6574 Clouds 0 996 73 10000 2.67 171 13:50 10.12.2021
6575 Clouds 0 996 73 10000 2.8 167 12:56 10.12.2021
6576 Clouds 0 996 73 10000 2.8 167 12:56 10.12.2021
6577 Clouds -1 997 77 10000 2.52 157 11:43 10.12.2021
6578 Clouds -1 997 77 10000 2.21 166 11:19 10.12.2021
6579 Clouds -2 997 80 10000 2.23 156 09:49 10.12.2021
6580 Clouds -2 998 79 8032 1.43 145 07:49 10.12.2021
6581 Clouds -2 1000 79 6304 1.49 181 04:57 10.12.2021
6582 Clouds -2 1001 78 6366 1.78 188 02:44 10.12.2021
6583 Clouds -2 1004 80 10000 2.02 172 23:43 09.12.2021
6584 Clouds -2 1004 79 10000 2.28 197 22:43 09.12.2021
6585 Clouds -2 1005 80 10000 2.43 207 22:23 09.12.2021
6586 Clouds -2 1005 85 10000 2.43 207 21:40 09.12.2021
6587 Clouds -2 1006 85 10000 2.75 220 20:36 09.12.2021
6588 Clouds -1 1006 82 10000 2.15 213 19:46 09.12.2021
6589 Clouds -1 1006 82 10000 2.15 213 19:45 09.12.2021
6590 Clouds -1 1006 82 10000 1.78 220 19:20 09.12.2021
6591 Clouds -2 1006 93 10000 1.22 204 18:22 09.12.2021
6592 Clouds -2 1006 84 10000 1.22 204 17:48 09.12.2021
6593 Clouds -2 1006 84 10000 1.5 205 17:24 09.12.2021
6594 Clouds -2 1006 84 10000 1.5 205 16:41 09.12.2021
6595 Clouds 0 1005 79 10000 1.26 221 15:31 09.12.2021
6596 Clouds 0 1005 80 10000 0.9 224 14:43 09.12.2021
6597 Clouds 0 1005 81 10000 1.71 289 12:49 09.12.2021
6598 Clouds 0 1005 84 10000 1.37 264 12:24 09.12.2021
6599 Clouds -2 1004 87 10000 1.85 292 10:40 09.12.2021
6600 Clouds -3 1004 88 937 0.43 271 08:19 09.12.2021
6601 Clouds -2 1004 88 10000 0.68 297 03:59 09.12.2021
6602 Clouds -2 1003 87 10000 0.63 325 01:43 09.12.2021
6603 Clouds -2 1003 87 9289 0.66 330 23:38 08.12.2021
6604 Clouds -2 1004 86 10000 0.29 213 22:59 08.12.2021
6605 Clouds -2 1004 86 10000 0.29 213 22:37 08.12.2021
6606 Clouds -2 1003 89 10000 0.39 196 21:39 08.12.2021
6607 Clouds -2 1003 89 10000 0.39 196 21:39 08.12.2021
6608 Clouds -2 1003 85 10000 0.33 162 20:58 08.12.2021
6609 Clouds -2 1003 85 10000 0.74 188 19:57 08.12.2021
6610 Clouds -2 1002 88 10000 1.12 167 19:29 08.12.2021
6611 Clouds -2 1002 87 10000 1.07 129 18:28 08.12.2021
6612 Clouds -2 1002 87 10000 1.34 127 17:24 08.12.2021
6613 Clouds -1 1002 83 10000 1.27 134 15:45 08.12.2021
6614 Clouds -1 1001 79 10000 1.37 147 15:23 08.12.2021
6615 Clouds -1 1001 83 10000 1.44 151 13:40 08.12.2021
6616 Clouds -2 1001 85 10000 2.26 175 10:53 08.12.2021
6617 Clouds -2 1001 85 10000 2.78 191 10:24 08.12.2021
6618 Clouds -2 1001 86 10000 3.32 181 08:54 08.12.2021
6619 Snow -3 1001 85 5382 4.15 173 07:21 08.12.2021
6620 Clouds -2 1003 77 10000 4.12 139 01:21 08.12.2021
6621 Clouds -2 1005 72 10000 3.35 140 23:31 07.12.2021
6622 Clouds -3 1008 85 10000 2.47 150 21:26 07.12.2021
6623 Clouds -2 1008 80 10000 2.47 150 20:30 07.12.2021
6624 Clouds -2 1009 88 9879 2.35 171 19:48 07.12.2021
6625 Clouds -2 1009 83 9209 1.97 180 18:37 07.12.2021
6626 Clouds -2 1010 88 2129 1.48 173 17:27 07.12.2021
6627 Clouds -2 1010 88 2129 1.48 173 16:57 07.12.2021
6628 Snow -2 1010 87 1971 1.47 180 16:28 07.12.2021
6629 Snow -1 1010 86 4889 1.45 203 14:50 07.12.2021
6630 Clouds -1 1010 83 8487 1.1 207 13:46 07.12.2021
6631 Clouds -1 1010 83 10000 1.69 259 12:41 07.12.2021
6632 Clouds -2 1009 84 10000 1.15 237 11:25 07.12.2021
6633 Clouds -3 1009 85 10000 0.87 171 09:44 07.12.2021
6634 Clouds -3 1008 76 7939 1.48 155 07:55 07.12.2021
6635 Snow -3 1007 84 5282 3.42 170 05:55 07.12.2021
6636 Snow -3 1007 85 5095 4.45 190 05:30 07.12.2021
6637 Clouds -3 1011 86 10000 2.81 150 23:45 06.12.2021
6638 Clouds -4 1012 86 10000 2.44 153 22:44 06.12.2021
6639 Clouds -4 1012 85 10000 2.5 147 22:18 06.12.2021
6640 Clouds -4 1012 85 10000 2.5 147 21:42 06.12.2021
6641 Clouds -4 1013 84 10000 2.43 150 20:33 06.12.2021
6642 Clouds -4 1013 88 9423 2.12 152 19:27 06.12.2021
6643 Clouds -4 1014 89 10000 1.94 147 18:57 06.12.2021
6644 Clouds -3 1014 91 10000 1.51 162 17:56 06.12.2021
6645 Clouds -3 1014 91 10000 1.51 162 17:37 06.12.2021
6646 Clouds -3 1014 88 9187 1.34 172 16:22 06.12.2021
6647 Clouds -3 1014 88 9187 1.34 172 15:38 06.12.2021
6648 Clouds -3 1015 89 10000 1.38 184 13:46 06.12.2021
6649 Clouds -3